<?xml version="1.0" encoding="UTF-8" standalone="no" ?>
<gpx xmlns="http://www.topografix.com/GPX/1/1" xmlns:xsi="http://www.w3.org/2001/XMLSchema-instance" xsi:schemaLocation="http://www.topografix.com/GPX/1/1 http://www.topografix.com/GPX/1/1/gpx.xsd" version="1.1" creator="VisuGPX - https://www.visugpx.com">
  <metadata>
    <name>20 km boucle à partir de Saint Cyr L'école</name>
    <desc><![CDATA[20 km boucle à partir de Saint Cyr L'école, Petit Jouy Les Loges]]></desc>
  </metadata>
  <trk>
    <name><![CDATA[14-JAN-17 04:49:57 PM]]></name>
    <trkseg>
      <trkpt lat="48.79389" lon="2.06354">
        <ele>113.09</ele>
        <time>2017-01-14T07:50:54Z</time>
      </trkpt>
      <trkpt lat="48.79389" lon="2.06355">
        <ele>116.94</ele>
        <time>2017-01-14T07:50:56Z</time>
      </trkpt>
      <trkpt lat="48.79389" lon="2.06355">
        <ele>121.26</ele>
        <time>2017-01-14T07:50:58Z</time>
      </trkpt>
      <trkpt lat="48.79389" lon="2.06355">
        <ele>120.78</ele>
        <time>2017-01-14T07:50:59Z</time>
      </trkpt>
      <trkpt lat="48.79389" lon="2.06355">
        <ele>124.15</ele>
        <time>2017-01-14T07:51:01Z</time>
      </trkpt>
      <trkpt lat="48.79389" lon="2.06355">
        <ele>127.99</ele>
        <time>2017-01-14T07:51:04Z</time>
      </trkpt>
      <trkpt lat="48.79389" lon="2.06356">
        <ele>130.4</ele>
        <time>2017-01-14T07:51:07Z</time>
      </trkpt>
      <trkpt lat="48.79389" lon="2.06355">
        <ele>134.24</ele>
        <time>2017-01-14T07:51:09Z</time>
      </trkpt>
      <trkpt lat="48.7939" lon="2.06355">
        <ele>134.24</ele>
        <time>2017-01-14T07:51:10Z</time>
      </trkpt>
      <trkpt lat="48.7939" lon="2.06355">
        <ele>138.09</ele>
        <time>2017-01-14T07:51:14Z</time>
      </trkpt>
      <trkpt lat="48.79391" lon="2.06354">
        <ele>141.45</ele>
        <time>2017-01-14T07:51:18Z</time>
      </trkpt>
      <trkpt lat="48.79396" lon="2.0635">
        <ele>146.26</ele>
        <time>2017-01-14T07:51:24Z</time>
      </trkpt>
      <trkpt lat="48.79398" lon="2.0635">
        <ele>147.7</ele>
        <time>2017-01-14T07:51:26Z</time>
      </trkpt>
      <trkpt lat="48.79404" lon="2.06352">
        <ele>151.06</ele>
        <time>2017-01-14T07:51:33Z</time>
      </trkpt>
      <trkpt lat="48.79403" lon="2.06352">
        <ele>153.95</ele>
        <time>2017-01-14T07:51:39Z</time>
      </trkpt>
      <trkpt lat="48.79403" lon="2.06351">
        <ele>155.87</ele>
        <time>2017-01-14T07:51:46Z</time>
      </trkpt>
      <trkpt lat="48.79403" lon="2.06351">
        <ele>157.79</ele>
        <time>2017-01-14T07:51:54Z</time>
      </trkpt>
      <trkpt lat="48.79404" lon="2.06353">
        <ele>158.75</ele>
        <time>2017-01-14T07:52:00Z</time>
      </trkpt>
      <trkpt lat="48.79404" lon="2.06354">
        <ele>160.2</ele>
        <time>2017-01-14T07:52:12Z</time>
      </trkpt>
      <trkpt lat="48.79404" lon="2.06353">
        <ele>160.68</ele>
        <time>2017-01-14T07:52:20Z</time>
      </trkpt>
      <trkpt lat="48.79411" lon="2.06357">
        <ele>161.16</ele>
        <time>2017-01-14T07:52:28Z</time>
      </trkpt>
      <trkpt lat="48.79414" lon="2.06357">
        <ele>161.64</ele>
        <time>2017-01-14T07:52:34Z</time>
      </trkpt>
      <trkpt lat="48.79414" lon="2.06356">
        <ele>162.12</ele>
        <time>2017-01-14T07:52:40Z</time>
      </trkpt>
      <trkpt lat="48.79414" lon="2.06355">
        <ele>162.12</ele>
        <time>2017-01-14T07:52:47Z</time>
      </trkpt>
      <trkpt lat="48.79415" lon="2.06356">
        <ele>162.12</ele>
        <time>2017-01-14T07:52:55Z</time>
      </trkpt>
      <trkpt lat="48.79415" lon="2.06357">
        <ele>162.12</ele>
        <time>2017-01-14T07:53:01Z</time>
      </trkpt>
      <trkpt lat="48.79416" lon="2.06357">
        <ele>162.12</ele>
        <time>2017-01-14T07:53:09Z</time>
      </trkpt>
      <trkpt lat="48.79416" lon="2.06359">
        <ele>162.12</ele>
        <time>2017-01-14T07:53:25Z</time>
      </trkpt>
      <trkpt lat="48.79416" lon="2.06359">
        <ele>162.12</ele>
        <time>2017-01-14T07:53:33Z</time>
      </trkpt>
      <trkpt lat="48.79416" lon="2.06359">
        <ele>162.12</ele>
        <time>2017-01-14T07:53:41Z</time>
      </trkpt>
      <trkpt lat="48.79416" lon="2.06359">
        <ele>162.12</ele>
        <time>2017-01-14T07:53:51Z</time>
      </trkpt>
      <trkpt lat="48.79416" lon="2.06359">
        <ele>162.12</ele>
        <time>2017-01-14T07:53:57Z</time>
      </trkpt>
      <trkpt lat="48.79417" lon="2.06359">
        <ele>162.12</ele>
        <time>2017-01-14T07:54:08Z</time>
      </trkpt>
      <trkpt lat="48.79416" lon="2.06359">
        <ele>162.12</ele>
        <time>2017-01-14T07:54:14Z</time>
      </trkpt>
      <trkpt lat="48.79411" lon="2.06358">
        <ele>161.64</ele>
        <time>2017-01-14T07:54:21Z</time>
      </trkpt>
      <trkpt lat="48.79408" lon="2.06357">
        <ele>162.12</ele>
        <time>2017-01-14T07:54:29Z</time>
      </trkpt>
      <trkpt lat="48.79407" lon="2.06357">
        <ele>162.12</ele>
        <time>2017-01-14T07:54:36Z</time>
      </trkpt>
      <trkpt lat="48.79407" lon="2.06357">
        <ele>162.12</ele>
        <time>2017-01-14T07:54:45Z</time>
      </trkpt>
      <trkpt lat="48.79406" lon="2.06357">
        <ele>162.12</ele>
        <time>2017-01-14T07:54:54Z</time>
      </trkpt>
      <trkpt lat="48.79406" lon="2.06358">
        <ele>162.12</ele>
        <time>2017-01-14T07:55:06Z</time>
      </trkpt>
      <trkpt lat="48.79406" lon="2.06358">
        <ele>162.12</ele>
        <time>2017-01-14T07:55:12Z</time>
      </trkpt>
      <trkpt lat="48.79407" lon="2.06358">
        <ele>161.64</ele>
        <time>2017-01-14T07:55:14Z</time>
      </trkpt>
      <trkpt lat="48.79409" lon="2.06359">
        <ele>161.64</ele>
        <time>2017-01-14T07:55:20Z</time>
      </trkpt>
      <trkpt lat="48.7941" lon="2.06358">
        <ele>162.12</ele>
        <time>2017-01-14T07:55:31Z</time>
      </trkpt>
      <trkpt lat="48.79409" lon="2.06358">
        <ele>161.64</ele>
        <time>2017-01-14T07:55:40Z</time>
      </trkpt>
      <trkpt lat="48.79406" lon="2.06355">
        <ele>162.12</ele>
        <time>2017-01-14T07:55:47Z</time>
      </trkpt>
      <trkpt lat="48.79402" lon="2.06354">
        <ele>162.12</ele>
        <time>2017-01-14T07:55:54Z</time>
      </trkpt>
      <trkpt lat="48.79402" lon="2.06353">
        <ele>161.64</ele>
        <time>2017-01-14T07:55:59Z</time>
      </trkpt>
      <trkpt lat="48.794" lon="2.06352">
        <ele>161.64</ele>
        <time>2017-01-14T07:56:05Z</time>
      </trkpt>
      <trkpt lat="48.794" lon="2.0635">
        <ele>161.64</ele>
        <time>2017-01-14T07:56:13Z</time>
      </trkpt>
      <trkpt lat="48.794" lon="2.06351">
        <ele>161.64</ele>
        <time>2017-01-14T07:56:19Z</time>
      </trkpt>
      <trkpt lat="48.79399" lon="2.06351">
        <ele>161.64</ele>
        <time>2017-01-14T07:56:25Z</time>
      </trkpt>
      <trkpt lat="48.79399" lon="2.06351">
        <ele>161.64</ele>
        <time>2017-01-14T07:56:34Z</time>
      </trkpt>
      <trkpt lat="48.794" lon="2.06351">
        <ele>161.64</ele>
        <time>2017-01-14T07:56:41Z</time>
      </trkpt>
      <trkpt lat="48.794" lon="2.06352">
        <ele>161.64</ele>
        <time>2017-01-14T07:56:51Z</time>
      </trkpt>
      <trkpt lat="48.794" lon="2.06352">
        <ele>161.64</ele>
        <time>2017-01-14T07:57:00Z</time>
      </trkpt>
      <trkpt lat="48.79399" lon="2.06352">
        <ele>161.64</ele>
        <time>2017-01-14T07:57:12Z</time>
      </trkpt>
      <trkpt lat="48.794" lon="2.06352">
        <ele>161.64</ele>
        <time>2017-01-14T07:57:19Z</time>
      </trkpt>
      <trkpt lat="48.794" lon="2.06352">
        <ele>161.64</ele>
        <time>2017-01-14T07:57:27Z</time>
      </trkpt>
      <trkpt lat="48.79399" lon="2.06352">
        <ele>161.64</ele>
        <time>2017-01-14T07:57:36Z</time>
      </trkpt>
      <trkpt lat="48.79399" lon="2.06352">
        <ele>161.64</ele>
        <time>2017-01-14T07:57:43Z</time>
      </trkpt>
      <trkpt lat="48.79399" lon="2.06351">
        <ele>161.64</ele>
        <time>2017-01-14T07:57:53Z</time>
      </trkpt>
      <trkpt lat="48.79398" lon="2.06351">
        <ele>161.64</ele>
        <time>2017-01-14T07:58:04Z</time>
      </trkpt>
      <trkpt lat="48.79398" lon="2.06352">
        <ele>162.12</ele>
        <time>2017-01-14T07:58:10Z</time>
      </trkpt>
      <trkpt lat="48.79398" lon="2.06351">
        <ele>162.12</ele>
        <time>2017-01-14T07:58:21Z</time>
      </trkpt>
      <trkpt lat="48.79398" lon="2.0635">
        <ele>162.12</ele>
        <time>2017-01-14T07:58:30Z</time>
      </trkpt>
      <trkpt lat="48.79399" lon="2.06352">
        <ele>162.12</ele>
        <time>2017-01-14T07:58:35Z</time>
      </trkpt>
      <trkpt lat="48.79398" lon="2.06352">
        <ele>162.12</ele>
        <time>2017-01-14T07:58:44Z</time>
      </trkpt>
      <trkpt lat="48.79398" lon="2.06352">
        <ele>162.12</ele>
        <time>2017-01-14T07:58:53Z</time>
      </trkpt>
      <trkpt lat="48.79399" lon="2.06353">
        <ele>162.12</ele>
        <time>2017-01-14T07:59:03Z</time>
      </trkpt>
      <trkpt lat="48.79399" lon="2.06353">
        <ele>162.12</ele>
        <time>2017-01-14T07:59:11Z</time>
      </trkpt>
      <trkpt lat="48.79398" lon="2.06353">
        <ele>161.64</ele>
        <time>2017-01-14T07:59:20Z</time>
      </trkpt>
      <trkpt lat="48.79398" lon="2.06353">
        <ele>162.12</ele>
        <time>2017-01-14T07:59:31Z</time>
      </trkpt>
      <trkpt lat="48.79398" lon="2.06353">
        <ele>162.12</ele>
        <time>2017-01-14T07:59:41Z</time>
      </trkpt>
      <trkpt lat="48.79398" lon="2.06353">
        <ele>162.12</ele>
        <time>2017-01-14T07:59:52Z</time>
      </trkpt>
      <trkpt lat="48.79398" lon="2.06354">
        <ele>162.12</ele>
        <time>2017-01-14T08:00:04Z</time>
      </trkpt>
      <trkpt lat="48.79398" lon="2.06354">
        <ele>162.12</ele>
        <time>2017-01-14T08:00:14Z</time>
      </trkpt>
      <trkpt lat="48.79398" lon="2.06354">
        <ele>162.12</ele>
        <time>2017-01-14T08:00:23Z</time>
      </trkpt>
      <trkpt lat="48.79398" lon="2.06354">
        <ele>162.12</ele>
        <time>2017-01-14T08:00:32Z</time>
      </trkpt>
      <trkpt lat="48.79398" lon="2.06355">
        <ele>162.12</ele>
        <time>2017-01-14T08:00:41Z</time>
      </trkpt>
      <trkpt lat="48.79398" lon="2.06355">
        <ele>162.12</ele>
        <time>2017-01-14T08:00:50Z</time>
      </trkpt>
      <trkpt lat="48.79398" lon="2.06355">
        <ele>162.12</ele>
        <time>2017-01-14T08:01:01Z</time>
      </trkpt>
      <trkpt lat="48.79398" lon="2.06355">
        <ele>162.12</ele>
        <time>2017-01-14T08:01:09Z</time>
      </trkpt>
      <trkpt lat="48.79398" lon="2.06354">
        <ele>162.12</ele>
        <time>2017-01-14T08:01:20Z</time>
      </trkpt>
      <trkpt lat="48.79398" lon="2.06354">
        <ele>162.12</ele>
        <time>2017-01-14T08:01:30Z</time>
      </trkpt>
      <trkpt lat="48.79398" lon="2.06354">
        <ele>162.12</ele>
        <time>2017-01-14T08:01:38Z</time>
      </trkpt>
      <trkpt lat="48.79398" lon="2.06354">
        <ele>162.12</ele>
        <time>2017-01-14T08:01:49Z</time>
      </trkpt>
      <trkpt lat="48.79398" lon="2.06354">
        <ele>162.12</ele>
        <time>2017-01-14T08:01:57Z</time>
      </trkpt>
      <trkpt lat="48.79398" lon="2.06355">
        <ele>162.12</ele>
        <time>2017-01-14T08:02:03Z</time>
      </trkpt>
      <trkpt lat="48.79398" lon="2.06355">
        <ele>162.12</ele>
        <time>2017-01-14T08:02:13Z</time>
      </trkpt>
      <trkpt lat="48.79398" lon="2.06355">
        <ele>162.12</ele>
        <time>2017-01-14T08:02:22Z</time>
      </trkpt>
      <trkpt lat="48.79398" lon="2.06356">
        <ele>162.12</ele>
        <time>2017-01-14T08:02:29Z</time>
      </trkpt>
      <trkpt lat="48.79398" lon="2.06356">
        <ele>162.12</ele>
        <time>2017-01-14T08:02:41Z</time>
      </trkpt>
      <trkpt lat="48.79398" lon="2.06355">
        <ele>162.12</ele>
        <time>2017-01-14T08:02:49Z</time>
      </trkpt>
      <trkpt lat="48.79398" lon="2.06355">
        <ele>162.12</ele>
        <time>2017-01-14T08:02:55Z</time>
      </trkpt>
      <trkpt lat="48.79398" lon="2.06355">
        <ele>162.12</ele>
        <time>2017-01-14T08:03:03Z</time>
      </trkpt>
      <trkpt lat="48.79398" lon="2.06356">
        <ele>162.12</ele>
        <time>2017-01-14T08:03:11Z</time>
      </trkpt>
      <trkpt lat="48.79398" lon="2.06355">
        <ele>162.12</ele>
        <time>2017-01-14T08:03:18Z</time>
      </trkpt>
      <trkpt lat="48.79399" lon="2.06355">
        <ele>162.12</ele>
        <time>2017-01-14T08:03:33Z</time>
      </trkpt>
      <trkpt lat="48.79398" lon="2.06354">
        <ele>162.12</ele>
        <time>2017-01-14T08:03:41Z</time>
      </trkpt>
      <trkpt lat="48.79398" lon="2.06354">
        <ele>162.12</ele>
        <time>2017-01-14T08:03:51Z</time>
      </trkpt>
      <trkpt lat="48.79398" lon="2.06355">
        <ele>162.12</ele>
        <time>2017-01-14T08:03:59Z</time>
      </trkpt>
      <trkpt lat="48.79398" lon="2.06355">
        <ele>162.12</ele>
        <time>2017-01-14T08:04:07Z</time>
      </trkpt>
      <trkpt lat="48.79398" lon="2.06355">
        <ele>162.12</ele>
        <time>2017-01-14T08:04:18Z</time>
      </trkpt>
      <trkpt lat="48.79398" lon="2.06355">
        <ele>162.12</ele>
        <time>2017-01-14T08:04:27Z</time>
      </trkpt>
      <trkpt lat="48.79397" lon="2.06355">
        <ele>162.12</ele>
        <time>2017-01-14T08:04:36Z</time>
      </trkpt>
      <trkpt lat="48.79398" lon="2.06356">
        <ele>161.64</ele>
        <time>2017-01-14T08:04:44Z</time>
      </trkpt>
      <trkpt lat="48.79398" lon="2.06355">
        <ele>162.12</ele>
        <time>2017-01-14T08:04:53Z</time>
      </trkpt>
      <trkpt lat="48.79398" lon="2.06356">
        <ele>162.12</ele>
        <time>2017-01-14T08:05:02Z</time>
      </trkpt>
      <trkpt lat="48.79399" lon="2.06356">
        <ele>161.64</ele>
        <time>2017-01-14T08:05:11Z</time>
      </trkpt>
      <trkpt lat="48.79399" lon="2.06356">
        <ele>161.64</ele>
        <time>2017-01-14T08:05:23Z</time>
      </trkpt>
      <trkpt lat="48.79398" lon="2.06357">
        <ele>161.64</ele>
        <time>2017-01-14T08:05:32Z</time>
      </trkpt>
      <trkpt lat="48.79398" lon="2.06356">
        <ele>161.64</ele>
        <time>2017-01-14T08:05:40Z</time>
      </trkpt>
      <trkpt lat="48.79399" lon="2.06357">
        <ele>161.64</ele>
        <time>2017-01-14T08:05:47Z</time>
      </trkpt>
      <trkpt lat="48.79399" lon="2.06357">
        <ele>161.64</ele>
        <time>2017-01-14T08:05:55Z</time>
      </trkpt>
      <trkpt lat="48.79398" lon="2.06357">
        <ele>161.64</ele>
        <time>2017-01-14T08:06:03Z</time>
      </trkpt>
      <trkpt lat="48.79398" lon="2.06356">
        <ele>161.64</ele>
        <time>2017-01-14T08:06:11Z</time>
      </trkpt>
      <trkpt lat="48.79398" lon="2.06356">
        <ele>161.64</ele>
        <time>2017-01-14T08:06:21Z</time>
      </trkpt>
      <trkpt lat="48.79399" lon="2.06356">
        <ele>162.12</ele>
        <time>2017-01-14T08:06:33Z</time>
      </trkpt>
      <trkpt lat="48.79399" lon="2.06356">
        <ele>161.64</ele>
        <time>2017-01-14T08:06:41Z</time>
      </trkpt>
      <trkpt lat="48.79399" lon="2.06356">
        <ele>161.64</ele>
        <time>2017-01-14T08:06:49Z</time>
      </trkpt>
      <trkpt lat="48.79399" lon="2.06355">
        <ele>162.12</ele>
        <time>2017-01-14T08:06:55Z</time>
      </trkpt>
      <trkpt lat="48.79399" lon="2.06353">
        <ele>162.12</ele>
        <time>2017-01-14T08:07:01Z</time>
      </trkpt>
      <trkpt lat="48.79399" lon="2.06353">
        <ele>161.64</ele>
        <time>2017-01-14T08:07:08Z</time>
      </trkpt>
      <trkpt lat="48.794" lon="2.06353">
        <ele>161.64</ele>
        <time>2017-01-14T08:07:17Z</time>
      </trkpt>
      <trkpt lat="48.794" lon="2.06353">
        <ele>161.64</ele>
        <time>2017-01-14T08:07:33Z</time>
      </trkpt>
      <trkpt lat="48.794" lon="2.06354">
        <ele>161.64</ele>
        <time>2017-01-14T08:07:40Z</time>
      </trkpt>
      <trkpt lat="48.794" lon="2.06353">
        <ele>161.64</ele>
        <time>2017-01-14T08:07:46Z</time>
      </trkpt>
      <trkpt lat="48.79401" lon="2.06353">
        <ele>161.64</ele>
        <time>2017-01-14T08:08:02Z</time>
      </trkpt>
      <trkpt lat="48.79401" lon="2.06353">
        <ele>162.12</ele>
        <time>2017-01-14T08:08:10Z</time>
      </trkpt>
      <trkpt lat="48.79401" lon="2.06353">
        <ele>161.64</ele>
        <time>2017-01-14T08:08:24Z</time>
      </trkpt>
      <trkpt lat="48.79401" lon="2.06353">
        <ele>161.64</ele>
        <time>2017-01-14T08:08:32Z</time>
      </trkpt>
      <trkpt lat="48.794" lon="2.06354">
        <ele>161.64</ele>
        <time>2017-01-14T08:08:43Z</time>
      </trkpt>
      <trkpt lat="48.794" lon="2.06354">
        <ele>161.64</ele>
        <time>2017-01-14T08:08:54Z</time>
      </trkpt>
      <trkpt lat="48.794" lon="2.06354">
        <ele>161.64</ele>
        <time>2017-01-14T08:09:08Z</time>
      </trkpt>
      <trkpt lat="48.794" lon="2.06354">
        <ele>161.64</ele>
        <time>2017-01-14T08:09:19Z</time>
      </trkpt>
      <trkpt lat="48.794" lon="2.06354">
        <ele>161.64</ele>
        <time>2017-01-14T08:09:27Z</time>
      </trkpt>
      <trkpt lat="48.794" lon="2.06354">
        <ele>161.64</ele>
        <time>2017-01-14T08:09:42Z</time>
      </trkpt>
      <trkpt lat="48.794" lon="2.06354">
        <ele>161.64</ele>
        <time>2017-01-14T08:09:52Z</time>
      </trkpt>
      <trkpt lat="48.794" lon="2.06354">
        <ele>161.64</ele>
        <time>2017-01-14T08:10:07Z</time>
      </trkpt>
      <trkpt lat="48.79399" lon="2.06354">
        <ele>161.64</ele>
        <time>2017-01-14T08:10:20Z</time>
      </trkpt>
      <trkpt lat="48.79399" lon="2.06354">
        <ele>162.12</ele>
        <time>2017-01-14T08:10:27Z</time>
      </trkpt>
      <trkpt lat="48.79399" lon="2.06354">
        <ele>161.64</ele>
        <time>2017-01-14T08:10:34Z</time>
      </trkpt>
      <trkpt lat="48.79399" lon="2.06354">
        <ele>161.64</ele>
        <time>2017-01-14T08:10:44Z</time>
      </trkpt>
      <trkpt lat="48.79399" lon="2.06354">
        <ele>161.64</ele>
        <time>2017-01-14T08:10:57Z</time>
      </trkpt>
      <trkpt lat="48.794" lon="2.06354">
        <ele>161.64</ele>
        <time>2017-01-14T08:11:07Z</time>
      </trkpt>
      <trkpt lat="48.794" lon="2.06354">
        <ele>162.12</ele>
        <time>2017-01-14T08:11:17Z</time>
      </trkpt>
      <trkpt lat="48.794" lon="2.06354">
        <ele>161.64</ele>
        <time>2017-01-14T08:11:29Z</time>
      </trkpt>
      <trkpt lat="48.794" lon="2.06355">
        <ele>161.64</ele>
        <time>2017-01-14T08:11:39Z</time>
      </trkpt>
      <trkpt lat="48.794" lon="2.06355">
        <ele>161.64</ele>
        <time>2017-01-14T08:11:49Z</time>
      </trkpt>
      <trkpt lat="48.794" lon="2.06354">
        <ele>161.64</ele>
        <time>2017-01-14T08:11:59Z</time>
      </trkpt>
      <trkpt lat="48.794" lon="2.06354">
        <ele>161.64</ele>
        <time>2017-01-14T08:12:05Z</time>
      </trkpt>
      <trkpt lat="48.794" lon="2.06354">
        <ele>161.64</ele>
        <time>2017-01-14T08:12:16Z</time>
      </trkpt>
      <trkpt lat="48.794" lon="2.06354">
        <ele>161.64</ele>
        <time>2017-01-14T08:12:23Z</time>
      </trkpt>
      <trkpt lat="48.794" lon="2.06354">
        <ele>161.64</ele>
        <time>2017-01-14T08:12:32Z</time>
      </trkpt>
      <trkpt lat="48.794" lon="2.06354">
        <ele>161.64</ele>
        <time>2017-01-14T08:12:40Z</time>
      </trkpt>
      <trkpt lat="48.794" lon="2.06354">
        <ele>161.64</ele>
        <time>2017-01-14T08:12:51Z</time>
      </trkpt>
      <trkpt lat="48.794" lon="2.06354">
        <ele>162.12</ele>
        <time>2017-01-14T08:13:00Z</time>
      </trkpt>
      <trkpt lat="48.794" lon="2.06354">
        <ele>162.12</ele>
        <time>2017-01-14T08:13:10Z</time>
      </trkpt>
      <trkpt lat="48.794" lon="2.06354">
        <ele>161.64</ele>
        <time>2017-01-14T08:13:24Z</time>
      </trkpt>
      <trkpt lat="48.794" lon="2.06354">
        <ele>162.12</ele>
        <time>2017-01-14T08:13:34Z</time>
      </trkpt>
      <trkpt lat="48.794" lon="2.06354">
        <ele>162.12</ele>
        <time>2017-01-14T08:13:43Z</time>
      </trkpt>
      <trkpt lat="48.79401" lon="2.06354">
        <ele>161.64</ele>
        <time>2017-01-14T08:13:54Z</time>
      </trkpt>
      <trkpt lat="48.79401" lon="2.06354">
        <ele>161.64</ele>
        <time>2017-01-14T08:14:05Z</time>
      </trkpt>
      <trkpt lat="48.794" lon="2.06355">
        <ele>161.64</ele>
        <time>2017-01-14T08:14:16Z</time>
      </trkpt>
      <trkpt lat="48.794" lon="2.06355">
        <ele>161.64</ele>
        <time>2017-01-14T08:14:23Z</time>
      </trkpt>
      <trkpt lat="48.794" lon="2.06355">
        <ele>161.64</ele>
        <time>2017-01-14T08:14:32Z</time>
      </trkpt>
      <trkpt lat="48.794" lon="2.06355">
        <ele>162.12</ele>
        <time>2017-01-14T08:14:40Z</time>
      </trkpt>
      <trkpt lat="48.794" lon="2.06355">
        <ele>161.64</ele>
        <time>2017-01-14T08:14:45Z</time>
      </trkpt>
      <trkpt lat="48.794" lon="2.06356">
        <ele>161.64</ele>
        <time>2017-01-14T08:14:53Z</time>
      </trkpt>
      <trkpt lat="48.794" lon="2.06355">
        <ele>161.64</ele>
        <time>2017-01-14T08:15:00Z</time>
      </trkpt>
      <trkpt lat="48.794" lon="2.06355">
        <ele>161.64</ele>
        <time>2017-01-14T08:15:13Z</time>
      </trkpt>
      <trkpt lat="48.794" lon="2.06355">
        <ele>161.64</ele>
        <time>2017-01-14T08:15:21Z</time>
      </trkpt>
      <trkpt lat="48.79401" lon="2.06355">
        <ele>161.64</ele>
        <time>2017-01-14T08:15:28Z</time>
      </trkpt>
      <trkpt lat="48.794" lon="2.06355">
        <ele>161.64</ele>
        <time>2017-01-14T08:15:38Z</time>
      </trkpt>
      <trkpt lat="48.794" lon="2.06355">
        <ele>161.64</ele>
        <time>2017-01-14T08:15:51Z</time>
      </trkpt>
      <trkpt lat="48.794" lon="2.06354">
        <ele>161.64</ele>
        <time>2017-01-14T08:16:01Z</time>
      </trkpt>
      <trkpt lat="48.79401" lon="2.06355">
        <ele>161.64</ele>
        <time>2017-01-14T08:16:16Z</time>
      </trkpt>
      <trkpt lat="48.79401" lon="2.06355">
        <ele>161.64</ele>
        <time>2017-01-14T08:16:31Z</time>
      </trkpt>
      <trkpt lat="48.79401" lon="2.06355">
        <ele>161.64</ele>
        <time>2017-01-14T08:16:45Z</time>
      </trkpt>
      <trkpt lat="48.79401" lon="2.06355">
        <ele>161.64</ele>
        <time>2017-01-14T08:16:57Z</time>
      </trkpt>
      <trkpt lat="48.79401" lon="2.06355">
        <ele>161.64</ele>
        <time>2017-01-14T08:17:10Z</time>
      </trkpt>
      <trkpt lat="48.79401" lon="2.06355">
        <ele>161.64</ele>
        <time>2017-01-14T08:17:20Z</time>
      </trkpt>
      <trkpt lat="48.79401" lon="2.06355">
        <ele>161.64</ele>
        <time>2017-01-14T08:17:31Z</time>
      </trkpt>
      <trkpt lat="48.79401" lon="2.06355">
        <ele>161.64</ele>
        <time>2017-01-14T08:17:42Z</time>
      </trkpt>
      <trkpt lat="48.79401" lon="2.06355">
        <ele>161.64</ele>
        <time>2017-01-14T08:17:55Z</time>
      </trkpt>
      <trkpt lat="48.79401" lon="2.06355">
        <ele>161.64</ele>
        <time>2017-01-14T08:18:07Z</time>
      </trkpt>
      <trkpt lat="48.79401" lon="2.06355">
        <ele>161.16</ele>
        <time>2017-01-14T08:18:17Z</time>
      </trkpt>
      <trkpt lat="48.79401" lon="2.06355">
        <ele>161.16</ele>
        <time>2017-01-14T08:18:31Z</time>
      </trkpt>
      <trkpt lat="48.79401" lon="2.06355">
        <ele>161.64</ele>
        <time>2017-01-14T08:18:43Z</time>
      </trkpt>
      <trkpt lat="48.79401" lon="2.06355">
        <ele>161.16</ele>
        <time>2017-01-14T08:18:57Z</time>
      </trkpt>
      <trkpt lat="48.79401" lon="2.06354">
        <ele>161.16</ele>
        <time>2017-01-14T08:19:08Z</time>
      </trkpt>
      <trkpt lat="48.79401" lon="2.06355">
        <ele>161.16</ele>
        <time>2017-01-14T08:19:19Z</time>
      </trkpt>
      <trkpt lat="48.79401" lon="2.06355">
        <ele>161.16</ele>
        <time>2017-01-14T08:19:30Z</time>
      </trkpt>
      <trkpt lat="48.794" lon="2.06355">
        <ele>161.16</ele>
        <time>2017-01-14T08:19:44Z</time>
      </trkpt>
      <trkpt lat="48.794" lon="2.06355">
        <ele>161.16</ele>
        <time>2017-01-14T08:19:56Z</time>
      </trkpt>
      <trkpt lat="48.79401" lon="2.06355">
        <ele>161.16</ele>
        <time>2017-01-14T08:20:06Z</time>
      </trkpt>
      <trkpt lat="48.79401" lon="2.06354">
        <ele>161.16</ele>
        <time>2017-01-14T08:20:21Z</time>
      </trkpt>
      <trkpt lat="48.79401" lon="2.06354">
        <ele>161.16</ele>
        <time>2017-01-14T08:20:33Z</time>
      </trkpt>
      <trkpt lat="48.79401" lon="2.06354">
        <ele>161.16</ele>
        <time>2017-01-14T08:20:46Z</time>
      </trkpt>
      <trkpt lat="48.79401" lon="2.06354">
        <ele>161.16</ele>
        <time>2017-01-14T08:20:56Z</time>
      </trkpt>
      <trkpt lat="48.79401" lon="2.06355">
        <ele>161.16</ele>
        <time>2017-01-14T08:21:10Z</time>
      </trkpt>
      <trkpt lat="48.79401" lon="2.06355">
        <ele>161.16</ele>
        <time>2017-01-14T08:21:22Z</time>
      </trkpt>
      <trkpt lat="48.794" lon="2.06355">
        <ele>161.16</ele>
        <time>2017-01-14T08:21:36Z</time>
      </trkpt>
      <trkpt lat="48.794" lon="2.06354">
        <ele>161.16</ele>
        <time>2017-01-14T08:21:51Z</time>
      </trkpt>
      <trkpt lat="48.79401" lon="2.06354">
        <ele>161.16</ele>
        <time>2017-01-14T08:22:03Z</time>
      </trkpt>
      <trkpt lat="48.79401" lon="2.06354">
        <ele>161.16</ele>
        <time>2017-01-14T08:22:14Z</time>
      </trkpt>
      <trkpt lat="48.79401" lon="2.06355">
        <ele>161.16</ele>
        <time>2017-01-14T08:22:22Z</time>
      </trkpt>
      <trkpt lat="48.794" lon="2.06354">
        <ele>161.16</ele>
        <time>2017-01-14T08:22:27Z</time>
      </trkpt>
      <trkpt lat="48.79395" lon="2.06352">
        <ele>161.16</ele>
        <time>2017-01-14T08:22:34Z</time>
      </trkpt>
      <trkpt lat="48.79395" lon="2.06354">
        <ele>161.16</ele>
        <time>2017-01-14T08:22:40Z</time>
      </trkpt>
      <trkpt lat="48.79394" lon="2.06355">
        <ele>161.16</ele>
        <time>2017-01-14T08:22:43Z</time>
      </trkpt>
      <trkpt lat="48.7939" lon="2.06365">
        <ele>161.64</ele>
        <time>2017-01-14T08:22:49Z</time>
      </trkpt>
      <trkpt lat="48.79385" lon="2.06372">
        <ele>161.64</ele>
        <time>2017-01-14T08:22:56Z</time>
      </trkpt>
      <trkpt lat="48.79379" lon="2.06372">
        <ele>161.16</ele>
        <time>2017-01-14T08:23:01Z</time>
      </trkpt>
      <trkpt lat="48.79371" lon="2.06368">
        <ele>161.16</ele>
        <time>2017-01-14T08:23:09Z</time>
      </trkpt>
      <trkpt lat="48.79367" lon="2.06367">
        <ele>161.16</ele>
        <time>2017-01-14T08:23:13Z</time>
      </trkpt>
      <trkpt lat="48.79363" lon="2.06366">
        <ele>161.16</ele>
        <time>2017-01-14T08:23:17Z</time>
      </trkpt>
      <trkpt lat="48.79358" lon="2.06364">
        <ele>161.16</ele>
        <time>2017-01-14T08:23:23Z</time>
      </trkpt>
      <trkpt lat="48.79351" lon="2.06358">
        <ele>161.16</ele>
        <time>2017-01-14T08:23:33Z</time>
      </trkpt>
      <trkpt lat="48.79348" lon="2.06357">
        <ele>161.16</ele>
        <time>2017-01-14T08:23:41Z</time>
      </trkpt>
      <trkpt lat="48.79346" lon="2.06355">
        <ele>161.16</ele>
        <time>2017-01-14T08:23:51Z</time>
      </trkpt>
      <trkpt lat="48.79344" lon="2.06356">
        <ele>160.2</ele>
        <time>2017-01-14T08:24:00Z</time>
      </trkpt>
      <trkpt lat="48.79344" lon="2.06359">
        <ele>158.75</ele>
        <time>2017-01-14T08:24:03Z</time>
      </trkpt>
      <trkpt lat="48.79344" lon="2.06371">
        <ele>158.75</ele>
        <time>2017-01-14T08:24:12Z</time>
      </trkpt>
      <trkpt lat="48.79345" lon="2.06383">
        <ele>158.75</ele>
        <time>2017-01-14T08:24:20Z</time>
      </trkpt>
      <trkpt lat="48.79342" lon="2.06388">
        <ele>159.24</ele>
        <time>2017-01-14T08:24:24Z</time>
      </trkpt>
      <trkpt lat="48.7934" lon="2.06404">
        <ele>159.24</ele>
        <time>2017-01-14T08:24:33Z</time>
      </trkpt>
      <trkpt lat="48.79337" lon="2.06417">
        <ele>159.24</ele>
        <time>2017-01-14T08:24:41Z</time>
      </trkpt>
      <trkpt lat="48.79337" lon="2.06428">
        <ele>159.72</ele>
        <time>2017-01-14T08:24:48Z</time>
      </trkpt>
      <trkpt lat="48.79336" lon="2.06431">
        <ele>159.72</ele>
        <time>2017-01-14T08:24:50Z</time>
      </trkpt>
      <trkpt lat="48.79332" lon="2.06435">
        <ele>159.72</ele>
        <time>2017-01-14T08:24:53Z</time>
      </trkpt>
      <trkpt lat="48.79321" lon="2.06436">
        <ele>159.72</ele>
        <time>2017-01-14T08:25:01Z</time>
      </trkpt>
      <trkpt lat="48.79312" lon="2.06433">
        <ele>159.72</ele>
        <time>2017-01-14T08:25:08Z</time>
      </trkpt>
      <trkpt lat="48.79304" lon="2.0643">
        <ele>160.2</ele>
        <time>2017-01-14T08:25:14Z</time>
      </trkpt>
      <trkpt lat="48.79296" lon="2.06429">
        <ele>159.72</ele>
        <time>2017-01-14T08:25:21Z</time>
      </trkpt>
      <trkpt lat="48.79291" lon="2.0643">
        <ele>160.2</ele>
        <time>2017-01-14T08:25:25Z</time>
      </trkpt>
      <trkpt lat="48.79286" lon="2.06428">
        <ele>160.2</ele>
        <time>2017-01-14T08:25:31Z</time>
      </trkpt>
      <trkpt lat="48.79279" lon="2.06428">
        <ele>160.2</ele>
        <time>2017-01-14T08:25:39Z</time>
      </trkpt>
      <trkpt lat="48.79275" lon="2.06427">
        <ele>160.2</ele>
        <time>2017-01-14T08:25:43Z</time>
      </trkpt>
      <trkpt lat="48.79271" lon="2.06428">
        <ele>160.2</ele>
        <time>2017-01-14T08:25:47Z</time>
      </trkpt>
      <trkpt lat="48.79264" lon="2.06432">
        <ele>160.2</ele>
        <time>2017-01-14T08:25:55Z</time>
      </trkpt>
      <trkpt lat="48.79257" lon="2.06434">
        <ele>160.68</ele>
        <time>2017-01-14T08:26:02Z</time>
      </trkpt>
      <trkpt lat="48.7925" lon="2.06435">
        <ele>160.68</ele>
        <time>2017-01-14T08:26:10Z</time>
      </trkpt>
      <trkpt lat="48.79243" lon="2.06441">
        <ele>160.68</ele>
        <time>2017-01-14T08:26:16Z</time>
      </trkpt>
      <trkpt lat="48.79236" lon="2.06446">
        <ele>160.68</ele>
        <time>2017-01-14T08:26:23Z</time>
      </trkpt>
      <trkpt lat="48.79231" lon="2.0645">
        <ele>160.68</ele>
        <time>2017-01-14T08:26:29Z</time>
      </trkpt>
      <trkpt lat="48.79228" lon="2.06455">
        <ele>160.68</ele>
        <time>2017-01-14T08:26:36Z</time>
      </trkpt>
      <trkpt lat="48.79224" lon="2.06458">
        <ele>161.16</ele>
        <time>2017-01-14T08:26:43Z</time>
      </trkpt>
      <trkpt lat="48.79216" lon="2.06463">
        <ele>161.16</ele>
        <time>2017-01-14T08:26:51Z</time>
      </trkpt>
      <trkpt lat="48.79212" lon="2.06466">
        <ele>161.16</ele>
        <time>2017-01-14T08:26:56Z</time>
      </trkpt>
      <trkpt lat="48.79204" lon="2.06469">
        <ele>161.16</ele>
        <time>2017-01-14T08:27:03Z</time>
      </trkpt>
      <trkpt lat="48.79203" lon="2.06469">
        <ele>161.64</ele>
        <time>2017-01-14T08:27:04Z</time>
      </trkpt>
      <trkpt lat="48.79189" lon="2.0647">
        <ele>161.64</ele>
        <time>2017-01-14T08:27:13Z</time>
      </trkpt>
      <trkpt lat="48.79187" lon="2.06469">
        <ele>161.16</ele>
        <time>2017-01-14T08:27:15Z</time>
      </trkpt>
      <trkpt lat="48.79183" lon="2.06466">
        <ele>161.64</ele>
        <time>2017-01-14T08:27:18Z</time>
      </trkpt>
      <trkpt lat="48.79179" lon="2.06467">
        <ele>161.64</ele>
        <time>2017-01-14T08:27:20Z</time>
      </trkpt>
      <trkpt lat="48.79174" lon="2.06465">
        <ele>161.64</ele>
        <time>2017-01-14T08:27:24Z</time>
      </trkpt>
      <trkpt lat="48.79168" lon="2.06465">
        <ele>161.64</ele>
        <time>2017-01-14T08:27:29Z</time>
      </trkpt>
      <trkpt lat="48.79162" lon="2.06462">
        <ele>161.64</ele>
        <time>2017-01-14T08:27:35Z</time>
      </trkpt>
      <trkpt lat="48.7916" lon="2.06461">
        <ele>161.64</ele>
        <time>2017-01-14T08:27:38Z</time>
      </trkpt>
      <trkpt lat="48.79157" lon="2.0646">
        <ele>161.16</ele>
        <time>2017-01-14T08:27:40Z</time>
      </trkpt>
      <trkpt lat="48.79151" lon="2.06457">
        <ele>161.16</ele>
        <time>2017-01-14T08:27:45Z</time>
      </trkpt>
      <trkpt lat="48.79141" lon="2.06453">
        <ele>161.16</ele>
        <time>2017-01-14T08:27:54Z</time>
      </trkpt>
      <trkpt lat="48.79131" lon="2.06449">
        <ele>160.68</ele>
        <time>2017-01-14T08:28:02Z</time>
      </trkpt>
      <trkpt lat="48.79127" lon="2.06448">
        <ele>160.68</ele>
        <time>2017-01-14T08:28:05Z</time>
      </trkpt>
      <trkpt lat="48.79123" lon="2.06448">
        <ele>160.68</ele>
        <time>2017-01-14T08:28:08Z</time>
      </trkpt>
      <trkpt lat="48.79116" lon="2.06447">
        <ele>160.68</ele>
        <time>2017-01-14T08:28:15Z</time>
      </trkpt>
      <trkpt lat="48.7911" lon="2.06444">
        <ele>160.68</ele>
        <time>2017-01-14T08:28:21Z</time>
      </trkpt>
      <trkpt lat="48.79103" lon="2.06439">
        <ele>161.16</ele>
        <time>2017-01-14T08:28:29Z</time>
      </trkpt>
      <trkpt lat="48.79098" lon="2.06436">
        <ele>160.68</ele>
        <time>2017-01-14T08:28:34Z</time>
      </trkpt>
      <trkpt lat="48.79091" lon="2.06431">
        <ele>160.68</ele>
        <time>2017-01-14T08:28:42Z</time>
      </trkpt>
      <trkpt lat="48.79083" lon="2.06428">
        <ele>160.68</ele>
        <time>2017-01-14T08:28:48Z</time>
      </trkpt>
      <trkpt lat="48.79078" lon="2.06426">
        <ele>160.2</ele>
        <time>2017-01-14T08:28:51Z</time>
      </trkpt>
      <trkpt lat="48.79073" lon="2.06424">
        <ele>160.2</ele>
        <time>2017-01-14T08:28:56Z</time>
      </trkpt>
      <trkpt lat="48.79069" lon="2.06419">
        <ele>160.2</ele>
        <time>2017-01-14T08:29:02Z</time>
      </trkpt>
      <trkpt lat="48.79064" lon="2.06414">
        <ele>159.72</ele>
        <time>2017-01-14T08:29:09Z</time>
      </trkpt>
      <trkpt lat="48.79062" lon="2.06412">
        <ele>159.24</ele>
        <time>2017-01-14T08:29:12Z</time>
      </trkpt>
      <trkpt lat="48.79054" lon="2.06408">
        <ele>158.27</ele>
        <time>2017-01-14T08:29:21Z</time>
      </trkpt>
      <trkpt lat="48.7905" lon="2.06405">
        <ele>157.79</ele>
        <time>2017-01-14T08:29:27Z</time>
      </trkpt>
      <trkpt lat="48.79046" lon="2.06401">
        <ele>157.79</ele>
        <time>2017-01-14T08:29:33Z</time>
      </trkpt>
      <trkpt lat="48.79042" lon="2.06397">
        <ele>157.79</ele>
        <time>2017-01-14T08:29:39Z</time>
      </trkpt>
      <trkpt lat="48.79037" lon="2.0639">
        <ele>156.83</ele>
        <time>2017-01-14T08:29:46Z</time>
      </trkpt>
      <trkpt lat="48.79033" lon="2.06384">
        <ele>155.39</ele>
        <time>2017-01-14T08:29:54Z</time>
      </trkpt>
      <trkpt lat="48.7903" lon="2.06379">
        <ele>155.39</ele>
        <time>2017-01-14T08:30:00Z</time>
      </trkpt>
      <trkpt lat="48.79026" lon="2.06378">
        <ele>155.39</ele>
        <time>2017-01-14T08:30:05Z</time>
      </trkpt>
      <trkpt lat="48.79023" lon="2.06376">
        <ele>155.39</ele>
        <time>2017-01-14T08:30:11Z</time>
      </trkpt>
      <trkpt lat="48.7902" lon="2.06372">
        <ele>155.39</ele>
        <time>2017-01-14T08:30:18Z</time>
      </trkpt>
      <trkpt lat="48.79018" lon="2.06373">
        <ele>154.91</ele>
        <time>2017-01-14T08:30:24Z</time>
      </trkpt>
      <trkpt lat="48.79014" lon="2.06376">
        <ele>155.39</ele>
        <time>2017-01-14T08:30:31Z</time>
      </trkpt>
      <trkpt lat="48.7901" lon="2.0638">
        <ele>155.39</ele>
        <time>2017-01-14T08:30:39Z</time>
      </trkpt>
      <trkpt lat="48.79006" lon="2.06386">
        <ele>155.39</ele>
        <time>2017-01-14T08:30:48Z</time>
      </trkpt>
      <trkpt lat="48.79005" lon="2.06388">
        <ele>155.39</ele>
        <time>2017-01-14T08:30:50Z</time>
      </trkpt>
      <trkpt lat="48.79002" lon="2.06397">
        <ele>155.39</ele>
        <time>2017-01-14T08:30:56Z</time>
      </trkpt>
      <trkpt lat="48.79001" lon="2.06401">
        <ele>155.39</ele>
        <time>2017-01-14T08:30:59Z</time>
      </trkpt>
      <trkpt lat="48.79" lon="2.06408">
        <ele>155.39</ele>
        <time>2017-01-14T08:31:06Z</time>
      </trkpt>
      <trkpt lat="48.78999" lon="2.06413">
        <ele>154.91</ele>
        <time>2017-01-14T08:31:13Z</time>
      </trkpt>
      <trkpt lat="48.78994" lon="2.0642">
        <ele>155.39</ele>
        <time>2017-01-14T08:31:19Z</time>
      </trkpt>
      <trkpt lat="48.78987" lon="2.06429">
        <ele>154.91</ele>
        <time>2017-01-14T08:31:25Z</time>
      </trkpt>
      <trkpt lat="48.7898" lon="2.06439">
        <ele>155.39</ele>
        <time>2017-01-14T08:31:32Z</time>
      </trkpt>
      <trkpt lat="48.78977" lon="2.06448">
        <ele>155.39</ele>
        <time>2017-01-14T08:31:40Z</time>
      </trkpt>
      <trkpt lat="48.78973" lon="2.06456">
        <ele>154.91</ele>
        <time>2017-01-14T08:31:47Z</time>
      </trkpt>
      <trkpt lat="48.78971" lon="2.06463">
        <ele>154.91</ele>
        <time>2017-01-14T08:31:52Z</time>
      </trkpt>
      <trkpt lat="48.78967" lon="2.0647">
        <ele>154.91</ele>
        <time>2017-01-14T08:31:58Z</time>
      </trkpt>
      <trkpt lat="48.78964" lon="2.06479">
        <ele>154.91</ele>
        <time>2017-01-14T08:32:07Z</time>
      </trkpt>
      <trkpt lat="48.78961" lon="2.06485">
        <ele>154.91</ele>
        <time>2017-01-14T08:32:13Z</time>
      </trkpt>
      <trkpt lat="48.78957" lon="2.0649">
        <ele>154.91</ele>
        <time>2017-01-14T08:32:19Z</time>
      </trkpt>
      <trkpt lat="48.78952" lon="2.06499">
        <ele>155.39</ele>
        <time>2017-01-14T08:32:26Z</time>
      </trkpt>
      <trkpt lat="48.78945" lon="2.06504">
        <ele>155.87</ele>
        <time>2017-01-14T08:32:33Z</time>
      </trkpt>
      <trkpt lat="48.78939" lon="2.06509">
        <ele>155.87</ele>
        <time>2017-01-14T08:32:39Z</time>
      </trkpt>
      <trkpt lat="48.78937" lon="2.06514">
        <ele>155.87</ele>
        <time>2017-01-14T08:32:44Z</time>
      </trkpt>
      <trkpt lat="48.78933" lon="2.06522">
        <ele>156.35</ele>
        <time>2017-01-14T08:32:49Z</time>
      </trkpt>
      <trkpt lat="48.78928" lon="2.0653">
        <ele>156.83</ele>
        <time>2017-01-14T08:32:55Z</time>
      </trkpt>
      <trkpt lat="48.78926" lon="2.06533">
        <ele>157.31</ele>
        <time>2017-01-14T08:33:01Z</time>
      </trkpt>
      <trkpt lat="48.78924" lon="2.0654">
        <ele>156.35</ele>
        <time>2017-01-14T08:33:07Z</time>
      </trkpt>
      <trkpt lat="48.78921" lon="2.06547">
        <ele>155.87</ele>
        <time>2017-01-14T08:33:13Z</time>
      </trkpt>
      <trkpt lat="48.78917" lon="2.06563">
        <ele>155.87</ele>
        <time>2017-01-14T08:33:20Z</time>
      </trkpt>
      <trkpt lat="48.78915" lon="2.06567">
        <ele>155.87</ele>
        <time>2017-01-14T08:33:26Z</time>
      </trkpt>
      <trkpt lat="48.78909" lon="2.06572">
        <ele>155.87</ele>
        <time>2017-01-14T08:33:32Z</time>
      </trkpt>
      <trkpt lat="48.78901" lon="2.06582">
        <ele>155.87</ele>
        <time>2017-01-14T08:33:40Z</time>
      </trkpt>
      <trkpt lat="48.78902" lon="2.06591">
        <ele>155.39</ele>
        <time>2017-01-14T08:33:47Z</time>
      </trkpt>
      <trkpt lat="48.78901" lon="2.06602">
        <ele>155.87</ele>
        <time>2017-01-14T08:33:55Z</time>
      </trkpt>
      <trkpt lat="48.78896" lon="2.0661">
        <ele>155.87</ele>
        <time>2017-01-14T08:34:02Z</time>
      </trkpt>
      <trkpt lat="48.78896" lon="2.06611">
        <ele>155.87</ele>
        <time>2017-01-14T08:34:03Z</time>
      </trkpt>
      <trkpt lat="48.78894" lon="2.06625">
        <ele>155.39</ele>
        <time>2017-01-14T08:34:11Z</time>
      </trkpt>
      <trkpt lat="48.7889" lon="2.06637">
        <ele>155.87</ele>
        <time>2017-01-14T08:34:17Z</time>
      </trkpt>
      <trkpt lat="48.78886" lon="2.06648">
        <ele>155.87</ele>
        <time>2017-01-14T08:34:24Z</time>
      </trkpt>
      <trkpt lat="48.78883" lon="2.0666">
        <ele>155.87</ele>
        <time>2017-01-14T08:34:32Z</time>
      </trkpt>
      <trkpt lat="48.7888" lon="2.06671">
        <ele>155.87</ele>
        <time>2017-01-14T08:34:40Z</time>
      </trkpt>
      <trkpt lat="48.7888" lon="2.06673">
        <ele>155.87</ele>
        <time>2017-01-14T08:34:41Z</time>
      </trkpt>
      <trkpt lat="48.78877" lon="2.06686">
        <ele>156.35</ele>
        <time>2017-01-14T08:34:49Z</time>
      </trkpt>
      <trkpt lat="48.78878" lon="2.06691">
        <ele>155.87</ele>
        <time>2017-01-14T08:34:52Z</time>
      </trkpt>
      <trkpt lat="48.78878" lon="2.06696">
        <ele>155.87</ele>
        <time>2017-01-14T08:34:55Z</time>
      </trkpt>
      <trkpt lat="48.78877" lon="2.06707">
        <ele>156.35</ele>
        <time>2017-01-14T08:35:03Z</time>
      </trkpt>
      <trkpt lat="48.78877" lon="2.06711">
        <ele>156.35</ele>
        <time>2017-01-14T08:35:07Z</time>
      </trkpt>
      <trkpt lat="48.78877" lon="2.06721">
        <ele>156.83</ele>
        <time>2017-01-14T08:35:13Z</time>
      </trkpt>
      <trkpt lat="48.78878" lon="2.06724">
        <ele>156.83</ele>
        <time>2017-01-14T08:35:15Z</time>
      </trkpt>
      <trkpt lat="48.7888" lon="2.06734">
        <ele>156.83</ele>
        <time>2017-01-14T08:35:22Z</time>
      </trkpt>
      <trkpt lat="48.78882" lon="2.06741">
        <ele>156.83</ele>
        <time>2017-01-14T08:35:30Z</time>
      </trkpt>
      <trkpt lat="48.78883" lon="2.06748">
        <ele>156.83</ele>
        <time>2017-01-14T08:35:36Z</time>
      </trkpt>
      <trkpt lat="48.78884" lon="2.06749">
        <ele>156.83</ele>
        <time>2017-01-14T08:35:39Z</time>
      </trkpt>
      <trkpt lat="48.78886" lon="2.06757">
        <ele>156.83</ele>
        <time>2017-01-14T08:35:44Z</time>
      </trkpt>
      <trkpt lat="48.78889" lon="2.06768">
        <ele>156.83</ele>
        <time>2017-01-14T08:35:50Z</time>
      </trkpt>
      <trkpt lat="48.78893" lon="2.06784">
        <ele>156.83</ele>
        <time>2017-01-14T08:35:57Z</time>
      </trkpt>
      <trkpt lat="48.78896" lon="2.06794">
        <ele>156.83</ele>
        <time>2017-01-14T08:36:03Z</time>
      </trkpt>
      <trkpt lat="48.78898" lon="2.068">
        <ele>156.83</ele>
        <time>2017-01-14T08:36:07Z</time>
      </trkpt>
      <trkpt lat="48.78898" lon="2.06809">
        <ele>156.83</ele>
        <time>2017-01-14T08:36:12Z</time>
      </trkpt>
      <trkpt lat="48.78897" lon="2.06823">
        <ele>156.83</ele>
        <time>2017-01-14T08:36:19Z</time>
      </trkpt>
      <trkpt lat="48.78895" lon="2.06832">
        <ele>156.83</ele>
        <time>2017-01-14T08:36:25Z</time>
      </trkpt>
      <trkpt lat="48.78895" lon="2.06832">
        <ele>156.83</ele>
        <time>2017-01-14T08:36:38Z</time>
      </trkpt>
      <trkpt lat="48.78892" lon="2.0684">
        <ele>156.83</ele>
        <time>2017-01-14T08:36:50Z</time>
      </trkpt>
      <trkpt lat="48.78864" lon="2.06887">
        <ele>157.31</ele>
        <time>2017-01-14T08:36:57Z</time>
      </trkpt>
      <trkpt lat="48.78863" lon="2.06892">
        <ele>157.79</ele>
        <time>2017-01-14T08:37:04Z</time>
      </trkpt>
      <trkpt lat="48.78859" lon="2.069">
        <ele>157.79</ele>
        <time>2017-01-14T08:37:10Z</time>
      </trkpt>
      <trkpt lat="48.78856" lon="2.06903">
        <ele>157.79</ele>
        <time>2017-01-14T08:37:13Z</time>
      </trkpt>
      <trkpt lat="48.78854" lon="2.06912">
        <ele>157.79</ele>
        <time>2017-01-14T08:37:20Z</time>
      </trkpt>
      <trkpt lat="48.78848" lon="2.06919">
        <ele>157.79</ele>
        <time>2017-01-14T08:37:26Z</time>
      </trkpt>
      <trkpt lat="48.78847" lon="2.06922">
        <ele>157.79</ele>
        <time>2017-01-14T08:37:28Z</time>
      </trkpt>
      <trkpt lat="48.78846" lon="2.06927">
        <ele>157.79</ele>
        <time>2017-01-14T08:37:31Z</time>
      </trkpt>
      <trkpt lat="48.78843" lon="2.06932">
        <ele>158.27</ele>
        <time>2017-01-14T08:37:35Z</time>
      </trkpt>
      <trkpt lat="48.7884" lon="2.06944">
        <ele>158.27</ele>
        <time>2017-01-14T08:37:43Z</time>
      </trkpt>
      <trkpt lat="48.78838" lon="2.06954">
        <ele>158.27</ele>
        <time>2017-01-14T08:37:49Z</time>
      </trkpt>
      <trkpt lat="48.78835" lon="2.06959">
        <ele>158.75</ele>
        <time>2017-01-14T08:37:54Z</time>
      </trkpt>
      <trkpt lat="48.7883" lon="2.0697">
        <ele>158.75</ele>
        <time>2017-01-14T08:38:03Z</time>
      </trkpt>
      <trkpt lat="48.78826" lon="2.06976">
        <ele>159.72</ele>
        <time>2017-01-14T08:38:09Z</time>
      </trkpt>
      <trkpt lat="48.78822" lon="2.06985">
        <ele>161.16</ele>
        <time>2017-01-14T08:38:17Z</time>
      </trkpt>
      <trkpt lat="48.78819" lon="2.06995">
        <ele>161.64</ele>
        <time>2017-01-14T08:38:24Z</time>
      </trkpt>
      <trkpt lat="48.78819" lon="2.07">
        <ele>162.12</ele>
        <time>2017-01-14T08:38:28Z</time>
      </trkpt>
      <trkpt lat="48.78817" lon="2.07014">
        <ele>162.6</ele>
        <time>2017-01-14T08:38:36Z</time>
      </trkpt>
      <trkpt lat="48.78813" lon="2.07025">
        <ele>162.6</ele>
        <time>2017-01-14T08:38:43Z</time>
      </trkpt>
      <trkpt lat="48.78812" lon="2.0703">
        <ele>162.6</ele>
        <time>2017-01-14T08:38:46Z</time>
      </trkpt>
      <trkpt lat="48.78812" lon="2.07036">
        <ele>162.6</ele>
        <time>2017-01-14T08:38:49Z</time>
      </trkpt>
      <trkpt lat="48.7881" lon="2.07047">
        <ele>162.6</ele>
        <time>2017-01-14T08:38:57Z</time>
      </trkpt>
      <trkpt lat="48.78808" lon="2.07051">
        <ele>162.6</ele>
        <time>2017-01-14T08:39:01Z</time>
      </trkpt>
      <trkpt lat="48.78808" lon="2.07057">
        <ele>162.6</ele>
        <time>2017-01-14T08:39:05Z</time>
      </trkpt>
      <trkpt lat="48.78807" lon="2.07062">
        <ele>162.6</ele>
        <time>2017-01-14T08:39:08Z</time>
      </trkpt>
      <trkpt lat="48.78807" lon="2.07072">
        <ele>162.6</ele>
        <time>2017-01-14T08:39:13Z</time>
      </trkpt>
      <trkpt lat="48.78807" lon="2.07084">
        <ele>162.6</ele>
        <time>2017-01-14T08:39:20Z</time>
      </trkpt>
      <trkpt lat="48.78806" lon="2.0709">
        <ele>162.6</ele>
        <time>2017-01-14T08:39:23Z</time>
      </trkpt>
      <trkpt lat="48.78806" lon="2.07094">
        <ele>162.6</ele>
        <time>2017-01-14T08:39:25Z</time>
      </trkpt>
      <trkpt lat="48.78805" lon="2.071">
        <ele>162.6</ele>
        <time>2017-01-14T08:39:29Z</time>
      </trkpt>
      <trkpt lat="48.78804" lon="2.07106">
        <ele>162.12</ele>
        <time>2017-01-14T08:39:33Z</time>
      </trkpt>
      <trkpt lat="48.78804" lon="2.07117">
        <ele>162.6</ele>
        <time>2017-01-14T08:39:39Z</time>
      </trkpt>
      <trkpt lat="48.78804" lon="2.07125">
        <ele>162.6</ele>
        <time>2017-01-14T08:39:44Z</time>
      </trkpt>
      <trkpt lat="48.78803" lon="2.07139">
        <ele>162.6</ele>
        <time>2017-01-14T08:39:52Z</time>
      </trkpt>
      <trkpt lat="48.78799" lon="2.07147">
        <ele>162.6</ele>
        <time>2017-01-14T08:39:57Z</time>
      </trkpt>
      <trkpt lat="48.78798" lon="2.07154">
        <ele>162.6</ele>
        <time>2017-01-14T08:40:02Z</time>
      </trkpt>
      <trkpt lat="48.78798" lon="2.07155">
        <ele>162.6</ele>
        <time>2017-01-14T08:40:03Z</time>
      </trkpt>
      <trkpt lat="48.78797" lon="2.07161">
        <ele>162.6</ele>
        <time>2017-01-14T08:40:06Z</time>
      </trkpt>
      <trkpt lat="48.78795" lon="2.07173">
        <ele>162.12</ele>
        <time>2017-01-14T08:40:13Z</time>
      </trkpt>
      <trkpt lat="48.78795" lon="2.07175">
        <ele>162.12</ele>
        <time>2017-01-14T08:40:14Z</time>
      </trkpt>
      <trkpt lat="48.78794" lon="2.07182">
        <ele>162.12</ele>
        <time>2017-01-14T08:40:19Z</time>
      </trkpt>
      <trkpt lat="48.7879" lon="2.07189">
        <ele>162.12</ele>
        <time>2017-01-14T08:40:24Z</time>
      </trkpt>
      <trkpt lat="48.78783" lon="2.072">
        <ele>162.6</ele>
        <time>2017-01-14T08:40:32Z</time>
      </trkpt>
      <trkpt lat="48.78783" lon="2.07202">
        <ele>162.6</ele>
        <time>2017-01-14T08:40:33Z</time>
      </trkpt>
      <trkpt lat="48.78777" lon="2.07214">
        <ele>162.6</ele>
        <time>2017-01-14T08:40:41Z</time>
      </trkpt>
      <trkpt lat="48.78776" lon="2.07218">
        <ele>162.6</ele>
        <time>2017-01-14T08:40:43Z</time>
      </trkpt>
      <trkpt lat="48.78773" lon="2.07226">
        <ele>162.12</ele>
        <time>2017-01-14T08:40:49Z</time>
      </trkpt>
      <trkpt lat="48.78768" lon="2.07244">
        <ele>161.64</ele>
        <time>2017-01-14T08:41:00Z</time>
      </trkpt>
      <trkpt lat="48.78764" lon="2.07253">
        <ele>161.64</ele>
        <time>2017-01-14T08:41:05Z</time>
      </trkpt>
      <trkpt lat="48.78763" lon="2.07256">
        <ele>161.64</ele>
        <time>2017-01-14T08:41:07Z</time>
      </trkpt>
      <trkpt lat="48.78763" lon="2.07262">
        <ele>161.64</ele>
        <time>2017-01-14T08:41:11Z</time>
      </trkpt>
      <trkpt lat="48.78755" lon="2.07274">
        <ele>161.64</ele>
        <time>2017-01-14T08:41:20Z</time>
      </trkpt>
      <trkpt lat="48.7875" lon="2.07287">
        <ele>161.64</ele>
        <time>2017-01-14T08:41:27Z</time>
      </trkpt>
      <trkpt lat="48.78747" lon="2.07296">
        <ele>161.64</ele>
        <time>2017-01-14T08:41:33Z</time>
      </trkpt>
      <trkpt lat="48.78745" lon="2.07308">
        <ele>161.64</ele>
        <time>2017-01-14T08:41:40Z</time>
      </trkpt>
      <trkpt lat="48.78743" lon="2.07313">
        <ele>161.64</ele>
        <time>2017-01-14T08:41:43Z</time>
      </trkpt>
      <trkpt lat="48.78739" lon="2.07329">
        <ele>161.64</ele>
        <time>2017-01-14T08:41:52Z</time>
      </trkpt>
      <trkpt lat="48.78739" lon="2.07331">
        <ele>161.64</ele>
        <time>2017-01-14T08:41:53Z</time>
      </trkpt>
      <trkpt lat="48.78737" lon="2.07349">
        <ele>161.64</ele>
        <time>2017-01-14T08:42:03Z</time>
      </trkpt>
      <trkpt lat="48.78734" lon="2.07359">
        <ele>161.16</ele>
        <time>2017-01-14T08:42:09Z</time>
      </trkpt>
      <trkpt lat="48.78733" lon="2.07367">
        <ele>161.16</ele>
        <time>2017-01-14T08:42:14Z</time>
      </trkpt>
      <trkpt lat="48.78731" lon="2.0738">
        <ele>160.68</ele>
        <time>2017-01-14T08:42:21Z</time>
      </trkpt>
      <trkpt lat="48.78728" lon="2.07395">
        <ele>160.68</ele>
        <time>2017-01-14T08:42:29Z</time>
      </trkpt>
      <trkpt lat="48.78724" lon="2.07408">
        <ele>160.68</ele>
        <time>2017-01-14T08:42:37Z</time>
      </trkpt>
      <trkpt lat="48.78722" lon="2.07422">
        <ele>160.68</ele>
        <time>2017-01-14T08:42:45Z</time>
      </trkpt>
      <trkpt lat="48.78722" lon="2.07425">
        <ele>160.68</ele>
        <time>2017-01-14T08:42:47Z</time>
      </trkpt>
      <trkpt lat="48.78721" lon="2.07429">
        <ele>160.68</ele>
        <time>2017-01-14T08:42:50Z</time>
      </trkpt>
      <trkpt lat="48.78721" lon="2.07444">
        <ele>161.16</ele>
        <time>2017-01-14T08:42:59Z</time>
      </trkpt>
      <trkpt lat="48.78718" lon="2.07456">
        <ele>161.64</ele>
        <time>2017-01-14T08:43:07Z</time>
      </trkpt>
      <trkpt lat="48.78717" lon="2.0747">
        <ele>161.64</ele>
        <time>2017-01-14T08:43:15Z</time>
      </trkpt>
      <trkpt lat="48.78717" lon="2.07476">
        <ele>161.64</ele>
        <time>2017-01-14T08:43:19Z</time>
      </trkpt>
      <trkpt lat="48.78718" lon="2.07484">
        <ele>161.64</ele>
        <time>2017-01-14T08:43:24Z</time>
      </trkpt>
      <trkpt lat="48.78717" lon="2.07497">
        <ele>161.64</ele>
        <time>2017-01-14T08:43:32Z</time>
      </trkpt>
      <trkpt lat="48.78716" lon="2.07502">
        <ele>161.64</ele>
        <time>2017-01-14T08:43:35Z</time>
      </trkpt>
      <trkpt lat="48.78718" lon="2.07514">
        <ele>161.64</ele>
        <time>2017-01-14T08:43:42Z</time>
      </trkpt>
      <trkpt lat="48.78718" lon="2.07517">
        <ele>162.12</ele>
        <time>2017-01-14T08:43:44Z</time>
      </trkpt>
      <trkpt lat="48.78716" lon="2.07531">
        <ele>162.12</ele>
        <time>2017-01-14T08:43:52Z</time>
      </trkpt>
      <trkpt lat="48.78716" lon="2.07542">
        <ele>162.12</ele>
        <time>2017-01-14T08:43:59Z</time>
      </trkpt>
      <trkpt lat="48.78717" lon="2.07555">
        <ele>162.12</ele>
        <time>2017-01-14T08:44:07Z</time>
      </trkpt>
      <trkpt lat="48.78717" lon="2.07563">
        <ele>162.12</ele>
        <time>2017-01-14T08:44:12Z</time>
      </trkpt>
      <trkpt lat="48.78717" lon="2.07573">
        <ele>162.6</ele>
        <time>2017-01-14T08:44:17Z</time>
      </trkpt>
      <trkpt lat="48.78718" lon="2.07587">
        <ele>162.12</ele>
        <time>2017-01-14T08:44:25Z</time>
      </trkpt>
      <trkpt lat="48.78719" lon="2.07599">
        <ele>162.12</ele>
        <time>2017-01-14T08:44:32Z</time>
      </trkpt>
      <trkpt lat="48.78719" lon="2.07614">
        <ele>161.64</ele>
        <time>2017-01-14T08:44:40Z</time>
      </trkpt>
      <trkpt lat="48.78718" lon="2.07622">
        <ele>161.16</ele>
        <time>2017-01-14T08:44:45Z</time>
      </trkpt>
      <trkpt lat="48.78718" lon="2.07636">
        <ele>161.16</ele>
        <time>2017-01-14T08:44:53Z</time>
      </trkpt>
      <trkpt lat="48.78718" lon="2.0764">
        <ele>161.64</ele>
        <time>2017-01-14T08:44:55Z</time>
      </trkpt>
      <trkpt lat="48.78718" lon="2.07651">
        <ele>161.64</ele>
        <time>2017-01-14T08:45:00Z</time>
      </trkpt>
      <trkpt lat="48.7872" lon="2.07667">
        <ele>161.64</ele>
        <time>2017-01-14T08:45:08Z</time>
      </trkpt>
      <trkpt lat="48.78721" lon="2.07676">
        <ele>161.64</ele>
        <time>2017-01-14T08:45:12Z</time>
      </trkpt>
      <trkpt lat="48.78719" lon="2.07687">
        <ele>162.12</ele>
        <time>2017-01-14T08:45:20Z</time>
      </trkpt>
      <trkpt lat="48.78718" lon="2.07699">
        <ele>161.64</ele>
        <time>2017-01-14T08:45:27Z</time>
      </trkpt>
      <trkpt lat="48.78718" lon="2.07705">
        <ele>161.64</ele>
        <time>2017-01-14T08:45:30Z</time>
      </trkpt>
      <trkpt lat="48.78718" lon="2.07716">
        <ele>162.12</ele>
        <time>2017-01-14T08:45:36Z</time>
      </trkpt>
      <trkpt lat="48.78719" lon="2.0772">
        <ele>162.12</ele>
        <time>2017-01-14T08:45:38Z</time>
      </trkpt>
      <trkpt lat="48.78719" lon="2.07735">
        <ele>161.64</ele>
        <time>2017-01-14T08:45:46Z</time>
      </trkpt>
      <trkpt lat="48.78719" lon="2.0774">
        <ele>161.64</ele>
        <time>2017-01-14T08:45:49Z</time>
      </trkpt>
      <trkpt lat="48.7872" lon="2.07744">
        <ele>161.64</ele>
        <time>2017-01-14T08:45:51Z</time>
      </trkpt>
      <trkpt lat="48.78719" lon="2.07757">
        <ele>161.64</ele>
        <time>2017-01-14T08:45:59Z</time>
      </trkpt>
      <trkpt lat="48.78719" lon="2.07758">
        <ele>161.64</ele>
        <time>2017-01-14T08:46:00Z</time>
      </trkpt>
      <trkpt lat="48.78715" lon="2.07778">
        <ele>161.16</ele>
        <time>2017-01-14T08:46:11Z</time>
      </trkpt>
      <trkpt lat="48.78715" lon="2.0779">
        <ele>161.64</ele>
        <time>2017-01-14T08:46:19Z</time>
      </trkpt>
      <trkpt lat="48.78715" lon="2.07791">
        <ele>162.12</ele>
        <time>2017-01-14T08:46:20Z</time>
      </trkpt>
      <trkpt lat="48.78711" lon="2.07803">
        <ele>162.12</ele>
        <time>2017-01-14T08:46:27Z</time>
      </trkpt>
      <trkpt lat="48.78712" lon="2.07813">
        <ele>161.64</ele>
        <time>2017-01-14T08:46:33Z</time>
      </trkpt>
      <trkpt lat="48.78711" lon="2.07826">
        <ele>161.64</ele>
        <time>2017-01-14T08:46:40Z</time>
      </trkpt>
      <trkpt lat="48.78712" lon="2.07833">
        <ele>161.64</ele>
        <time>2017-01-14T08:46:44Z</time>
      </trkpt>
      <trkpt lat="48.7871" lon="2.07842">
        <ele>162.12</ele>
        <time>2017-01-14T08:46:51Z</time>
      </trkpt>
      <trkpt lat="48.78708" lon="2.07856">
        <ele>161.64</ele>
        <time>2017-01-14T08:46:59Z</time>
      </trkpt>
      <trkpt lat="48.78706" lon="2.07866">
        <ele>161.64</ele>
        <time>2017-01-14T08:47:06Z</time>
      </trkpt>
      <trkpt lat="48.78706" lon="2.07879">
        <ele>161.64</ele>
        <time>2017-01-14T08:47:12Z</time>
      </trkpt>
      <trkpt lat="48.78706" lon="2.07894">
        <ele>161.16</ele>
        <time>2017-01-14T08:47:20Z</time>
      </trkpt>
      <trkpt lat="48.78706" lon="2.0791">
        <ele>161.16</ele>
        <time>2017-01-14T08:47:29Z</time>
      </trkpt>
      <trkpt lat="48.78707" lon="2.07918">
        <ele>161.16</ele>
        <time>2017-01-14T08:47:35Z</time>
      </trkpt>
      <trkpt lat="48.78705" lon="2.0793">
        <ele>160.68</ele>
        <time>2017-01-14T08:47:42Z</time>
      </trkpt>
      <trkpt lat="48.78709" lon="2.07943">
        <ele>160.2</ele>
        <time>2017-01-14T08:47:46Z</time>
      </trkpt>
      <trkpt lat="48.78711" lon="2.0795">
        <ele>160.2</ele>
        <time>2017-01-14T08:47:50Z</time>
      </trkpt>
      <trkpt lat="48.78708" lon="2.07963">
        <ele>160.68</ele>
        <time>2017-01-14T08:47:57Z</time>
      </trkpt>
      <trkpt lat="48.78704" lon="2.07978">
        <ele>160.68</ele>
        <time>2017-01-14T08:48:06Z</time>
      </trkpt>
      <trkpt lat="48.78701" lon="2.07992">
        <ele>160.2</ele>
        <time>2017-01-14T08:48:13Z</time>
      </trkpt>
      <trkpt lat="48.787" lon="2.08001">
        <ele>159.72</ele>
        <time>2017-01-14T08:48:17Z</time>
      </trkpt>
      <trkpt lat="48.78694" lon="2.08015">
        <ele>159.72</ele>
        <time>2017-01-14T08:48:27Z</time>
      </trkpt>
      <trkpt lat="48.7869" lon="2.0802">
        <ele>159.72</ele>
        <time>2017-01-14T08:48:31Z</time>
      </trkpt>
      <trkpt lat="48.78685" lon="2.0803">
        <ele>159.72</ele>
        <time>2017-01-14T08:48:39Z</time>
      </trkpt>
      <trkpt lat="48.78677" lon="2.08038">
        <ele>159.24</ele>
        <time>2017-01-14T08:48:47Z</time>
      </trkpt>
      <trkpt lat="48.78671" lon="2.08043">
        <ele>159.24</ele>
        <time>2017-01-14T08:48:54Z</time>
      </trkpt>
      <trkpt lat="48.78665" lon="2.08045">
        <ele>159.24</ele>
        <time>2017-01-14T08:48:59Z</time>
      </trkpt>
      <trkpt lat="48.78652" lon="2.08047">
        <ele>159.72</ele>
        <time>2017-01-14T08:49:08Z</time>
      </trkpt>
      <trkpt lat="48.78638" lon="2.08049">
        <ele>159.72</ele>
        <time>2017-01-14T08:49:17Z</time>
      </trkpt>
      <trkpt lat="48.78632" lon="2.08047">
        <ele>159.72</ele>
        <time>2017-01-14T08:49:23Z</time>
      </trkpt>
      <trkpt lat="48.78615" lon="2.08045">
        <ele>159.72</ele>
        <time>2017-01-14T08:49:31Z</time>
      </trkpt>
      <trkpt lat="48.78606" lon="2.08044">
        <ele>159.24</ele>
        <time>2017-01-14T08:49:37Z</time>
      </trkpt>
      <trkpt lat="48.78597" lon="2.08038">
        <ele>158.75</ele>
        <time>2017-01-14T08:49:45Z</time>
      </trkpt>
      <trkpt lat="48.78587" lon="2.08036">
        <ele>158.27</ele>
        <time>2017-01-14T08:49:53Z</time>
      </trkpt>
      <trkpt lat="48.78584" lon="2.08034">
        <ele>157.79</ele>
        <time>2017-01-14T08:49:57Z</time>
      </trkpt>
      <trkpt lat="48.78576" lon="2.0803">
        <ele>157.31</ele>
        <time>2017-01-14T08:50:03Z</time>
      </trkpt>
      <trkpt lat="48.78576" lon="2.0803">
        <ele>157.79</ele>
        <time>2017-01-14T08:50:04Z</time>
      </trkpt>
      <trkpt lat="48.78572" lon="2.08027">
        <ele>157.79</ele>
        <time>2017-01-14T08:50:07Z</time>
      </trkpt>
      <trkpt lat="48.78566" lon="2.0802">
        <ele>157.79</ele>
        <time>2017-01-14T08:50:15Z</time>
      </trkpt>
      <trkpt lat="48.78557" lon="2.08012">
        <ele>157.79</ele>
        <time>2017-01-14T08:50:23Z</time>
      </trkpt>
      <trkpt lat="48.78551" lon="2.08006">
        <ele>157.79</ele>
        <time>2017-01-14T08:50:28Z</time>
      </trkpt>
      <trkpt lat="48.78548" lon="2.08005">
        <ele>157.79</ele>
        <time>2017-01-14T08:50:30Z</time>
      </trkpt>
      <trkpt lat="48.78542" lon="2.07996">
        <ele>158.27</ele>
        <time>2017-01-14T08:50:36Z</time>
      </trkpt>
      <trkpt lat="48.78537" lon="2.07987">
        <ele>158.27</ele>
        <time>2017-01-14T08:50:43Z</time>
      </trkpt>
      <trkpt lat="48.78535" lon="2.07981">
        <ele>158.75</ele>
        <time>2017-01-14T08:50:46Z</time>
      </trkpt>
      <trkpt lat="48.78532" lon="2.07973">
        <ele>158.75</ele>
        <time>2017-01-14T08:50:52Z</time>
      </trkpt>
      <trkpt lat="48.78533" lon="2.0796">
        <ele>158.75</ele>
        <time>2017-01-14T08:50:57Z</time>
      </trkpt>
      <trkpt lat="48.78532" lon="2.07959">
        <ele>159.24</ele>
        <time>2017-01-14T08:50:58Z</time>
      </trkpt>
      <trkpt lat="48.78536" lon="2.07941">
        <ele>159.72</ele>
        <time>2017-01-14T08:51:03Z</time>
      </trkpt>
      <trkpt lat="48.78536" lon="2.07938">
        <ele>159.24</ele>
        <time>2017-01-14T08:51:04Z</time>
      </trkpt>
      <trkpt lat="48.78536" lon="2.07932">
        <ele>159.24</ele>
        <time>2017-01-14T08:51:07Z</time>
      </trkpt>
      <trkpt lat="48.78539" lon="2.0792">
        <ele>159.24</ele>
        <time>2017-01-14T08:51:12Z</time>
      </trkpt>
      <trkpt lat="48.78534" lon="2.07904">
        <ele>159.72</ele>
        <time>2017-01-14T08:51:22Z</time>
      </trkpt>
      <trkpt lat="48.7853" lon="2.0789">
        <ele>160.2</ele>
        <time>2017-01-14T08:51:31Z</time>
      </trkpt>
      <trkpt lat="48.78527" lon="2.07882">
        <ele>160.2</ele>
        <time>2017-01-14T08:51:37Z</time>
      </trkpt>
      <trkpt lat="48.78521" lon="2.07877">
        <ele>161.16</ele>
        <time>2017-01-14T08:51:43Z</time>
      </trkpt>
      <trkpt lat="48.78516" lon="2.07869">
        <ele>160.68</ele>
        <time>2017-01-14T08:51:51Z</time>
      </trkpt>
      <trkpt lat="48.78511" lon="2.07862">
        <ele>160.68</ele>
        <time>2017-01-14T08:51:58Z</time>
      </trkpt>
      <trkpt lat="48.78509" lon="2.07853">
        <ele>160.68</ele>
        <time>2017-01-14T08:52:06Z</time>
      </trkpt>
      <trkpt lat="48.78501" lon="2.07844">
        <ele>161.16</ele>
        <time>2017-01-14T08:52:15Z</time>
      </trkpt>
      <trkpt lat="48.78499" lon="2.07839">
        <ele>161.16</ele>
        <time>2017-01-14T08:52:22Z</time>
      </trkpt>
      <trkpt lat="48.78494" lon="2.07831">
        <ele>160.68</ele>
        <time>2017-01-14T08:52:29Z</time>
      </trkpt>
      <trkpt lat="48.78488" lon="2.07823">
        <ele>160.2</ele>
        <time>2017-01-14T08:52:37Z</time>
      </trkpt>
      <trkpt lat="48.7848" lon="2.07808">
        <ele>160.2</ele>
        <time>2017-01-14T08:52:44Z</time>
      </trkpt>
      <trkpt lat="48.78473" lon="2.078">
        <ele>160.2</ele>
        <time>2017-01-14T08:52:53Z</time>
      </trkpt>
      <trkpt lat="48.78466" lon="2.07794">
        <ele>159.72</ele>
        <time>2017-01-14T08:53:01Z</time>
      </trkpt>
      <trkpt lat="48.78462" lon="2.07789">
        <ele>159.72</ele>
        <time>2017-01-14T08:53:07Z</time>
      </trkpt>
      <trkpt lat="48.78456" lon="2.07785">
        <ele>159.72</ele>
        <time>2017-01-14T08:53:13Z</time>
      </trkpt>
      <trkpt lat="48.78448" lon="2.07776">
        <ele>159.72</ele>
        <time>2017-01-14T08:53:21Z</time>
      </trkpt>
      <trkpt lat="48.78445" lon="2.07766">
        <ele>159.24</ele>
        <time>2017-01-14T08:53:29Z</time>
      </trkpt>
      <trkpt lat="48.78443" lon="2.07758">
        <ele>158.75</ele>
        <time>2017-01-14T08:53:35Z</time>
      </trkpt>
      <trkpt lat="48.7844" lon="2.07751">
        <ele>158.75</ele>
        <time>2017-01-14T08:53:41Z</time>
      </trkpt>
      <trkpt lat="48.78439" lon="2.07739">
        <ele>157.79</ele>
        <time>2017-01-14T08:53:49Z</time>
      </trkpt>
      <trkpt lat="48.78436" lon="2.07726">
        <ele>157.31</ele>
        <time>2017-01-14T08:53:56Z</time>
      </trkpt>
      <trkpt lat="48.78431" lon="2.07715">
        <ele>157.31</ele>
        <time>2017-01-14T08:54:03Z</time>
      </trkpt>
      <trkpt lat="48.78429" lon="2.07712">
        <ele>157.31</ele>
        <time>2017-01-14T08:54:09Z</time>
      </trkpt>
      <trkpt lat="48.78425" lon="2.07708">
        <ele>157.31</ele>
        <time>2017-01-14T08:54:15Z</time>
      </trkpt>
      <trkpt lat="48.78425" lon="2.07706">
        <ele>157.31</ele>
        <time>2017-01-14T08:54:18Z</time>
      </trkpt>
      <trkpt lat="48.78424" lon="2.07695">
        <ele>157.79</ele>
        <time>2017-01-14T08:54:24Z</time>
      </trkpt>
      <trkpt lat="48.78423" lon="2.07684">
        <ele>158.75</ele>
        <time>2017-01-14T08:54:30Z</time>
      </trkpt>
      <trkpt lat="48.78421" lon="2.07679">
        <ele>159.24</ele>
        <time>2017-01-14T08:54:34Z</time>
      </trkpt>
      <trkpt lat="48.78417" lon="2.07671">
        <ele>159.24</ele>
        <time>2017-01-14T08:54:40Z</time>
      </trkpt>
      <trkpt lat="48.78413" lon="2.07663">
        <ele>159.72</ele>
        <time>2017-01-14T08:54:46Z</time>
      </trkpt>
      <trkpt lat="48.78411" lon="2.07656">
        <ele>159.72</ele>
        <time>2017-01-14T08:54:52Z</time>
      </trkpt>
      <trkpt lat="48.78407" lon="2.07648">
        <ele>160.2</ele>
        <time>2017-01-14T08:54:58Z</time>
      </trkpt>
      <trkpt lat="48.78404" lon="2.07637">
        <ele>159.72</ele>
        <time>2017-01-14T08:55:05Z</time>
      </trkpt>
      <trkpt lat="48.78401" lon="2.07629">
        <ele>158.75</ele>
        <time>2017-01-14T08:55:13Z</time>
      </trkpt>
      <trkpt lat="48.78397" lon="2.07626">
        <ele>157.79</ele>
        <time>2017-01-14T08:55:19Z</time>
      </trkpt>
      <trkpt lat="48.78395" lon="2.07622">
        <ele>156.83</ele>
        <time>2017-01-14T08:55:25Z</time>
      </trkpt>
      <trkpt lat="48.78394" lon="2.07613">
        <ele>156.35</ele>
        <time>2017-01-14T08:55:33Z</time>
      </trkpt>
      <trkpt lat="48.78393" lon="2.0761">
        <ele>155.87</ele>
        <time>2017-01-14T08:55:42Z</time>
      </trkpt>
      <trkpt lat="48.78392" lon="2.07606">
        <ele>155.39</ele>
        <time>2017-01-14T08:55:49Z</time>
      </trkpt>
      <trkpt lat="48.78391" lon="2.076">
        <ele>155.39</ele>
        <time>2017-01-14T08:55:59Z</time>
      </trkpt>
      <trkpt lat="48.78389" lon="2.07599">
        <ele>154.43</ele>
        <time>2017-01-14T08:56:06Z</time>
      </trkpt>
      <trkpt lat="48.78384" lon="2.07598">
        <ele>153.47</ele>
        <time>2017-01-14T08:56:13Z</time>
      </trkpt>
      <trkpt lat="48.78381" lon="2.07594">
        <ele>152.51</ele>
        <time>2017-01-14T08:56:20Z</time>
      </trkpt>
      <trkpt lat="48.78375" lon="2.07593">
        <ele>151.06</ele>
        <time>2017-01-14T08:56:28Z</time>
      </trkpt>
      <trkpt lat="48.78371" lon="2.07591">
        <ele>150.58</ele>
        <time>2017-01-14T08:56:34Z</time>
      </trkpt>
      <trkpt lat="48.78366" lon="2.07591">
        <ele>150.58</ele>
        <time>2017-01-14T08:56:41Z</time>
      </trkpt>
      <trkpt lat="48.78364" lon="2.07591">
        <ele>151.06</ele>
        <time>2017-01-14T08:56:49Z</time>
      </trkpt>
      <trkpt lat="48.78363" lon="2.07589">
        <ele>151.54</ele>
        <time>2017-01-14T08:56:56Z</time>
      </trkpt>
      <trkpt lat="48.78358" lon="2.07588">
        <ele>152.03</ele>
        <time>2017-01-14T08:57:03Z</time>
      </trkpt>
      <trkpt lat="48.7835" lon="2.07588">
        <ele>152.03</ele>
        <time>2017-01-14T08:57:10Z</time>
      </trkpt>
      <trkpt lat="48.78349" lon="2.07584">
        <ele>152.51</ele>
        <time>2017-01-14T08:57:15Z</time>
      </trkpt>
      <trkpt lat="48.78347" lon="2.07581">
        <ele>152.99</ele>
        <time>2017-01-14T08:57:19Z</time>
      </trkpt>
      <trkpt lat="48.78339" lon="2.07578">
        <ele>152.99</ele>
        <time>2017-01-14T08:57:24Z</time>
      </trkpt>
      <trkpt lat="48.78333" lon="2.07568">
        <ele>152.51</ele>
        <time>2017-01-14T08:57:32Z</time>
      </trkpt>
      <trkpt lat="48.78329" lon="2.07562">
        <ele>151.54</ele>
        <time>2017-01-14T08:57:38Z</time>
      </trkpt>
      <trkpt lat="48.78326" lon="2.07559">
        <ele>151.54</ele>
        <time>2017-01-14T08:57:46Z</time>
      </trkpt>
      <trkpt lat="48.78322" lon="2.07553">
        <ele>151.06</ele>
        <time>2017-01-14T08:57:53Z</time>
      </trkpt>
      <trkpt lat="48.78321" lon="2.07551">
        <ele>151.06</ele>
        <time>2017-01-14T08:57:58Z</time>
      </trkpt>
      <trkpt lat="48.78314" lon="2.07546">
        <ele>152.51</ele>
        <time>2017-01-14T08:58:06Z</time>
      </trkpt>
      <trkpt lat="48.78305" lon="2.07547">
        <ele>152.51</ele>
        <time>2017-01-14T08:58:07Z</time>
      </trkpt>
      <trkpt lat="48.78298" lon="2.07544">
        <ele>152.51</ele>
        <time>2017-01-14T08:58:10Z</time>
      </trkpt>
      <trkpt lat="48.78283" lon="2.07533">
        <ele>152.99</ele>
        <time>2017-01-14T08:58:19Z</time>
      </trkpt>
      <trkpt lat="48.78278" lon="2.07525">
        <ele>153.95</ele>
        <time>2017-01-14T08:58:26Z</time>
      </trkpt>
      <trkpt lat="48.78274" lon="2.07516">
        <ele>154.43</ele>
        <time>2017-01-14T08:58:33Z</time>
      </trkpt>
      <trkpt lat="48.78271" lon="2.07501">
        <ele>154.91</ele>
        <time>2017-01-14T08:58:39Z</time>
      </trkpt>
      <trkpt lat="48.7827" lon="2.07486">
        <ele>156.35</ele>
        <time>2017-01-14T08:58:46Z</time>
      </trkpt>
      <trkpt lat="48.7827" lon="2.07479">
        <ele>156.35</ele>
        <time>2017-01-14T08:58:53Z</time>
      </trkpt>
      <trkpt lat="48.7827" lon="2.07474">
        <ele>156.35</ele>
        <time>2017-01-14T08:58:57Z</time>
      </trkpt>
      <trkpt lat="48.78267" lon="2.07464">
        <ele>156.83</ele>
        <time>2017-01-14T08:59:04Z</time>
      </trkpt>
      <trkpt lat="48.78265" lon="2.07455">
        <ele>156.35</ele>
        <time>2017-01-14T08:59:11Z</time>
      </trkpt>
      <trkpt lat="48.78262" lon="2.07453">
        <ele>155.87</ele>
        <time>2017-01-14T08:59:16Z</time>
      </trkpt>
      <trkpt lat="48.7826" lon="2.07452">
        <ele>155.87</ele>
        <time>2017-01-14T08:59:18Z</time>
      </trkpt>
      <trkpt lat="48.78255" lon="2.07452">
        <ele>155.39</ele>
        <time>2017-01-14T08:59:24Z</time>
      </trkpt>
      <trkpt lat="48.78252" lon="2.07444">
        <ele>155.87</ele>
        <time>2017-01-14T08:59:30Z</time>
      </trkpt>
      <trkpt lat="48.78249" lon="2.07432">
        <ele>156.83</ele>
        <time>2017-01-14T08:59:36Z</time>
      </trkpt>
      <trkpt lat="48.78246" lon="2.07419">
        <ele>157.79</ele>
        <time>2017-01-14T08:59:44Z</time>
      </trkpt>
      <trkpt lat="48.78246" lon="2.07415">
        <ele>158.27</ele>
        <time>2017-01-14T08:59:46Z</time>
      </trkpt>
      <trkpt lat="48.78244" lon="2.07403">
        <ele>158.75</ele>
        <time>2017-01-14T08:59:53Z</time>
      </trkpt>
      <trkpt lat="48.78242" lon="2.07391">
        <ele>159.24</ele>
        <time>2017-01-14T09:00:00Z</time>
      </trkpt>
      <trkpt lat="48.7824" lon="2.07383">
        <ele>159.72</ele>
        <time>2017-01-14T09:00:05Z</time>
      </trkpt>
      <trkpt lat="48.7824" lon="2.07374">
        <ele>160.2</ele>
        <time>2017-01-14T09:00:12Z</time>
      </trkpt>
      <trkpt lat="48.78239" lon="2.07368">
        <ele>159.72</ele>
        <time>2017-01-14T09:00:16Z</time>
      </trkpt>
      <trkpt lat="48.78237" lon="2.07363">
        <ele>159.24</ele>
        <time>2017-01-14T09:00:22Z</time>
      </trkpt>
      <trkpt lat="48.7823" lon="2.07359">
        <ele>157.79</ele>
        <time>2017-01-14T09:00:30Z</time>
      </trkpt>
      <trkpt lat="48.78227" lon="2.07355">
        <ele>157.31</ele>
        <time>2017-01-14T09:00:34Z</time>
      </trkpt>
      <trkpt lat="48.78222" lon="2.07348">
        <ele>156.35</ele>
        <time>2017-01-14T09:00:41Z</time>
      </trkpt>
      <trkpt lat="48.7822" lon="2.07343">
        <ele>155.87</ele>
        <time>2017-01-14T09:00:47Z</time>
      </trkpt>
      <trkpt lat="48.78215" lon="2.07336">
        <ele>154.91</ele>
        <time>2017-01-14T09:00:54Z</time>
      </trkpt>
      <trkpt lat="48.78213" lon="2.07329">
        <ele>154.43</ele>
        <time>2017-01-14T09:00:59Z</time>
      </trkpt>
      <trkpt lat="48.78211" lon="2.07324">
        <ele>153.95</ele>
        <time>2017-01-14T09:01:02Z</time>
      </trkpt>
      <trkpt lat="48.78206" lon="2.07312">
        <ele>153.47</ele>
        <time>2017-01-14T09:01:10Z</time>
      </trkpt>
      <trkpt lat="48.78204" lon="2.07303">
        <ele>152.99</ele>
        <time>2017-01-14T09:01:15Z</time>
      </trkpt>
      <trkpt lat="48.78203" lon="2.07302">
        <ele>152.99</ele>
        <time>2017-01-14T09:01:16Z</time>
      </trkpt>
      <trkpt lat="48.782" lon="2.07283">
        <ele>152.03</ele>
        <time>2017-01-14T09:01:25Z</time>
      </trkpt>
      <trkpt lat="48.78197" lon="2.0727">
        <ele>152.03</ele>
        <time>2017-01-14T09:01:33Z</time>
      </trkpt>
      <trkpt lat="48.78198" lon="2.07266">
        <ele>151.54</ele>
        <time>2017-01-14T09:01:35Z</time>
      </trkpt>
      <trkpt lat="48.78198" lon="2.07253">
        <ele>151.06</ele>
        <time>2017-01-14T09:01:43Z</time>
      </trkpt>
      <trkpt lat="48.78198" lon="2.07246">
        <ele>151.06</ele>
        <time>2017-01-14T09:01:48Z</time>
      </trkpt>
      <trkpt lat="48.78197" lon="2.07239">
        <ele>150.1</ele>
        <time>2017-01-14T09:01:53Z</time>
      </trkpt>
      <trkpt lat="48.78197" lon="2.07225">
        <ele>149.14</ele>
        <time>2017-01-14T09:02:01Z</time>
      </trkpt>
      <trkpt lat="48.78196" lon="2.07213">
        <ele>147.7</ele>
        <time>2017-01-14T09:02:09Z</time>
      </trkpt>
      <trkpt lat="48.78198" lon="2.07202">
        <ele>147.22</ele>
        <time>2017-01-14T09:02:17Z</time>
      </trkpt>
      <trkpt lat="48.78198" lon="2.07191">
        <ele>146.26</ele>
        <time>2017-01-14T09:02:23Z</time>
      </trkpt>
      <trkpt lat="48.78199" lon="2.0718">
        <ele>145.78</ele>
        <time>2017-01-14T09:02:30Z</time>
      </trkpt>
      <trkpt lat="48.78198" lon="2.07178">
        <ele>145.3</ele>
        <time>2017-01-14T09:02:32Z</time>
      </trkpt>
      <trkpt lat="48.78196" lon="2.07169">
        <ele>144.34</ele>
        <time>2017-01-14T09:02:39Z</time>
      </trkpt>
      <trkpt lat="48.78196" lon="2.07163">
        <ele>143.85</ele>
        <time>2017-01-14T09:02:46Z</time>
      </trkpt>
      <trkpt lat="48.78195" lon="2.07156">
        <ele>143.37</ele>
        <time>2017-01-14T09:02:52Z</time>
      </trkpt>
      <trkpt lat="48.78192" lon="2.0715">
        <ele>142.89</ele>
        <time>2017-01-14T09:02:58Z</time>
      </trkpt>
      <trkpt lat="48.78189" lon="2.07142">
        <ele>141.93</ele>
        <time>2017-01-14T09:03:05Z</time>
      </trkpt>
      <trkpt lat="48.78186" lon="2.07136">
        <ele>141.45</ele>
        <time>2017-01-14T09:03:11Z</time>
      </trkpt>
      <trkpt lat="48.78186" lon="2.0713">
        <ele>141.45</ele>
        <time>2017-01-14T09:03:17Z</time>
      </trkpt>
      <trkpt lat="48.78184" lon="2.07123">
        <ele>140.97</ele>
        <time>2017-01-14T09:03:23Z</time>
      </trkpt>
      <trkpt lat="48.78181" lon="2.0711">
        <ele>140.49</ele>
        <time>2017-01-14T09:03:30Z</time>
      </trkpt>
      <trkpt lat="48.78179" lon="2.07104">
        <ele>140.01</ele>
        <time>2017-01-14T09:03:33Z</time>
      </trkpt>
      <trkpt lat="48.78177" lon="2.07101">
        <ele>140.01</ele>
        <time>2017-01-14T09:03:35Z</time>
      </trkpt>
      <trkpt lat="48.78173" lon="2.07093">
        <ele>139.53</ele>
        <time>2017-01-14T09:03:40Z</time>
      </trkpt>
      <trkpt lat="48.78168" lon="2.07085">
        <ele>139.53</ele>
        <time>2017-01-14T09:03:47Z</time>
      </trkpt>
      <trkpt lat="48.78163" lon="2.07074">
        <ele>139.53</ele>
        <time>2017-01-14T09:03:55Z</time>
      </trkpt>
      <trkpt lat="48.78162" lon="2.0707">
        <ele>139.53</ele>
        <time>2017-01-14T09:03:58Z</time>
      </trkpt>
      <trkpt lat="48.7816" lon="2.07066">
        <ele>139.53</ele>
        <time>2017-01-14T09:04:00Z</time>
      </trkpt>
      <trkpt lat="48.78158" lon="2.0706">
        <ele>139.53</ele>
        <time>2017-01-14T09:04:04Z</time>
      </trkpt>
      <trkpt lat="48.78155" lon="2.07056">
        <ele>139.53</ele>
        <time>2017-01-14T09:04:07Z</time>
      </trkpt>
      <trkpt lat="48.78152" lon="2.07054">
        <ele>140.01</ele>
        <time>2017-01-14T09:04:10Z</time>
      </trkpt>
      <trkpt lat="48.78145" lon="2.07041">
        <ele>140.01</ele>
        <time>2017-01-14T09:04:19Z</time>
      </trkpt>
      <trkpt lat="48.7814" lon="2.0703">
        <ele>140.01</ele>
        <time>2017-01-14T09:04:26Z</time>
      </trkpt>
      <trkpt lat="48.78137" lon="2.07024">
        <ele>140.49</ele>
        <time>2017-01-14T09:04:30Z</time>
      </trkpt>
      <trkpt lat="48.78133" lon="2.07021">
        <ele>140.49</ele>
        <time>2017-01-14T09:04:34Z</time>
      </trkpt>
      <trkpt lat="48.78129" lon="2.07013">
        <ele>140.49</ele>
        <time>2017-01-14T09:04:40Z</time>
      </trkpt>
      <trkpt lat="48.78128" lon="2.07012">
        <ele>140.49</ele>
        <time>2017-01-14T09:04:41Z</time>
      </trkpt>
      <trkpt lat="48.78122" lon="2.07006">
        <ele>140.97</ele>
        <time>2017-01-14T09:04:47Z</time>
      </trkpt>
      <trkpt lat="48.78121" lon="2.07004">
        <ele>140.97</ele>
        <time>2017-01-14T09:04:49Z</time>
      </trkpt>
      <trkpt lat="48.78118" lon="2.06999">
        <ele>140.97</ele>
        <time>2017-01-14T09:04:52Z</time>
      </trkpt>
      <trkpt lat="48.78117" lon="2.06983">
        <ele>140.97</ele>
        <time>2017-01-14T09:04:58Z</time>
      </trkpt>
      <trkpt lat="48.7812" lon="2.06969">
        <ele>141.45</ele>
        <time>2017-01-14T09:05:03Z</time>
      </trkpt>
      <trkpt lat="48.78119" lon="2.06959">
        <ele>141.45</ele>
        <time>2017-01-14T09:05:08Z</time>
      </trkpt>
      <trkpt lat="48.78119" lon="2.06956">
        <ele>141.45</ele>
        <time>2017-01-14T09:05:12Z</time>
      </trkpt>
      <trkpt lat="48.78111" lon="2.06952">
        <ele>141.93</ele>
        <time>2017-01-14T09:05:18Z</time>
      </trkpt>
      <trkpt lat="48.78105" lon="2.06939">
        <ele>141.93</ele>
        <time>2017-01-14T09:05:25Z</time>
      </trkpt>
      <trkpt lat="48.78102" lon="2.06934">
        <ele>141.93</ele>
        <time>2017-01-14T09:05:28Z</time>
      </trkpt>
      <trkpt lat="48.78096" lon="2.06927">
        <ele>141.93</ele>
        <time>2017-01-14T09:05:34Z</time>
      </trkpt>
      <trkpt lat="48.78095" lon="2.06923">
        <ele>141.93</ele>
        <time>2017-01-14T09:05:37Z</time>
      </trkpt>
      <trkpt lat="48.78093" lon="2.0692">
        <ele>141.93</ele>
        <time>2017-01-14T09:05:40Z</time>
      </trkpt>
      <trkpt lat="48.7809" lon="2.06918">
        <ele>141.93</ele>
        <time>2017-01-14T09:05:42Z</time>
      </trkpt>
      <trkpt lat="48.78088" lon="2.06914">
        <ele>141.93</ele>
        <time>2017-01-14T09:05:45Z</time>
      </trkpt>
      <trkpt lat="48.78085" lon="2.06913">
        <ele>141.93</ele>
        <time>2017-01-14T09:05:49Z</time>
      </trkpt>
      <trkpt lat="48.78083" lon="2.06911">
        <ele>142.41</ele>
        <time>2017-01-14T09:05:51Z</time>
      </trkpt>
      <trkpt lat="48.78081" lon="2.06897">
        <ele>141.93</ele>
        <time>2017-01-14T09:05:57Z</time>
      </trkpt>
      <trkpt lat="48.7808" lon="2.06896">
        <ele>141.93</ele>
        <time>2017-01-14T09:05:58Z</time>
      </trkpt>
      <trkpt lat="48.78077" lon="2.06895">
        <ele>142.41</ele>
        <time>2017-01-14T09:06:01Z</time>
      </trkpt>
      <trkpt lat="48.7808" lon="2.06867">
        <ele>142.41</ele>
        <time>2017-01-14T09:06:09Z</time>
      </trkpt>
      <trkpt lat="48.78072" lon="2.0687">
        <ele>142.89</ele>
        <time>2017-01-14T09:06:17Z</time>
      </trkpt>
      <trkpt lat="48.78066" lon="2.06876">
        <ele>142.41</ele>
        <time>2017-01-14T09:06:24Z</time>
      </trkpt>
      <trkpt lat="48.78058" lon="2.06884">
        <ele>142.41</ele>
        <time>2017-01-14T09:06:33Z</time>
      </trkpt>
      <trkpt lat="48.78052" lon="2.06894">
        <ele>142.89</ele>
        <time>2017-01-14T09:06:41Z</time>
      </trkpt>
      <trkpt lat="48.78052" lon="2.06897">
        <ele>142.89</ele>
        <time>2017-01-14T09:06:43Z</time>
      </trkpt>
      <trkpt lat="48.78054" lon="2.06908">
        <ele>142.89</ele>
        <time>2017-01-14T09:06:51Z</time>
      </trkpt>
      <trkpt lat="48.78056" lon="2.06912">
        <ele>142.89</ele>
        <time>2017-01-14T09:06:55Z</time>
      </trkpt>
      <trkpt lat="48.7806" lon="2.06915">
        <ele>142.89</ele>
        <time>2017-01-14T09:07:00Z</time>
      </trkpt>
      <trkpt lat="48.78065" lon="2.06919">
        <ele>142.89</ele>
        <time>2017-01-14T09:07:06Z</time>
      </trkpt>
      <trkpt lat="48.78069" lon="2.06925">
        <ele>142.89</ele>
        <time>2017-01-14T09:07:12Z</time>
      </trkpt>
      <trkpt lat="48.78075" lon="2.06933">
        <ele>142.89</ele>
        <time>2017-01-14T09:07:18Z</time>
      </trkpt>
      <trkpt lat="48.7808" lon="2.06946">
        <ele>142.89</ele>
        <time>2017-01-14T09:07:26Z</time>
      </trkpt>
      <trkpt lat="48.78082" lon="2.06951">
        <ele>142.89</ele>
        <time>2017-01-14T09:07:30Z</time>
      </trkpt>
      <trkpt lat="48.78088" lon="2.06962">
        <ele>142.89</ele>
        <time>2017-01-14T09:07:39Z</time>
      </trkpt>
      <trkpt lat="48.78092" lon="2.06969">
        <ele>142.89</ele>
        <time>2017-01-14T09:07:46Z</time>
      </trkpt>
      <trkpt lat="48.781" lon="2.06977">
        <ele>143.37</ele>
        <time>2017-01-14T09:07:54Z</time>
      </trkpt>
      <trkpt lat="48.78102" lon="2.06981">
        <ele>142.89</ele>
        <time>2017-01-14T09:07:57Z</time>
      </trkpt>
      <trkpt lat="48.7811" lon="2.06994">
        <ele>143.37</ele>
        <time>2017-01-14T09:08:05Z</time>
      </trkpt>
      <trkpt lat="48.78113" lon="2.06998">
        <ele>143.37</ele>
        <time>2017-01-14T09:08:08Z</time>
      </trkpt>
      <trkpt lat="48.78116" lon="2.07008">
        <ele>143.37</ele>
        <time>2017-01-14T09:08:13Z</time>
      </trkpt>
      <trkpt lat="48.78119" lon="2.0702">
        <ele>142.89</ele>
        <time>2017-01-14T09:08:20Z</time>
      </trkpt>
      <trkpt lat="48.78124" lon="2.07038">
        <ele>143.37</ele>
        <time>2017-01-14T09:08:30Z</time>
      </trkpt>
      <trkpt lat="48.78125" lon="2.07045">
        <ele>143.37</ele>
        <time>2017-01-14T09:08:34Z</time>
      </trkpt>
      <trkpt lat="48.78128" lon="2.07062">
        <ele>142.89</ele>
        <time>2017-01-14T09:08:44Z</time>
      </trkpt>
      <trkpt lat="48.78129" lon="2.07067">
        <ele>142.89</ele>
        <time>2017-01-14T09:08:47Z</time>
      </trkpt>
      <trkpt lat="48.78129" lon="2.0707">
        <ele>142.89</ele>
        <time>2017-01-14T09:08:49Z</time>
      </trkpt>
      <trkpt lat="48.78129" lon="2.07079">
        <ele>142.89</ele>
        <time>2017-01-14T09:08:54Z</time>
      </trkpt>
      <trkpt lat="48.78129" lon="2.07093">
        <ele>143.37</ele>
        <time>2017-01-14T09:09:02Z</time>
      </trkpt>
      <trkpt lat="48.78128" lon="2.07106">
        <ele>143.37</ele>
        <time>2017-01-14T09:09:10Z</time>
      </trkpt>
      <trkpt lat="48.78126" lon="2.07115">
        <ele>143.37</ele>
        <time>2017-01-14T09:09:16Z</time>
      </trkpt>
      <trkpt lat="48.78123" lon="2.07125">
        <ele>143.37</ele>
        <time>2017-01-14T09:09:25Z</time>
      </trkpt>
      <trkpt lat="48.78121" lon="2.07135">
        <ele>143.37</ele>
        <time>2017-01-14T09:09:33Z</time>
      </trkpt>
      <trkpt lat="48.78119" lon="2.07152">
        <ele>143.37</ele>
        <time>2017-01-14T09:09:42Z</time>
      </trkpt>
      <trkpt lat="48.7812" lon="2.07166">
        <ele>143.37</ele>
        <time>2017-01-14T09:09:49Z</time>
      </trkpt>
      <trkpt lat="48.7812" lon="2.07182">
        <ele>143.37</ele>
        <time>2017-01-14T09:09:57Z</time>
      </trkpt>
      <trkpt lat="48.78119" lon="2.07191">
        <ele>143.37</ele>
        <time>2017-01-14T09:10:03Z</time>
      </trkpt>
      <trkpt lat="48.78119" lon="2.07206">
        <ele>143.37</ele>
        <time>2017-01-14T09:10:11Z</time>
      </trkpt>
      <trkpt lat="48.78119" lon="2.07218">
        <ele>143.37</ele>
        <time>2017-01-14T09:10:18Z</time>
      </trkpt>
      <trkpt lat="48.78118" lon="2.07229">
        <ele>143.37</ele>
        <time>2017-01-14T09:10:25Z</time>
      </trkpt>
      <trkpt lat="48.78118" lon="2.07244">
        <ele>143.85</ele>
        <time>2017-01-14T09:10:34Z</time>
      </trkpt>
      <trkpt lat="48.78118" lon="2.07261">
        <ele>143.37</ele>
        <time>2017-01-14T09:10:42Z</time>
      </trkpt>
      <trkpt lat="48.78117" lon="2.07275">
        <ele>143.85</ele>
        <time>2017-01-14T09:10:50Z</time>
      </trkpt>
      <trkpt lat="48.78116" lon="2.07289">
        <ele>143.85</ele>
        <time>2017-01-14T09:10:58Z</time>
      </trkpt>
      <trkpt lat="48.78116" lon="2.07304">
        <ele>144.34</ele>
        <time>2017-01-14T09:11:05Z</time>
      </trkpt>
      <trkpt lat="48.78115" lon="2.07314">
        <ele>143.85</ele>
        <time>2017-01-14T09:11:12Z</time>
      </trkpt>
      <trkpt lat="48.78115" lon="2.07325">
        <ele>143.85</ele>
        <time>2017-01-14T09:11:19Z</time>
      </trkpt>
      <trkpt lat="48.78116" lon="2.07336">
        <ele>143.85</ele>
        <time>2017-01-14T09:11:25Z</time>
      </trkpt>
      <trkpt lat="48.78115" lon="2.07349">
        <ele>143.85</ele>
        <time>2017-01-14T09:11:33Z</time>
      </trkpt>
      <trkpt lat="48.78116" lon="2.07359">
        <ele>143.85</ele>
        <time>2017-01-14T09:11:38Z</time>
      </trkpt>
      <trkpt lat="48.78116" lon="2.0737">
        <ele>143.85</ele>
        <time>2017-01-14T09:11:44Z</time>
      </trkpt>
      <trkpt lat="48.78117" lon="2.07383">
        <ele>143.85</ele>
        <time>2017-01-14T09:11:51Z</time>
      </trkpt>
      <trkpt lat="48.78118" lon="2.07393">
        <ele>143.85</ele>
        <time>2017-01-14T09:11:56Z</time>
      </trkpt>
      <trkpt lat="48.78121" lon="2.07409">
        <ele>143.85</ele>
        <time>2017-01-14T09:12:05Z</time>
      </trkpt>
      <trkpt lat="48.78122" lon="2.0742">
        <ele>143.85</ele>
        <time>2017-01-14T09:12:12Z</time>
      </trkpt>
      <trkpt lat="48.78123" lon="2.07422">
        <ele>143.85</ele>
        <time>2017-01-14T09:12:13Z</time>
      </trkpt>
      <trkpt lat="48.78125" lon="2.07435">
        <ele>143.85</ele>
        <time>2017-01-14T09:12:20Z</time>
      </trkpt>
      <trkpt lat="48.78127" lon="2.07446">
        <ele>143.85</ele>
        <time>2017-01-14T09:12:27Z</time>
      </trkpt>
      <trkpt lat="48.78129" lon="2.07456">
        <ele>143.85</ele>
        <time>2017-01-14T09:12:34Z</time>
      </trkpt>
      <trkpt lat="48.7813" lon="2.0746">
        <ele>143.85</ele>
        <time>2017-01-14T09:12:36Z</time>
      </trkpt>
      <trkpt lat="48.78132" lon="2.07472">
        <ele>143.85</ele>
        <time>2017-01-14T09:12:44Z</time>
      </trkpt>
      <trkpt lat="48.78134" lon="2.07483">
        <ele>143.85</ele>
        <time>2017-01-14T09:12:52Z</time>
      </trkpt>
      <trkpt lat="48.78134" lon="2.07483">
        <ele>143.85</ele>
        <time>2017-01-14T09:12:53Z</time>
      </trkpt>
      <trkpt lat="48.78135" lon="2.07486">
        <ele>143.85</ele>
        <time>2017-01-14T09:12:55Z</time>
      </trkpt>
      <trkpt lat="48.78136" lon="2.07495">
        <ele>143.85</ele>
        <time>2017-01-14T09:13:00Z</time>
      </trkpt>
      <trkpt lat="48.78137" lon="2.07503">
        <ele>144.82</ele>
        <time>2017-01-14T09:13:05Z</time>
      </trkpt>
      <trkpt lat="48.7814" lon="2.07519">
        <ele>144.34</ele>
        <time>2017-01-14T09:13:14Z</time>
      </trkpt>
      <trkpt lat="48.78141" lon="2.07521">
        <ele>144.34</ele>
        <time>2017-01-14T09:13:16Z</time>
      </trkpt>
      <trkpt lat="48.78142" lon="2.07525">
        <ele>144.34</ele>
        <time>2017-01-14T09:13:18Z</time>
      </trkpt>
      <trkpt lat="48.78144" lon="2.07538">
        <ele>144.34</ele>
        <time>2017-01-14T09:13:26Z</time>
      </trkpt>
      <trkpt lat="48.78146" lon="2.07551">
        <ele>144.34</ele>
        <time>2017-01-14T09:13:34Z</time>
      </trkpt>
      <trkpt lat="48.78147" lon="2.07553">
        <ele>144.82</ele>
        <time>2017-01-14T09:13:35Z</time>
      </trkpt>
      <trkpt lat="48.78148" lon="2.0756">
        <ele>144.82</ele>
        <time>2017-01-14T09:13:38Z</time>
      </trkpt>
      <trkpt lat="48.78154" lon="2.07575">
        <ele>144.82</ele>
        <time>2017-01-14T09:13:45Z</time>
      </trkpt>
      <trkpt lat="48.78157" lon="2.07586">
        <ele>144.82</ele>
        <time>2017-01-14T09:13:52Z</time>
      </trkpt>
      <trkpt lat="48.78162" lon="2.07596">
        <ele>144.82</ele>
        <time>2017-01-14T09:13:59Z</time>
      </trkpt>
      <trkpt lat="48.78168" lon="2.07607">
        <ele>144.82</ele>
        <time>2017-01-14T09:14:06Z</time>
      </trkpt>
      <trkpt lat="48.78173" lon="2.07617">
        <ele>144.82</ele>
        <time>2017-01-14T09:14:13Z</time>
      </trkpt>
      <trkpt lat="48.78174" lon="2.07618">
        <ele>144.82</ele>
        <time>2017-01-14T09:14:14Z</time>
      </trkpt>
      <trkpt lat="48.78175" lon="2.07621">
        <ele>144.82</ele>
        <time>2017-01-14T09:14:16Z</time>
      </trkpt>
      <trkpt lat="48.7818" lon="2.0763">
        <ele>144.82</ele>
        <time>2017-01-14T09:14:23Z</time>
      </trkpt>
      <trkpt lat="48.78188" lon="2.07639">
        <ele>144.82</ele>
        <time>2017-01-14T09:14:32Z</time>
      </trkpt>
      <trkpt lat="48.78189" lon="2.07642">
        <ele>144.82</ele>
        <time>2017-01-14T09:14:34Z</time>
      </trkpt>
      <trkpt lat="48.78198" lon="2.07654">
        <ele>145.3</ele>
        <time>2017-01-14T09:14:44Z</time>
      </trkpt>
      <trkpt lat="48.78204" lon="2.07663">
        <ele>145.3</ele>
        <time>2017-01-14T09:14:52Z</time>
      </trkpt>
      <trkpt lat="48.7821" lon="2.07669">
        <ele>145.3</ele>
        <time>2017-01-14T09:14:58Z</time>
      </trkpt>
      <trkpt lat="48.78215" lon="2.07679">
        <ele>146.26</ele>
        <time>2017-01-14T09:15:05Z</time>
      </trkpt>
      <trkpt lat="48.78217" lon="2.07684">
        <ele>145.3</ele>
        <time>2017-01-14T09:15:08Z</time>
      </trkpt>
      <trkpt lat="48.78224" lon="2.07692">
        <ele>145.3</ele>
        <time>2017-01-14T09:15:16Z</time>
      </trkpt>
      <trkpt lat="48.78229" lon="2.07699">
        <ele>145.3</ele>
        <time>2017-01-14T09:15:22Z</time>
      </trkpt>
      <trkpt lat="48.78233" lon="2.07705">
        <ele>145.3</ele>
        <time>2017-01-14T09:15:28Z</time>
      </trkpt>
      <trkpt lat="48.78236" lon="2.07708">
        <ele>145.3</ele>
        <time>2017-01-14T09:15:31Z</time>
      </trkpt>
      <trkpt lat="48.78239" lon="2.07712">
        <ele>145.3</ele>
        <time>2017-01-14T09:15:34Z</time>
      </trkpt>
      <trkpt lat="48.78245" lon="2.07721">
        <ele>145.3</ele>
        <time>2017-01-14T09:15:41Z</time>
      </trkpt>
      <trkpt lat="48.78245" lon="2.07722">
        <ele>145.3</ele>
        <time>2017-01-14T09:15:42Z</time>
      </trkpt>
      <trkpt lat="48.78248" lon="2.07724">
        <ele>145.3</ele>
        <time>2017-01-14T09:15:44Z</time>
      </trkpt>
      <trkpt lat="48.78256" lon="2.0773">
        <ele>145.3</ele>
        <time>2017-01-14T09:15:52Z</time>
      </trkpt>
      <trkpt lat="48.78258" lon="2.07731">
        <ele>145.3</ele>
        <time>2017-01-14T09:15:54Z</time>
      </trkpt>
      <trkpt lat="48.78263" lon="2.07732">
        <ele>145.3</ele>
        <time>2017-01-14T09:15:59Z</time>
      </trkpt>
      <trkpt lat="48.78272" lon="2.0774">
        <ele>145.3</ele>
        <time>2017-01-14T09:16:08Z</time>
      </trkpt>
      <trkpt lat="48.78274" lon="2.07741">
        <ele>145.3</ele>
        <time>2017-01-14T09:16:09Z</time>
      </trkpt>
      <trkpt lat="48.78282" lon="2.07748">
        <ele>145.3</ele>
        <time>2017-01-14T09:16:18Z</time>
      </trkpt>
      <trkpt lat="48.78283" lon="2.0775">
        <ele>144.82</ele>
        <time>2017-01-14T09:16:19Z</time>
      </trkpt>
      <trkpt lat="48.78286" lon="2.07757">
        <ele>145.3</ele>
        <time>2017-01-14T09:16:25Z</time>
      </trkpt>
      <trkpt lat="48.78293" lon="2.07767">
        <ele>145.3</ele>
        <time>2017-01-14T09:16:34Z</time>
      </trkpt>
      <trkpt lat="48.78295" lon="2.07772">
        <ele>144.82</ele>
        <time>2017-01-14T09:16:38Z</time>
      </trkpt>
      <trkpt lat="48.78296" lon="2.07775">
        <ele>144.82</ele>
        <time>2017-01-14T09:16:40Z</time>
      </trkpt>
      <trkpt lat="48.78298" lon="2.07781">
        <ele>145.3</ele>
        <time>2017-01-14T09:16:44Z</time>
      </trkpt>
      <trkpt lat="48.78301" lon="2.07789">
        <ele>145.3</ele>
        <time>2017-01-14T09:16:50Z</time>
      </trkpt>
      <trkpt lat="48.78305" lon="2.07797">
        <ele>144.82</ele>
        <time>2017-01-14T09:16:57Z</time>
      </trkpt>
      <trkpt lat="48.7831" lon="2.07807">
        <ele>144.82</ele>
        <time>2017-01-14T09:17:05Z</time>
      </trkpt>
      <trkpt lat="48.78311" lon="2.07811">
        <ele>144.82</ele>
        <time>2017-01-14T09:17:07Z</time>
      </trkpt>
      <trkpt lat="48.78316" lon="2.07823">
        <ele>144.82</ele>
        <time>2017-01-14T09:17:14Z</time>
      </trkpt>
      <trkpt lat="48.78316" lon="2.07824">
        <ele>144.82</ele>
        <time>2017-01-14T09:17:15Z</time>
      </trkpt>
      <trkpt lat="48.78322" lon="2.07836">
        <ele>144.82</ele>
        <time>2017-01-14T09:17:24Z</time>
      </trkpt>
      <trkpt lat="48.78327" lon="2.07845">
        <ele>144.82</ele>
        <time>2017-01-14T09:17:31Z</time>
      </trkpt>
      <trkpt lat="48.78331" lon="2.07849">
        <ele>144.82</ele>
        <time>2017-01-14T09:17:35Z</time>
      </trkpt>
      <trkpt lat="48.78337" lon="2.07859">
        <ele>145.3</ele>
        <time>2017-01-14T09:17:43Z</time>
      </trkpt>
      <trkpt lat="48.78338" lon="2.0786">
        <ele>145.3</ele>
        <time>2017-01-14T09:17:45Z</time>
      </trkpt>
      <trkpt lat="48.78341" lon="2.07866">
        <ele>145.3</ele>
        <time>2017-01-14T09:17:50Z</time>
      </trkpt>
      <trkpt lat="48.78346" lon="2.07877">
        <ele>145.3</ele>
        <time>2017-01-14T09:17:58Z</time>
      </trkpt>
      <trkpt lat="48.7835" lon="2.07887">
        <ele>145.3</ele>
        <time>2017-01-14T09:18:04Z</time>
      </trkpt>
      <trkpt lat="48.78353" lon="2.07895">
        <ele>145.3</ele>
        <time>2017-01-14T09:18:09Z</time>
      </trkpt>
      <trkpt lat="48.78353" lon="2.07896">
        <ele>145.3</ele>
        <time>2017-01-14T09:18:10Z</time>
      </trkpt>
      <trkpt lat="48.78357" lon="2.07907">
        <ele>145.3</ele>
        <time>2017-01-14T09:18:17Z</time>
      </trkpt>
      <trkpt lat="48.78358" lon="2.07909">
        <ele>145.3</ele>
        <time>2017-01-14T09:18:19Z</time>
      </trkpt>
      <trkpt lat="48.7836" lon="2.07917">
        <ele>145.3</ele>
        <time>2017-01-14T09:18:24Z</time>
      </trkpt>
      <trkpt lat="48.78363" lon="2.07932">
        <ele>145.78</ele>
        <time>2017-01-14T09:18:33Z</time>
      </trkpt>
      <trkpt lat="48.78363" lon="2.07934">
        <ele>145.78</ele>
        <time>2017-01-14T09:18:34Z</time>
      </trkpt>
      <trkpt lat="48.78364" lon="2.0794">
        <ele>145.78</ele>
        <time>2017-01-14T09:18:37Z</time>
      </trkpt>
      <trkpt lat="48.78366" lon="2.0795">
        <ele>145.78</ele>
        <time>2017-01-14T09:18:44Z</time>
      </trkpt>
      <trkpt lat="48.78367" lon="2.07952">
        <ele>145.78</ele>
        <time>2017-01-14T09:18:45Z</time>
      </trkpt>
      <trkpt lat="48.78369" lon="2.07967">
        <ele>145.78</ele>
        <time>2017-01-14T09:18:53Z</time>
      </trkpt>
      <trkpt lat="48.7837" lon="2.07978">
        <ele>146.26</ele>
        <time>2017-01-14T09:19:00Z</time>
      </trkpt>
      <trkpt lat="48.78372" lon="2.07987">
        <ele>146.74</ele>
        <time>2017-01-14T09:19:06Z</time>
      </trkpt>
      <trkpt lat="48.78373" lon="2.07998">
        <ele>145.78</ele>
        <time>2017-01-14T09:19:13Z</time>
      </trkpt>
      <trkpt lat="48.78374" lon="2.08008">
        <ele>146.26</ele>
        <time>2017-01-14T09:19:21Z</time>
      </trkpt>
      <trkpt lat="48.78373" lon="2.08015">
        <ele>145.78</ele>
        <time>2017-01-14T09:19:28Z</time>
      </trkpt>
      <trkpt lat="48.78372" lon="2.08021">
        <ele>146.26</ele>
        <time>2017-01-14T09:19:34Z</time>
      </trkpt>
      <trkpt lat="48.78371" lon="2.08033">
        <ele>147.7</ele>
        <time>2017-01-14T09:19:41Z</time>
      </trkpt>
      <trkpt lat="48.78371" lon="2.08044">
        <ele>148.18</ele>
        <time>2017-01-14T09:19:48Z</time>
      </trkpt>
      <trkpt lat="48.78371" lon="2.08051">
        <ele>149.14</ele>
        <time>2017-01-14T09:19:55Z</time>
      </trkpt>
      <trkpt lat="48.78371" lon="2.08059">
        <ele>150.1</ele>
        <time>2017-01-14T09:20:00Z</time>
      </trkpt>
      <trkpt lat="48.78371" lon="2.0807">
        <ele>151.06</ele>
        <time>2017-01-14T09:20:07Z</time>
      </trkpt>
      <trkpt lat="48.7837" lon="2.0808">
        <ele>151.54</ele>
        <time>2017-01-14T09:20:14Z</time>
      </trkpt>
      <trkpt lat="48.78369" lon="2.08088">
        <ele>152.03</ele>
        <time>2017-01-14T09:20:21Z</time>
      </trkpt>
      <trkpt lat="48.78368" lon="2.08097">
        <ele>152.03</ele>
        <time>2017-01-14T09:20:27Z</time>
      </trkpt>
      <trkpt lat="48.78365" lon="2.08109">
        <ele>151.54</ele>
        <time>2017-01-14T09:20:34Z</time>
      </trkpt>
      <trkpt lat="48.78362" lon="2.08116">
        <ele>150.58</ele>
        <time>2017-01-14T09:20:39Z</time>
      </trkpt>
      <trkpt lat="48.78357" lon="2.08121">
        <ele>150.1</ele>
        <time>2017-01-14T09:20:46Z</time>
      </trkpt>
      <trkpt lat="48.78351" lon="2.08131">
        <ele>149.14</ele>
        <time>2017-01-14T09:20:52Z</time>
      </trkpt>
      <trkpt lat="48.78346" lon="2.08139">
        <ele>148.66</ele>
        <time>2017-01-14T09:20:58Z</time>
      </trkpt>
      <trkpt lat="48.78345" lon="2.08143">
        <ele>148.66</ele>
        <time>2017-01-14T09:21:01Z</time>
      </trkpt>
      <trkpt lat="48.78343" lon="2.08151">
        <ele>148.66</ele>
        <time>2017-01-14T09:21:05Z</time>
      </trkpt>
      <trkpt lat="48.78337" lon="2.08163">
        <ele>148.66</ele>
        <time>2017-01-14T09:21:14Z</time>
      </trkpt>
      <trkpt lat="48.78336" lon="2.08165">
        <ele>148.66</ele>
        <time>2017-01-14T09:21:15Z</time>
      </trkpt>
      <trkpt lat="48.78333" lon="2.08169">
        <ele>148.66</ele>
        <time>2017-01-14T09:21:19Z</time>
      </trkpt>
      <trkpt lat="48.78331" lon="2.08173">
        <ele>148.66</ele>
        <time>2017-01-14T09:21:21Z</time>
      </trkpt>
      <trkpt lat="48.78329" lon="2.08188">
        <ele>149.14</ele>
        <time>2017-01-14T09:21:30Z</time>
      </trkpt>
      <trkpt lat="48.78325" lon="2.08199">
        <ele>148.66</ele>
        <time>2017-01-14T09:21:37Z</time>
      </trkpt>
      <trkpt lat="48.7832" lon="2.08207">
        <ele>148.18</ele>
        <time>2017-01-14T09:21:44Z</time>
      </trkpt>
      <trkpt lat="48.78314" lon="2.08214">
        <ele>148.18</ele>
        <time>2017-01-14T09:21:50Z</time>
      </trkpt>
      <trkpt lat="48.78309" lon="2.08225">
        <ele>148.18</ele>
        <time>2017-01-14T09:21:56Z</time>
      </trkpt>
      <trkpt lat="48.78303" lon="2.0824">
        <ele>148.18</ele>
        <time>2017-01-14T09:22:04Z</time>
      </trkpt>
      <trkpt lat="48.78302" lon="2.0825">
        <ele>148.18</ele>
        <time>2017-01-14T09:22:09Z</time>
      </trkpt>
      <trkpt lat="48.78297" lon="2.08259">
        <ele>148.66</ele>
        <time>2017-01-14T09:22:16Z</time>
      </trkpt>
      <trkpt lat="48.78294" lon="2.08264">
        <ele>148.66</ele>
        <time>2017-01-14T09:22:20Z</time>
      </trkpt>
      <trkpt lat="48.7829" lon="2.08274">
        <ele>148.66</ele>
        <time>2017-01-14T09:22:26Z</time>
      </trkpt>
      <trkpt lat="48.78287" lon="2.0828">
        <ele>148.18</ele>
        <time>2017-01-14T09:22:32Z</time>
      </trkpt>
      <trkpt lat="48.78281" lon="2.08287">
        <ele>148.18</ele>
        <time>2017-01-14T09:22:37Z</time>
      </trkpt>
      <trkpt lat="48.78277" lon="2.08295">
        <ele>148.18</ele>
        <time>2017-01-14T09:22:43Z</time>
      </trkpt>
      <trkpt lat="48.78273" lon="2.08306">
        <ele>148.18</ele>
        <time>2017-01-14T09:22:50Z</time>
      </trkpt>
      <trkpt lat="48.78266" lon="2.08314">
        <ele>148.66</ele>
        <time>2017-01-14T09:22:55Z</time>
      </trkpt>
      <trkpt lat="48.78262" lon="2.08322">
        <ele>148.18</ele>
        <time>2017-01-14T09:23:00Z</time>
      </trkpt>
      <trkpt lat="48.78256" lon="2.08334">
        <ele>148.66</ele>
        <time>2017-01-14T09:23:07Z</time>
      </trkpt>
      <trkpt lat="48.78253" lon="2.08343">
        <ele>148.18</ele>
        <time>2017-01-14T09:23:13Z</time>
      </trkpt>
      <trkpt lat="48.78249" lon="2.08351">
        <ele>148.66</ele>
        <time>2017-01-14T09:23:17Z</time>
      </trkpt>
      <trkpt lat="48.78246" lon="2.0836">
        <ele>148.66</ele>
        <time>2017-01-14T09:23:23Z</time>
      </trkpt>
      <trkpt lat="48.78245" lon="2.0837">
        <ele>148.66</ele>
        <time>2017-01-14T09:23:30Z</time>
      </trkpt>
      <trkpt lat="48.78241" lon="2.08381">
        <ele>148.18</ele>
        <time>2017-01-14T09:23:37Z</time>
      </trkpt>
      <trkpt lat="48.78235" lon="2.08389">
        <ele>148.66</ele>
        <time>2017-01-14T09:23:44Z</time>
      </trkpt>
      <trkpt lat="48.78234" lon="2.08393">
        <ele>148.66</ele>
        <time>2017-01-14T09:23:56Z</time>
      </trkpt>
      <trkpt lat="48.78232" lon="2.08395">
        <ele>148.66</ele>
        <time>2017-01-14T09:24:10Z</time>
      </trkpt>
      <trkpt lat="48.78231" lon="2.08395">
        <ele>148.66</ele>
        <time>2017-01-14T09:24:19Z</time>
      </trkpt>
      <trkpt lat="48.7823" lon="2.08395">
        <ele>148.18</ele>
        <time>2017-01-14T09:24:35Z</time>
      </trkpt>
      <trkpt lat="48.78229" lon="2.08395">
        <ele>148.18</ele>
        <time>2017-01-14T09:24:43Z</time>
      </trkpt>
      <trkpt lat="48.78228" lon="2.08394">
        <ele>148.18</ele>
        <time>2017-01-14T09:24:57Z</time>
      </trkpt>
      <trkpt lat="48.78227" lon="2.08395">
        <ele>148.18</ele>
        <time>2017-01-14T09:25:09Z</time>
      </trkpt>
      <trkpt lat="48.78227" lon="2.08395">
        <ele>148.18</ele>
        <time>2017-01-14T09:25:18Z</time>
      </trkpt>
      <trkpt lat="48.78226" lon="2.08395">
        <ele>148.18</ele>
        <time>2017-01-14T09:25:27Z</time>
      </trkpt>
      <trkpt lat="48.78225" lon="2.08396">
        <ele>148.18</ele>
        <time>2017-01-14T09:25:35Z</time>
      </trkpt>
      <trkpt lat="48.78225" lon="2.08396">
        <ele>148.18</ele>
        <time>2017-01-14T09:25:44Z</time>
      </trkpt>
      <trkpt lat="48.78224" lon="2.08395">
        <ele>148.66</ele>
        <time>2017-01-14T09:25:54Z</time>
      </trkpt>
      <trkpt lat="48.78224" lon="2.08394">
        <ele>148.18</ele>
        <time>2017-01-14T09:26:07Z</time>
      </trkpt>
      <trkpt lat="48.78223" lon="2.08394">
        <ele>148.18</ele>
        <time>2017-01-14T09:26:17Z</time>
      </trkpt>
      <trkpt lat="48.78223" lon="2.08394">
        <ele>148.18</ele>
        <time>2017-01-14T09:26:28Z</time>
      </trkpt>
      <trkpt lat="48.78223" lon="2.08394">
        <ele>147.7</ele>
        <time>2017-01-14T09:26:36Z</time>
      </trkpt>
      <trkpt lat="48.78222" lon="2.08393">
        <ele>148.18</ele>
        <time>2017-01-14T09:26:43Z</time>
      </trkpt>
      <trkpt lat="48.78223" lon="2.08392">
        <ele>148.18</ele>
        <time>2017-01-14T09:26:54Z</time>
      </trkpt>
      <trkpt lat="48.78222" lon="2.08392">
        <ele>147.7</ele>
        <time>2017-01-14T09:27:05Z</time>
      </trkpt>
      <trkpt lat="48.78222" lon="2.08392">
        <ele>147.7</ele>
        <time>2017-01-14T09:27:13Z</time>
      </trkpt>
      <trkpt lat="48.78222" lon="2.08392">
        <ele>147.7</ele>
        <time>2017-01-14T09:27:21Z</time>
      </trkpt>
      <trkpt lat="48.78222" lon="2.08392">
        <ele>147.7</ele>
        <time>2017-01-14T09:27:29Z</time>
      </trkpt>
      <trkpt lat="48.78221" lon="2.08392">
        <ele>147.7</ele>
        <time>2017-01-14T09:27:37Z</time>
      </trkpt>
      <trkpt lat="48.78221" lon="2.08393">
        <ele>147.7</ele>
        <time>2017-01-14T09:27:47Z</time>
      </trkpt>
      <trkpt lat="48.7822" lon="2.08393">
        <ele>147.22</ele>
        <time>2017-01-14T09:27:57Z</time>
      </trkpt>
      <trkpt lat="48.7822" lon="2.08392">
        <ele>147.7</ele>
        <time>2017-01-14T09:28:07Z</time>
      </trkpt>
      <trkpt lat="48.7822" lon="2.08392">
        <ele>147.7</ele>
        <time>2017-01-14T09:28:20Z</time>
      </trkpt>
      <trkpt lat="48.7822" lon="2.08391">
        <ele>147.22</ele>
        <time>2017-01-14T09:28:34Z</time>
      </trkpt>
      <trkpt lat="48.7822" lon="2.08391">
        <ele>147.22</ele>
        <time>2017-01-14T09:28:42Z</time>
      </trkpt>
      <trkpt lat="48.7822" lon="2.08391">
        <ele>147.22</ele>
        <time>2017-01-14T09:28:56Z</time>
      </trkpt>
      <trkpt lat="48.78219" lon="2.08389">
        <ele>147.22</ele>
        <time>2017-01-14T09:29:09Z</time>
      </trkpt>
      <trkpt lat="48.78219" lon="2.08389">
        <ele>147.22</ele>
        <time>2017-01-14T09:29:24Z</time>
      </trkpt>
      <trkpt lat="48.78218" lon="2.08389">
        <ele>146.74</ele>
        <time>2017-01-14T09:29:42Z</time>
      </trkpt>
      <trkpt lat="48.78218" lon="2.08388">
        <ele>146.74</ele>
        <time>2017-01-14T09:29:59Z</time>
      </trkpt>
      <trkpt lat="48.78218" lon="2.08389">
        <ele>146.74</ele>
        <time>2017-01-14T09:30:13Z</time>
      </trkpt>
      <trkpt lat="48.78218" lon="2.08389">
        <ele>146.74</ele>
        <time>2017-01-14T09:30:24Z</time>
      </trkpt>
      <trkpt lat="48.78218" lon="2.08388">
        <ele>146.74</ele>
        <time>2017-01-14T09:30:39Z</time>
      </trkpt>
      <trkpt lat="48.78218" lon="2.08388">
        <ele>146.74</ele>
        <time>2017-01-14T09:30:52Z</time>
      </trkpt>
      <trkpt lat="48.78218" lon="2.08388">
        <ele>146.26</ele>
        <time>2017-01-14T09:31:08Z</time>
      </trkpt>
      <trkpt lat="48.78219" lon="2.08388">
        <ele>146.26</ele>
        <time>2017-01-14T09:31:27Z</time>
      </trkpt>
      <trkpt lat="48.78219" lon="2.08388">
        <ele>146.26</ele>
        <time>2017-01-14T09:31:41Z</time>
      </trkpt>
      <trkpt lat="48.78219" lon="2.08389">
        <ele>145.78</ele>
        <time>2017-01-14T09:31:56Z</time>
      </trkpt>
      <trkpt lat="48.78219" lon="2.0839">
        <ele>145.78</ele>
        <time>2017-01-14T09:32:13Z</time>
      </trkpt>
      <trkpt lat="48.78219" lon="2.0839">
        <ele>145.78</ele>
        <time>2017-01-14T09:32:30Z</time>
      </trkpt>
      <trkpt lat="48.78219" lon="2.0839">
        <ele>145.78</ele>
        <time>2017-01-14T09:32:48Z</time>
      </trkpt>
      <trkpt lat="48.78219" lon="2.0839">
        <ele>145.78</ele>
        <time>2017-01-14T09:33:04Z</time>
      </trkpt>
      <trkpt lat="48.78219" lon="2.08391">
        <ele>145.78</ele>
        <time>2017-01-14T09:33:19Z</time>
      </trkpt>
      <trkpt lat="48.78219" lon="2.08391">
        <ele>145.78</ele>
        <time>2017-01-14T09:33:31Z</time>
      </trkpt>
      <trkpt lat="48.78219" lon="2.08392">
        <ele>145.78</ele>
        <time>2017-01-14T09:33:46Z</time>
      </trkpt>
      <trkpt lat="48.78219" lon="2.08393">
        <ele>145.78</ele>
        <time>2017-01-14T09:34:01Z</time>
      </trkpt>
      <trkpt lat="48.78219" lon="2.08393">
        <ele>145.3</ele>
        <time>2017-01-14T09:34:14Z</time>
      </trkpt>
      <trkpt lat="48.78217" lon="2.08393">
        <ele>145.3</ele>
        <time>2017-01-14T09:34:29Z</time>
      </trkpt>
      <trkpt lat="48.78216" lon="2.08394">
        <ele>145.3</ele>
        <time>2017-01-14T09:34:48Z</time>
      </trkpt>
      <trkpt lat="48.78216" lon="2.08394">
        <ele>145.3</ele>
        <time>2017-01-14T09:34:59Z</time>
      </trkpt>
      <trkpt lat="48.78216" lon="2.08394">
        <ele>145.3</ele>
        <time>2017-01-14T09:35:11Z</time>
      </trkpt>
      <trkpt lat="48.78216" lon="2.08395">
        <ele>145.3</ele>
        <time>2017-01-14T09:35:29Z</time>
      </trkpt>
      <trkpt lat="48.78216" lon="2.08395">
        <ele>145.3</ele>
        <time>2017-01-14T09:35:43Z</time>
      </trkpt>
      <trkpt lat="48.78216" lon="2.08395">
        <ele>145.3</ele>
        <time>2017-01-14T09:35:58Z</time>
      </trkpt>
      <trkpt lat="48.78216" lon="2.08395">
        <ele>145.3</ele>
        <time>2017-01-14T09:36:10Z</time>
      </trkpt>
      <trkpt lat="48.78216" lon="2.08396">
        <ele>145.3</ele>
        <time>2017-01-14T09:36:22Z</time>
      </trkpt>
      <trkpt lat="48.78215" lon="2.08396">
        <ele>145.3</ele>
        <time>2017-01-14T09:36:37Z</time>
      </trkpt>
      <trkpt lat="48.78215" lon="2.08397">
        <ele>145.3</ele>
        <time>2017-01-14T09:36:55Z</time>
      </trkpt>
      <trkpt lat="48.78215" lon="2.08397">
        <ele>144.82</ele>
        <time>2017-01-14T09:37:14Z</time>
      </trkpt>
      <trkpt lat="48.78214" lon="2.08398">
        <ele>145.3</ele>
        <time>2017-01-14T09:37:34Z</time>
      </trkpt>
      <trkpt lat="48.78215" lon="2.08397">
        <ele>144.82</ele>
        <time>2017-01-14T09:37:47Z</time>
      </trkpt>
      <trkpt lat="48.78214" lon="2.08398">
        <ele>144.82</ele>
        <time>2017-01-14T09:38:04Z</time>
      </trkpt>
      <trkpt lat="48.78214" lon="2.08398">
        <ele>144.82</ele>
        <time>2017-01-14T09:38:19Z</time>
      </trkpt>
      <trkpt lat="48.78214" lon="2.08398">
        <ele>144.82</ele>
        <time>2017-01-14T09:38:34Z</time>
      </trkpt>
      <trkpt lat="48.78214" lon="2.08398">
        <ele>144.82</ele>
        <time>2017-01-14T09:38:46Z</time>
      </trkpt>
      <trkpt lat="48.78214" lon="2.08398">
        <ele>144.34</ele>
        <time>2017-01-14T09:39:03Z</time>
      </trkpt>
      <trkpt lat="48.78214" lon="2.08398">
        <ele>144.34</ele>
        <time>2017-01-14T09:39:21Z</time>
      </trkpt>
      <trkpt lat="48.78214" lon="2.08397">
        <ele>144.34</ele>
        <time>2017-01-14T09:39:33Z</time>
      </trkpt>
      <trkpt lat="48.78214" lon="2.08398">
        <ele>144.34</ele>
        <time>2017-01-14T09:39:50Z</time>
      </trkpt>
      <trkpt lat="48.78214" lon="2.08398">
        <ele>144.34</ele>
        <time>2017-01-14T09:40:04Z</time>
      </trkpt>
      <trkpt lat="48.78214" lon="2.08398">
        <ele>144.34</ele>
        <time>2017-01-14T09:40:17Z</time>
      </trkpt>
      <trkpt lat="48.78214" lon="2.08398">
        <ele>144.34</ele>
        <time>2017-01-14T09:40:27Z</time>
      </trkpt>
      <trkpt lat="48.78214" lon="2.08397">
        <ele>143.85</ele>
        <time>2017-01-14T09:40:42Z</time>
      </trkpt>
      <trkpt lat="48.78214" lon="2.08397">
        <ele>143.85</ele>
        <time>2017-01-14T09:40:59Z</time>
      </trkpt>
      <trkpt lat="48.78214" lon="2.08397">
        <ele>143.85</ele>
        <time>2017-01-14T09:41:14Z</time>
      </trkpt>
      <trkpt lat="48.78214" lon="2.08397">
        <ele>143.85</ele>
        <time>2017-01-14T09:41:23Z</time>
      </trkpt>
      <trkpt lat="48.78214" lon="2.08396">
        <ele>143.85</ele>
        <time>2017-01-14T09:41:35Z</time>
      </trkpt>
      <trkpt lat="48.78214" lon="2.08395">
        <ele>143.85</ele>
        <time>2017-01-14T09:41:52Z</time>
      </trkpt>
      <trkpt lat="48.78214" lon="2.08395">
        <ele>143.85</ele>
        <time>2017-01-14T09:42:04Z</time>
      </trkpt>
      <trkpt lat="48.78215" lon="2.08396">
        <ele>143.85</ele>
        <time>2017-01-14T09:42:13Z</time>
      </trkpt>
      <trkpt lat="48.78214" lon="2.084">
        <ele>143.85</ele>
        <time>2017-01-14T09:42:20Z</time>
      </trkpt>
      <trkpt lat="48.78214" lon="2.08402">
        <ele>144.34</ele>
        <time>2017-01-14T09:42:27Z</time>
      </trkpt>
      <trkpt lat="48.78209" lon="2.08404">
        <ele>145.3</ele>
        <time>2017-01-14T09:42:36Z</time>
      </trkpt>
      <trkpt lat="48.78209" lon="2.08404">
        <ele>145.78</ele>
        <time>2017-01-14T09:42:37Z</time>
      </trkpt>
      <trkpt lat="48.78206" lon="2.08404">
        <ele>146.26</ele>
        <time>2017-01-14T09:42:44Z</time>
      </trkpt>
      <trkpt lat="48.78203" lon="2.08405">
        <ele>147.22</ele>
        <time>2017-01-14T09:42:51Z</time>
      </trkpt>
      <trkpt lat="48.782" lon="2.08406">
        <ele>148.18</ele>
        <time>2017-01-14T09:42:58Z</time>
      </trkpt>
      <trkpt lat="48.78194" lon="2.08407">
        <ele>148.66</ele>
        <time>2017-01-14T09:43:05Z</time>
      </trkpt>
      <trkpt lat="48.78189" lon="2.08407">
        <ele>149.62</ele>
        <time>2017-01-14T09:43:13Z</time>
      </trkpt>
      <trkpt lat="48.78188" lon="2.08408">
        <ele>150.58</ele>
        <time>2017-01-14T09:43:21Z</time>
      </trkpt>
      <trkpt lat="48.78187" lon="2.08407">
        <ele>151.54</ele>
        <time>2017-01-14T09:43:27Z</time>
      </trkpt>
      <trkpt lat="48.7818" lon="2.08406">
        <ele>152.03</ele>
        <time>2017-01-14T09:43:32Z</time>
      </trkpt>
      <trkpt lat="48.78177" lon="2.08405">
        <ele>152.99</ele>
        <time>2017-01-14T09:43:38Z</time>
      </trkpt>
      <trkpt lat="48.78173" lon="2.08405">
        <ele>153.95</ele>
        <time>2017-01-14T09:43:43Z</time>
      </trkpt>
      <trkpt lat="48.78169" lon="2.08407">
        <ele>153.95</ele>
        <time>2017-01-14T09:43:50Z</time>
      </trkpt>
      <trkpt lat="48.78161" lon="2.08409">
        <ele>152.99</ele>
        <time>2017-01-14T09:43:59Z</time>
      </trkpt>
      <trkpt lat="48.78151" lon="2.08411">
        <ele>152.03</ele>
        <time>2017-01-14T09:44:06Z</time>
      </trkpt>
      <trkpt lat="48.78139" lon="2.08417">
        <ele>151.06</ele>
        <time>2017-01-14T09:44:14Z</time>
      </trkpt>
      <trkpt lat="48.78137" lon="2.08421">
        <ele>150.58</ele>
        <time>2017-01-14T09:44:19Z</time>
      </trkpt>
      <trkpt lat="48.78132" lon="2.08431">
        <ele>150.1</ele>
        <time>2017-01-14T09:44:28Z</time>
      </trkpt>
      <trkpt lat="48.78129" lon="2.08437">
        <ele>149.62</ele>
        <time>2017-01-14T09:44:34Z</time>
      </trkpt>
      <trkpt lat="48.78127" lon="2.08446">
        <ele>149.14</ele>
        <time>2017-01-14T09:44:40Z</time>
      </trkpt>
      <trkpt lat="48.78123" lon="2.08453">
        <ele>148.66</ele>
        <time>2017-01-14T09:44:47Z</time>
      </trkpt>
      <trkpt lat="48.78121" lon="2.08461">
        <ele>148.18</ele>
        <time>2017-01-14T09:44:54Z</time>
      </trkpt>
      <trkpt lat="48.78122" lon="2.08471">
        <ele>147.22</ele>
        <time>2017-01-14T09:45:03Z</time>
      </trkpt>
      <trkpt lat="48.78121" lon="2.08483">
        <ele>146.74</ele>
        <time>2017-01-14T09:45:09Z</time>
      </trkpt>
      <trkpt lat="48.78121" lon="2.08494">
        <ele>146.26</ele>
        <time>2017-01-14T09:45:15Z</time>
      </trkpt>
      <trkpt lat="48.7812" lon="2.08503">
        <ele>145.78</ele>
        <time>2017-01-14T09:45:21Z</time>
      </trkpt>
      <trkpt lat="48.78119" lon="2.08513">
        <ele>146.26</ele>
        <time>2017-01-14T09:45:29Z</time>
      </trkpt>
      <trkpt lat="48.78115" lon="2.0852">
        <ele>146.26</ele>
        <time>2017-01-14T09:45:37Z</time>
      </trkpt>
      <trkpt lat="48.78114" lon="2.08529">
        <ele>146.74</ele>
        <time>2017-01-14T09:45:44Z</time>
      </trkpt>
      <trkpt lat="48.78113" lon="2.08536">
        <ele>147.22</ele>
        <time>2017-01-14T09:45:50Z</time>
      </trkpt>
      <trkpt lat="48.78109" lon="2.08545">
        <ele>147.22</ele>
        <time>2017-01-14T09:45:58Z</time>
      </trkpt>
      <trkpt lat="48.78105" lon="2.08556">
        <ele>146.26</ele>
        <time>2017-01-14T09:46:07Z</time>
      </trkpt>
      <trkpt lat="48.781" lon="2.08566">
        <ele>145.78</ele>
        <time>2017-01-14T09:46:13Z</time>
      </trkpt>
      <trkpt lat="48.78096" lon="2.08574">
        <ele>146.26</ele>
        <time>2017-01-14T09:46:19Z</time>
      </trkpt>
      <trkpt lat="48.78091" lon="2.08586">
        <ele>146.26</ele>
        <time>2017-01-14T09:46:27Z</time>
      </trkpt>
      <trkpt lat="48.78089" lon="2.08589">
        <ele>146.26</ele>
        <time>2017-01-14T09:46:30Z</time>
      </trkpt>
      <trkpt lat="48.78083" lon="2.08598">
        <ele>145.78</ele>
        <time>2017-01-14T09:46:37Z</time>
      </trkpt>
      <trkpt lat="48.78081" lon="2.086">
        <ele>146.26</ele>
        <time>2017-01-14T09:46:39Z</time>
      </trkpt>
      <trkpt lat="48.78074" lon="2.08611">
        <ele>146.26</ele>
        <time>2017-01-14T09:46:47Z</time>
      </trkpt>
      <trkpt lat="48.78069" lon="2.08621">
        <ele>146.26</ele>
        <time>2017-01-14T09:46:53Z</time>
      </trkpt>
      <trkpt lat="48.78063" lon="2.08636">
        <ele>146.26</ele>
        <time>2017-01-14T09:47:01Z</time>
      </trkpt>
      <trkpt lat="48.7806" lon="2.08647">
        <ele>145.78</ele>
        <time>2017-01-14T09:47:08Z</time>
      </trkpt>
      <trkpt lat="48.78056" lon="2.08655">
        <ele>145.78</ele>
        <time>2017-01-14T09:47:15Z</time>
      </trkpt>
      <trkpt lat="48.78054" lon="2.08664">
        <ele>145.78</ele>
        <time>2017-01-14T09:47:21Z</time>
      </trkpt>
      <trkpt lat="48.7805" lon="2.08676">
        <ele>145.78</ele>
        <time>2017-01-14T09:47:30Z</time>
      </trkpt>
      <trkpt lat="48.78045" lon="2.08687">
        <ele>145.78</ele>
        <time>2017-01-14T09:47:37Z</time>
      </trkpt>
      <trkpt lat="48.78041" lon="2.08696">
        <ele>146.26</ele>
        <time>2017-01-14T09:47:44Z</time>
      </trkpt>
      <trkpt lat="48.78038" lon="2.08705">
        <ele>146.74</ele>
        <time>2017-01-14T09:47:51Z</time>
      </trkpt>
      <trkpt lat="48.78036" lon="2.08711">
        <ele>146.74</ele>
        <time>2017-01-14T09:47:57Z</time>
      </trkpt>
      <trkpt lat="48.78036" lon="2.08715">
        <ele>146.74</ele>
        <time>2017-01-14T09:47:59Z</time>
      </trkpt>
      <trkpt lat="48.78036" lon="2.08729">
        <ele>147.22</ele>
        <time>2017-01-14T09:48:06Z</time>
      </trkpt>
      <trkpt lat="48.78033" lon="2.08742">
        <ele>148.18</ele>
        <time>2017-01-14T09:48:13Z</time>
      </trkpt>
      <trkpt lat="48.78031" lon="2.08752">
        <ele>148.66</ele>
        <time>2017-01-14T09:48:20Z</time>
      </trkpt>
      <trkpt lat="48.7803" lon="2.08756">
        <ele>148.66</ele>
        <time>2017-01-14T09:48:26Z</time>
      </trkpt>
      <trkpt lat="48.78029" lon="2.0876">
        <ele>149.14</ele>
        <time>2017-01-14T09:48:29Z</time>
      </trkpt>
      <trkpt lat="48.78027" lon="2.08764">
        <ele>148.66</ele>
        <time>2017-01-14T09:48:32Z</time>
      </trkpt>
      <trkpt lat="48.78021" lon="2.0878">
        <ele>148.66</ele>
        <time>2017-01-14T09:48:41Z</time>
      </trkpt>
      <trkpt lat="48.78019" lon="2.08791">
        <ele>148.18</ele>
        <time>2017-01-14T09:48:48Z</time>
      </trkpt>
      <trkpt lat="48.78019" lon="2.08802">
        <ele>147.7</ele>
        <time>2017-01-14T09:48:56Z</time>
      </trkpt>
      <trkpt lat="48.78016" lon="2.08813">
        <ele>147.22</ele>
        <time>2017-01-14T09:49:03Z</time>
      </trkpt>
      <trkpt lat="48.78014" lon="2.0883">
        <ele>146.74</ele>
        <time>2017-01-14T09:49:11Z</time>
      </trkpt>
      <trkpt lat="48.78013" lon="2.08846">
        <ele>146.26</ele>
        <time>2017-01-14T09:49:18Z</time>
      </trkpt>
      <trkpt lat="48.78011" lon="2.08856">
        <ele>146.26</ele>
        <time>2017-01-14T09:49:25Z</time>
      </trkpt>
      <trkpt lat="48.7801" lon="2.08867">
        <ele>145.78</ele>
        <time>2017-01-14T09:49:32Z</time>
      </trkpt>
      <trkpt lat="48.7801" lon="2.0888">
        <ele>145.3</ele>
        <time>2017-01-14T09:49:40Z</time>
      </trkpt>
      <trkpt lat="48.78009" lon="2.08892">
        <ele>144.82</ele>
        <time>2017-01-14T09:49:48Z</time>
      </trkpt>
      <trkpt lat="48.78009" lon="2.08902">
        <ele>144.34</ele>
        <time>2017-01-14T09:49:54Z</time>
      </trkpt>
      <trkpt lat="48.78008" lon="2.0891">
        <ele>143.85</ele>
        <time>2017-01-14T09:50:00Z</time>
      </trkpt>
      <trkpt lat="48.78008" lon="2.08922">
        <ele>142.89</ele>
        <time>2017-01-14T09:50:07Z</time>
      </trkpt>
      <trkpt lat="48.78007" lon="2.08927">
        <ele>143.85</ele>
        <time>2017-01-14T09:50:13Z</time>
      </trkpt>
      <trkpt lat="48.78003" lon="2.08935">
        <ele>143.85</ele>
        <time>2017-01-14T09:50:20Z</time>
      </trkpt>
      <trkpt lat="48.78001" lon="2.08939">
        <ele>143.37</ele>
        <time>2017-01-14T09:50:25Z</time>
      </trkpt>
      <trkpt lat="48.77998" lon="2.08945">
        <ele>142.89</ele>
        <time>2017-01-14T09:50:30Z</time>
      </trkpt>
      <trkpt lat="48.77997" lon="2.08953">
        <ele>143.37</ele>
        <time>2017-01-14T09:50:37Z</time>
      </trkpt>
      <trkpt lat="48.77993" lon="2.0896">
        <ele>143.37</ele>
        <time>2017-01-14T09:50:43Z</time>
      </trkpt>
      <trkpt lat="48.77991" lon="2.08967">
        <ele>143.37</ele>
        <time>2017-01-14T09:50:49Z</time>
      </trkpt>
      <trkpt lat="48.77987" lon="2.08975">
        <ele>143.37</ele>
        <time>2017-01-14T09:50:57Z</time>
      </trkpt>
      <trkpt lat="48.77985" lon="2.08979">
        <ele>143.85</ele>
        <time>2017-01-14T09:51:01Z</time>
      </trkpt>
      <trkpt lat="48.77979" lon="2.08981">
        <ele>144.34</ele>
        <time>2017-01-14T09:51:08Z</time>
      </trkpt>
      <trkpt lat="48.77978" lon="2.08987">
        <ele>143.85</ele>
        <time>2017-01-14T09:51:13Z</time>
      </trkpt>
      <trkpt lat="48.77978" lon="2.08992">
        <ele>143.37</ele>
        <time>2017-01-14T09:51:19Z</time>
      </trkpt>
      <trkpt lat="48.77977" lon="2.08994">
        <ele>143.37</ele>
        <time>2017-01-14T09:51:21Z</time>
      </trkpt>
      <trkpt lat="48.77975" lon="2.09001">
        <ele>142.89</ele>
        <time>2017-01-14T09:51:27Z</time>
      </trkpt>
      <trkpt lat="48.77969" lon="2.09009">
        <ele>142.41</ele>
        <time>2017-01-14T09:51:35Z</time>
      </trkpt>
      <trkpt lat="48.77965" lon="2.09019">
        <ele>142.41</ele>
        <time>2017-01-14T09:51:41Z</time>
      </trkpt>
      <trkpt lat="48.77961" lon="2.0903">
        <ele>142.41</ele>
        <time>2017-01-14T09:51:47Z</time>
      </trkpt>
      <trkpt lat="48.7796" lon="2.0904">
        <ele>142.41</ele>
        <time>2017-01-14T09:51:53Z</time>
      </trkpt>
      <trkpt lat="48.77957" lon="2.09047">
        <ele>142.41</ele>
        <time>2017-01-14T09:51:58Z</time>
      </trkpt>
      <trkpt lat="48.77953" lon="2.09061">
        <ele>142.89</ele>
        <time>2017-01-14T09:52:06Z</time>
      </trkpt>
      <trkpt lat="48.7795" lon="2.09066">
        <ele>142.89</ele>
        <time>2017-01-14T09:52:13Z</time>
      </trkpt>
      <trkpt lat="48.77948" lon="2.09069">
        <ele>143.37</ele>
        <time>2017-01-14T09:52:16Z</time>
      </trkpt>
      <trkpt lat="48.77945" lon="2.09075">
        <ele>143.37</ele>
        <time>2017-01-14T09:52:20Z</time>
      </trkpt>
      <trkpt lat="48.77941" lon="2.09082">
        <ele>142.89</ele>
        <time>2017-01-14T09:52:26Z</time>
      </trkpt>
      <trkpt lat="48.77935" lon="2.09091">
        <ele>142.89</ele>
        <time>2017-01-14T09:52:33Z</time>
      </trkpt>
      <trkpt lat="48.77931" lon="2.09098">
        <ele>142.89</ele>
        <time>2017-01-14T09:52:39Z</time>
      </trkpt>
      <trkpt lat="48.77926" lon="2.09102">
        <ele>142.41</ele>
        <time>2017-01-14T09:52:43Z</time>
      </trkpt>
      <trkpt lat="48.77921" lon="2.09111">
        <ele>142.41</ele>
        <time>2017-01-14T09:52:49Z</time>
      </trkpt>
      <trkpt lat="48.77918" lon="2.09122">
        <ele>141.45</ele>
        <time>2017-01-14T09:52:57Z</time>
      </trkpt>
      <trkpt lat="48.77914" lon="2.09127">
        <ele>141.93</ele>
        <time>2017-01-14T09:53:02Z</time>
      </trkpt>
      <trkpt lat="48.77911" lon="2.09132">
        <ele>142.41</ele>
        <time>2017-01-14T09:53:07Z</time>
      </trkpt>
      <trkpt lat="48.7791" lon="2.09134">
        <ele>142.89</ele>
        <time>2017-01-14T09:53:13Z</time>
      </trkpt>
      <trkpt lat="48.77908" lon="2.09138">
        <ele>142.89</ele>
        <time>2017-01-14T09:53:20Z</time>
      </trkpt>
      <trkpt lat="48.77903" lon="2.09143">
        <ele>143.37</ele>
        <time>2017-01-14T09:53:26Z</time>
      </trkpt>
      <trkpt lat="48.77897" lon="2.09146">
        <ele>142.89</ele>
        <time>2017-01-14T09:53:33Z</time>
      </trkpt>
      <trkpt lat="48.7789" lon="2.09156">
        <ele>143.37</ele>
        <time>2017-01-14T09:53:40Z</time>
      </trkpt>
      <trkpt lat="48.77888" lon="2.09161">
        <ele>143.85</ele>
        <time>2017-01-14T09:53:45Z</time>
      </trkpt>
      <trkpt lat="48.77882" lon="2.0917">
        <ele>143.85</ele>
        <time>2017-01-14T09:53:53Z</time>
      </trkpt>
      <trkpt lat="48.77876" lon="2.09177">
        <ele>144.34</ele>
        <time>2017-01-14T09:54:00Z</time>
      </trkpt>
      <trkpt lat="48.77872" lon="2.09185">
        <ele>144.34</ele>
        <time>2017-01-14T09:54:05Z</time>
      </trkpt>
      <trkpt lat="48.77864" lon="2.09192">
        <ele>144.34</ele>
        <time>2017-01-14T09:54:11Z</time>
      </trkpt>
      <trkpt lat="48.77856" lon="2.09197">
        <ele>144.34</ele>
        <time>2017-01-14T09:54:17Z</time>
      </trkpt>
      <trkpt lat="48.7785" lon="2.092">
        <ele>144.34</ele>
        <time>2017-01-14T09:54:24Z</time>
      </trkpt>
      <trkpt lat="48.77844" lon="2.092">
        <ele>144.82</ele>
        <time>2017-01-14T09:54:32Z</time>
      </trkpt>
      <trkpt lat="48.77841" lon="2.09202">
        <ele>144.82</ele>
        <time>2017-01-14T09:54:38Z</time>
      </trkpt>
      <trkpt lat="48.77839" lon="2.09203">
        <ele>144.34</ele>
        <time>2017-01-14T09:54:41Z</time>
      </trkpt>
      <trkpt lat="48.77832" lon="2.09209">
        <ele>144.82</ele>
        <time>2017-01-14T09:54:48Z</time>
      </trkpt>
      <trkpt lat="48.77829" lon="2.09214">
        <ele>145.3</ele>
        <time>2017-01-14T09:54:54Z</time>
      </trkpt>
      <trkpt lat="48.77827" lon="2.09219">
        <ele>145.3</ele>
        <time>2017-01-14T09:55:01Z</time>
      </trkpt>
      <trkpt lat="48.77829" lon="2.09224">
        <ele>145.3</ele>
        <time>2017-01-14T09:55:05Z</time>
      </trkpt>
      <trkpt lat="48.77829" lon="2.09232">
        <ele>145.78</ele>
        <time>2017-01-14T09:55:13Z</time>
      </trkpt>
      <trkpt lat="48.77831" lon="2.09238">
        <ele>145.78</ele>
        <time>2017-01-14T09:55:20Z</time>
      </trkpt>
      <trkpt lat="48.77833" lon="2.09246">
        <ele>146.26</ele>
        <time>2017-01-14T09:55:27Z</time>
      </trkpt>
      <trkpt lat="48.77833" lon="2.09247">
        <ele>146.26</ele>
        <time>2017-01-14T09:55:28Z</time>
      </trkpt>
      <trkpt lat="48.77837" lon="2.09253">
        <ele>146.26</ele>
        <time>2017-01-14T09:55:34Z</time>
      </trkpt>
      <trkpt lat="48.77844" lon="2.0926">
        <ele>146.26</ele>
        <time>2017-01-14T09:55:42Z</time>
      </trkpt>
      <trkpt lat="48.77851" lon="2.0927">
        <ele>147.22</ele>
        <time>2017-01-14T09:55:51Z</time>
      </trkpt>
      <trkpt lat="48.77852" lon="2.09271">
        <ele>147.22</ele>
        <time>2017-01-14T09:55:52Z</time>
      </trkpt>
      <trkpt lat="48.77859" lon="2.09275">
        <ele>147.7</ele>
        <time>2017-01-14T09:56:01Z</time>
      </trkpt>
      <trkpt lat="48.77862" lon="2.09277">
        <ele>147.7</ele>
        <time>2017-01-14T09:56:04Z</time>
      </trkpt>
      <trkpt lat="48.77867" lon="2.09281">
        <ele>147.7</ele>
        <time>2017-01-14T09:56:12Z</time>
      </trkpt>
      <trkpt lat="48.7787" lon="2.09285">
        <ele>147.7</ele>
        <time>2017-01-14T09:56:17Z</time>
      </trkpt>
      <trkpt lat="48.77872" lon="2.09291">
        <ele>148.18</ele>
        <time>2017-01-14T09:56:22Z</time>
      </trkpt>
      <trkpt lat="48.77878" lon="2.09298">
        <ele>147.7</ele>
        <time>2017-01-14T09:56:29Z</time>
      </trkpt>
      <trkpt lat="48.7788" lon="2.09304">
        <ele>148.66</ele>
        <time>2017-01-14T09:56:37Z</time>
      </trkpt>
      <trkpt lat="48.77882" lon="2.09309">
        <ele>148.66</ele>
        <time>2017-01-14T09:56:44Z</time>
      </trkpt>
      <trkpt lat="48.77883" lon="2.09313">
        <ele>148.66</ele>
        <time>2017-01-14T09:56:47Z</time>
      </trkpt>
      <trkpt lat="48.77885" lon="2.09324">
        <ele>148.66</ele>
        <time>2017-01-14T09:56:54Z</time>
      </trkpt>
      <trkpt lat="48.77888" lon="2.09331">
        <ele>149.14</ele>
        <time>2017-01-14T09:57:00Z</time>
      </trkpt>
      <trkpt lat="48.77889" lon="2.09341">
        <ele>149.14</ele>
        <time>2017-01-14T09:57:08Z</time>
      </trkpt>
      <trkpt lat="48.7789" lon="2.09345">
        <ele>149.62</ele>
        <time>2017-01-14T09:57:15Z</time>
      </trkpt>
      <trkpt lat="48.7789" lon="2.09352">
        <ele>149.62</ele>
        <time>2017-01-14T09:57:20Z</time>
      </trkpt>
      <trkpt lat="48.77892" lon="2.09362">
        <ele>149.14</ele>
        <time>2017-01-14T09:57:26Z</time>
      </trkpt>
      <trkpt lat="48.77893" lon="2.09371">
        <ele>149.14</ele>
        <time>2017-01-14T09:57:32Z</time>
      </trkpt>
      <trkpt lat="48.77893" lon="2.09376">
        <ele>148.66</ele>
        <time>2017-01-14T09:57:38Z</time>
      </trkpt>
      <trkpt lat="48.77891" lon="2.09384">
        <ele>149.14</ele>
        <time>2017-01-14T09:57:44Z</time>
      </trkpt>
      <trkpt lat="48.77888" lon="2.09389">
        <ele>148.66</ele>
        <time>2017-01-14T09:57:48Z</time>
      </trkpt>
      <trkpt lat="48.77885" lon="2.09402">
        <ele>148.18</ele>
        <time>2017-01-14T09:57:56Z</time>
      </trkpt>
      <trkpt lat="48.77886" lon="2.09409">
        <ele>147.22</ele>
        <time>2017-01-14T09:58:02Z</time>
      </trkpt>
      <trkpt lat="48.77888" lon="2.09416">
        <ele>146.74</ele>
        <time>2017-01-14T09:58:09Z</time>
      </trkpt>
      <trkpt lat="48.77891" lon="2.09425">
        <ele>146.26</ele>
        <time>2017-01-14T09:58:15Z</time>
      </trkpt>
      <trkpt lat="48.77893" lon="2.09433">
        <ele>145.3</ele>
        <time>2017-01-14T09:58:22Z</time>
      </trkpt>
      <trkpt lat="48.77895" lon="2.09442">
        <ele>144.34</ele>
        <time>2017-01-14T09:58:30Z</time>
      </trkpt>
      <trkpt lat="48.77897" lon="2.09447">
        <ele>143.37</ele>
        <time>2017-01-14T09:58:37Z</time>
      </trkpt>
      <trkpt lat="48.77899" lon="2.09456">
        <ele>142.89</ele>
        <time>2017-01-14T09:58:45Z</time>
      </trkpt>
      <trkpt lat="48.77899" lon="2.09461">
        <ele>141.93</ele>
        <time>2017-01-14T09:58:52Z</time>
      </trkpt>
      <trkpt lat="48.77902" lon="2.09467">
        <ele>141.45</ele>
        <time>2017-01-14T09:58:58Z</time>
      </trkpt>
      <trkpt lat="48.77902" lon="2.09472">
        <ele>140.97</ele>
        <time>2017-01-14T09:59:04Z</time>
      </trkpt>
      <trkpt lat="48.77903" lon="2.09477">
        <ele>140.49</ele>
        <time>2017-01-14T09:59:11Z</time>
      </trkpt>
      <trkpt lat="48.77904" lon="2.09488">
        <ele>140.01</ele>
        <time>2017-01-14T09:59:17Z</time>
      </trkpt>
      <trkpt lat="48.77904" lon="2.09502">
        <ele>140.01</ele>
        <time>2017-01-14T09:59:24Z</time>
      </trkpt>
      <trkpt lat="48.77904" lon="2.09503">
        <ele>139.53</ele>
        <time>2017-01-14T09:59:25Z</time>
      </trkpt>
      <trkpt lat="48.77908" lon="2.09515">
        <ele>139.53</ele>
        <time>2017-01-14T09:59:31Z</time>
      </trkpt>
      <trkpt lat="48.77909" lon="2.09516">
        <ele>139.53</ele>
        <time>2017-01-14T09:59:32Z</time>
      </trkpt>
      <trkpt lat="48.77911" lon="2.09519">
        <ele>139.05</ele>
        <time>2017-01-14T09:59:35Z</time>
      </trkpt>
      <trkpt lat="48.77912" lon="2.09526">
        <ele>139.05</ele>
        <time>2017-01-14T09:59:42Z</time>
      </trkpt>
      <trkpt lat="48.77909" lon="2.09532">
        <ele>139.05</ele>
        <time>2017-01-14T09:59:50Z</time>
      </trkpt>
      <trkpt lat="48.77907" lon="2.09535">
        <ele>139.53</ele>
        <time>2017-01-14T09:59:58Z</time>
      </trkpt>
      <trkpt lat="48.77905" lon="2.09544">
        <ele>139.05</ele>
        <time>2017-01-14T10:00:11Z</time>
      </trkpt>
      <trkpt lat="48.77904" lon="2.09545">
        <ele>139.05</ele>
        <time>2017-01-14T10:00:24Z</time>
      </trkpt>
      <trkpt lat="48.77905" lon="2.09544">
        <ele>139.05</ele>
        <time>2017-01-14T10:00:35Z</time>
      </trkpt>
      <trkpt lat="48.77905" lon="2.09545">
        <ele>139.05</ele>
        <time>2017-01-14T10:00:47Z</time>
      </trkpt>
      <trkpt lat="48.77905" lon="2.09543">
        <ele>139.05</ele>
        <time>2017-01-14T10:01:02Z</time>
      </trkpt>
      <trkpt lat="48.77904" lon="2.09544">
        <ele>138.57</ele>
        <time>2017-01-14T10:01:14Z</time>
      </trkpt>
      <trkpt lat="48.77905" lon="2.09544">
        <ele>138.57</ele>
        <time>2017-01-14T10:01:29Z</time>
      </trkpt>
      <trkpt lat="48.77905" lon="2.09546">
        <ele>138.57</ele>
        <time>2017-01-14T10:01:40Z</time>
      </trkpt>
      <trkpt lat="48.77903" lon="2.09548">
        <ele>139.05</ele>
        <time>2017-01-14T10:01:46Z</time>
      </trkpt>
      <trkpt lat="48.77903" lon="2.09548">
        <ele>139.05</ele>
        <time>2017-01-14T10:01:47Z</time>
      </trkpt>
      <trkpt lat="48.77896" lon="2.09552">
        <ele>139.05</ele>
        <time>2017-01-14T10:01:56Z</time>
      </trkpt>
      <trkpt lat="48.77893" lon="2.09552">
        <ele>139.05</ele>
        <time>2017-01-14T10:02:03Z</time>
      </trkpt>
      <trkpt lat="48.77884" lon="2.09549">
        <ele>139.53</ele>
        <time>2017-01-14T10:02:13Z</time>
      </trkpt>
      <trkpt lat="48.77883" lon="2.09549">
        <ele>139.53</ele>
        <time>2017-01-14T10:02:14Z</time>
      </trkpt>
      <trkpt lat="48.77875" lon="2.09549">
        <ele>140.01</ele>
        <time>2017-01-14T10:02:22Z</time>
      </trkpt>
      <trkpt lat="48.77873" lon="2.09549">
        <ele>140.01</ele>
        <time>2017-01-14T10:02:24Z</time>
      </trkpt>
      <trkpt lat="48.77867" lon="2.09548">
        <ele>140.01</ele>
        <time>2017-01-14T10:02:31Z</time>
      </trkpt>
      <trkpt lat="48.77865" lon="2.09549">
        <ele>140.49</ele>
        <time>2017-01-14T10:02:38Z</time>
      </trkpt>
      <trkpt lat="48.7786" lon="2.09549">
        <ele>140.49</ele>
        <time>2017-01-14T10:02:45Z</time>
      </trkpt>
      <trkpt lat="48.77858" lon="2.09549">
        <ele>140.97</ele>
        <time>2017-01-14T10:02:47Z</time>
      </trkpt>
      <trkpt lat="48.77852" lon="2.09548">
        <ele>140.49</ele>
        <time>2017-01-14T10:02:51Z</time>
      </trkpt>
      <trkpt lat="48.77845" lon="2.09548">
        <ele>140.49</ele>
        <time>2017-01-14T10:02:58Z</time>
      </trkpt>
      <trkpt lat="48.7784" lon="2.0955">
        <ele>140.49</ele>
        <time>2017-01-14T10:03:02Z</time>
      </trkpt>
      <trkpt lat="48.77829" lon="2.09555">
        <ele>140.01</ele>
        <time>2017-01-14T10:03:11Z</time>
      </trkpt>
      <trkpt lat="48.77819" lon="2.09561">
        <ele>139.53</ele>
        <time>2017-01-14T10:03:20Z</time>
      </trkpt>
      <trkpt lat="48.77818" lon="2.09562">
        <ele>139.53</ele>
        <time>2017-01-14T10:03:21Z</time>
      </trkpt>
      <trkpt lat="48.77816" lon="2.09563">
        <ele>139.53</ele>
        <time>2017-01-14T10:03:23Z</time>
      </trkpt>
      <trkpt lat="48.77809" lon="2.0957">
        <ele>139.53</ele>
        <time>2017-01-14T10:03:31Z</time>
      </trkpt>
      <trkpt lat="48.77804" lon="2.09572">
        <ele>139.05</ele>
        <time>2017-01-14T10:03:38Z</time>
      </trkpt>
      <trkpt lat="48.77797" lon="2.09573">
        <ele>139.05</ele>
        <time>2017-01-14T10:03:48Z</time>
      </trkpt>
      <trkpt lat="48.7779" lon="2.09606">
        <ele>139.05</ele>
        <time>2017-01-14T10:04:00Z</time>
      </trkpt>
      <trkpt lat="48.77788" lon="2.09611">
        <ele>138.57</ele>
        <time>2017-01-14T10:04:06Z</time>
      </trkpt>
      <trkpt lat="48.77788" lon="2.09612">
        <ele>138.57</ele>
        <time>2017-01-14T10:04:07Z</time>
      </trkpt>
      <trkpt lat="48.77782" lon="2.09624">
        <ele>138.57</ele>
        <time>2017-01-14T10:04:15Z</time>
      </trkpt>
      <trkpt lat="48.77781" lon="2.09638">
        <ele>138.09</ele>
        <time>2017-01-14T10:04:22Z</time>
      </trkpt>
      <trkpt lat="48.7778" lon="2.09647">
        <ele>137.61</ele>
        <time>2017-01-14T10:04:29Z</time>
      </trkpt>
      <trkpt lat="48.77779" lon="2.0966">
        <ele>137.61</ele>
        <time>2017-01-14T10:04:37Z</time>
      </trkpt>
      <trkpt lat="48.77774" lon="2.09668">
        <ele>137.13</ele>
        <time>2017-01-14T10:04:44Z</time>
      </trkpt>
      <trkpt lat="48.77767" lon="2.09674">
        <ele>137.13</ele>
        <time>2017-01-14T10:04:51Z</time>
      </trkpt>
      <trkpt lat="48.77759" lon="2.09678">
        <ele>136.64</ele>
        <time>2017-01-14T10:04:58Z</time>
      </trkpt>
      <trkpt lat="48.77753" lon="2.09688">
        <ele>136.64</ele>
        <time>2017-01-14T10:05:06Z</time>
      </trkpt>
      <trkpt lat="48.77744" lon="2.09691">
        <ele>136.64</ele>
        <time>2017-01-14T10:05:15Z</time>
      </trkpt>
      <trkpt lat="48.77735" lon="2.09696">
        <ele>137.13</ele>
        <time>2017-01-14T10:05:24Z</time>
      </trkpt>
      <trkpt lat="48.77732" lon="2.09698">
        <ele>137.13</ele>
        <time>2017-01-14T10:05:27Z</time>
      </trkpt>
      <trkpt lat="48.77731" lon="2.097">
        <ele>137.61</ele>
        <time>2017-01-14T10:05:29Z</time>
      </trkpt>
      <trkpt lat="48.77727" lon="2.09707">
        <ele>137.61</ele>
        <time>2017-01-14T10:05:35Z</time>
      </trkpt>
      <trkpt lat="48.77719" lon="2.09714">
        <ele>137.61</ele>
        <time>2017-01-14T10:05:44Z</time>
      </trkpt>
      <trkpt lat="48.77713" lon="2.09718">
        <ele>137.61</ele>
        <time>2017-01-14T10:05:50Z</time>
      </trkpt>
      <trkpt lat="48.7771" lon="2.09719">
        <ele>137.61</ele>
        <time>2017-01-14T10:05:53Z</time>
      </trkpt>
      <trkpt lat="48.77706" lon="2.09725">
        <ele>137.61</ele>
        <time>2017-01-14T10:05:59Z</time>
      </trkpt>
      <trkpt lat="48.77701" lon="2.0973">
        <ele>137.61</ele>
        <time>2017-01-14T10:06:05Z</time>
      </trkpt>
      <trkpt lat="48.77694" lon="2.09735">
        <ele>137.13</ele>
        <time>2017-01-14T10:06:13Z</time>
      </trkpt>
      <trkpt lat="48.77685" lon="2.09741">
        <ele>137.61</ele>
        <time>2017-01-14T10:06:22Z</time>
      </trkpt>
      <trkpt lat="48.77682" lon="2.09742">
        <ele>137.13</ele>
        <time>2017-01-14T10:06:24Z</time>
      </trkpt>
      <trkpt lat="48.77673" lon="2.09749">
        <ele>137.13</ele>
        <time>2017-01-14T10:06:32Z</time>
      </trkpt>
      <trkpt lat="48.77666" lon="2.09755">
        <ele>137.13</ele>
        <time>2017-01-14T10:06:39Z</time>
      </trkpt>
      <trkpt lat="48.77659" lon="2.09765">
        <ele>136.64</ele>
        <time>2017-01-14T10:06:46Z</time>
      </trkpt>
      <trkpt lat="48.77654" lon="2.09776">
        <ele>136.64</ele>
        <time>2017-01-14T10:06:54Z</time>
      </trkpt>
      <trkpt lat="48.77647" lon="2.09785">
        <ele>136.16</ele>
        <time>2017-01-14T10:07:01Z</time>
      </trkpt>
      <trkpt lat="48.77641" lon="2.09792">
        <ele>135.68</ele>
        <time>2017-01-14T10:07:07Z</time>
      </trkpt>
      <trkpt lat="48.77639" lon="2.09793">
        <ele>135.68</ele>
        <time>2017-01-14T10:07:09Z</time>
      </trkpt>
      <trkpt lat="48.77634" lon="2.09808">
        <ele>135.2</ele>
        <time>2017-01-14T10:07:16Z</time>
      </trkpt>
      <trkpt lat="48.7763" lon="2.09821">
        <ele>134.72</ele>
        <time>2017-01-14T10:07:22Z</time>
      </trkpt>
      <trkpt lat="48.77625" lon="2.09833">
        <ele>134.24</ele>
        <time>2017-01-14T10:07:29Z</time>
      </trkpt>
      <trkpt lat="48.77619" lon="2.09845">
        <ele>133.28</ele>
        <time>2017-01-14T10:07:37Z</time>
      </trkpt>
      <trkpt lat="48.77614" lon="2.09856">
        <ele>132.8</ele>
        <time>2017-01-14T10:07:45Z</time>
      </trkpt>
      <trkpt lat="48.77608" lon="2.09867">
        <ele>132.32</ele>
        <time>2017-01-14T10:07:53Z</time>
      </trkpt>
      <trkpt lat="48.77603" lon="2.09878">
        <ele>132.32</ele>
        <time>2017-01-14T10:08:01Z</time>
      </trkpt>
      <trkpt lat="48.77599" lon="2.09889">
        <ele>131.84</ele>
        <time>2017-01-14T10:08:07Z</time>
      </trkpt>
      <trkpt lat="48.77592" lon="2.099">
        <ele>131.84</ele>
        <time>2017-01-14T10:08:16Z</time>
      </trkpt>
      <trkpt lat="48.77591" lon="2.09901">
        <ele>131.84</ele>
        <time>2017-01-14T10:08:17Z</time>
      </trkpt>
      <trkpt lat="48.77588" lon="2.0991">
        <ele>131.36</ele>
        <time>2017-01-14T10:08:22Z</time>
      </trkpt>
      <trkpt lat="48.77583" lon="2.09922">
        <ele>131.36</ele>
        <time>2017-01-14T10:08:29Z</time>
      </trkpt>
      <trkpt lat="48.7758" lon="2.09935">
        <ele>131.36</ele>
        <time>2017-01-14T10:08:36Z</time>
      </trkpt>
      <trkpt lat="48.77579" lon="2.09941">
        <ele>130.88</ele>
        <time>2017-01-14T10:08:41Z</time>
      </trkpt>
      <trkpt lat="48.77574" lon="2.09954">
        <ele>130.4</ele>
        <time>2017-01-14T10:08:50Z</time>
      </trkpt>
      <trkpt lat="48.77571" lon="2.09961">
        <ele>129.92</ele>
        <time>2017-01-14T10:08:56Z</time>
      </trkpt>
      <trkpt lat="48.77572" lon="2.09962">
        <ele>129.92</ele>
        <time>2017-01-14T10:09:08Z</time>
      </trkpt>
      <trkpt lat="48.77573" lon="2.09963">
        <ele>129.92</ele>
        <time>2017-01-14T10:09:12Z</time>
      </trkpt>
      <trkpt lat="48.77581" lon="2.09974">
        <ele>129.43</ele>
        <time>2017-01-14T10:09:19Z</time>
      </trkpt>
      <trkpt lat="48.77586" lon="2.09984">
        <ele>128.95</ele>
        <time>2017-01-14T10:09:23Z</time>
      </trkpt>
      <trkpt lat="48.77589" lon="2.10002">
        <ele>129.43</ele>
        <time>2017-01-14T10:09:31Z</time>
      </trkpt>
      <trkpt lat="48.77594" lon="2.10011">
        <ele>128.95</ele>
        <time>2017-01-14T10:09:38Z</time>
      </trkpt>
      <trkpt lat="48.77598" lon="2.10018">
        <ele>127.03</ele>
        <time>2017-01-14T10:09:43Z</time>
      </trkpt>
      <trkpt lat="48.77615" lon="2.10141">
        <ele>127.99</ele>
        <time>2017-01-14T10:10:41Z</time>
      </trkpt>
      <trkpt lat="48.77617" lon="2.10141">
        <ele>128.47</ele>
        <time>2017-01-14T10:10:42Z</time>
      </trkpt>
      <trkpt lat="48.7762" lon="2.10147">
        <ele>127.99</ele>
        <time>2017-01-14T10:10:52Z</time>
      </trkpt>
      <trkpt lat="48.77624" lon="2.10148">
        <ele>127.51</ele>
        <time>2017-01-14T10:10:57Z</time>
      </trkpt>
      <trkpt lat="48.77622" lon="2.10156">
        <ele>127.03</ele>
        <time>2017-01-14T10:11:04Z</time>
      </trkpt>
      <trkpt lat="48.77622" lon="2.10158">
        <ele>127.51</ele>
        <time>2017-01-14T10:11:05Z</time>
      </trkpt>
      <trkpt lat="48.77617" lon="2.10168">
        <ele>127.51</ele>
        <time>2017-01-14T10:11:12Z</time>
      </trkpt>
      <trkpt lat="48.77617" lon="2.10169">
        <ele>127.51</ele>
        <time>2017-01-14T10:11:13Z</time>
      </trkpt>
      <trkpt lat="48.77616" lon="2.10171">
        <ele>127.51</ele>
        <time>2017-01-14T10:11:18Z</time>
      </trkpt>
      <trkpt lat="48.77614" lon="2.10177">
        <ele>127.03</ele>
        <time>2017-01-14T10:11:24Z</time>
      </trkpt>
      <trkpt lat="48.77613" lon="2.10184">
        <ele>127.51</ele>
        <time>2017-01-14T10:11:30Z</time>
      </trkpt>
      <trkpt lat="48.77613" lon="2.10192">
        <ele>127.03</ele>
        <time>2017-01-14T10:11:36Z</time>
      </trkpt>
      <trkpt lat="48.77614" lon="2.10203">
        <ele>127.03</ele>
        <time>2017-01-14T10:11:45Z</time>
      </trkpt>
      <trkpt lat="48.77614" lon="2.10212">
        <ele>127.03</ele>
        <time>2017-01-14T10:11:51Z</time>
      </trkpt>
      <trkpt lat="48.77615" lon="2.10215">
        <ele>127.03</ele>
        <time>2017-01-14T10:11:52Z</time>
      </trkpt>
      <trkpt lat="48.77616" lon="2.10224">
        <ele>127.03</ele>
        <time>2017-01-14T10:11:56Z</time>
      </trkpt>
      <trkpt lat="48.77617" lon="2.10235">
        <ele>127.03</ele>
        <time>2017-01-14T10:12:02Z</time>
      </trkpt>
      <trkpt lat="48.7762" lon="2.10251">
        <ele>127.03</ele>
        <time>2017-01-14T10:12:10Z</time>
      </trkpt>
      <trkpt lat="48.77621" lon="2.10258">
        <ele>127.03</ele>
        <time>2017-01-14T10:12:15Z</time>
      </trkpt>
      <trkpt lat="48.77621" lon="2.10264">
        <ele>127.03</ele>
        <time>2017-01-14T10:12:18Z</time>
      </trkpt>
      <trkpt lat="48.77621" lon="2.10278">
        <ele>127.51</ele>
        <time>2017-01-14T10:12:27Z</time>
      </trkpt>
      <trkpt lat="48.77624" lon="2.10288">
        <ele>127.03</ele>
        <time>2017-01-14T10:12:35Z</time>
      </trkpt>
      <trkpt lat="48.77623" lon="2.10294">
        <ele>127.51</ele>
        <time>2017-01-14T10:12:42Z</time>
      </trkpt>
      <trkpt lat="48.77623" lon="2.10299">
        <ele>127.51</ele>
        <time>2017-01-14T10:12:47Z</time>
      </trkpt>
      <trkpt lat="48.77626" lon="2.10313">
        <ele>127.51</ele>
        <time>2017-01-14T10:12:53Z</time>
      </trkpt>
      <trkpt lat="48.77626" lon="2.10321">
        <ele>127.03</ele>
        <time>2017-01-14T10:12:56Z</time>
      </trkpt>
      <trkpt lat="48.77626" lon="2.10332">
        <ele>127.03</ele>
        <time>2017-01-14T10:13:02Z</time>
      </trkpt>
      <trkpt lat="48.77624" lon="2.10344">
        <ele>127.51</ele>
        <time>2017-01-14T10:13:09Z</time>
      </trkpt>
      <trkpt lat="48.77624" lon="2.1035">
        <ele>127.51</ele>
        <time>2017-01-14T10:13:12Z</time>
      </trkpt>
      <trkpt lat="48.77624" lon="2.10362">
        <ele>127.51</ele>
        <time>2017-01-14T10:13:19Z</time>
      </trkpt>
      <trkpt lat="48.77623" lon="2.10364">
        <ele>127.03</ele>
        <time>2017-01-14T10:13:20Z</time>
      </trkpt>
      <trkpt lat="48.77623" lon="2.10369">
        <ele>127.03</ele>
        <time>2017-01-14T10:13:23Z</time>
      </trkpt>
      <trkpt lat="48.77621" lon="2.10381">
        <ele>127.51</ele>
        <time>2017-01-14T10:13:30Z</time>
      </trkpt>
      <trkpt lat="48.77621" lon="2.1039">
        <ele>127.51</ele>
        <time>2017-01-14T10:13:34Z</time>
      </trkpt>
      <trkpt lat="48.7762" lon="2.10404">
        <ele>127.03</ele>
        <time>2017-01-14T10:13:41Z</time>
      </trkpt>
      <trkpt lat="48.77621" lon="2.10416">
        <ele>127.03</ele>
        <time>2017-01-14T10:13:48Z</time>
      </trkpt>
      <trkpt lat="48.77619" lon="2.10424">
        <ele>127.51</ele>
        <time>2017-01-14T10:13:54Z</time>
      </trkpt>
      <trkpt lat="48.77617" lon="2.10433">
        <ele>127.51</ele>
        <time>2017-01-14T10:14:00Z</time>
      </trkpt>
      <trkpt lat="48.77616" lon="2.10445">
        <ele>127.51</ele>
        <time>2017-01-14T10:14:06Z</time>
      </trkpt>
      <trkpt lat="48.77614" lon="2.10454">
        <ele>127.51</ele>
        <time>2017-01-14T10:14:12Z</time>
      </trkpt>
      <trkpt lat="48.77612" lon="2.10465">
        <ele>127.51</ele>
        <time>2017-01-14T10:14:19Z</time>
      </trkpt>
      <trkpt lat="48.77611" lon="2.10469">
        <ele>127.99</ele>
        <time>2017-01-14T10:14:22Z</time>
      </trkpt>
      <trkpt lat="48.77609" lon="2.10475">
        <ele>127.99</ele>
        <time>2017-01-14T10:14:26Z</time>
      </trkpt>
      <trkpt lat="48.77605" lon="2.10491">
        <ele>127.99</ele>
        <time>2017-01-14T10:14:33Z</time>
      </trkpt>
      <trkpt lat="48.77605" lon="2.10492">
        <ele>127.99</ele>
        <time>2017-01-14T10:14:34Z</time>
      </trkpt>
      <trkpt lat="48.77603" lon="2.10499">
        <ele>127.99</ele>
        <time>2017-01-14T10:14:38Z</time>
      </trkpt>
      <trkpt lat="48.77599" lon="2.10513">
        <ele>127.99</ele>
        <time>2017-01-14T10:14:46Z</time>
      </trkpt>
      <trkpt lat="48.77598" lon="2.10518">
        <ele>127.99</ele>
        <time>2017-01-14T10:14:49Z</time>
      </trkpt>
      <trkpt lat="48.77593" lon="2.10529">
        <ele>127.51</ele>
        <time>2017-01-14T10:14:56Z</time>
      </trkpt>
      <trkpt lat="48.77588" lon="2.10542">
        <ele>127.51</ele>
        <time>2017-01-14T10:15:03Z</time>
      </trkpt>
      <trkpt lat="48.77583" lon="2.10553">
        <ele>127.51</ele>
        <time>2017-01-14T10:15:11Z</time>
      </trkpt>
      <trkpt lat="48.77583" lon="2.10554">
        <ele>127.51</ele>
        <time>2017-01-14T10:15:12Z</time>
      </trkpt>
      <trkpt lat="48.7758" lon="2.10566">
        <ele>127.03</ele>
        <time>2017-01-14T10:15:19Z</time>
      </trkpt>
      <trkpt lat="48.77577" lon="2.10572">
        <ele>127.51</ele>
        <time>2017-01-14T10:15:24Z</time>
      </trkpt>
      <trkpt lat="48.77576" lon="2.10576">
        <ele>127.03</ele>
        <time>2017-01-14T10:15:26Z</time>
      </trkpt>
      <trkpt lat="48.77572" lon="2.10587">
        <ele>127.03</ele>
        <time>2017-01-14T10:15:32Z</time>
      </trkpt>
      <trkpt lat="48.77569" lon="2.10596">
        <ele>127.03</ele>
        <time>2017-01-14T10:15:40Z</time>
      </trkpt>
      <trkpt lat="48.77568" lon="2.10604">
        <ele>127.03</ele>
        <time>2017-01-14T10:15:45Z</time>
      </trkpt>
      <trkpt lat="48.77563" lon="2.10612">
        <ele>127.03</ele>
        <time>2017-01-14T10:15:50Z</time>
      </trkpt>
      <trkpt lat="48.77558" lon="2.10622">
        <ele>126.55</ele>
        <time>2017-01-14T10:15:56Z</time>
      </trkpt>
      <trkpt lat="48.77554" lon="2.10633">
        <ele>127.03</ele>
        <time>2017-01-14T10:16:02Z</time>
      </trkpt>
      <trkpt lat="48.77549" lon="2.10644">
        <ele>127.03</ele>
        <time>2017-01-14T10:16:09Z</time>
      </trkpt>
      <trkpt lat="48.77543" lon="2.10654">
        <ele>127.51</ele>
        <time>2017-01-14T10:16:16Z</time>
      </trkpt>
      <trkpt lat="48.77538" lon="2.10663">
        <ele>127.99</ele>
        <time>2017-01-14T10:16:22Z</time>
      </trkpt>
      <trkpt lat="48.77538" lon="2.10674">
        <ele>128.47</ele>
        <time>2017-01-14T10:16:29Z</time>
      </trkpt>
      <trkpt lat="48.77539" lon="2.10682">
        <ele>128.95</ele>
        <time>2017-01-14T10:16:35Z</time>
      </trkpt>
      <trkpt lat="48.7754" lon="2.10684">
        <ele>128.47</ele>
        <time>2017-01-14T10:16:36Z</time>
      </trkpt>
      <trkpt lat="48.77542" lon="2.10699">
        <ele>128.95</ele>
        <time>2017-01-14T10:16:44Z</time>
      </trkpt>
      <trkpt lat="48.77546" lon="2.10711">
        <ele>128.95</ele>
        <time>2017-01-14T10:16:50Z</time>
      </trkpt>
      <trkpt lat="48.77547" lon="2.10713">
        <ele>128.95</ele>
        <time>2017-01-14T10:16:52Z</time>
      </trkpt>
      <trkpt lat="48.77551" lon="2.10724">
        <ele>128.95</ele>
        <time>2017-01-14T10:16:58Z</time>
      </trkpt>
      <trkpt lat="48.77556" lon="2.10737">
        <ele>128.95</ele>
        <time>2017-01-14T10:17:06Z</time>
      </trkpt>
      <trkpt lat="48.77562" lon="2.10748">
        <ele>128.47</ele>
        <time>2017-01-14T10:17:14Z</time>
      </trkpt>
      <trkpt lat="48.77564" lon="2.10759">
        <ele>128.47</ele>
        <time>2017-01-14T10:17:21Z</time>
      </trkpt>
      <trkpt lat="48.77565" lon="2.1076">
        <ele>128.47</ele>
        <time>2017-01-14T10:17:22Z</time>
      </trkpt>
      <trkpt lat="48.77569" lon="2.10773">
        <ele>128.47</ele>
        <time>2017-01-14T10:17:29Z</time>
      </trkpt>
      <trkpt lat="48.77573" lon="2.10781">
        <ele>127.99</ele>
        <time>2017-01-14T10:17:36Z</time>
      </trkpt>
      <trkpt lat="48.77577" lon="2.10793">
        <ele>127.51</ele>
        <time>2017-01-14T10:17:44Z</time>
      </trkpt>
      <trkpt lat="48.7758" lon="2.10799">
        <ele>127.03</ele>
        <time>2017-01-14T10:17:49Z</time>
      </trkpt>
      <trkpt lat="48.77581" lon="2.10801">
        <ele>127.03</ele>
        <time>2017-01-14T10:17:50Z</time>
      </trkpt>
      <trkpt lat="48.77585" lon="2.10814">
        <ele>127.03</ele>
        <time>2017-01-14T10:17:57Z</time>
      </trkpt>
      <trkpt lat="48.77588" lon="2.10823">
        <ele>127.03</ele>
        <time>2017-01-14T10:18:01Z</time>
      </trkpt>
      <trkpt lat="48.77591" lon="2.10835">
        <ele>126.55</ele>
        <time>2017-01-14T10:18:08Z</time>
      </trkpt>
      <trkpt lat="48.77595" lon="2.1084">
        <ele>126.55</ele>
        <time>2017-01-14T10:18:14Z</time>
      </trkpt>
      <trkpt lat="48.77599" lon="2.10849">
        <ele>126.55</ele>
        <time>2017-01-14T10:18:21Z</time>
      </trkpt>
      <trkpt lat="48.77603" lon="2.10857">
        <ele>126.55</ele>
        <time>2017-01-14T10:18:28Z</time>
      </trkpt>
      <trkpt lat="48.77606" lon="2.10869">
        <ele>126.07</ele>
        <time>2017-01-14T10:18:36Z</time>
      </trkpt>
      <trkpt lat="48.7761" lon="2.10885">
        <ele>126.55</ele>
        <time>2017-01-14T10:18:45Z</time>
      </trkpt>
      <trkpt lat="48.77613" lon="2.10889">
        <ele>126.55</ele>
        <time>2017-01-14T10:18:51Z</time>
      </trkpt>
      <trkpt lat="48.77618" lon="2.10902">
        <ele>126.55</ele>
        <time>2017-01-14T10:18:57Z</time>
      </trkpt>
      <trkpt lat="48.77622" lon="2.10919">
        <ele>126.55</ele>
        <time>2017-01-14T10:19:03Z</time>
      </trkpt>
      <trkpt lat="48.77623" lon="2.1092">
        <ele>126.55</ele>
        <time>2017-01-14T10:19:04Z</time>
      </trkpt>
      <trkpt lat="48.77628" lon="2.10934">
        <ele>126.55</ele>
        <time>2017-01-14T10:19:10Z</time>
      </trkpt>
      <trkpt lat="48.77629" lon="2.10944">
        <ele>126.55</ele>
        <time>2017-01-14T10:19:14Z</time>
      </trkpt>
      <trkpt lat="48.77633" lon="2.10956">
        <ele>126.07</ele>
        <time>2017-01-14T10:19:21Z</time>
      </trkpt>
      <trkpt lat="48.77635" lon="2.10965">
        <ele>126.07</ele>
        <time>2017-01-14T10:19:27Z</time>
      </trkpt>
      <trkpt lat="48.77639" lon="2.10974">
        <ele>126.07</ele>
        <time>2017-01-14T10:19:34Z</time>
      </trkpt>
      <trkpt lat="48.77644" lon="2.10981">
        <ele>126.07</ele>
        <time>2017-01-14T10:19:42Z</time>
      </trkpt>
      <trkpt lat="48.77645" lon="2.10985">
        <ele>126.07</ele>
        <time>2017-01-14T10:19:45Z</time>
      </trkpt>
      <trkpt lat="48.77645" lon="2.10989">
        <ele>126.07</ele>
        <time>2017-01-14T10:19:46Z</time>
      </trkpt>
      <trkpt lat="48.77647" lon="2.10993">
        <ele>125.59</ele>
        <time>2017-01-14T10:19:49Z</time>
      </trkpt>
      <trkpt lat="48.77653" lon="2.11">
        <ele>125.59</ele>
        <time>2017-01-14T10:19:54Z</time>
      </trkpt>
      <trkpt lat="48.77657" lon="2.11012">
        <ele>125.59</ele>
        <time>2017-01-14T10:19:58Z</time>
      </trkpt>
      <trkpt lat="48.7766" lon="2.11022">
        <ele>125.59</ele>
        <time>2017-01-14T10:20:03Z</time>
      </trkpt>
      <trkpt lat="48.77664" lon="2.1104">
        <ele>125.59</ele>
        <time>2017-01-14T10:20:11Z</time>
      </trkpt>
      <trkpt lat="48.77667" lon="2.11051">
        <ele>125.59</ele>
        <time>2017-01-14T10:20:18Z</time>
      </trkpt>
      <trkpt lat="48.7767" lon="2.11059">
        <ele>125.59</ele>
        <time>2017-01-14T10:20:25Z</time>
      </trkpt>
      <trkpt lat="48.77671" lon="2.1106">
        <ele>125.59</ele>
        <time>2017-01-14T10:20:26Z</time>
      </trkpt>
      <trkpt lat="48.77676" lon="2.11067">
        <ele>125.11</ele>
        <time>2017-01-14T10:20:32Z</time>
      </trkpt>
      <trkpt lat="48.77679" lon="2.11076">
        <ele>125.11</ele>
        <time>2017-01-14T10:20:38Z</time>
      </trkpt>
      <trkpt lat="48.77682" lon="2.11085">
        <ele>125.11</ele>
        <time>2017-01-14T10:20:44Z</time>
      </trkpt>
      <trkpt lat="48.77685" lon="2.11093">
        <ele>125.11</ele>
        <time>2017-01-14T10:20:49Z</time>
      </trkpt>
      <trkpt lat="48.77686" lon="2.11099">
        <ele>125.11</ele>
        <time>2017-01-14T10:20:51Z</time>
      </trkpt>
      <trkpt lat="48.77692" lon="2.11109">
        <ele>124.63</ele>
        <time>2017-01-14T10:20:58Z</time>
      </trkpt>
      <trkpt lat="48.77694" lon="2.11119">
        <ele>125.11</ele>
        <time>2017-01-14T10:21:04Z</time>
      </trkpt>
      <trkpt lat="48.77695" lon="2.11127">
        <ele>125.11</ele>
        <time>2017-01-14T10:21:10Z</time>
      </trkpt>
      <trkpt lat="48.77697" lon="2.11135">
        <ele>125.59</ele>
        <time>2017-01-14T10:21:16Z</time>
      </trkpt>
      <trkpt lat="48.77699" lon="2.11143">
        <ele>125.59</ele>
        <time>2017-01-14T10:21:21Z</time>
      </trkpt>
      <trkpt lat="48.77701" lon="2.11153">
        <ele>126.07</ele>
        <time>2017-01-14T10:21:27Z</time>
      </trkpt>
      <trkpt lat="48.77701" lon="2.11157">
        <ele>125.59</ele>
        <time>2017-01-14T10:21:33Z</time>
      </trkpt>
      <trkpt lat="48.77701" lon="2.1116">
        <ele>125.59</ele>
        <time>2017-01-14T10:21:37Z</time>
      </trkpt>
      <trkpt lat="48.77701" lon="2.11164">
        <ele>125.11</ele>
        <time>2017-01-14T10:21:43Z</time>
      </trkpt>
      <trkpt lat="48.77701" lon="2.11172">
        <ele>125.11</ele>
        <time>2017-01-14T10:21:48Z</time>
      </trkpt>
      <trkpt lat="48.77703" lon="2.11183">
        <ele>125.11</ele>
        <time>2017-01-14T10:21:54Z</time>
      </trkpt>
      <trkpt lat="48.77706" lon="2.11201">
        <ele>125.11</ele>
        <time>2017-01-14T10:22:01Z</time>
      </trkpt>
      <trkpt lat="48.77707" lon="2.11209">
        <ele>125.11</ele>
        <time>2017-01-14T10:22:03Z</time>
      </trkpt>
      <trkpt lat="48.77707" lon="2.11214">
        <ele>125.59</ele>
        <time>2017-01-14T10:22:05Z</time>
      </trkpt>
      <trkpt lat="48.77708" lon="2.11225">
        <ele>125.59</ele>
        <time>2017-01-14T10:22:10Z</time>
      </trkpt>
      <trkpt lat="48.77709" lon="2.11235">
        <ele>126.07</ele>
        <time>2017-01-14T10:22:17Z</time>
      </trkpt>
      <trkpt lat="48.77707" lon="2.11242">
        <ele>125.59</ele>
        <time>2017-01-14T10:22:23Z</time>
      </trkpt>
      <trkpt lat="48.77706" lon="2.11249">
        <ele>125.59</ele>
        <time>2017-01-14T10:22:29Z</time>
      </trkpt>
      <trkpt lat="48.77706" lon="2.11256">
        <ele>125.11</ele>
        <time>2017-01-14T10:22:35Z</time>
      </trkpt>
      <trkpt lat="48.77703" lon="2.11265">
        <ele>125.11</ele>
        <time>2017-01-14T10:22:40Z</time>
      </trkpt>
      <trkpt lat="48.77701" lon="2.11277">
        <ele>125.11</ele>
        <time>2017-01-14T10:22:46Z</time>
      </trkpt>
      <trkpt lat="48.77699" lon="2.11294">
        <ele>125.11</ele>
        <time>2017-01-14T10:22:52Z</time>
      </trkpt>
      <trkpt lat="48.77694" lon="2.11307">
        <ele>125.11</ele>
        <time>2017-01-14T10:22:59Z</time>
      </trkpt>
      <trkpt lat="48.77693" lon="2.11322">
        <ele>124.63</ele>
        <time>2017-01-14T10:23:06Z</time>
      </trkpt>
      <trkpt lat="48.77692" lon="2.11335">
        <ele>124.15</ele>
        <time>2017-01-14T10:23:12Z</time>
      </trkpt>
      <trkpt lat="48.77692" lon="2.1134">
        <ele>124.15</ele>
        <time>2017-01-14T10:23:17Z</time>
      </trkpt>
      <trkpt lat="48.77694" lon="2.11345">
        <ele>124.15</ele>
        <time>2017-01-14T10:23:24Z</time>
      </trkpt>
      <trkpt lat="48.77698" lon="2.11356">
        <ele>124.15</ele>
        <time>2017-01-14T10:23:31Z</time>
      </trkpt>
      <trkpt lat="48.77701" lon="2.1136">
        <ele>124.63</ele>
        <time>2017-01-14T10:23:36Z</time>
      </trkpt>
      <trkpt lat="48.77703" lon="2.11367">
        <ele>124.63</ele>
        <time>2017-01-14T10:23:41Z</time>
      </trkpt>
      <trkpt lat="48.77701" lon="2.11378">
        <ele>124.63</ele>
        <time>2017-01-14T10:23:47Z</time>
      </trkpt>
      <trkpt lat="48.77702" lon="2.11379">
        <ele>124.63</ele>
        <time>2017-01-14T10:23:48Z</time>
      </trkpt>
      <trkpt lat="48.77697" lon="2.114">
        <ele>124.63</ele>
        <time>2017-01-14T10:23:56Z</time>
      </trkpt>
      <trkpt lat="48.77696" lon="2.1142">
        <ele>124.63</ele>
        <time>2017-01-14T10:24:04Z</time>
      </trkpt>
      <trkpt lat="48.77694" lon="2.11434">
        <ele>124.63</ele>
        <time>2017-01-14T10:24:10Z</time>
      </trkpt>
      <trkpt lat="48.77692" lon="2.11447">
        <ele>124.63</ele>
        <time>2017-01-14T10:24:18Z</time>
      </trkpt>
      <trkpt lat="48.77689" lon="2.11459">
        <ele>124.63</ele>
        <time>2017-01-14T10:24:24Z</time>
      </trkpt>
      <trkpt lat="48.77689" lon="2.11463">
        <ele>124.63</ele>
        <time>2017-01-14T10:24:27Z</time>
      </trkpt>
      <trkpt lat="48.77688" lon="2.11465">
        <ele>124.63</ele>
        <time>2017-01-14T10:24:29Z</time>
      </trkpt>
      <trkpt lat="48.77689" lon="2.11473">
        <ele>124.63</ele>
        <time>2017-01-14T10:24:35Z</time>
      </trkpt>
      <trkpt lat="48.77689" lon="2.11478">
        <ele>124.63</ele>
        <time>2017-01-14T10:24:38Z</time>
      </trkpt>
      <trkpt lat="48.7769" lon="2.1149">
        <ele>124.63</ele>
        <time>2017-01-14T10:24:46Z</time>
      </trkpt>
      <trkpt lat="48.77693" lon="2.11499">
        <ele>124.63</ele>
        <time>2017-01-14T10:24:53Z</time>
      </trkpt>
      <trkpt lat="48.77694" lon="2.11502">
        <ele>124.63</ele>
        <time>2017-01-14T10:24:55Z</time>
      </trkpt>
      <trkpt lat="48.77695" lon="2.11512">
        <ele>124.63</ele>
        <time>2017-01-14T10:25:03Z</time>
      </trkpt>
      <trkpt lat="48.77697" lon="2.11523">
        <ele>124.63</ele>
        <time>2017-01-14T10:25:09Z</time>
      </trkpt>
      <trkpt lat="48.777" lon="2.11537">
        <ele>124.63</ele>
        <time>2017-01-14T10:25:16Z</time>
      </trkpt>
      <trkpt lat="48.77703" lon="2.11545">
        <ele>124.63</ele>
        <time>2017-01-14T10:25:22Z</time>
      </trkpt>
      <trkpt lat="48.77705" lon="2.1155">
        <ele>124.63</ele>
        <time>2017-01-14T10:25:27Z</time>
      </trkpt>
      <trkpt lat="48.77707" lon="2.11566">
        <ele>124.63</ele>
        <time>2017-01-14T10:25:33Z</time>
      </trkpt>
      <trkpt lat="48.77712" lon="2.11577">
        <ele>124.63</ele>
        <time>2017-01-14T10:25:40Z</time>
      </trkpt>
      <trkpt lat="48.77716" lon="2.11581">
        <ele>124.63</ele>
        <time>2017-01-14T10:25:46Z</time>
      </trkpt>
      <trkpt lat="48.77719" lon="2.11594">
        <ele>125.11</ele>
        <time>2017-01-14T10:25:52Z</time>
      </trkpt>
      <trkpt lat="48.77722" lon="2.1161">
        <ele>124.63</ele>
        <time>2017-01-14T10:26:00Z</time>
      </trkpt>
      <trkpt lat="48.77728" lon="2.11618">
        <ele>124.63</ele>
        <time>2017-01-14T10:26:06Z</time>
      </trkpt>
      <trkpt lat="48.7773" lon="2.11632">
        <ele>124.63</ele>
        <time>2017-01-14T10:26:13Z</time>
      </trkpt>
      <trkpt lat="48.7773" lon="2.11634">
        <ele>124.63</ele>
        <time>2017-01-14T10:26:14Z</time>
      </trkpt>
      <trkpt lat="48.77731" lon="2.11646">
        <ele>124.63</ele>
        <time>2017-01-14T10:26:21Z</time>
      </trkpt>
      <trkpt lat="48.77732" lon="2.11648">
        <ele>124.63</ele>
        <time>2017-01-14T10:26:22Z</time>
      </trkpt>
      <trkpt lat="48.77734" lon="2.11655">
        <ele>124.63</ele>
        <time>2017-01-14T10:26:27Z</time>
      </trkpt>
      <trkpt lat="48.77736" lon="2.11665">
        <ele>125.11</ele>
        <time>2017-01-14T10:26:33Z</time>
      </trkpt>
      <trkpt lat="48.77736" lon="2.11677">
        <ele>125.11</ele>
        <time>2017-01-14T10:26:39Z</time>
      </trkpt>
      <trkpt lat="48.77739" lon="2.11694">
        <ele>125.59</ele>
        <time>2017-01-14T10:26:46Z</time>
      </trkpt>
      <trkpt lat="48.77741" lon="2.11712">
        <ele>125.59</ele>
        <time>2017-01-14T10:26:56Z</time>
      </trkpt>
      <trkpt lat="48.77741" lon="2.11724">
        <ele>125.59</ele>
        <time>2017-01-14T10:27:03Z</time>
      </trkpt>
      <trkpt lat="48.77744" lon="2.11733">
        <ele>125.11</ele>
        <time>2017-01-14T10:27:09Z</time>
      </trkpt>
      <trkpt lat="48.77744" lon="2.11743">
        <ele>125.11</ele>
        <time>2017-01-14T10:27:16Z</time>
      </trkpt>
      <trkpt lat="48.77741" lon="2.11751">
        <ele>125.11</ele>
        <time>2017-01-14T10:27:21Z</time>
      </trkpt>
      <trkpt lat="48.77734" lon="2.11757">
        <ele>125.11</ele>
        <time>2017-01-14T10:27:29Z</time>
      </trkpt>
      <trkpt lat="48.77725" lon="2.11764">
        <ele>125.11</ele>
        <time>2017-01-14T10:27:33Z</time>
      </trkpt>
      <trkpt lat="48.77715" lon="2.11769">
        <ele>125.11</ele>
        <time>2017-01-14T10:27:41Z</time>
      </trkpt>
      <trkpt lat="48.77708" lon="2.1177">
        <ele>125.11</ele>
        <time>2017-01-14T10:27:48Z</time>
      </trkpt>
      <trkpt lat="48.77702" lon="2.11773">
        <ele>125.11</ele>
        <time>2017-01-14T10:27:55Z</time>
      </trkpt>
      <trkpt lat="48.77699" lon="2.11775">
        <ele>125.11</ele>
        <time>2017-01-14T10:27:59Z</time>
      </trkpt>
      <trkpt lat="48.77692" lon="2.11775">
        <ele>125.11</ele>
        <time>2017-01-14T10:28:06Z</time>
      </trkpt>
      <trkpt lat="48.77691" lon="2.11775">
        <ele>125.11</ele>
        <time>2017-01-14T10:28:07Z</time>
      </trkpt>
      <trkpt lat="48.77687" lon="2.11774">
        <ele>125.11</ele>
        <time>2017-01-14T10:28:10Z</time>
      </trkpt>
      <trkpt lat="48.77682" lon="2.11776">
        <ele>125.11</ele>
        <time>2017-01-14T10:28:18Z</time>
      </trkpt>
      <trkpt lat="48.77683" lon="2.11776">
        <ele>124.63</ele>
        <time>2017-01-14T10:28:24Z</time>
      </trkpt>
      <trkpt lat="48.77683" lon="2.1178">
        <ele>122.22</ele>
        <time>2017-01-14T10:28:31Z</time>
      </trkpt>
      <trkpt lat="48.77683" lon="2.11781">
        <ele>122.22</ele>
        <time>2017-01-14T10:28:32Z</time>
      </trkpt>
      <trkpt lat="48.77681" lon="2.11789">
        <ele>120.78</ele>
        <time>2017-01-14T10:28:39Z</time>
      </trkpt>
      <trkpt lat="48.77681" lon="2.11792">
        <ele>120.78</ele>
        <time>2017-01-14T10:28:43Z</time>
      </trkpt>
      <trkpt lat="48.77682" lon="2.11797">
        <ele>120.78</ele>
        <time>2017-01-14T10:28:47Z</time>
      </trkpt>
      <trkpt lat="48.77685" lon="2.11806">
        <ele>120.78</ele>
        <time>2017-01-14T10:28:54Z</time>
      </trkpt>
      <trkpt lat="48.77688" lon="2.11815">
        <ele>120.78</ele>
        <time>2017-01-14T10:29:01Z</time>
      </trkpt>
      <trkpt lat="48.77688" lon="2.11817">
        <ele>120.78</ele>
        <time>2017-01-14T10:29:03Z</time>
      </trkpt>
      <trkpt lat="48.77687" lon="2.11822">
        <ele>120.78</ele>
        <time>2017-01-14T10:29:09Z</time>
      </trkpt>
      <trkpt lat="48.77687" lon="2.11831">
        <ele>120.78</ele>
        <time>2017-01-14T10:29:16Z</time>
      </trkpt>
      <trkpt lat="48.77687" lon="2.11835">
        <ele>120.3</ele>
        <time>2017-01-14T10:29:19Z</time>
      </trkpt>
      <trkpt lat="48.77687" lon="2.11838">
        <ele>120.3</ele>
        <time>2017-01-14T10:29:20Z</time>
      </trkpt>
      <trkpt lat="48.77687" lon="2.11842">
        <ele>120.3</ele>
        <time>2017-01-14T10:29:23Z</time>
      </trkpt>
      <trkpt lat="48.77686" lon="2.11848">
        <ele>120.3</ele>
        <time>2017-01-14T10:29:26Z</time>
      </trkpt>
      <trkpt lat="48.77686" lon="2.11856">
        <ele>120.3</ele>
        <time>2017-01-14T10:29:31Z</time>
      </trkpt>
      <trkpt lat="48.77684" lon="2.11864">
        <ele>120.3</ele>
        <time>2017-01-14T10:29:36Z</time>
      </trkpt>
      <trkpt lat="48.77684" lon="2.11869">
        <ele>120.3</ele>
        <time>2017-01-14T10:29:38Z</time>
      </trkpt>
      <trkpt lat="48.77684" lon="2.11881">
        <ele>120.3</ele>
        <time>2017-01-14T10:29:44Z</time>
      </trkpt>
      <trkpt lat="48.77685" lon="2.1189">
        <ele>120.3</ele>
        <time>2017-01-14T10:29:47Z</time>
      </trkpt>
      <trkpt lat="48.77685" lon="2.11894">
        <ele>120.3</ele>
        <time>2017-01-14T10:29:49Z</time>
      </trkpt>
      <trkpt lat="48.77684" lon="2.11901">
        <ele>120.3</ele>
        <time>2017-01-14T10:29:52Z</time>
      </trkpt>
      <trkpt lat="48.77683" lon="2.11912">
        <ele>120.3</ele>
        <time>2017-01-14T10:29:59Z</time>
      </trkpt>
      <trkpt lat="48.77683" lon="2.11926">
        <ele>120.3</ele>
        <time>2017-01-14T10:30:07Z</time>
      </trkpt>
      <trkpt lat="48.7768" lon="2.11938">
        <ele>120.3</ele>
        <time>2017-01-14T10:30:13Z</time>
      </trkpt>
      <trkpt lat="48.77677" lon="2.11954">
        <ele>120.3</ele>
        <time>2017-01-14T10:30:20Z</time>
      </trkpt>
      <trkpt lat="48.77677" lon="2.11961">
        <ele>120.3</ele>
        <time>2017-01-14T10:30:23Z</time>
      </trkpt>
      <trkpt lat="48.77677" lon="2.11965">
        <ele>120.3</ele>
        <time>2017-01-14T10:30:25Z</time>
      </trkpt>
      <trkpt lat="48.77676" lon="2.11974">
        <ele>120.3</ele>
        <time>2017-01-14T10:30:30Z</time>
      </trkpt>
      <trkpt lat="48.77676" lon="2.11978">
        <ele>120.3</ele>
        <time>2017-01-14T10:30:32Z</time>
      </trkpt>
      <trkpt lat="48.77674" lon="2.11994">
        <ele>120.3</ele>
        <time>2017-01-14T10:30:41Z</time>
      </trkpt>
      <trkpt lat="48.77673" lon="2.11998">
        <ele>120.3</ele>
        <time>2017-01-14T10:30:44Z</time>
      </trkpt>
      <trkpt lat="48.77671" lon="2.12013">
        <ele>120.3</ele>
        <time>2017-01-14T10:30:51Z</time>
      </trkpt>
      <trkpt lat="48.7767" lon="2.12026">
        <ele>119.82</ele>
        <time>2017-01-14T10:30:58Z</time>
      </trkpt>
      <trkpt lat="48.77668" lon="2.12036">
        <ele>119.82</ele>
        <time>2017-01-14T10:31:05Z</time>
      </trkpt>
      <trkpt lat="48.77664" lon="2.12046">
        <ele>119.82</ele>
        <time>2017-01-14T10:31:12Z</time>
      </trkpt>
      <trkpt lat="48.77662" lon="2.12052">
        <ele>119.82</ele>
        <time>2017-01-14T10:31:16Z</time>
      </trkpt>
      <trkpt lat="48.7766" lon="2.1206">
        <ele>119.82</ele>
        <time>2017-01-14T10:31:21Z</time>
      </trkpt>
      <trkpt lat="48.77655" lon="2.12078">
        <ele>119.82</ele>
        <time>2017-01-14T10:31:29Z</time>
      </trkpt>
      <trkpt lat="48.77649" lon="2.12094">
        <ele>120.3</ele>
        <time>2017-01-14T10:31:37Z</time>
      </trkpt>
      <trkpt lat="48.77649" lon="2.12096">
        <ele>120.3</ele>
        <time>2017-01-14T10:31:38Z</time>
      </trkpt>
      <trkpt lat="48.77646" lon="2.12106">
        <ele>120.78</ele>
        <time>2017-01-14T10:31:44Z</time>
      </trkpt>
      <trkpt lat="48.77645" lon="2.12108">
        <ele>120.78</ele>
        <time>2017-01-14T10:31:45Z</time>
      </trkpt>
      <trkpt lat="48.77642" lon="2.12128">
        <ele>120.78</ele>
        <time>2017-01-14T10:31:54Z</time>
      </trkpt>
      <trkpt lat="48.77638" lon="2.12143">
        <ele>120.78</ele>
        <time>2017-01-14T10:32:02Z</time>
      </trkpt>
      <trkpt lat="48.77634" lon="2.12157">
        <ele>120.78</ele>
        <time>2017-01-14T10:32:09Z</time>
      </trkpt>
      <trkpt lat="48.7763" lon="2.12172">
        <ele>120.3</ele>
        <time>2017-01-14T10:32:17Z</time>
      </trkpt>
      <trkpt lat="48.77627" lon="2.12186">
        <ele>120.3</ele>
        <time>2017-01-14T10:32:25Z</time>
      </trkpt>
      <trkpt lat="48.77624" lon="2.12194">
        <ele>120.3</ele>
        <time>2017-01-14T10:32:31Z</time>
      </trkpt>
      <trkpt lat="48.7762" lon="2.12204">
        <ele>120.3</ele>
        <time>2017-01-14T10:32:37Z</time>
      </trkpt>
      <trkpt lat="48.77617" lon="2.12214">
        <ele>120.3</ele>
        <time>2017-01-14T10:32:42Z</time>
      </trkpt>
      <trkpt lat="48.77617" lon="2.12218">
        <ele>120.3</ele>
        <time>2017-01-14T10:32:45Z</time>
      </trkpt>
      <trkpt lat="48.77616" lon="2.12225">
        <ele>119.82</ele>
        <time>2017-01-14T10:32:50Z</time>
      </trkpt>
      <trkpt lat="48.77613" lon="2.12237">
        <ele>119.82</ele>
        <time>2017-01-14T10:32:57Z</time>
      </trkpt>
      <trkpt lat="48.77612" lon="2.1224">
        <ele>119.82</ele>
        <time>2017-01-14T10:32:59Z</time>
      </trkpt>
      <trkpt lat="48.77611" lon="2.12246">
        <ele>119.82</ele>
        <time>2017-01-14T10:33:02Z</time>
      </trkpt>
      <trkpt lat="48.77609" lon="2.12257">
        <ele>119.82</ele>
        <time>2017-01-14T10:33:09Z</time>
      </trkpt>
      <trkpt lat="48.77609" lon="2.12258">
        <ele>119.82</ele>
        <time>2017-01-14T10:33:10Z</time>
      </trkpt>
      <trkpt lat="48.77605" lon="2.12273">
        <ele>119.34</ele>
        <time>2017-01-14T10:33:19Z</time>
      </trkpt>
      <trkpt lat="48.77602" lon="2.12278">
        <ele>119.34</ele>
        <time>2017-01-14T10:33:23Z</time>
      </trkpt>
      <trkpt lat="48.77594" lon="2.12285">
        <ele>119.82</ele>
        <time>2017-01-14T10:33:31Z</time>
      </trkpt>
      <trkpt lat="48.77592" lon="2.12287">
        <ele>119.82</ele>
        <time>2017-01-14T10:33:33Z</time>
      </trkpt>
      <trkpt lat="48.7759" lon="2.12289">
        <ele>119.82</ele>
        <time>2017-01-14T10:33:35Z</time>
      </trkpt>
      <trkpt lat="48.77586" lon="2.12298">
        <ele>119.82</ele>
        <time>2017-01-14T10:33:42Z</time>
      </trkpt>
      <trkpt lat="48.77579" lon="2.12306">
        <ele>119.82</ele>
        <time>2017-01-14T10:33:49Z</time>
      </trkpt>
      <trkpt lat="48.7757" lon="2.12313">
        <ele>120.3</ele>
        <time>2017-01-14T10:33:58Z</time>
      </trkpt>
      <trkpt lat="48.77567" lon="2.12314">
        <ele>120.3</ele>
        <time>2017-01-14T10:34:01Z</time>
      </trkpt>
      <trkpt lat="48.77558" lon="2.12319">
        <ele>119.82</ele>
        <time>2017-01-14T10:34:06Z</time>
      </trkpt>
      <trkpt lat="48.77552" lon="2.12328">
        <ele>119.82</ele>
        <time>2017-01-14T10:34:12Z</time>
      </trkpt>
      <trkpt lat="48.77553" lon="2.12335">
        <ele>119.34</ele>
        <time>2017-01-14T10:34:19Z</time>
      </trkpt>
      <trkpt lat="48.77553" lon="2.12342">
        <ele>119.34</ele>
        <time>2017-01-14T10:34:24Z</time>
      </trkpt>
      <trkpt lat="48.77552" lon="2.12348">
        <ele>119.34</ele>
        <time>2017-01-14T10:34:28Z</time>
      </trkpt>
      <trkpt lat="48.77552" lon="2.12353">
        <ele>119.82</ele>
        <time>2017-01-14T10:34:31Z</time>
      </trkpt>
      <trkpt lat="48.77552" lon="2.12361">
        <ele>119.82</ele>
        <time>2017-01-14T10:34:36Z</time>
      </trkpt>
      <trkpt lat="48.77551" lon="2.12369">
        <ele>119.82</ele>
        <time>2017-01-14T10:34:41Z</time>
      </trkpt>
      <trkpt lat="48.77551" lon="2.12371">
        <ele>119.82</ele>
        <time>2017-01-14T10:34:42Z</time>
      </trkpt>
      <trkpt lat="48.77551" lon="2.12379">
        <ele>119.34</ele>
        <time>2017-01-14T10:34:46Z</time>
      </trkpt>
      <trkpt lat="48.7755" lon="2.12381">
        <ele>118.86</ele>
        <time>2017-01-14T10:34:48Z</time>
      </trkpt>
      <trkpt lat="48.77546" lon="2.12397">
        <ele>118.86</ele>
        <time>2017-01-14T10:34:57Z</time>
      </trkpt>
      <trkpt lat="48.77544" lon="2.12404">
        <ele>118.86</ele>
        <time>2017-01-14T10:35:02Z</time>
      </trkpt>
      <trkpt lat="48.77535" lon="2.12419">
        <ele>118.86</ele>
        <time>2017-01-14T10:35:12Z</time>
      </trkpt>
      <trkpt lat="48.77533" lon="2.12422">
        <ele>118.86</ele>
        <time>2017-01-14T10:35:14Z</time>
      </trkpt>
      <trkpt lat="48.77528" lon="2.12432">
        <ele>118.86</ele>
        <time>2017-01-14T10:35:22Z</time>
      </trkpt>
      <trkpt lat="48.77527" lon="2.12435">
        <ele>119.34</ele>
        <time>2017-01-14T10:35:25Z</time>
      </trkpt>
      <trkpt lat="48.77531" lon="2.12439">
        <ele>119.34</ele>
        <time>2017-01-14T10:35:32Z</time>
      </trkpt>
      <trkpt lat="48.77527" lon="2.12448">
        <ele>119.34</ele>
        <time>2017-01-14T10:35:38Z</time>
      </trkpt>
      <trkpt lat="48.77524" lon="2.12454">
        <ele>118.86</ele>
        <time>2017-01-14T10:35:42Z</time>
      </trkpt>
      <trkpt lat="48.77516" lon="2.12463">
        <ele>118.86</ele>
        <time>2017-01-14T10:35:50Z</time>
      </trkpt>
      <trkpt lat="48.77513" lon="2.12469">
        <ele>118.86</ele>
        <time>2017-01-14T10:35:55Z</time>
      </trkpt>
      <trkpt lat="48.77509" lon="2.12475">
        <ele>118.38</ele>
        <time>2017-01-14T10:36:00Z</time>
      </trkpt>
      <trkpt lat="48.77504" lon="2.12487">
        <ele>118.86</ele>
        <time>2017-01-14T10:36:08Z</time>
      </trkpt>
      <trkpt lat="48.775" lon="2.12496">
        <ele>118.86</ele>
        <time>2017-01-14T10:36:15Z</time>
      </trkpt>
      <trkpt lat="48.77499" lon="2.12499">
        <ele>119.34</ele>
        <time>2017-01-14T10:36:17Z</time>
      </trkpt>
      <trkpt lat="48.77497" lon="2.12502">
        <ele>119.34</ele>
        <time>2017-01-14T10:36:19Z</time>
      </trkpt>
      <trkpt lat="48.77497" lon="2.12507">
        <ele>119.34</ele>
        <time>2017-01-14T10:36:22Z</time>
      </trkpt>
      <trkpt lat="48.77496" lon="2.12514">
        <ele>119.34</ele>
        <time>2017-01-14T10:36:27Z</time>
      </trkpt>
      <trkpt lat="48.77496" lon="2.12522">
        <ele>118.86</ele>
        <time>2017-01-14T10:36:34Z</time>
      </trkpt>
      <trkpt lat="48.77495" lon="2.1253">
        <ele>118.86</ele>
        <time>2017-01-14T10:36:40Z</time>
      </trkpt>
      <trkpt lat="48.77494" lon="2.12536">
        <ele>118.86</ele>
        <time>2017-01-14T10:36:46Z</time>
      </trkpt>
      <trkpt lat="48.77493" lon="2.12546">
        <ele>118.86</ele>
        <time>2017-01-14T10:36:51Z</time>
      </trkpt>
      <trkpt lat="48.77493" lon="2.12556">
        <ele>118.86</ele>
        <time>2017-01-14T10:36:56Z</time>
      </trkpt>
      <trkpt lat="48.77493" lon="2.12558">
        <ele>118.86</ele>
        <time>2017-01-14T10:36:57Z</time>
      </trkpt>
      <trkpt lat="48.7749" lon="2.12577">
        <ele>118.86</ele>
        <time>2017-01-14T10:37:07Z</time>
      </trkpt>
      <trkpt lat="48.77491" lon="2.12586">
        <ele>118.86</ele>
        <time>2017-01-14T10:37:14Z</time>
      </trkpt>
      <trkpt lat="48.7749" lon="2.12595">
        <ele>118.86</ele>
        <time>2017-01-14T10:37:20Z</time>
      </trkpt>
      <trkpt lat="48.77489" lon="2.12604">
        <ele>118.86</ele>
        <time>2017-01-14T10:37:25Z</time>
      </trkpt>
      <trkpt lat="48.77488" lon="2.12613">
        <ele>119.34</ele>
        <time>2017-01-14T10:37:32Z</time>
      </trkpt>
      <trkpt lat="48.7749" lon="2.12617">
        <ele>119.34</ele>
        <time>2017-01-14T10:37:38Z</time>
      </trkpt>
      <trkpt lat="48.7749" lon="2.12626">
        <ele>119.82</ele>
        <time>2017-01-14T10:37:46Z</time>
      </trkpt>
      <trkpt lat="48.77489" lon="2.12627">
        <ele>119.82</ele>
        <time>2017-01-14T10:37:52Z</time>
      </trkpt>
      <trkpt lat="48.77489" lon="2.12628">
        <ele>119.82</ele>
        <time>2017-01-14T10:37:59Z</time>
      </trkpt>
      <trkpt lat="48.77489" lon="2.12629">
        <ele>119.82</ele>
        <time>2017-01-14T10:38:12Z</time>
      </trkpt>
      <trkpt lat="48.77489" lon="2.1263">
        <ele>119.82</ele>
        <time>2017-01-14T10:38:25Z</time>
      </trkpt>
      <trkpt lat="48.77489" lon="2.12631">
        <ele>119.82</ele>
        <time>2017-01-14T10:38:34Z</time>
      </trkpt>
      <trkpt lat="48.77489" lon="2.12631">
        <ele>119.82</ele>
        <time>2017-01-14T10:38:48Z</time>
      </trkpt>
      <trkpt lat="48.77489" lon="2.12632">
        <ele>119.82</ele>
        <time>2017-01-14T10:38:56Z</time>
      </trkpt>
      <trkpt lat="48.77489" lon="2.12633">
        <ele>119.82</ele>
        <time>2017-01-14T10:39:04Z</time>
      </trkpt>
      <trkpt lat="48.77488" lon="2.12634">
        <ele>119.82</ele>
        <time>2017-01-14T10:39:12Z</time>
      </trkpt>
      <trkpt lat="48.77489" lon="2.12636">
        <ele>119.34</ele>
        <time>2017-01-14T10:39:24Z</time>
      </trkpt>
      <trkpt lat="48.77489" lon="2.12637">
        <ele>119.34</ele>
        <time>2017-01-14T10:39:36Z</time>
      </trkpt>
      <trkpt lat="48.77489" lon="2.12637">
        <ele>119.34</ele>
        <time>2017-01-14T10:39:47Z</time>
      </trkpt>
      <trkpt lat="48.77489" lon="2.12637">
        <ele>119.34</ele>
        <time>2017-01-14T10:39:59Z</time>
      </trkpt>
      <trkpt lat="48.77489" lon="2.12638">
        <ele>119.34</ele>
        <time>2017-01-14T10:40:13Z</time>
      </trkpt>
      <trkpt lat="48.77489" lon="2.12638">
        <ele>119.34</ele>
        <time>2017-01-14T10:40:22Z</time>
      </trkpt>
      <trkpt lat="48.77489" lon="2.12638">
        <ele>119.34</ele>
        <time>2017-01-14T10:40:28Z</time>
      </trkpt>
      <trkpt lat="48.77488" lon="2.12641">
        <ele>119.34</ele>
        <time>2017-01-14T10:40:32Z</time>
      </trkpt>
      <trkpt lat="48.7749" lon="2.1265">
        <ele>120.3</ele>
        <time>2017-01-14T10:40:39Z</time>
      </trkpt>
      <trkpt lat="48.77495" lon="2.12656">
        <ele>118.86</ele>
        <time>2017-01-14T10:40:46Z</time>
      </trkpt>
      <trkpt lat="48.77495" lon="2.1266">
        <ele>118.38</ele>
        <time>2017-01-14T10:40:50Z</time>
      </trkpt>
      <trkpt lat="48.77494" lon="2.12667">
        <ele>118.38</ele>
        <time>2017-01-14T10:40:54Z</time>
      </trkpt>
      <trkpt lat="48.77493" lon="2.12674">
        <ele>118.38</ele>
        <time>2017-01-14T10:40:59Z</time>
      </trkpt>
      <trkpt lat="48.77493" lon="2.1268">
        <ele>117.9</ele>
        <time>2017-01-14T10:41:03Z</time>
      </trkpt>
      <trkpt lat="48.77493" lon="2.12684">
        <ele>117.9</ele>
        <time>2017-01-14T10:41:06Z</time>
      </trkpt>
      <trkpt lat="48.77493" lon="2.12695">
        <ele>117.9</ele>
        <time>2017-01-14T10:41:13Z</time>
      </trkpt>
      <trkpt lat="48.77489" lon="2.12703">
        <ele>117.9</ele>
        <time>2017-01-14T10:41:20Z</time>
      </trkpt>
      <trkpt lat="48.77487" lon="2.12713">
        <ele>118.38</ele>
        <time>2017-01-14T10:41:27Z</time>
      </trkpt>
      <trkpt lat="48.77485" lon="2.12718">
        <ele>118.38</ele>
        <time>2017-01-14T10:41:32Z</time>
      </trkpt>
      <trkpt lat="48.77485" lon="2.12722">
        <ele>118.38</ele>
        <time>2017-01-14T10:41:35Z</time>
      </trkpt>
      <trkpt lat="48.77485" lon="2.12727">
        <ele>118.86</ele>
        <time>2017-01-14T10:41:37Z</time>
      </trkpt>
      <trkpt lat="48.77486" lon="2.12734">
        <ele>118.86</ele>
        <time>2017-01-14T10:41:42Z</time>
      </trkpt>
      <trkpt lat="48.77486" lon="2.12741">
        <ele>118.86</ele>
        <time>2017-01-14T10:41:46Z</time>
      </trkpt>
      <trkpt lat="48.77487" lon="2.12755">
        <ele>118.86</ele>
        <time>2017-01-14T10:41:53Z</time>
      </trkpt>
      <trkpt lat="48.77485" lon="2.12762">
        <ele>118.86</ele>
        <time>2017-01-14T10:41:57Z</time>
      </trkpt>
      <trkpt lat="48.77484" lon="2.12769">
        <ele>118.86</ele>
        <time>2017-01-14T10:42:01Z</time>
      </trkpt>
      <trkpt lat="48.77487" lon="2.12783">
        <ele>118.86</ele>
        <time>2017-01-14T10:42:08Z</time>
      </trkpt>
      <trkpt lat="48.77489" lon="2.1279">
        <ele>118.86</ele>
        <time>2017-01-14T10:42:13Z</time>
      </trkpt>
      <trkpt lat="48.7749" lon="2.12802">
        <ele>118.86</ele>
        <time>2017-01-14T10:42:20Z</time>
      </trkpt>
      <trkpt lat="48.77488" lon="2.12811">
        <ele>118.86</ele>
        <time>2017-01-14T10:42:27Z</time>
      </trkpt>
      <trkpt lat="48.77487" lon="2.12817">
        <ele>118.38</ele>
        <time>2017-01-14T10:42:30Z</time>
      </trkpt>
      <trkpt lat="48.77485" lon="2.12827">
        <ele>118.38</ele>
        <time>2017-01-14T10:42:35Z</time>
      </trkpt>
      <trkpt lat="48.77485" lon="2.12836">
        <ele>117.9</ele>
        <time>2017-01-14T10:42:41Z</time>
      </trkpt>
      <trkpt lat="48.77484" lon="2.12841">
        <ele>117.9</ele>
        <time>2017-01-14T10:42:47Z</time>
      </trkpt>
      <trkpt lat="48.77486" lon="2.12844">
        <ele>117.9</ele>
        <time>2017-01-14T10:42:52Z</time>
      </trkpt>
      <trkpt lat="48.7749" lon="2.1285">
        <ele>116.94</ele>
        <time>2017-01-14T10:42:59Z</time>
      </trkpt>
      <trkpt lat="48.77492" lon="2.12852">
        <ele>116.46</ele>
        <time>2017-01-14T10:43:03Z</time>
      </trkpt>
      <trkpt lat="48.77496" lon="2.1286">
        <ele>116.46</ele>
        <time>2017-01-14T10:43:10Z</time>
      </trkpt>
      <trkpt lat="48.77503" lon="2.12866">
        <ele>115.98</ele>
        <time>2017-01-14T10:43:17Z</time>
      </trkpt>
      <trkpt lat="48.77505" lon="2.12869">
        <ele>115.5</ele>
        <time>2017-01-14T10:43:22Z</time>
      </trkpt>
      <trkpt lat="48.7751" lon="2.12876">
        <ele>115.5</ele>
        <time>2017-01-14T10:43:29Z</time>
      </trkpt>
      <trkpt lat="48.77513" lon="2.12882">
        <ele>115.5</ele>
        <time>2017-01-14T10:43:34Z</time>
      </trkpt>
      <trkpt lat="48.77513" lon="2.1289">
        <ele>115.01</ele>
        <time>2017-01-14T10:43:41Z</time>
      </trkpt>
      <trkpt lat="48.7751" lon="2.12895">
        <ele>115.01</ele>
        <time>2017-01-14T10:43:48Z</time>
      </trkpt>
      <trkpt lat="48.77506" lon="2.129">
        <ele>115.01</ele>
        <time>2017-01-14T10:43:56Z</time>
      </trkpt>
      <trkpt lat="48.77505" lon="2.12905">
        <ele>115.01</ele>
        <time>2017-01-14T10:44:03Z</time>
      </trkpt>
      <trkpt lat="48.77504" lon="2.12911">
        <ele>115.01</ele>
        <time>2017-01-14T10:44:08Z</time>
      </trkpt>
      <trkpt lat="48.77503" lon="2.12916">
        <ele>115.01</ele>
        <time>2017-01-14T10:44:11Z</time>
      </trkpt>
      <trkpt lat="48.77501" lon="2.1293">
        <ele>115.01</ele>
        <time>2017-01-14T10:44:18Z</time>
      </trkpt>
      <trkpt lat="48.77498" lon="2.12933">
        <ele>115.01</ele>
        <time>2017-01-14T10:44:21Z</time>
      </trkpt>
      <trkpt lat="48.77498" lon="2.12957">
        <ele>115.5</ele>
        <time>2017-01-14T10:44:29Z</time>
      </trkpt>
      <trkpt lat="48.77499" lon="2.12965">
        <ele>115.5</ele>
        <time>2017-01-14T10:44:31Z</time>
      </trkpt>
      <trkpt lat="48.77496" lon="2.12975">
        <ele>115.5</ele>
        <time>2017-01-14T10:44:36Z</time>
      </trkpt>
      <trkpt lat="48.77491" lon="2.1299">
        <ele>115.01</ele>
        <time>2017-01-14T10:44:44Z</time>
      </trkpt>
      <trkpt lat="48.7749" lon="2.12992">
        <ele>115.01</ele>
        <time>2017-01-14T10:44:45Z</time>
      </trkpt>
      <trkpt lat="48.77487" lon="2.13003">
        <ele>115.01</ele>
        <time>2017-01-14T10:44:51Z</time>
      </trkpt>
      <trkpt lat="48.77484" lon="2.1301">
        <ele>114.53</ele>
        <time>2017-01-14T10:44:57Z</time>
      </trkpt>
      <trkpt lat="48.77484" lon="2.13011">
        <ele>114.53</ele>
        <time>2017-01-14T10:44:58Z</time>
      </trkpt>
      <trkpt lat="48.77485" lon="2.13018">
        <ele>114.53</ele>
        <time>2017-01-14T10:45:03Z</time>
      </trkpt>
      <trkpt lat="48.77485" lon="2.13022">
        <ele>115.01</ele>
        <time>2017-01-14T10:45:05Z</time>
      </trkpt>
      <trkpt lat="48.77482" lon="2.13034">
        <ele>115.01</ele>
        <time>2017-01-14T10:45:13Z</time>
      </trkpt>
      <trkpt lat="48.7748" lon="2.13037">
        <ele>115.01</ele>
        <time>2017-01-14T10:45:15Z</time>
      </trkpt>
      <trkpt lat="48.77478" lon="2.13041">
        <ele>115.01</ele>
        <time>2017-01-14T10:45:17Z</time>
      </trkpt>
      <trkpt lat="48.77475" lon="2.13056">
        <ele>115.01</ele>
        <time>2017-01-14T10:45:25Z</time>
      </trkpt>
      <trkpt lat="48.77472" lon="2.13071">
        <ele>115.01</ele>
        <time>2017-01-14T10:45:32Z</time>
      </trkpt>
      <trkpt lat="48.77466" lon="2.13083">
        <ele>115.01</ele>
        <time>2017-01-14T10:45:39Z</time>
      </trkpt>
      <trkpt lat="48.77462" lon="2.13089">
        <ele>115.5</ele>
        <time>2017-01-14T10:45:44Z</time>
      </trkpt>
      <trkpt lat="48.7746" lon="2.13092">
        <ele>115.01</ele>
        <time>2017-01-14T10:45:48Z</time>
      </trkpt>
      <trkpt lat="48.77457" lon="2.13093">
        <ele>115.01</ele>
        <time>2017-01-14T10:45:52Z</time>
      </trkpt>
      <trkpt lat="48.77451" lon="2.13091">
        <ele>115.5</ele>
        <time>2017-01-14T10:46:00Z</time>
      </trkpt>
      <trkpt lat="48.77448" lon="2.13088">
        <ele>115.01</ele>
        <time>2017-01-14T10:46:06Z</time>
      </trkpt>
      <trkpt lat="48.77444" lon="2.13085">
        <ele>115.01</ele>
        <time>2017-01-14T10:46:14Z</time>
      </trkpt>
      <trkpt lat="48.77439" lon="2.13087">
        <ele>115.5</ele>
        <time>2017-01-14T10:46:20Z</time>
      </trkpt>
      <trkpt lat="48.77431" lon="2.13094">
        <ele>115.5</ele>
        <time>2017-01-14T10:46:24Z</time>
      </trkpt>
      <trkpt lat="48.77424" lon="2.13099">
        <ele>115.5</ele>
        <time>2017-01-14T10:46:31Z</time>
      </trkpt>
      <trkpt lat="48.77423" lon="2.13097">
        <ele>115.5</ele>
        <time>2017-01-14T10:46:36Z</time>
      </trkpt>
      <trkpt lat="48.77421" lon="2.13094">
        <ele>115.5</ele>
        <time>2017-01-14T10:46:42Z</time>
      </trkpt>
      <trkpt lat="48.77419" lon="2.13094">
        <ele>115.98</ele>
        <time>2017-01-14T10:46:47Z</time>
      </trkpt>
      <trkpt lat="48.77414" lon="2.13097">
        <ele>115.98</ele>
        <time>2017-01-14T10:46:54Z</time>
      </trkpt>
      <trkpt lat="48.77405" lon="2.131">
        <ele>115.5</ele>
        <time>2017-01-14T10:47:01Z</time>
      </trkpt>
      <trkpt lat="48.77401" lon="2.13104">
        <ele>115.98</ele>
        <time>2017-01-14T10:47:07Z</time>
      </trkpt>
      <trkpt lat="48.77396" lon="2.13105">
        <ele>115.98</ele>
        <time>2017-01-14T10:47:12Z</time>
      </trkpt>
      <trkpt lat="48.77394" lon="2.13108">
        <ele>115.98</ele>
        <time>2017-01-14T10:47:18Z</time>
      </trkpt>
      <trkpt lat="48.7739" lon="2.13111">
        <ele>115.98</ele>
        <time>2017-01-14T10:47:23Z</time>
      </trkpt>
      <trkpt lat="48.77383" lon="2.13119">
        <ele>116.46</ele>
        <time>2017-01-14T10:47:29Z</time>
      </trkpt>
      <trkpt lat="48.77377" lon="2.13131">
        <ele>116.94</ele>
        <time>2017-01-14T10:47:36Z</time>
      </trkpt>
      <trkpt lat="48.77372" lon="2.13141">
        <ele>116.94</ele>
        <time>2017-01-14T10:47:41Z</time>
      </trkpt>
      <trkpt lat="48.77369" lon="2.1315">
        <ele>116.94</ele>
        <time>2017-01-14T10:47:46Z</time>
      </trkpt>
      <trkpt lat="48.77365" lon="2.13157">
        <ele>116.94</ele>
        <time>2017-01-14T10:47:52Z</time>
      </trkpt>
      <trkpt lat="48.77364" lon="2.13161">
        <ele>116.94</ele>
        <time>2017-01-14T10:47:55Z</time>
      </trkpt>
      <trkpt lat="48.77359" lon="2.13174">
        <ele>117.42</ele>
        <time>2017-01-14T10:48:04Z</time>
      </trkpt>
      <trkpt lat="48.77355" lon="2.13177">
        <ele>117.42</ele>
        <time>2017-01-14T10:48:10Z</time>
      </trkpt>
      <trkpt lat="48.77352" lon="2.13179">
        <ele>117.9</ele>
        <time>2017-01-14T10:48:15Z</time>
      </trkpt>
      <trkpt lat="48.77345" lon="2.13188">
        <ele>118.38</ele>
        <time>2017-01-14T10:48:21Z</time>
      </trkpt>
      <trkpt lat="48.77341" lon="2.13194">
        <ele>118.38</ele>
        <time>2017-01-14T10:48:25Z</time>
      </trkpt>
      <trkpt lat="48.77337" lon="2.13202">
        <ele>120.3</ele>
        <time>2017-01-14T10:48:32Z</time>
      </trkpt>
      <trkpt lat="48.77338" lon="2.13205">
        <ele>121.26</ele>
        <time>2017-01-14T10:48:39Z</time>
      </trkpt>
      <trkpt lat="48.77338" lon="2.13208">
        <ele>121.26</ele>
        <time>2017-01-14T10:48:48Z</time>
      </trkpt>
      <trkpt lat="48.77337" lon="2.13204">
        <ele>121.74</ele>
        <time>2017-01-14T10:49:05Z</time>
      </trkpt>
      <trkpt lat="48.77338" lon="2.13209">
        <ele>122.22</ele>
        <time>2017-01-14T10:49:22Z</time>
      </trkpt>
      <trkpt lat="48.77338" lon="2.13211">
        <ele>122.22</ele>
        <time>2017-01-14T10:49:29Z</time>
      </trkpt>
      <trkpt lat="48.77336" lon="2.1321">
        <ele>121.74</ele>
        <time>2017-01-14T10:49:34Z</time>
      </trkpt>
      <trkpt lat="48.77336" lon="2.13211">
        <ele>121.26</ele>
        <time>2017-01-14T10:49:41Z</time>
      </trkpt>
      <trkpt lat="48.77331" lon="2.13211">
        <ele>121.74</ele>
        <time>2017-01-14T10:49:46Z</time>
      </trkpt>
      <trkpt lat="48.77329" lon="2.13211">
        <ele>121.74</ele>
        <time>2017-01-14T10:49:47Z</time>
      </trkpt>
      <trkpt lat="48.7732" lon="2.13213">
        <ele>122.71</ele>
        <time>2017-01-14T10:49:53Z</time>
      </trkpt>
      <trkpt lat="48.77316" lon="2.13214">
        <ele>123.19</ele>
        <time>2017-01-14T10:50:00Z</time>
      </trkpt>
      <trkpt lat="48.77311" lon="2.13213">
        <ele>123.19</ele>
        <time>2017-01-14T10:50:05Z</time>
      </trkpt>
      <trkpt lat="48.77303" lon="2.13211">
        <ele>124.15</ele>
        <time>2017-01-14T10:50:11Z</time>
      </trkpt>
      <trkpt lat="48.77297" lon="2.1321">
        <ele>124.15</ele>
        <time>2017-01-14T10:50:15Z</time>
      </trkpt>
      <trkpt lat="48.77291" lon="2.13205">
        <ele>124.63</ele>
        <time>2017-01-14T10:50:21Z</time>
      </trkpt>
      <trkpt lat="48.77286" lon="2.132">
        <ele>125.11</ele>
        <time>2017-01-14T10:50:28Z</time>
      </trkpt>
      <trkpt lat="48.7728" lon="2.13196">
        <ele>125.11</ele>
        <time>2017-01-14T10:50:34Z</time>
      </trkpt>
      <trkpt lat="48.77268" lon="2.1319">
        <ele>125.59</ele>
        <time>2017-01-14T10:50:39Z</time>
      </trkpt>
      <trkpt lat="48.77259" lon="2.13184">
        <ele>125.59</ele>
        <time>2017-01-14T10:50:43Z</time>
      </trkpt>
      <trkpt lat="48.77249" lon="2.1317">
        <ele>126.07</ele>
        <time>2017-01-14T10:50:51Z</time>
      </trkpt>
      <trkpt lat="48.77246" lon="2.13166">
        <ele>126.55</ele>
        <time>2017-01-14T10:50:53Z</time>
      </trkpt>
      <trkpt lat="48.7724" lon="2.13156">
        <ele>127.99</ele>
        <time>2017-01-14T10:50:59Z</time>
      </trkpt>
      <trkpt lat="48.77232" lon="2.13142">
        <ele>129.92</ele>
        <time>2017-01-14T10:51:06Z</time>
      </trkpt>
      <trkpt lat="48.77224" lon="2.13134">
        <ele>130.88</ele>
        <time>2017-01-14T10:51:12Z</time>
      </trkpt>
      <trkpt lat="48.77217" lon="2.13121">
        <ele>132.8</ele>
        <time>2017-01-14T10:51:21Z</time>
      </trkpt>
      <trkpt lat="48.77213" lon="2.13113">
        <ele>133.76</ele>
        <time>2017-01-14T10:51:27Z</time>
      </trkpt>
      <trkpt lat="48.77212" lon="2.13111">
        <ele>133.76</ele>
        <time>2017-01-14T10:51:30Z</time>
      </trkpt>
      <trkpt lat="48.77211" lon="2.13109">
        <ele>134.24</ele>
        <time>2017-01-14T10:51:32Z</time>
      </trkpt>
      <trkpt lat="48.77208" lon="2.13107">
        <ele>134.24</ele>
        <time>2017-01-14T10:51:35Z</time>
      </trkpt>
      <trkpt lat="48.77199" lon="2.13099">
        <ele>135.2</ele>
        <time>2017-01-14T10:51:42Z</time>
      </trkpt>
      <trkpt lat="48.77198" lon="2.13097">
        <ele>135.68</ele>
        <time>2017-01-14T10:51:43Z</time>
      </trkpt>
      <trkpt lat="48.77193" lon="2.13091">
        <ele>136.16</ele>
        <time>2017-01-14T10:51:47Z</time>
      </trkpt>
      <trkpt lat="48.7719" lon="2.13086">
        <ele>136.64</ele>
        <time>2017-01-14T10:51:52Z</time>
      </trkpt>
      <trkpt lat="48.77182" lon="2.13077">
        <ele>137.61</ele>
        <time>2017-01-14T10:51:59Z</time>
      </trkpt>
      <trkpt lat="48.77178" lon="2.13071">
        <ele>138.09</ele>
        <time>2017-01-14T10:52:02Z</time>
      </trkpt>
      <trkpt lat="48.77166" lon="2.13063">
        <ele>139.53</ele>
        <time>2017-01-14T10:52:09Z</time>
      </trkpt>
      <trkpt lat="48.77162" lon="2.1306">
        <ele>140.01</ele>
        <time>2017-01-14T10:52:13Z</time>
      </trkpt>
      <trkpt lat="48.77158" lon="2.13058">
        <ele>140.49</ele>
        <time>2017-01-14T10:52:15Z</time>
      </trkpt>
      <trkpt lat="48.77155" lon="2.13058">
        <ele>141.45</ele>
        <time>2017-01-14T10:52:20Z</time>
      </trkpt>
      <trkpt lat="48.77151" lon="2.13059">
        <ele>142.41</ele>
        <time>2017-01-14T10:52:23Z</time>
      </trkpt>
      <trkpt lat="48.77148" lon="2.13059">
        <ele>142.89</ele>
        <time>2017-01-14T10:52:27Z</time>
      </trkpt>
      <trkpt lat="48.77149" lon="2.13064">
        <ele>143.85</ele>
        <time>2017-01-14T10:52:33Z</time>
      </trkpt>
      <trkpt lat="48.77148" lon="2.13067">
        <ele>144.34</ele>
        <time>2017-01-14T10:52:39Z</time>
      </trkpt>
      <trkpt lat="48.77149" lon="2.13075">
        <ele>145.3</ele>
        <time>2017-01-14T10:52:44Z</time>
      </trkpt>
      <trkpt lat="48.77149" lon="2.1308">
        <ele>146.26</ele>
        <time>2017-01-14T10:52:50Z</time>
      </trkpt>
      <trkpt lat="48.77149" lon="2.13084">
        <ele>146.74</ele>
        <time>2017-01-14T10:52:53Z</time>
      </trkpt>
      <trkpt lat="48.77149" lon="2.13097">
        <ele>147.7</ele>
        <time>2017-01-14T10:52:59Z</time>
      </trkpt>
      <trkpt lat="48.77149" lon="2.13106">
        <ele>147.7</ele>
        <time>2017-01-14T10:53:05Z</time>
      </trkpt>
      <trkpt lat="48.77151" lon="2.13118">
        <ele>147.22</ele>
        <time>2017-01-14T10:53:10Z</time>
      </trkpt>
      <trkpt lat="48.77152" lon="2.1312">
        <ele>147.22</ele>
        <time>2017-01-14T10:53:11Z</time>
      </trkpt>
      <trkpt lat="48.77154" lon="2.13129">
        <ele>146.74</ele>
        <time>2017-01-14T10:53:17Z</time>
      </trkpt>
      <trkpt lat="48.77158" lon="2.13137">
        <ele>146.26</ele>
        <time>2017-01-14T10:53:22Z</time>
      </trkpt>
      <trkpt lat="48.7716" lon="2.13145">
        <ele>146.74</ele>
        <time>2017-01-14T10:53:28Z</time>
      </trkpt>
      <trkpt lat="48.77162" lon="2.13151">
        <ele>146.74</ele>
        <time>2017-01-14T10:53:33Z</time>
      </trkpt>
      <trkpt lat="48.77163" lon="2.13161">
        <ele>146.74</ele>
        <time>2017-01-14T10:53:39Z</time>
      </trkpt>
      <trkpt lat="48.7716" lon="2.13174">
        <ele>146.74</ele>
        <time>2017-01-14T10:53:45Z</time>
      </trkpt>
      <trkpt lat="48.77164" lon="2.1318">
        <ele>146.74</ele>
        <time>2017-01-14T10:53:51Z</time>
      </trkpt>
      <trkpt lat="48.77157" lon="2.13194">
        <ele>147.7</ele>
        <time>2017-01-14T10:53:57Z</time>
      </trkpt>
      <trkpt lat="48.77159" lon="2.13199">
        <ele>147.22</ele>
        <time>2017-01-14T10:54:01Z</time>
      </trkpt>
      <trkpt lat="48.77165" lon="2.13205">
        <ele>147.7</ele>
        <time>2017-01-14T10:54:07Z</time>
      </trkpt>
      <trkpt lat="48.77161" lon="2.13206">
        <ele>148.18</ele>
        <time>2017-01-14T10:54:12Z</time>
      </trkpt>
      <trkpt lat="48.77162" lon="2.1321">
        <ele>148.18</ele>
        <time>2017-01-14T10:54:17Z</time>
      </trkpt>
      <trkpt lat="48.77166" lon="2.13219">
        <ele>148.18</ele>
        <time>2017-01-14T10:54:23Z</time>
      </trkpt>
      <trkpt lat="48.77167" lon="2.13222">
        <ele>148.18</ele>
        <time>2017-01-14T10:54:35Z</time>
      </trkpt>
      <trkpt lat="48.77167" lon="2.13224">
        <ele>148.66</ele>
        <time>2017-01-14T10:54:45Z</time>
      </trkpt>
      <trkpt lat="48.77167" lon="2.13225">
        <ele>148.66</ele>
        <time>2017-01-14T10:54:58Z</time>
      </trkpt>
      <trkpt lat="48.77166" lon="2.13225">
        <ele>148.66</ele>
        <time>2017-01-14T10:55:07Z</time>
      </trkpt>
      <trkpt lat="48.77165" lon="2.13225">
        <ele>148.66</ele>
        <time>2017-01-14T10:55:18Z</time>
      </trkpt>
      <trkpt lat="48.77165" lon="2.13226">
        <ele>148.66</ele>
        <time>2017-01-14T10:55:32Z</time>
      </trkpt>
      <trkpt lat="48.77165" lon="2.13227">
        <ele>148.66</ele>
        <time>2017-01-14T10:55:45Z</time>
      </trkpt>
      <trkpt lat="48.77166" lon="2.13227">
        <ele>148.66</ele>
        <time>2017-01-14T10:55:56Z</time>
      </trkpt>
      <trkpt lat="48.77166" lon="2.13227">
        <ele>148.66</ele>
        <time>2017-01-14T10:56:07Z</time>
      </trkpt>
      <trkpt lat="48.77166" lon="2.13227">
        <ele>148.18</ele>
        <time>2017-01-14T10:56:15Z</time>
      </trkpt>
      <trkpt lat="48.77166" lon="2.13227">
        <ele>148.18</ele>
        <time>2017-01-14T10:56:17Z</time>
      </trkpt>
      <trkpt lat="48.77163" lon="2.13224">
        <ele>147.22</ele>
        <time>2017-01-14T10:56:23Z</time>
      </trkpt>
      <trkpt lat="48.77161" lon="2.13224">
        <ele>146.74</ele>
        <time>2017-01-14T10:56:25Z</time>
      </trkpt>
      <trkpt lat="48.77152" lon="2.13225">
        <ele>145.78</ele>
        <time>2017-01-14T10:56:31Z</time>
      </trkpt>
      <trkpt lat="48.77148" lon="2.13226">
        <ele>145.78</ele>
        <time>2017-01-14T10:56:37Z</time>
      </trkpt>
      <trkpt lat="48.77146" lon="2.13228">
        <ele>145.3</ele>
        <time>2017-01-14T10:56:42Z</time>
      </trkpt>
      <trkpt lat="48.77141" lon="2.13233">
        <ele>145.3</ele>
        <time>2017-01-14T10:56:48Z</time>
      </trkpt>
      <trkpt lat="48.77139" lon="2.13237">
        <ele>144.34</ele>
        <time>2017-01-14T10:56:53Z</time>
      </trkpt>
      <trkpt lat="48.77138" lon="2.13244">
        <ele>143.85</ele>
        <time>2017-01-14T10:56:57Z</time>
      </trkpt>
      <trkpt lat="48.77136" lon="2.13248">
        <ele>143.37</ele>
        <time>2017-01-14T10:57:01Z</time>
      </trkpt>
      <trkpt lat="48.77134" lon="2.13252">
        <ele>142.89</ele>
        <time>2017-01-14T10:57:04Z</time>
      </trkpt>
      <trkpt lat="48.77132" lon="2.13257">
        <ele>141.93</ele>
        <time>2017-01-14T10:57:08Z</time>
      </trkpt>
      <trkpt lat="48.77129" lon="2.13269">
        <ele>141.45</ele>
        <time>2017-01-14T10:57:15Z</time>
      </trkpt>
      <trkpt lat="48.77127" lon="2.13283">
        <ele>140.01</ele>
        <time>2017-01-14T10:57:22Z</time>
      </trkpt>
      <trkpt lat="48.77127" lon="2.13294">
        <ele>139.53</ele>
        <time>2017-01-14T10:57:28Z</time>
      </trkpt>
      <trkpt lat="48.77127" lon="2.13303">
        <ele>139.05</ele>
        <time>2017-01-14T10:57:33Z</time>
      </trkpt>
      <trkpt lat="48.77127" lon="2.13318">
        <ele>138.09</ele>
        <time>2017-01-14T10:57:39Z</time>
      </trkpt>
      <trkpt lat="48.77118" lon="2.13335">
        <ele>137.61</ele>
        <time>2017-01-14T10:57:46Z</time>
      </trkpt>
      <trkpt lat="48.77115" lon="2.13347">
        <ele>137.13</ele>
        <time>2017-01-14T10:57:53Z</time>
      </trkpt>
      <trkpt lat="48.77115" lon="2.13354">
        <ele>136.64</ele>
        <time>2017-01-14T10:57:56Z</time>
      </trkpt>
      <trkpt lat="48.77113" lon="2.13362">
        <ele>136.64</ele>
        <time>2017-01-14T10:58:00Z</time>
      </trkpt>
      <trkpt lat="48.77112" lon="2.13365">
        <ele>136.64</ele>
        <time>2017-01-14T10:58:02Z</time>
      </trkpt>
      <trkpt lat="48.77111" lon="2.13369">
        <ele>136.64</ele>
        <time>2017-01-14T10:58:04Z</time>
      </trkpt>
      <trkpt lat="48.7711" lon="2.13376">
        <ele>135.68</ele>
        <time>2017-01-14T10:58:10Z</time>
      </trkpt>
      <trkpt lat="48.77107" lon="2.13379">
        <ele>135.68</ele>
        <time>2017-01-14T10:58:12Z</time>
      </trkpt>
      <trkpt lat="48.77103" lon="2.13386">
        <ele>135.2</ele>
        <time>2017-01-14T10:58:16Z</time>
      </trkpt>
      <trkpt lat="48.77102" lon="2.13398">
        <ele>134.72</ele>
        <time>2017-01-14T10:58:23Z</time>
      </trkpt>
      <trkpt lat="48.771" lon="2.13404">
        <ele>134.24</ele>
        <time>2017-01-14T10:58:28Z</time>
      </trkpt>
      <trkpt lat="48.77098" lon="2.13413">
        <ele>133.76</ele>
        <time>2017-01-14T10:58:35Z</time>
      </trkpt>
      <trkpt lat="48.77098" lon="2.13415">
        <ele>134.24</ele>
        <time>2017-01-14T10:58:41Z</time>
      </trkpt>
      <trkpt lat="48.77096" lon="2.13422">
        <ele>132.8</ele>
        <time>2017-01-14T10:58:46Z</time>
      </trkpt>
      <trkpt lat="48.77093" lon="2.13432">
        <ele>132.8</ele>
        <time>2017-01-14T10:58:51Z</time>
      </trkpt>
      <trkpt lat="48.77089" lon="2.13443">
        <ele>132.32</ele>
        <time>2017-01-14T10:58:58Z</time>
      </trkpt>
      <trkpt lat="48.77089" lon="2.13453">
        <ele>132.32</ele>
        <time>2017-01-14T10:59:04Z</time>
      </trkpt>
      <trkpt lat="48.77088" lon="2.13458">
        <ele>131.84</ele>
        <time>2017-01-14T10:59:07Z</time>
      </trkpt>
      <trkpt lat="48.77083" lon="2.13468">
        <ele>132.32</ele>
        <time>2017-01-14T10:59:14Z</time>
      </trkpt>
      <trkpt lat="48.77085" lon="2.13476">
        <ele>132.8</ele>
        <time>2017-01-14T10:59:20Z</time>
      </trkpt>
      <trkpt lat="48.77086" lon="2.13485">
        <ele>132.8</ele>
        <time>2017-01-14T10:59:24Z</time>
      </trkpt>
      <trkpt lat="48.77087" lon="2.13494">
        <ele>133.28</ele>
        <time>2017-01-14T10:59:27Z</time>
      </trkpt>
      <trkpt lat="48.77086" lon="2.13502">
        <ele>133.76</ele>
        <time>2017-01-14T10:59:34Z</time>
      </trkpt>
      <trkpt lat="48.77086" lon="2.1351">
        <ele>134.24</ele>
        <time>2017-01-14T10:59:41Z</time>
      </trkpt>
      <trkpt lat="48.77086" lon="2.13515">
        <ele>134.72</ele>
        <time>2017-01-14T10:59:44Z</time>
      </trkpt>
      <trkpt lat="48.77083" lon="2.13529">
        <ele>136.16</ele>
        <time>2017-01-14T10:59:51Z</time>
      </trkpt>
      <trkpt lat="48.77075" lon="2.13545">
        <ele>137.13</ele>
        <time>2017-01-14T10:59:58Z</time>
      </trkpt>
      <trkpt lat="48.77075" lon="2.13557">
        <ele>137.61</ele>
        <time>2017-01-14T11:00:05Z</time>
      </trkpt>
      <trkpt lat="48.77077" lon="2.13567">
        <ele>138.57</ele>
        <time>2017-01-14T11:00:12Z</time>
      </trkpt>
      <trkpt lat="48.77076" lon="2.13576">
        <ele>140.01</ele>
        <time>2017-01-14T11:00:18Z</time>
      </trkpt>
      <trkpt lat="48.77075" lon="2.13586">
        <ele>140.49</ele>
        <time>2017-01-14T11:00:24Z</time>
      </trkpt>
      <trkpt lat="48.77075" lon="2.1359">
        <ele>140.49</ele>
        <time>2017-01-14T11:00:26Z</time>
      </trkpt>
      <trkpt lat="48.7707" lon="2.13598">
        <ele>140.49</ele>
        <time>2017-01-14T11:00:32Z</time>
      </trkpt>
      <trkpt lat="48.77066" lon="2.13609">
        <ele>140.01</ele>
        <time>2017-01-14T11:00:38Z</time>
      </trkpt>
      <trkpt lat="48.77065" lon="2.13618">
        <ele>139.05</ele>
        <time>2017-01-14T11:00:45Z</time>
      </trkpt>
      <trkpt lat="48.77064" lon="2.13629">
        <ele>138.57</ele>
        <time>2017-01-14T11:00:51Z</time>
      </trkpt>
      <trkpt lat="48.77063" lon="2.13639">
        <ele>138.09</ele>
        <time>2017-01-14T11:00:58Z</time>
      </trkpt>
      <trkpt lat="48.77059" lon="2.13649">
        <ele>138.09</ele>
        <time>2017-01-14T11:01:04Z</time>
      </trkpt>
      <trkpt lat="48.77057" lon="2.13651">
        <ele>138.09</ele>
        <time>2017-01-14T11:01:05Z</time>
      </trkpt>
      <trkpt lat="48.77053" lon="2.13659">
        <ele>138.09</ele>
        <time>2017-01-14T11:01:10Z</time>
      </trkpt>
      <trkpt lat="48.77052" lon="2.13663">
        <ele>138.09</ele>
        <time>2017-01-14T11:01:13Z</time>
      </trkpt>
      <trkpt lat="48.77053" lon="2.13673">
        <ele>137.61</ele>
        <time>2017-01-14T11:01:21Z</time>
      </trkpt>
      <trkpt lat="48.77053" lon="2.13683">
        <ele>137.13</ele>
        <time>2017-01-14T11:01:27Z</time>
      </trkpt>
      <trkpt lat="48.77053" lon="2.13686">
        <ele>137.13</ele>
        <time>2017-01-14T11:01:29Z</time>
      </trkpt>
      <trkpt lat="48.77049" lon="2.13703">
        <ele>136.64</ele>
        <time>2017-01-14T11:01:36Z</time>
      </trkpt>
      <trkpt lat="48.77047" lon="2.13715">
        <ele>136.16</ele>
        <time>2017-01-14T11:01:42Z</time>
      </trkpt>
      <trkpt lat="48.77041" lon="2.13718">
        <ele>136.16</ele>
        <time>2017-01-14T11:01:50Z</time>
      </trkpt>
      <trkpt lat="48.77035" lon="2.13721">
        <ele>136.16</ele>
        <time>2017-01-14T11:01:57Z</time>
      </trkpt>
      <trkpt lat="48.77029" lon="2.13725">
        <ele>136.16</ele>
        <time>2017-01-14T11:02:04Z</time>
      </trkpt>
      <trkpt lat="48.77024" lon="2.13727">
        <ele>136.64</ele>
        <time>2017-01-14T11:02:10Z</time>
      </trkpt>
      <trkpt lat="48.7702" lon="2.1373">
        <ele>137.13</ele>
        <time>2017-01-14T11:02:16Z</time>
      </trkpt>
      <trkpt lat="48.77018" lon="2.13732">
        <ele>137.13</ele>
        <time>2017-01-14T11:02:21Z</time>
      </trkpt>
      <trkpt lat="48.77012" lon="2.13735">
        <ele>137.61</ele>
        <time>2017-01-14T11:02:28Z</time>
      </trkpt>
      <trkpt lat="48.7701" lon="2.13738">
        <ele>137.61</ele>
        <time>2017-01-14T11:02:33Z</time>
      </trkpt>
      <trkpt lat="48.77006" lon="2.13741">
        <ele>138.09</ele>
        <time>2017-01-14T11:02:39Z</time>
      </trkpt>
      <trkpt lat="48.77002" lon="2.13746">
        <ele>138.09</ele>
        <time>2017-01-14T11:02:46Z</time>
      </trkpt>
      <trkpt lat="48.76989" lon="2.1375">
        <ele>139.53</ele>
        <time>2017-01-14T11:02:54Z</time>
      </trkpt>
      <trkpt lat="48.7698" lon="2.13751">
        <ele>140.97</ele>
        <time>2017-01-14T11:03:03Z</time>
      </trkpt>
      <trkpt lat="48.76977" lon="2.13749">
        <ele>141.93</ele>
        <time>2017-01-14T11:03:09Z</time>
      </trkpt>
      <trkpt lat="48.76975" lon="2.13745">
        <ele>142.89</ele>
        <time>2017-01-14T11:03:14Z</time>
      </trkpt>
      <trkpt lat="48.76971" lon="2.13741">
        <ele>143.85</ele>
        <time>2017-01-14T11:03:20Z</time>
      </trkpt>
      <trkpt lat="48.76969" lon="2.1374">
        <ele>144.82</ele>
        <time>2017-01-14T11:03:25Z</time>
      </trkpt>
      <trkpt lat="48.76962" lon="2.13735">
        <ele>146.26</ele>
        <time>2017-01-14T11:03:32Z</time>
      </trkpt>
      <trkpt lat="48.76958" lon="2.1373">
        <ele>147.7</ele>
        <time>2017-01-14T11:03:39Z</time>
      </trkpt>
      <trkpt lat="48.76956" lon="2.13727">
        <ele>148.66</ele>
        <time>2017-01-14T11:03:45Z</time>
      </trkpt>
      <trkpt lat="48.7695" lon="2.13721">
        <ele>150.58</ele>
        <time>2017-01-14T11:03:53Z</time>
      </trkpt>
      <trkpt lat="48.76942" lon="2.13717">
        <ele>152.03</ele>
        <time>2017-01-14T11:04:00Z</time>
      </trkpt>
      <trkpt lat="48.76936" lon="2.13712">
        <ele>153.47</ele>
        <time>2017-01-14T11:04:08Z</time>
      </trkpt>
      <trkpt lat="48.76933" lon="2.13708">
        <ele>154.91</ele>
        <time>2017-01-14T11:04:15Z</time>
      </trkpt>
      <trkpt lat="48.7693" lon="2.13705">
        <ele>155.39</ele>
        <time>2017-01-14T11:04:22Z</time>
      </trkpt>
      <trkpt lat="48.76925" lon="2.13702">
        <ele>156.35</ele>
        <time>2017-01-14T11:04:28Z</time>
      </trkpt>
      <trkpt lat="48.7692" lon="2.13698">
        <ele>157.31</ele>
        <time>2017-01-14T11:04:35Z</time>
      </trkpt>
      <trkpt lat="48.76915" lon="2.13693">
        <ele>159.24</ele>
        <time>2017-01-14T11:04:43Z</time>
      </trkpt>
      <trkpt lat="48.7691" lon="2.13686">
        <ele>160.68</ele>
        <time>2017-01-14T11:04:50Z</time>
      </trkpt>
      <trkpt lat="48.76905" lon="2.13681">
        <ele>161.64</ele>
        <time>2017-01-14T11:04:56Z</time>
      </trkpt>
      <trkpt lat="48.76902" lon="2.13676">
        <ele>163.08</ele>
        <time>2017-01-14T11:05:01Z</time>
      </trkpt>
      <trkpt lat="48.76896" lon="2.13668">
        <ele>164.52</ele>
        <time>2017-01-14T11:05:08Z</time>
      </trkpt>
      <trkpt lat="48.76889" lon="2.13661">
        <ele>165.48</ele>
        <time>2017-01-14T11:05:15Z</time>
      </trkpt>
      <trkpt lat="48.76881" lon="2.13653">
        <ele>166.45</ele>
        <time>2017-01-14T11:05:23Z</time>
      </trkpt>
      <trkpt lat="48.76875" lon="2.13649">
        <ele>166.93</ele>
        <time>2017-01-14T11:05:29Z</time>
      </trkpt>
      <trkpt lat="48.76867" lon="2.13643">
        <ele>167.41</ele>
        <time>2017-01-14T11:05:37Z</time>
      </trkpt>
      <trkpt lat="48.76861" lon="2.13636">
        <ele>167.41</ele>
        <time>2017-01-14T11:05:43Z</time>
      </trkpt>
      <trkpt lat="48.76859" lon="2.13635">
        <ele>167.41</ele>
        <time>2017-01-14T11:05:45Z</time>
      </trkpt>
      <trkpt lat="48.76856" lon="2.13628">
        <ele>167.41</ele>
        <time>2017-01-14T11:05:52Z</time>
      </trkpt>
      <trkpt lat="48.76854" lon="2.13626">
        <ele>167.41</ele>
        <time>2017-01-14T11:05:59Z</time>
      </trkpt>
      <trkpt lat="48.76854" lon="2.13625">
        <ele>167.41</ele>
        <time>2017-01-14T11:06:05Z</time>
      </trkpt>
      <trkpt lat="48.76854" lon="2.13625">
        <ele>167.41</ele>
        <time>2017-01-14T11:06:16Z</time>
      </trkpt>
      <trkpt lat="48.76851" lon="2.13623">
        <ele>167.41</ele>
        <time>2017-01-14T11:06:27Z</time>
      </trkpt>
      <trkpt lat="48.76849" lon="2.13621">
        <ele>167.41</ele>
        <time>2017-01-14T11:06:33Z</time>
      </trkpt>
      <trkpt lat="48.76848" lon="2.13621">
        <ele>167.41</ele>
        <time>2017-01-14T11:06:39Z</time>
      </trkpt>
      <trkpt lat="48.76844" lon="2.1362">
        <ele>167.41</ele>
        <time>2017-01-14T11:06:47Z</time>
      </trkpt>
      <trkpt lat="48.76836" lon="2.13613">
        <ele>167.41</ele>
        <time>2017-01-14T11:06:54Z</time>
      </trkpt>
      <trkpt lat="48.76834" lon="2.1361">
        <ele>167.41</ele>
        <time>2017-01-14T11:06:56Z</time>
      </trkpt>
      <trkpt lat="48.76826" lon="2.13602">
        <ele>167.89</ele>
        <time>2017-01-14T11:07:04Z</time>
      </trkpt>
      <trkpt lat="48.76818" lon="2.13594">
        <ele>167.41</ele>
        <time>2017-01-14T11:07:11Z</time>
      </trkpt>
      <trkpt lat="48.76813" lon="2.13586">
        <ele>167.89</ele>
        <time>2017-01-14T11:07:17Z</time>
      </trkpt>
      <trkpt lat="48.7681" lon="2.13583">
        <ele>167.41</ele>
        <time>2017-01-14T11:07:22Z</time>
      </trkpt>
      <trkpt lat="48.76808" lon="2.1358">
        <ele>167.41</ele>
        <time>2017-01-14T11:07:25Z</time>
      </trkpt>
      <trkpt lat="48.76805" lon="2.13576">
        <ele>167.41</ele>
        <time>2017-01-14T11:07:28Z</time>
      </trkpt>
      <trkpt lat="48.76799" lon="2.1357">
        <ele>167.89</ele>
        <time>2017-01-14T11:07:33Z</time>
      </trkpt>
      <trkpt lat="48.76792" lon="2.13562">
        <ele>167.41</ele>
        <time>2017-01-14T11:07:41Z</time>
      </trkpt>
      <trkpt lat="48.76784" lon="2.13553">
        <ele>167.89</ele>
        <time>2017-01-14T11:07:48Z</time>
      </trkpt>
      <trkpt lat="48.76784" lon="2.13552">
        <ele>167.89</ele>
        <time>2017-01-14T11:07:49Z</time>
      </trkpt>
      <trkpt lat="48.76776" lon="2.13544">
        <ele>167.41</ele>
        <time>2017-01-14T11:07:57Z</time>
      </trkpt>
      <trkpt lat="48.76768" lon="2.13535">
        <ele>167.89</ele>
        <time>2017-01-14T11:08:04Z</time>
      </trkpt>
      <trkpt lat="48.76762" lon="2.1353">
        <ele>167.89</ele>
        <time>2017-01-14T11:08:09Z</time>
      </trkpt>
      <trkpt lat="48.76754" lon="2.1352">
        <ele>167.89</ele>
        <time>2017-01-14T11:08:17Z</time>
      </trkpt>
      <trkpt lat="48.76747" lon="2.1351">
        <ele>167.89</ele>
        <time>2017-01-14T11:08:26Z</time>
      </trkpt>
      <trkpt lat="48.7674" lon="2.13502">
        <ele>167.89</ele>
        <time>2017-01-14T11:08:33Z</time>
      </trkpt>
      <trkpt lat="48.76738" lon="2.13501">
        <ele>167.89</ele>
        <time>2017-01-14T11:08:35Z</time>
      </trkpt>
      <trkpt lat="48.76729" lon="2.13492">
        <ele>168.37</ele>
        <time>2017-01-14T11:08:44Z</time>
      </trkpt>
      <trkpt lat="48.76728" lon="2.13491">
        <ele>168.37</ele>
        <time>2017-01-14T11:08:45Z</time>
      </trkpt>
      <trkpt lat="48.76725" lon="2.13487">
        <ele>168.37</ele>
        <time>2017-01-14T11:08:48Z</time>
      </trkpt>
      <trkpt lat="48.76721" lon="2.13482">
        <ele>168.37</ele>
        <time>2017-01-14T11:08:53Z</time>
      </trkpt>
      <trkpt lat="48.76716" lon="2.13479">
        <ele>168.37</ele>
        <time>2017-01-14T11:08:57Z</time>
      </trkpt>
      <trkpt lat="48.76709" lon="2.13473">
        <ele>168.85</ele>
        <time>2017-01-14T11:09:04Z</time>
      </trkpt>
      <trkpt lat="48.76701" lon="2.1346">
        <ele>168.85</ele>
        <time>2017-01-14T11:09:13Z</time>
      </trkpt>
      <trkpt lat="48.76699" lon="2.13456">
        <ele>169.33</ele>
        <time>2017-01-14T11:09:19Z</time>
      </trkpt>
      <trkpt lat="48.76695" lon="2.1345">
        <ele>169.33</ele>
        <time>2017-01-14T11:09:26Z</time>
      </trkpt>
      <trkpt lat="48.76693" lon="2.13447">
        <ele>169.33</ele>
        <time>2017-01-14T11:09:32Z</time>
      </trkpt>
      <trkpt lat="48.76693" lon="2.13446">
        <ele>169.33</ele>
        <time>2017-01-14T11:09:39Z</time>
      </trkpt>
      <trkpt lat="48.76691" lon="2.13445">
        <ele>169.33</ele>
        <time>2017-01-14T11:09:46Z</time>
      </trkpt>
      <trkpt lat="48.76691" lon="2.1344">
        <ele>169.33</ele>
        <time>2017-01-14T11:09:50Z</time>
      </trkpt>
      <trkpt lat="48.76692" lon="2.13434">
        <ele>169.33</ele>
        <time>2017-01-14T11:09:54Z</time>
      </trkpt>
      <trkpt lat="48.76693" lon="2.13431">
        <ele>169.33</ele>
        <time>2017-01-14T11:09:56Z</time>
      </trkpt>
      <trkpt lat="48.76696" lon="2.13423">
        <ele>169.33</ele>
        <time>2017-01-14T11:10:03Z</time>
      </trkpt>
      <trkpt lat="48.76697" lon="2.1342">
        <ele>168.85</ele>
        <time>2017-01-14T11:10:06Z</time>
      </trkpt>
      <trkpt lat="48.767" lon="2.13413">
        <ele>169.33</ele>
        <time>2017-01-14T11:10:11Z</time>
      </trkpt>
      <trkpt lat="48.76703" lon="2.134">
        <ele>168.85</ele>
        <time>2017-01-14T11:10:20Z</time>
      </trkpt>
      <trkpt lat="48.76705" lon="2.13395">
        <ele>168.85</ele>
        <time>2017-01-14T11:10:24Z</time>
      </trkpt>
      <trkpt lat="48.76706" lon="2.1339">
        <ele>168.85</ele>
        <time>2017-01-14T11:10:27Z</time>
      </trkpt>
      <trkpt lat="48.76707" lon="2.13387">
        <ele>168.85</ele>
        <time>2017-01-14T11:10:29Z</time>
      </trkpt>
      <trkpt lat="48.7671" lon="2.13376">
        <ele>168.37</ele>
        <time>2017-01-14T11:10:37Z</time>
      </trkpt>
      <trkpt lat="48.7671" lon="2.13373">
        <ele>168.37</ele>
        <time>2017-01-14T11:10:39Z</time>
      </trkpt>
      <trkpt lat="48.76712" lon="2.1336">
        <ele>168.37</ele>
        <time>2017-01-14T11:10:49Z</time>
      </trkpt>
      <trkpt lat="48.76713" lon="2.13357">
        <ele>168.37</ele>
        <time>2017-01-14T11:10:51Z</time>
      </trkpt>
      <trkpt lat="48.76715" lon="2.13346">
        <ele>168.37</ele>
        <time>2017-01-14T11:10:58Z</time>
      </trkpt>
      <trkpt lat="48.76715" lon="2.13342">
        <ele>168.37</ele>
        <time>2017-01-14T11:11:01Z</time>
      </trkpt>
      <trkpt lat="48.76716" lon="2.13336">
        <ele>168.37</ele>
        <time>2017-01-14T11:11:05Z</time>
      </trkpt>
      <trkpt lat="48.76718" lon="2.1332">
        <ele>167.89</ele>
        <time>2017-01-14T11:11:15Z</time>
      </trkpt>
      <trkpt lat="48.76717" lon="2.13315">
        <ele>167.41</ele>
        <time>2017-01-14T11:11:18Z</time>
      </trkpt>
      <trkpt lat="48.7672" lon="2.13303">
        <ele>167.41</ele>
        <time>2017-01-14T11:11:25Z</time>
      </trkpt>
      <trkpt lat="48.76722" lon="2.13291">
        <ele>167.41</ele>
        <time>2017-01-14T11:11:32Z</time>
      </trkpt>
      <trkpt lat="48.76722" lon="2.13281">
        <ele>167.41</ele>
        <time>2017-01-14T11:11:39Z</time>
      </trkpt>
      <trkpt lat="48.76723" lon="2.13274">
        <ele>166.93</ele>
        <time>2017-01-14T11:11:45Z</time>
      </trkpt>
      <trkpt lat="48.76723" lon="2.13267">
        <ele>166.93</ele>
        <time>2017-01-14T11:11:49Z</time>
      </trkpt>
      <trkpt lat="48.76725" lon="2.1325">
        <ele>166.45</ele>
        <time>2017-01-14T11:11:58Z</time>
      </trkpt>
      <trkpt lat="48.76726" lon="2.13248">
        <ele>166.45</ele>
        <time>2017-01-14T11:11:59Z</time>
      </trkpt>
      <trkpt lat="48.76728" lon="2.13238">
        <ele>165.96</ele>
        <time>2017-01-14T11:12:05Z</time>
      </trkpt>
      <trkpt lat="48.76731" lon="2.1323">
        <ele>165.96</ele>
        <time>2017-01-14T11:12:10Z</time>
      </trkpt>
      <trkpt lat="48.76734" lon="2.13216">
        <ele>165.96</ele>
        <time>2017-01-14T11:12:17Z</time>
      </trkpt>
      <trkpt lat="48.7674" lon="2.13201">
        <ele>165.96</ele>
        <time>2017-01-14T11:12:25Z</time>
      </trkpt>
      <trkpt lat="48.7674" lon="2.13199">
        <ele>165.96</ele>
        <time>2017-01-14T11:12:26Z</time>
      </trkpt>
      <trkpt lat="48.76743" lon="2.13191">
        <ele>165.48</ele>
        <time>2017-01-14T11:12:31Z</time>
      </trkpt>
      <trkpt lat="48.76748" lon="2.13175">
        <ele>165.48</ele>
        <time>2017-01-14T11:12:38Z</time>
      </trkpt>
      <trkpt lat="48.76753" lon="2.1316">
        <ele>165.48</ele>
        <time>2017-01-14T11:12:46Z</time>
      </trkpt>
      <trkpt lat="48.76754" lon="2.13157">
        <ele>165.48</ele>
        <time>2017-01-14T11:12:48Z</time>
      </trkpt>
      <trkpt lat="48.76756" lon="2.13148">
        <ele>165.48</ele>
        <time>2017-01-14T11:12:54Z</time>
      </trkpt>
      <trkpt lat="48.76758" lon="2.13146">
        <ele>165.48</ele>
        <time>2017-01-14T11:12:56Z</time>
      </trkpt>
      <trkpt lat="48.76762" lon="2.13135">
        <ele>165.48</ele>
        <time>2017-01-14T11:13:04Z</time>
      </trkpt>
      <trkpt lat="48.76765" lon="2.13126">
        <ele>165.48</ele>
        <time>2017-01-14T11:13:11Z</time>
      </trkpt>
      <trkpt lat="48.76768" lon="2.13122">
        <ele>165.48</ele>
        <time>2017-01-14T11:13:16Z</time>
      </trkpt>
      <trkpt lat="48.76772" lon="2.13112">
        <ele>165.48</ele>
        <time>2017-01-14T11:13:23Z</time>
      </trkpt>
      <trkpt lat="48.76777" lon="2.13103">
        <ele>165.48</ele>
        <time>2017-01-14T11:13:28Z</time>
      </trkpt>
      <trkpt lat="48.76781" lon="2.13088">
        <ele>165.48</ele>
        <time>2017-01-14T11:13:36Z</time>
      </trkpt>
      <trkpt lat="48.76787" lon="2.13076">
        <ele>165.96</ele>
        <time>2017-01-14T11:13:44Z</time>
      </trkpt>
      <trkpt lat="48.76791" lon="2.13064">
        <ele>165.96</ele>
        <time>2017-01-14T11:13:52Z</time>
      </trkpt>
      <trkpt lat="48.76792" lon="2.1306">
        <ele>165.96</ele>
        <time>2017-01-14T11:13:55Z</time>
      </trkpt>
      <trkpt lat="48.76794" lon="2.13041">
        <ele>166.45</ele>
        <time>2017-01-14T11:14:06Z</time>
      </trkpt>
      <trkpt lat="48.76793" lon="2.13038">
        <ele>166.45</ele>
        <time>2017-01-14T11:14:09Z</time>
      </trkpt>
      <trkpt lat="48.76793" lon="2.13031">
        <ele>166.93</ele>
        <time>2017-01-14T11:14:14Z</time>
      </trkpt>
      <trkpt lat="48.76793" lon="2.13023">
        <ele>166.93</ele>
        <time>2017-01-14T11:14:21Z</time>
      </trkpt>
      <trkpt lat="48.76792" lon="2.13022">
        <ele>166.93</ele>
        <time>2017-01-14T11:14:22Z</time>
      </trkpt>
      <trkpt lat="48.76792" lon="2.13006">
        <ele>167.41</ele>
        <time>2017-01-14T11:14:30Z</time>
      </trkpt>
      <trkpt lat="48.76788" lon="2.12992">
        <ele>167.41</ele>
        <time>2017-01-14T11:14:37Z</time>
      </trkpt>
      <trkpt lat="48.76787" lon="2.12984">
        <ele>167.89</ele>
        <time>2017-01-14T11:14:44Z</time>
      </trkpt>
      <trkpt lat="48.76788" lon="2.12976">
        <ele>167.41</ele>
        <time>2017-01-14T11:14:55Z</time>
      </trkpt>
      <trkpt lat="48.76788" lon="2.12976">
        <ele>167.41</ele>
        <time>2017-01-14T11:15:02Z</time>
      </trkpt>
      <trkpt lat="48.76788" lon="2.1297">
        <ele>167.41</ele>
        <time>2017-01-14T11:15:10Z</time>
      </trkpt>
      <trkpt lat="48.76788" lon="2.12969">
        <ele>167.41</ele>
        <time>2017-01-14T11:15:11Z</time>
      </trkpt>
      <trkpt lat="48.76787" lon="2.12963">
        <ele>167.41</ele>
        <time>2017-01-14T11:15:15Z</time>
      </trkpt>
      <trkpt lat="48.76784" lon="2.12955">
        <ele>167.41</ele>
        <time>2017-01-14T11:15:20Z</time>
      </trkpt>
      <trkpt lat="48.76782" lon="2.1295">
        <ele>166.93</ele>
        <time>2017-01-14T11:15:27Z</time>
      </trkpt>
      <trkpt lat="48.76783" lon="2.1295">
        <ele>166.93</ele>
        <time>2017-01-14T11:15:35Z</time>
      </trkpt>
      <trkpt lat="48.76779" lon="2.12949">
        <ele>166.93</ele>
        <time>2017-01-14T11:15:41Z</time>
      </trkpt>
      <trkpt lat="48.76778" lon="2.12948">
        <ele>166.93</ele>
        <time>2017-01-14T11:15:42Z</time>
      </trkpt>
      <trkpt lat="48.76767" lon="2.12947">
        <ele>166.93</ele>
        <time>2017-01-14T11:15:53Z</time>
      </trkpt>
      <trkpt lat="48.76761" lon="2.12947">
        <ele>166.93</ele>
        <time>2017-01-14T11:16:00Z</time>
      </trkpt>
      <trkpt lat="48.76755" lon="2.12944">
        <ele>166.93</ele>
        <time>2017-01-14T11:16:07Z</time>
      </trkpt>
      <trkpt lat="48.76745" lon="2.12941">
        <ele>166.93</ele>
        <time>2017-01-14T11:16:16Z</time>
      </trkpt>
      <trkpt lat="48.76739" lon="2.12939">
        <ele>167.41</ele>
        <time>2017-01-14T11:16:21Z</time>
      </trkpt>
      <trkpt lat="48.7673" lon="2.12935">
        <ele>167.41</ele>
        <time>2017-01-14T11:16:29Z</time>
      </trkpt>
      <trkpt lat="48.76719" lon="2.12929">
        <ele>167.41</ele>
        <time>2017-01-14T11:16:38Z</time>
      </trkpt>
      <trkpt lat="48.76709" lon="2.12923">
        <ele>167.89</ele>
        <time>2017-01-14T11:16:47Z</time>
      </trkpt>
      <trkpt lat="48.767" lon="2.12917">
        <ele>167.89</ele>
        <time>2017-01-14T11:16:55Z</time>
      </trkpt>
      <trkpt lat="48.76693" lon="2.12912">
        <ele>167.89</ele>
        <time>2017-01-14T11:17:03Z</time>
      </trkpt>
      <trkpt lat="48.76685" lon="2.12906">
        <ele>167.89</ele>
        <time>2017-01-14T11:17:11Z</time>
      </trkpt>
      <trkpt lat="48.76677" lon="2.12899">
        <ele>167.89</ele>
        <time>2017-01-14T11:17:19Z</time>
      </trkpt>
      <trkpt lat="48.76669" lon="2.12892">
        <ele>168.37</ele>
        <time>2017-01-14T11:17:28Z</time>
      </trkpt>
      <trkpt lat="48.76662" lon="2.12887">
        <ele>168.37</ele>
        <time>2017-01-14T11:17:34Z</time>
      </trkpt>
      <trkpt lat="48.76655" lon="2.1288">
        <ele>168.37</ele>
        <time>2017-01-14T11:17:41Z</time>
      </trkpt>
      <trkpt lat="48.76645" lon="2.12872">
        <ele>168.37</ele>
        <time>2017-01-14T11:17:50Z</time>
      </trkpt>
      <trkpt lat="48.76636" lon="2.12864">
        <ele>168.85</ele>
        <time>2017-01-14T11:17:59Z</time>
      </trkpt>
      <trkpt lat="48.76628" lon="2.12859">
        <ele>168.85</ele>
        <time>2017-01-14T11:18:06Z</time>
      </trkpt>
      <trkpt lat="48.76625" lon="2.12855">
        <ele>168.85</ele>
        <time>2017-01-14T11:18:10Z</time>
      </trkpt>
      <trkpt lat="48.76621" lon="2.12851">
        <ele>168.85</ele>
        <time>2017-01-14T11:18:15Z</time>
      </trkpt>
      <trkpt lat="48.76611" lon="2.12846">
        <ele>168.85</ele>
        <time>2017-01-14T11:18:24Z</time>
      </trkpt>
      <trkpt lat="48.76603" lon="2.12839">
        <ele>169.33</ele>
        <time>2017-01-14T11:18:32Z</time>
      </trkpt>
      <trkpt lat="48.76597" lon="2.12835">
        <ele>169.33</ele>
        <time>2017-01-14T11:18:38Z</time>
      </trkpt>
      <trkpt lat="48.76587" lon="2.12828">
        <ele>169.33</ele>
        <time>2017-01-14T11:18:47Z</time>
      </trkpt>
      <trkpt lat="48.76586" lon="2.12828">
        <ele>169.33</ele>
        <time>2017-01-14T11:18:48Z</time>
      </trkpt>
      <trkpt lat="48.76578" lon="2.12821">
        <ele>169.81</ele>
        <time>2017-01-14T11:18:56Z</time>
      </trkpt>
      <trkpt lat="48.7657" lon="2.12815">
        <ele>169.81</ele>
        <time>2017-01-14T11:19:04Z</time>
      </trkpt>
      <trkpt lat="48.76562" lon="2.12809">
        <ele>169.81</ele>
        <time>2017-01-14T11:19:12Z</time>
      </trkpt>
      <trkpt lat="48.76555" lon="2.12803">
        <ele>169.81</ele>
        <time>2017-01-14T11:19:20Z</time>
      </trkpt>
      <trkpt lat="48.76548" lon="2.12797">
        <ele>169.81</ele>
        <time>2017-01-14T11:19:27Z</time>
      </trkpt>
      <trkpt lat="48.76542" lon="2.12792">
        <ele>169.81</ele>
        <time>2017-01-14T11:19:33Z</time>
      </trkpt>
      <trkpt lat="48.7654" lon="2.12791">
        <ele>169.81</ele>
        <time>2017-01-14T11:19:35Z</time>
      </trkpt>
      <trkpt lat="48.76536" lon="2.12785">
        <ele>169.81</ele>
        <time>2017-01-14T11:19:42Z</time>
      </trkpt>
      <trkpt lat="48.76533" lon="2.12781">
        <ele>169.81</ele>
        <time>2017-01-14T11:19:45Z</time>
      </trkpt>
      <trkpt lat="48.76524" lon="2.12774">
        <ele>169.81</ele>
        <time>2017-01-14T11:19:53Z</time>
      </trkpt>
      <trkpt lat="48.76521" lon="2.12772">
        <ele>170.29</ele>
        <time>2017-01-14T11:19:56Z</time>
      </trkpt>
      <trkpt lat="48.76517" lon="2.12768">
        <ele>170.29</ele>
        <time>2017-01-14T11:20:04Z</time>
      </trkpt>
      <trkpt lat="48.76515" lon="2.12765">
        <ele>170.29</ele>
        <time>2017-01-14T11:20:07Z</time>
      </trkpt>
      <trkpt lat="48.76505" lon="2.12759">
        <ele>170.29</ele>
        <time>2017-01-14T11:20:15Z</time>
      </trkpt>
      <trkpt lat="48.76504" lon="2.12759">
        <ele>170.29</ele>
        <time>2017-01-14T11:20:16Z</time>
      </trkpt>
      <trkpt lat="48.765" lon="2.1276">
        <ele>170.29</ele>
        <time>2017-01-14T11:20:19Z</time>
      </trkpt>
      <trkpt lat="48.76497" lon="2.12759">
        <ele>170.77</ele>
        <time>2017-01-14T11:20:22Z</time>
      </trkpt>
      <trkpt lat="48.76493" lon="2.12757">
        <ele>170.77</ele>
        <time>2017-01-14T11:20:25Z</time>
      </trkpt>
      <trkpt lat="48.76484" lon="2.12751">
        <ele>170.77</ele>
        <time>2017-01-14T11:20:33Z</time>
      </trkpt>
      <trkpt lat="48.76475" lon="2.12746">
        <ele>170.77</ele>
        <time>2017-01-14T11:20:41Z</time>
      </trkpt>
      <trkpt lat="48.76467" lon="2.12739">
        <ele>170.77</ele>
        <time>2017-01-14T11:20:49Z</time>
      </trkpt>
      <trkpt lat="48.76459" lon="2.12734">
        <ele>171.25</ele>
        <time>2017-01-14T11:20:57Z</time>
      </trkpt>
      <trkpt lat="48.76452" lon="2.12728">
        <ele>171.25</ele>
        <time>2017-01-14T11:21:03Z</time>
      </trkpt>
      <trkpt lat="48.76451" lon="2.12726">
        <ele>171.25</ele>
        <time>2017-01-14T11:21:05Z</time>
      </trkpt>
      <trkpt lat="48.76444" lon="2.1272">
        <ele>171.25</ele>
        <time>2017-01-14T11:21:12Z</time>
      </trkpt>
      <trkpt lat="48.76444" lon="2.12719">
        <ele>171.25</ele>
        <time>2017-01-14T11:21:13Z</time>
      </trkpt>
      <trkpt lat="48.76435" lon="2.12711">
        <ele>171.25</ele>
        <time>2017-01-14T11:21:22Z</time>
      </trkpt>
      <trkpt lat="48.76426" lon="2.12706">
        <ele>172.21</ele>
        <time>2017-01-14T11:21:29Z</time>
      </trkpt>
      <trkpt lat="48.76418" lon="2.12701">
        <ele>171.73</ele>
        <time>2017-01-14T11:21:36Z</time>
      </trkpt>
      <trkpt lat="48.76411" lon="2.12697">
        <ele>172.21</ele>
        <time>2017-01-14T11:21:43Z</time>
      </trkpt>
      <trkpt lat="48.76405" lon="2.12693">
        <ele>172.21</ele>
        <time>2017-01-14T11:21:50Z</time>
      </trkpt>
      <trkpt lat="48.76398" lon="2.12688">
        <ele>172.21</ele>
        <time>2017-01-14T11:21:57Z</time>
      </trkpt>
      <trkpt lat="48.76395" lon="2.12687">
        <ele>172.21</ele>
        <time>2017-01-14T11:22:00Z</time>
      </trkpt>
      <trkpt lat="48.76386" lon="2.12678">
        <ele>172.21</ele>
        <time>2017-01-14T11:22:08Z</time>
      </trkpt>
      <trkpt lat="48.76378" lon="2.12674">
        <ele>172.21</ele>
        <time>2017-01-14T11:22:16Z</time>
      </trkpt>
      <trkpt lat="48.76369" lon="2.1267">
        <ele>172.21</ele>
        <time>2017-01-14T11:22:23Z</time>
      </trkpt>
      <trkpt lat="48.76361" lon="2.12663">
        <ele>172.69</ele>
        <time>2017-01-14T11:22:30Z</time>
      </trkpt>
      <trkpt lat="48.76355" lon="2.12658">
        <ele>172.69</ele>
        <time>2017-01-14T11:22:37Z</time>
      </trkpt>
      <trkpt lat="48.76346" lon="2.12649">
        <ele>172.69</ele>
        <time>2017-01-14T11:22:45Z</time>
      </trkpt>
      <trkpt lat="48.76337" lon="2.12643">
        <ele>172.69</ele>
        <time>2017-01-14T11:22:53Z</time>
      </trkpt>
      <trkpt lat="48.76335" lon="2.12641">
        <ele>172.69</ele>
        <time>2017-01-14T11:22:56Z</time>
      </trkpt>
      <trkpt lat="48.76333" lon="2.1264">
        <ele>172.69</ele>
        <time>2017-01-14T11:22:58Z</time>
      </trkpt>
      <trkpt lat="48.7633" lon="2.12638">
        <ele>172.69</ele>
        <time>2017-01-14T11:23:01Z</time>
      </trkpt>
      <trkpt lat="48.76327" lon="2.12631">
        <ele>172.69</ele>
        <time>2017-01-14T11:23:06Z</time>
      </trkpt>
      <trkpt lat="48.76327" lon="2.12628">
        <ele>172.21</ele>
        <time>2017-01-14T11:23:08Z</time>
      </trkpt>
      <trkpt lat="48.76328" lon="2.12616">
        <ele>172.69</ele>
        <time>2017-01-14T11:23:15Z</time>
      </trkpt>
      <trkpt lat="48.7633" lon="2.12604">
        <ele>172.69</ele>
        <time>2017-01-14T11:23:23Z</time>
      </trkpt>
      <trkpt lat="48.7633" lon="2.12602">
        <ele>172.69</ele>
        <time>2017-01-14T11:23:25Z</time>
      </trkpt>
      <trkpt lat="48.76334" lon="2.12584">
        <ele>172.21</ele>
        <time>2017-01-14T11:23:34Z</time>
      </trkpt>
      <trkpt lat="48.76336" lon="2.12571">
        <ele>172.21</ele>
        <time>2017-01-14T11:23:42Z</time>
      </trkpt>
      <trkpt lat="48.76339" lon="2.1256">
        <ele>172.21</ele>
        <time>2017-01-14T11:23:48Z</time>
      </trkpt>
      <trkpt lat="48.76343" lon="2.12549">
        <ele>172.69</ele>
        <time>2017-01-14T11:23:55Z</time>
      </trkpt>
      <trkpt lat="48.76344" lon="2.12545">
        <ele>172.69</ele>
        <time>2017-01-14T11:23:58Z</time>
      </trkpt>
      <trkpt lat="48.76344" lon="2.12532">
        <ele>172.69</ele>
        <time>2017-01-14T11:24:06Z</time>
      </trkpt>
      <trkpt lat="48.76339" lon="2.12522">
        <ele>172.69</ele>
        <time>2017-01-14T11:24:14Z</time>
      </trkpt>
      <trkpt lat="48.76339" lon="2.12521">
        <ele>172.69</ele>
        <time>2017-01-14T11:24:15Z</time>
      </trkpt>
      <trkpt lat="48.76337" lon="2.12518">
        <ele>172.69</ele>
        <time>2017-01-14T11:24:18Z</time>
      </trkpt>
      <trkpt lat="48.76331" lon="2.1251">
        <ele>172.69</ele>
        <time>2017-01-14T11:24:26Z</time>
      </trkpt>
      <trkpt lat="48.76328" lon="2.12506">
        <ele>172.69</ele>
        <time>2017-01-14T11:24:30Z</time>
      </trkpt>
      <trkpt lat="48.76325" lon="2.12503">
        <ele>172.69</ele>
        <time>2017-01-14T11:24:34Z</time>
      </trkpt>
      <trkpt lat="48.76319" lon="2.12494">
        <ele>173.17</ele>
        <time>2017-01-14T11:24:41Z</time>
      </trkpt>
      <trkpt lat="48.76317" lon="2.12492">
        <ele>173.17</ele>
        <time>2017-01-14T11:24:43Z</time>
      </trkpt>
      <trkpt lat="48.76313" lon="2.1249">
        <ele>173.17</ele>
        <time>2017-01-14T11:24:46Z</time>
      </trkpt>
      <trkpt lat="48.76309" lon="2.12485">
        <ele>173.17</ele>
        <time>2017-01-14T11:24:51Z</time>
      </trkpt>
      <trkpt lat="48.76301" lon="2.1248">
        <ele>173.17</ele>
        <time>2017-01-14T11:24:58Z</time>
      </trkpt>
      <trkpt lat="48.76294" lon="2.12472">
        <ele>173.17</ele>
        <time>2017-01-14T11:25:05Z</time>
      </trkpt>
      <trkpt lat="48.7629" lon="2.12468">
        <ele>173.17</ele>
        <time>2017-01-14T11:25:09Z</time>
      </trkpt>
      <trkpt lat="48.76285" lon="2.12463">
        <ele>173.17</ele>
        <time>2017-01-14T11:25:14Z</time>
      </trkpt>
      <trkpt lat="48.76282" lon="2.12462">
        <ele>173.17</ele>
        <time>2017-01-14T11:25:16Z</time>
      </trkpt>
      <trkpt lat="48.76275" lon="2.12451">
        <ele>173.17</ele>
        <time>2017-01-14T11:25:25Z</time>
      </trkpt>
      <trkpt lat="48.76269" lon="2.12449">
        <ele>173.17</ele>
        <time>2017-01-14T11:25:31Z</time>
      </trkpt>
      <trkpt lat="48.76267" lon="2.12447">
        <ele>173.17</ele>
        <time>2017-01-14T11:25:32Z</time>
      </trkpt>
      <trkpt lat="48.76262" lon="2.1244">
        <ele>172.69</ele>
        <time>2017-01-14T11:25:38Z</time>
      </trkpt>
      <trkpt lat="48.76253" lon="2.12433">
        <ele>172.69</ele>
        <time>2017-01-14T11:25:46Z</time>
      </trkpt>
      <trkpt lat="48.76245" lon="2.12426">
        <ele>172.69</ele>
        <time>2017-01-14T11:25:54Z</time>
      </trkpt>
      <trkpt lat="48.76233" lon="2.12421">
        <ele>172.69</ele>
        <time>2017-01-14T11:26:03Z</time>
      </trkpt>
      <trkpt lat="48.76232" lon="2.1242">
        <ele>172.69</ele>
        <time>2017-01-14T11:26:04Z</time>
      </trkpt>
      <trkpt lat="48.76221" lon="2.12412">
        <ele>172.69</ele>
        <time>2017-01-14T11:26:14Z</time>
      </trkpt>
      <trkpt lat="48.76208" lon="2.12404">
        <ele>172.21</ele>
        <time>2017-01-14T11:26:22Z</time>
      </trkpt>
      <trkpt lat="48.76199" lon="2.12401">
        <ele>172.21</ele>
        <time>2017-01-14T11:26:30Z</time>
      </trkpt>
      <trkpt lat="48.76196" lon="2.12397">
        <ele>172.21</ele>
        <time>2017-01-14T11:26:34Z</time>
      </trkpt>
      <trkpt lat="48.76188" lon="2.12391">
        <ele>171.73</ele>
        <time>2017-01-14T11:26:41Z</time>
      </trkpt>
      <trkpt lat="48.76181" lon="2.12386">
        <ele>171.73</ele>
        <time>2017-01-14T11:26:48Z</time>
      </trkpt>
      <trkpt lat="48.76175" lon="2.12381">
        <ele>171.73</ele>
        <time>2017-01-14T11:26:53Z</time>
      </trkpt>
      <trkpt lat="48.76169" lon="2.12379">
        <ele>171.73</ele>
        <time>2017-01-14T11:26:57Z</time>
      </trkpt>
      <trkpt lat="48.76159" lon="2.12371">
        <ele>171.25</ele>
        <time>2017-01-14T11:27:06Z</time>
      </trkpt>
      <trkpt lat="48.76146" lon="2.12362">
        <ele>171.25</ele>
        <time>2017-01-14T11:27:15Z</time>
      </trkpt>
      <trkpt lat="48.7614" lon="2.12356">
        <ele>171.25</ele>
        <time>2017-01-14T11:27:22Z</time>
      </trkpt>
      <trkpt lat="48.76133" lon="2.1235">
        <ele>171.25</ele>
        <time>2017-01-14T11:27:30Z</time>
      </trkpt>
      <trkpt lat="48.76126" lon="2.12347">
        <ele>171.25</ele>
        <time>2017-01-14T11:27:36Z</time>
      </trkpt>
      <trkpt lat="48.76119" lon="2.12344">
        <ele>170.77</ele>
        <time>2017-01-14T11:27:43Z</time>
      </trkpt>
      <trkpt lat="48.76114" lon="2.12344">
        <ele>170.77</ele>
        <time>2017-01-14T11:27:48Z</time>
      </trkpt>
      <trkpt lat="48.76107" lon="2.12343">
        <ele>170.77</ele>
        <time>2017-01-14T11:27:55Z</time>
      </trkpt>
      <trkpt lat="48.76106" lon="2.12342">
        <ele>170.77</ele>
        <time>2017-01-14T11:27:56Z</time>
      </trkpt>
      <trkpt lat="48.76105" lon="2.1234">
        <ele>170.77</ele>
        <time>2017-01-14T11:27:58Z</time>
      </trkpt>
      <trkpt lat="48.76101" lon="2.12336">
        <ele>170.77</ele>
        <time>2017-01-14T11:28:01Z</time>
      </trkpt>
      <trkpt lat="48.76093" lon="2.12328">
        <ele>170.77</ele>
        <time>2017-01-14T11:28:10Z</time>
      </trkpt>
      <trkpt lat="48.76092" lon="2.12323">
        <ele>170.29</ele>
        <time>2017-01-14T11:28:15Z</time>
      </trkpt>
      <trkpt lat="48.7609" lon="2.12319">
        <ele>170.29</ele>
        <time>2017-01-14T11:28:18Z</time>
      </trkpt>
      <trkpt lat="48.76086" lon="2.1232">
        <ele>170.29</ele>
        <time>2017-01-14T11:28:21Z</time>
      </trkpt>
      <trkpt lat="48.7608" lon="2.12314">
        <ele>170.29</ele>
        <time>2017-01-14T11:28:28Z</time>
      </trkpt>
      <trkpt lat="48.76072" lon="2.12304">
        <ele>170.29</ele>
        <time>2017-01-14T11:28:36Z</time>
      </trkpt>
      <trkpt lat="48.76068" lon="2.12301">
        <ele>169.81</ele>
        <time>2017-01-14T11:28:39Z</time>
      </trkpt>
      <trkpt lat="48.76063" lon="2.12298">
        <ele>170.29</ele>
        <time>2017-01-14T11:28:42Z</time>
      </trkpt>
      <trkpt lat="48.7605" lon="2.12289">
        <ele>170.29</ele>
        <time>2017-01-14T11:28:51Z</time>
      </trkpt>
      <trkpt lat="48.76049" lon="2.12288">
        <ele>170.29</ele>
        <time>2017-01-14T11:28:52Z</time>
      </trkpt>
      <trkpt lat="48.76046" lon="2.12285">
        <ele>170.29</ele>
        <time>2017-01-14T11:28:55Z</time>
      </trkpt>
      <trkpt lat="48.76043" lon="2.12282">
        <ele>170.29</ele>
        <time>2017-01-14T11:28:57Z</time>
      </trkpt>
      <trkpt lat="48.76034" lon="2.12273">
        <ele>170.29</ele>
        <time>2017-01-14T11:29:05Z</time>
      </trkpt>
      <trkpt lat="48.76032" lon="2.1227">
        <ele>170.29</ele>
        <time>2017-01-14T11:29:08Z</time>
      </trkpt>
      <trkpt lat="48.76031" lon="2.12262">
        <ele>169.81</ele>
        <time>2017-01-14T11:29:13Z</time>
      </trkpt>
      <trkpt lat="48.7603" lon="2.12246">
        <ele>169.81</ele>
        <time>2017-01-14T11:29:19Z</time>
      </trkpt>
      <trkpt lat="48.76031" lon="2.12242">
        <ele>169.81</ele>
        <time>2017-01-14T11:29:20Z</time>
      </trkpt>
      <trkpt lat="48.7603" lon="2.12225">
        <ele>169.81</ele>
        <time>2017-01-14T11:29:27Z</time>
      </trkpt>
      <trkpt lat="48.76029" lon="2.12216">
        <ele>170.29</ele>
        <time>2017-01-14T11:29:32Z</time>
      </trkpt>
      <trkpt lat="48.76024" lon="2.12197">
        <ele>169.81</ele>
        <time>2017-01-14T11:29:41Z</time>
      </trkpt>
      <trkpt lat="48.76023" lon="2.12187">
        <ele>169.33</ele>
        <time>2017-01-14T11:29:46Z</time>
      </trkpt>
      <trkpt lat="48.76019" lon="2.12175">
        <ele>169.33</ele>
        <time>2017-01-14T11:29:54Z</time>
      </trkpt>
      <trkpt lat="48.76017" lon="2.12159">
        <ele>168.85</ele>
        <time>2017-01-14T11:30:03Z</time>
      </trkpt>
      <trkpt lat="48.76012" lon="2.12144">
        <ele>168.85</ele>
        <time>2017-01-14T11:30:11Z</time>
      </trkpt>
      <trkpt lat="48.76008" lon="2.1213">
        <ele>168.85</ele>
        <time>2017-01-14T11:30:19Z</time>
      </trkpt>
      <trkpt lat="48.76005" lon="2.12117">
        <ele>168.37</ele>
        <time>2017-01-14T11:30:28Z</time>
      </trkpt>
      <trkpt lat="48.7601" lon="2.12102">
        <ele>168.37</ele>
        <time>2017-01-14T11:30:35Z</time>
      </trkpt>
      <trkpt lat="48.76013" lon="2.12096">
        <ele>168.37</ele>
        <time>2017-01-14T11:30:38Z</time>
      </trkpt>
      <trkpt lat="48.76021" lon="2.12094">
        <ele>167.89</ele>
        <time>2017-01-14T11:30:45Z</time>
      </trkpt>
      <trkpt lat="48.76028" lon="2.12098">
        <ele>167.89</ele>
        <time>2017-01-14T11:30:52Z</time>
      </trkpt>
      <trkpt lat="48.76032" lon="2.121">
        <ele>167.89</ele>
        <time>2017-01-14T11:30:56Z</time>
      </trkpt>
      <trkpt lat="48.76035" lon="2.12101">
        <ele>168.37</ele>
        <time>2017-01-14T11:30:59Z</time>
      </trkpt>
      <trkpt lat="48.76045" lon="2.12107">
        <ele>167.89</ele>
        <time>2017-01-14T11:31:07Z</time>
      </trkpt>
      <trkpt lat="48.76053" lon="2.12113">
        <ele>167.89</ele>
        <time>2017-01-14T11:31:15Z</time>
      </trkpt>
      <trkpt lat="48.76053" lon="2.12116">
        <ele>168.37</ele>
        <time>2017-01-14T11:31:17Z</time>
      </trkpt>
      <trkpt lat="48.76052" lon="2.1213">
        <ele>167.89</ele>
        <time>2017-01-14T11:31:23Z</time>
      </trkpt>
      <trkpt lat="48.76049" lon="2.12144">
        <ele>167.41</ele>
        <time>2017-01-14T11:31:31Z</time>
      </trkpt>
      <trkpt lat="48.76047" lon="2.12147">
        <ele>166.93</ele>
        <time>2017-01-14T11:31:34Z</time>
      </trkpt>
      <trkpt lat="48.76047" lon="2.1215">
        <ele>167.41</ele>
        <time>2017-01-14T11:31:41Z</time>
      </trkpt>
      <trkpt lat="48.76046" lon="2.12149">
        <ele>167.41</ele>
        <time>2017-01-14T11:31:52Z</time>
      </trkpt>
      <trkpt lat="48.76046" lon="2.12149">
        <ele>167.41</ele>
        <time>2017-01-14T11:32:00Z</time>
      </trkpt>
      <trkpt lat="48.76045" lon="2.12149">
        <ele>168.37</ele>
        <time>2017-01-14T11:32:08Z</time>
      </trkpt>
      <trkpt lat="48.76044" lon="2.12149">
        <ele>167.41</ele>
        <time>2017-01-14T11:32:15Z</time>
      </trkpt>
      <trkpt lat="48.76044" lon="2.12149">
        <ele>166.45</ele>
        <time>2017-01-14T11:32:17Z</time>
      </trkpt>
      <trkpt lat="48.76044" lon="2.12149">
        <ele>166.93</ele>
        <time>2017-01-14T11:32:31Z</time>
      </trkpt>
      <trkpt lat="48.76043" lon="2.12149">
        <ele>167.89</ele>
        <time>2017-01-14T11:32:46Z</time>
      </trkpt>
      <trkpt lat="48.76044" lon="2.12153">
        <ele>166.45</ele>
        <time>2017-01-14T11:32:57Z</time>
      </trkpt>
      <trkpt lat="48.76044" lon="2.1215">
        <ele>167.41</ele>
        <time>2017-01-14T11:33:08Z</time>
      </trkpt>
      <trkpt lat="48.76043" lon="2.12149">
        <ele>167.41</ele>
        <time>2017-01-14T11:33:22Z</time>
      </trkpt>
      <trkpt lat="48.76042" lon="2.12147">
        <ele>167.89</ele>
        <time>2017-01-14T11:33:33Z</time>
      </trkpt>
      <trkpt lat="48.76041" lon="2.1215">
        <ele>166.93</ele>
        <time>2017-01-14T11:33:42Z</time>
      </trkpt>
      <trkpt lat="48.76041" lon="2.1215">
        <ele>168.37</ele>
        <time>2017-01-14T11:33:52Z</time>
      </trkpt>
      <trkpt lat="48.76041" lon="2.1215">
        <ele>167.89</ele>
        <time>2017-01-14T11:34:04Z</time>
      </trkpt>
      <trkpt lat="48.76041" lon="2.12151">
        <ele>166.93</ele>
        <time>2017-01-14T11:34:15Z</time>
      </trkpt>
      <trkpt lat="48.76042" lon="2.12151">
        <ele>167.41</ele>
        <time>2017-01-14T11:34:28Z</time>
      </trkpt>
      <trkpt lat="48.7604" lon="2.12154">
        <ele>167.41</ele>
        <time>2017-01-14T11:34:40Z</time>
      </trkpt>
      <trkpt lat="48.7604" lon="2.12155">
        <ele>166.93</ele>
        <time>2017-01-14T11:34:54Z</time>
      </trkpt>
      <trkpt lat="48.76041" lon="2.12156">
        <ele>166.93</ele>
        <time>2017-01-14T11:35:08Z</time>
      </trkpt>
      <trkpt lat="48.76041" lon="2.12157">
        <ele>167.41</ele>
        <time>2017-01-14T11:35:23Z</time>
      </trkpt>
      <trkpt lat="48.76041" lon="2.12156">
        <ele>166.93</ele>
        <time>2017-01-14T11:35:41Z</time>
      </trkpt>
      <trkpt lat="48.76041" lon="2.12156">
        <ele>166.93</ele>
        <time>2017-01-14T11:35:53Z</time>
      </trkpt>
      <trkpt lat="48.76038" lon="2.12148">
        <ele>166.93</ele>
        <time>2017-01-14T11:36:05Z</time>
      </trkpt>
      <trkpt lat="48.76038" lon="2.1215">
        <ele>166.93</ele>
        <time>2017-01-14T11:36:17Z</time>
      </trkpt>
      <trkpt lat="48.76037" lon="2.12151">
        <ele>166.93</ele>
        <time>2017-01-14T11:36:32Z</time>
      </trkpt>
      <trkpt lat="48.76037" lon="2.12151">
        <ele>166.93</ele>
        <time>2017-01-14T11:36:46Z</time>
      </trkpt>
      <trkpt lat="48.76036" lon="2.1215">
        <ele>166.93</ele>
        <time>2017-01-14T11:37:03Z</time>
      </trkpt>
      <trkpt lat="48.76036" lon="2.1215">
        <ele>166.45</ele>
        <time>2017-01-14T11:37:18Z</time>
      </trkpt>
      <trkpt lat="48.76036" lon="2.12151">
        <ele>166.45</ele>
        <time>2017-01-14T11:37:32Z</time>
      </trkpt>
      <trkpt lat="48.76036" lon="2.12152">
        <ele>166.45</ele>
        <time>2017-01-14T11:37:45Z</time>
      </trkpt>
      <trkpt lat="48.76037" lon="2.12152">
        <ele>166.45</ele>
        <time>2017-01-14T11:38:04Z</time>
      </trkpt>
      <trkpt lat="48.76037" lon="2.12154">
        <ele>166.45</ele>
        <time>2017-01-14T11:38:21Z</time>
      </trkpt>
      <trkpt lat="48.76037" lon="2.12155">
        <ele>165.96</ele>
        <time>2017-01-14T11:38:39Z</time>
      </trkpt>
      <trkpt lat="48.76037" lon="2.12155">
        <ele>165.96</ele>
        <time>2017-01-14T11:38:59Z</time>
      </trkpt>
      <trkpt lat="48.76037" lon="2.12156">
        <ele>165.96</ele>
        <time>2017-01-14T11:39:20Z</time>
      </trkpt>
      <trkpt lat="48.76037" lon="2.12156">
        <ele>165.48</ele>
        <time>2017-01-14T11:39:38Z</time>
      </trkpt>
      <trkpt lat="48.76037" lon="2.12156">
        <ele>165.48</ele>
        <time>2017-01-14T11:39:53Z</time>
      </trkpt>
      <trkpt lat="48.76037" lon="2.12157">
        <ele>165.48</ele>
        <time>2017-01-14T11:40:12Z</time>
      </trkpt>
      <trkpt lat="48.76036" lon="2.12157">
        <ele>165.48</ele>
        <time>2017-01-14T11:40:33Z</time>
      </trkpt>
      <trkpt lat="48.76036" lon="2.12157">
        <ele>165.48</ele>
        <time>2017-01-14T11:40:53Z</time>
      </trkpt>
      <trkpt lat="48.76036" lon="2.12157">
        <ele>165.48</ele>
        <time>2017-01-14T11:41:13Z</time>
      </trkpt>
      <trkpt lat="48.76036" lon="2.12157">
        <ele>165.48</ele>
        <time>2017-01-14T11:41:31Z</time>
      </trkpt>
      <trkpt lat="48.76036" lon="2.12157">
        <ele>165.48</ele>
        <time>2017-01-14T11:41:46Z</time>
      </trkpt>
      <trkpt lat="48.76035" lon="2.12157">
        <ele>165</ele>
        <time>2017-01-14T11:42:01Z</time>
      </trkpt>
      <trkpt lat="48.76035" lon="2.12157">
        <ele>165</ele>
        <time>2017-01-14T11:42:17Z</time>
      </trkpt>
      <trkpt lat="48.76035" lon="2.12151">
        <ele>165</ele>
        <time>2017-01-14T11:42:29Z</time>
      </trkpt>
      <trkpt lat="48.76036" lon="2.12151">
        <ele>165</ele>
        <time>2017-01-14T11:42:42Z</time>
      </trkpt>
      <trkpt lat="48.76035" lon="2.12152">
        <ele>165</ele>
        <time>2017-01-14T11:42:56Z</time>
      </trkpt>
      <trkpt lat="48.76035" lon="2.12151">
        <ele>165</ele>
        <time>2017-01-14T11:43:09Z</time>
      </trkpt>
      <trkpt lat="48.76035" lon="2.1215">
        <ele>164.52</ele>
        <time>2017-01-14T11:43:24Z</time>
      </trkpt>
      <trkpt lat="48.76036" lon="2.1215">
        <ele>164.52</ele>
        <time>2017-01-14T11:43:40Z</time>
      </trkpt>
      <trkpt lat="48.76036" lon="2.12149">
        <ele>164.52</ele>
        <time>2017-01-14T11:43:58Z</time>
      </trkpt>
      <trkpt lat="48.76036" lon="2.12148">
        <ele>164.52</ele>
        <time>2017-01-14T11:44:14Z</time>
      </trkpt>
      <trkpt lat="48.7604" lon="2.12157">
        <ele>164.52</ele>
        <time>2017-01-14T11:44:26Z</time>
      </trkpt>
      <trkpt lat="48.76036" lon="2.12159">
        <ele>164.52</ele>
        <time>2017-01-14T11:44:40Z</time>
      </trkpt>
      <trkpt lat="48.76036" lon="2.12158">
        <ele>164.52</ele>
        <time>2017-01-14T11:44:55Z</time>
      </trkpt>
      <trkpt lat="48.76033" lon="2.12155">
        <ele>164.52</ele>
        <time>2017-01-14T11:44:58Z</time>
      </trkpt>
      <trkpt lat="48.76028" lon="2.12142">
        <ele>164.52</ele>
        <time>2017-01-14T11:45:14Z</time>
      </trkpt>
      <trkpt lat="48.76031" lon="2.12146">
        <ele>164.52</ele>
        <time>2017-01-14T11:45:25Z</time>
      </trkpt>
      <trkpt lat="48.76032" lon="2.12147">
        <ele>164.52</ele>
        <time>2017-01-14T11:45:40Z</time>
      </trkpt>
      <trkpt lat="48.76032" lon="2.12149">
        <ele>165</ele>
        <time>2017-01-14T11:45:55Z</time>
      </trkpt>
      <trkpt lat="48.76033" lon="2.12149">
        <ele>165</ele>
        <time>2017-01-14T11:46:11Z</time>
      </trkpt>
      <trkpt lat="48.76033" lon="2.12149">
        <ele>165</ele>
        <time>2017-01-14T11:46:26Z</time>
      </trkpt>
      <trkpt lat="48.76033" lon="2.12149">
        <ele>164.04</ele>
        <time>2017-01-14T11:46:42Z</time>
      </trkpt>
      <trkpt lat="48.76033" lon="2.1215">
        <ele>165</ele>
        <time>2017-01-14T11:46:58Z</time>
      </trkpt>
      <trkpt lat="48.76033" lon="2.1215">
        <ele>165</ele>
        <time>2017-01-14T11:47:11Z</time>
      </trkpt>
      <trkpt lat="48.76034" lon="2.12149">
        <ele>165</ele>
        <time>2017-01-14T11:47:26Z</time>
      </trkpt>
      <trkpt lat="48.76034" lon="2.12149">
        <ele>165</ele>
        <time>2017-01-14T11:47:43Z</time>
      </trkpt>
      <trkpt lat="48.76035" lon="2.1215">
        <ele>165.48</ele>
        <time>2017-01-14T11:48:00Z</time>
      </trkpt>
      <trkpt lat="48.76035" lon="2.1215">
        <ele>165.48</ele>
        <time>2017-01-14T11:48:15Z</time>
      </trkpt>
      <trkpt lat="48.76036" lon="2.12151">
        <ele>165.48</ele>
        <time>2017-01-14T11:48:32Z</time>
      </trkpt>
      <trkpt lat="48.76036" lon="2.12151">
        <ele>165.48</ele>
        <time>2017-01-14T11:48:55Z</time>
      </trkpt>
      <trkpt lat="48.76036" lon="2.1215">
        <ele>165.48</ele>
        <time>2017-01-14T11:49:14Z</time>
      </trkpt>
      <trkpt lat="48.76035" lon="2.1215">
        <ele>165.48</ele>
        <time>2017-01-14T11:49:29Z</time>
      </trkpt>
      <trkpt lat="48.76037" lon="2.12147">
        <ele>165.48</ele>
        <time>2017-01-14T11:49:41Z</time>
      </trkpt>
      <trkpt lat="48.76037" lon="2.12137">
        <ele>165.48</ele>
        <time>2017-01-14T11:49:54Z</time>
      </trkpt>
      <trkpt lat="48.76037" lon="2.12138">
        <ele>165.48</ele>
        <time>2017-01-14T11:50:07Z</time>
      </trkpt>
      <trkpt lat="48.76037" lon="2.12139">
        <ele>165.48</ele>
        <time>2017-01-14T11:50:19Z</time>
      </trkpt>
      <trkpt lat="48.76037" lon="2.12143">
        <ele>165.48</ele>
        <time>2017-01-14T11:50:36Z</time>
      </trkpt>
      <trkpt lat="48.76036" lon="2.12146">
        <ele>165.48</ele>
        <time>2017-01-14T11:50:52Z</time>
      </trkpt>
      <trkpt lat="48.76037" lon="2.12148">
        <ele>165.48</ele>
        <time>2017-01-14T11:51:08Z</time>
      </trkpt>
      <trkpt lat="48.76037" lon="2.12149">
        <ele>165.48</ele>
        <time>2017-01-14T11:51:28Z</time>
      </trkpt>
      <trkpt lat="48.76038" lon="2.1215">
        <ele>165.48</ele>
        <time>2017-01-14T11:51:46Z</time>
      </trkpt>
      <trkpt lat="48.76038" lon="2.12151">
        <ele>165.96</ele>
        <time>2017-01-14T11:52:02Z</time>
      </trkpt>
      <trkpt lat="48.76038" lon="2.12151">
        <ele>165.96</ele>
        <time>2017-01-14T11:52:20Z</time>
      </trkpt>
      <trkpt lat="48.76038" lon="2.12151">
        <ele>165.96</ele>
        <time>2017-01-14T11:52:36Z</time>
      </trkpt>
      <trkpt lat="48.76038" lon="2.12151">
        <ele>165.96</ele>
        <time>2017-01-14T11:52:49Z</time>
      </trkpt>
      <trkpt lat="48.76044" lon="2.12155">
        <ele>165.96</ele>
        <time>2017-01-14T11:53:02Z</time>
      </trkpt>
      <trkpt lat="48.76044" lon="2.12153">
        <ele>165.96</ele>
        <time>2017-01-14T11:53:22Z</time>
      </trkpt>
      <trkpt lat="48.76042" lon="2.12153">
        <ele>165.96</ele>
        <time>2017-01-14T11:53:43Z</time>
      </trkpt>
      <trkpt lat="48.76041" lon="2.12152">
        <ele>165.48</ele>
        <time>2017-01-14T11:54:00Z</time>
      </trkpt>
      <trkpt lat="48.76041" lon="2.12153">
        <ele>165.48</ele>
        <time>2017-01-14T11:54:19Z</time>
      </trkpt>
      <trkpt lat="48.7604" lon="2.12153">
        <ele>165.48</ele>
        <time>2017-01-14T11:54:35Z</time>
      </trkpt>
      <trkpt lat="48.7604" lon="2.12153">
        <ele>165.96</ele>
        <time>2017-01-14T11:54:52Z</time>
      </trkpt>
      <trkpt lat="48.7604" lon="2.12153">
        <ele>165.96</ele>
        <time>2017-01-14T11:55:11Z</time>
      </trkpt>
      <trkpt lat="48.7604" lon="2.12153">
        <ele>165.96</ele>
        <time>2017-01-14T11:55:28Z</time>
      </trkpt>
      <trkpt lat="48.7604" lon="2.12153">
        <ele>165.48</ele>
        <time>2017-01-14T11:55:46Z</time>
      </trkpt>
      <trkpt lat="48.7604" lon="2.12153">
        <ele>165.96</ele>
        <time>2017-01-14T11:56:01Z</time>
      </trkpt>
      <trkpt lat="48.76039" lon="2.12152">
        <ele>165.48</ele>
        <time>2017-01-14T11:56:15Z</time>
      </trkpt>
      <trkpt lat="48.76039" lon="2.12152">
        <ele>165.48</ele>
        <time>2017-01-14T11:56:29Z</time>
      </trkpt>
      <trkpt lat="48.76039" lon="2.12153">
        <ele>165.48</ele>
        <time>2017-01-14T11:56:44Z</time>
      </trkpt>
      <trkpt lat="48.7604" lon="2.12152">
        <ele>165.96</ele>
        <time>2017-01-14T11:56:58Z</time>
      </trkpt>
      <trkpt lat="48.7604" lon="2.12153">
        <ele>165.96</ele>
        <time>2017-01-14T11:57:17Z</time>
      </trkpt>
      <trkpt lat="48.7604" lon="2.12153">
        <ele>165.96</ele>
        <time>2017-01-14T11:57:32Z</time>
      </trkpt>
      <trkpt lat="48.7604" lon="2.12152">
        <ele>165.96</ele>
        <time>2017-01-14T11:57:49Z</time>
      </trkpt>
      <trkpt lat="48.7604" lon="2.12153">
        <ele>165.96</ele>
        <time>2017-01-14T11:58:08Z</time>
      </trkpt>
      <trkpt lat="48.76039" lon="2.12154">
        <ele>165.96</ele>
        <time>2017-01-14T11:58:31Z</time>
      </trkpt>
      <trkpt lat="48.76039" lon="2.12154">
        <ele>165.96</ele>
        <time>2017-01-14T11:58:53Z</time>
      </trkpt>
      <trkpt lat="48.76038" lon="2.12154">
        <ele>165.96</ele>
        <time>2017-01-14T11:59:17Z</time>
      </trkpt>
      <trkpt lat="48.76038" lon="2.12154">
        <ele>165.96</ele>
        <time>2017-01-14T11:59:40Z</time>
      </trkpt>
      <trkpt lat="48.76038" lon="2.12154">
        <ele>165.96</ele>
        <time>2017-01-14T12:00:05Z</time>
      </trkpt>
      <trkpt lat="48.76038" lon="2.12155">
        <ele>165.96</ele>
        <time>2017-01-14T12:00:29Z</time>
      </trkpt>
      <trkpt lat="48.76037" lon="2.12154">
        <ele>165.48</ele>
        <time>2017-01-14T12:00:54Z</time>
      </trkpt>
      <trkpt lat="48.76037" lon="2.12154">
        <ele>165.48</ele>
        <time>2017-01-14T12:01:15Z</time>
      </trkpt>
      <trkpt lat="48.76037" lon="2.12153">
        <ele>165.48</ele>
        <time>2017-01-14T12:01:39Z</time>
      </trkpt>
      <trkpt lat="48.76037" lon="2.12153">
        <ele>165</ele>
        <time>2017-01-14T12:02:03Z</time>
      </trkpt>
      <trkpt lat="48.76037" lon="2.12152">
        <ele>165</ele>
        <time>2017-01-14T12:02:29Z</time>
      </trkpt>
      <trkpt lat="48.76038" lon="2.12152">
        <ele>165</ele>
        <time>2017-01-14T12:02:49Z</time>
      </trkpt>
      <trkpt lat="48.76038" lon="2.12151">
        <ele>165</ele>
        <time>2017-01-14T12:03:13Z</time>
      </trkpt>
      <trkpt lat="48.76038" lon="2.12151">
        <ele>165</ele>
        <time>2017-01-14T12:03:39Z</time>
      </trkpt>
      <trkpt lat="48.76038" lon="2.12152">
        <ele>165</ele>
        <time>2017-01-14T12:04:03Z</time>
      </trkpt>
      <trkpt lat="48.76038" lon="2.12152">
        <ele>164.52</ele>
        <time>2017-01-14T12:04:28Z</time>
      </trkpt>
      <trkpt lat="48.76037" lon="2.12152">
        <ele>164.52</ele>
        <time>2017-01-14T12:04:52Z</time>
      </trkpt>
      <trkpt lat="48.76037" lon="2.12152">
        <ele>164.52</ele>
        <time>2017-01-14T12:05:15Z</time>
      </trkpt>
      <trkpt lat="48.76037" lon="2.12152">
        <ele>164.52</ele>
        <time>2017-01-14T12:05:34Z</time>
      </trkpt>
      <trkpt lat="48.76038" lon="2.12152">
        <ele>164.52</ele>
        <time>2017-01-14T12:05:50Z</time>
      </trkpt>
      <trkpt lat="48.76038" lon="2.12152">
        <ele>164.52</ele>
        <time>2017-01-14T12:06:04Z</time>
      </trkpt>
      <trkpt lat="48.76038" lon="2.12151">
        <ele>164.04</ele>
        <time>2017-01-14T12:06:19Z</time>
      </trkpt>
      <trkpt lat="48.76037" lon="2.12153">
        <ele>164.04</ele>
        <time>2017-01-14T12:06:33Z</time>
      </trkpt>
      <trkpt lat="48.76038" lon="2.12154">
        <ele>164.04</ele>
        <time>2017-01-14T12:06:50Z</time>
      </trkpt>
      <trkpt lat="48.76037" lon="2.12154">
        <ele>164.04</ele>
        <time>2017-01-14T12:07:07Z</time>
      </trkpt>
      <trkpt lat="48.76038" lon="2.12156">
        <ele>164.04</ele>
        <time>2017-01-14T12:07:31Z</time>
      </trkpt>
      <trkpt lat="48.76038" lon="2.12156">
        <ele>164.04</ele>
        <time>2017-01-14T12:07:54Z</time>
      </trkpt>
      <trkpt lat="48.76038" lon="2.12156">
        <ele>164.04</ele>
        <time>2017-01-14T12:08:14Z</time>
      </trkpt>
      <trkpt lat="48.76038" lon="2.12156">
        <ele>164.04</ele>
        <time>2017-01-14T12:08:33Z</time>
      </trkpt>
      <trkpt lat="48.76038" lon="2.12156">
        <ele>163.56</ele>
        <time>2017-01-14T12:08:50Z</time>
      </trkpt>
      <trkpt lat="48.76037" lon="2.12155">
        <ele>163.56</ele>
        <time>2017-01-14T12:09:06Z</time>
      </trkpt>
      <trkpt lat="48.76037" lon="2.12155">
        <ele>163.56</ele>
        <time>2017-01-14T12:09:24Z</time>
      </trkpt>
      <trkpt lat="48.76037" lon="2.12155">
        <ele>163.56</ele>
        <time>2017-01-14T12:09:41Z</time>
      </trkpt>
      <trkpt lat="48.76036" lon="2.12155">
        <ele>163.56</ele>
        <time>2017-01-14T12:09:53Z</time>
      </trkpt>
      <trkpt lat="48.76037" lon="2.12154">
        <ele>163.56</ele>
        <time>2017-01-14T12:10:05Z</time>
      </trkpt>
      <trkpt lat="48.76046" lon="2.12143">
        <ele>164.04</ele>
        <time>2017-01-14T12:10:19Z</time>
      </trkpt>
      <trkpt lat="48.76046" lon="2.1214">
        <ele>163.56</ele>
        <time>2017-01-14T12:10:34Z</time>
      </trkpt>
      <trkpt lat="48.76046" lon="2.1214">
        <ele>163.56</ele>
        <time>2017-01-14T12:10:51Z</time>
      </trkpt>
      <trkpt lat="48.76045" lon="2.12141">
        <ele>163.56</ele>
        <time>2017-01-14T12:11:08Z</time>
      </trkpt>
      <trkpt lat="48.76044" lon="2.12142">
        <ele>163.56</ele>
        <time>2017-01-14T12:11:24Z</time>
      </trkpt>
      <trkpt lat="48.76039" lon="2.12148">
        <ele>163.56</ele>
        <time>2017-01-14T12:11:40Z</time>
      </trkpt>
      <trkpt lat="48.76037" lon="2.12151">
        <ele>163.56</ele>
        <time>2017-01-14T12:11:54Z</time>
      </trkpt>
      <trkpt lat="48.76036" lon="2.12153">
        <ele>163.56</ele>
        <time>2017-01-14T12:12:08Z</time>
      </trkpt>
      <trkpt lat="48.76035" lon="2.12153">
        <ele>163.56</ele>
        <time>2017-01-14T12:12:23Z</time>
      </trkpt>
      <trkpt lat="48.76035" lon="2.12154">
        <ele>163.56</ele>
        <time>2017-01-14T12:12:42Z</time>
      </trkpt>
      <trkpt lat="48.76035" lon="2.12155">
        <ele>163.08</ele>
        <time>2017-01-14T12:13:04Z</time>
      </trkpt>
      <trkpt lat="48.76035" lon="2.12155">
        <ele>163.08</ele>
        <time>2017-01-14T12:13:22Z</time>
      </trkpt>
      <trkpt lat="48.76035" lon="2.12155">
        <ele>163.08</ele>
        <time>2017-01-14T12:13:46Z</time>
      </trkpt>
      <trkpt lat="48.76036" lon="2.12155">
        <ele>163.08</ele>
        <time>2017-01-14T12:14:05Z</time>
      </trkpt>
      <trkpt lat="48.76036" lon="2.12155">
        <ele>163.08</ele>
        <time>2017-01-14T12:14:25Z</time>
      </trkpt>
      <trkpt lat="48.76036" lon="2.12155">
        <ele>163.08</ele>
        <time>2017-01-14T12:14:44Z</time>
      </trkpt>
      <trkpt lat="48.76036" lon="2.12155">
        <ele>163.08</ele>
        <time>2017-01-14T12:15:03Z</time>
      </trkpt>
      <trkpt lat="48.76036" lon="2.12154">
        <ele>163.08</ele>
        <time>2017-01-14T12:15:24Z</time>
      </trkpt>
      <trkpt lat="48.76035" lon="2.12154">
        <ele>163.08</ele>
        <time>2017-01-14T12:15:47Z</time>
      </trkpt>
      <trkpt lat="48.76035" lon="2.12154">
        <ele>162.6</ele>
        <time>2017-01-14T12:16:04Z</time>
      </trkpt>
      <trkpt lat="48.76035" lon="2.12154">
        <ele>162.6</ele>
        <time>2017-01-14T12:16:21Z</time>
      </trkpt>
      <trkpt lat="48.76034" lon="2.12154">
        <ele>163.08</ele>
        <time>2017-01-14T12:16:36Z</time>
      </trkpt>
      <trkpt lat="48.76034" lon="2.12154">
        <ele>162.6</ele>
        <time>2017-01-14T12:16:53Z</time>
      </trkpt>
      <trkpt lat="48.76034" lon="2.12154">
        <ele>162.6</ele>
        <time>2017-01-14T12:17:14Z</time>
      </trkpt>
      <trkpt lat="48.76034" lon="2.12153">
        <ele>162.6</ele>
        <time>2017-01-14T12:17:34Z</time>
      </trkpt>
      <trkpt lat="48.76035" lon="2.12153">
        <ele>162.6</ele>
        <time>2017-01-14T12:17:59Z</time>
      </trkpt>
      <trkpt lat="48.76035" lon="2.12154">
        <ele>162.6</ele>
        <time>2017-01-14T12:18:20Z</time>
      </trkpt>
      <trkpt lat="48.76035" lon="2.12155">
        <ele>162.12</ele>
        <time>2017-01-14T12:18:43Z</time>
      </trkpt>
      <trkpt lat="48.76035" lon="2.12154">
        <ele>162.12</ele>
        <time>2017-01-14T12:19:07Z</time>
      </trkpt>
      <trkpt lat="48.76035" lon="2.12154">
        <ele>161.64</ele>
        <time>2017-01-14T12:19:37Z</time>
      </trkpt>
      <trkpt lat="48.76035" lon="2.12154">
        <ele>161.64</ele>
        <time>2017-01-14T12:19:59Z</time>
      </trkpt>
      <trkpt lat="48.76035" lon="2.12155">
        <ele>162.12</ele>
        <time>2017-01-14T12:20:24Z</time>
      </trkpt>
      <trkpt lat="48.76035" lon="2.12155">
        <ele>161.64</ele>
        <time>2017-01-14T12:20:45Z</time>
      </trkpt>
      <trkpt lat="48.76035" lon="2.12156">
        <ele>160.2</ele>
        <time>2017-01-14T12:21:00Z</time>
      </trkpt>
      <trkpt lat="48.76035" lon="2.12156">
        <ele>161.64</ele>
        <time>2017-01-14T12:21:16Z</time>
      </trkpt>
      <trkpt lat="48.76037" lon="2.12154">
        <ele>161.64</ele>
        <time>2017-01-14T12:21:28Z</time>
      </trkpt>
      <trkpt lat="48.76037" lon="2.12156">
        <ele>161.16</ele>
        <time>2017-01-14T12:21:49Z</time>
      </trkpt>
      <trkpt lat="48.76036" lon="2.12157">
        <ele>161.16</ele>
        <time>2017-01-14T12:22:05Z</time>
      </trkpt>
      <trkpt lat="48.76036" lon="2.12158">
        <ele>161.16</ele>
        <time>2017-01-14T12:22:25Z</time>
      </trkpt>
      <trkpt lat="48.76037" lon="2.12158">
        <ele>161.16</ele>
        <time>2017-01-14T12:22:46Z</time>
      </trkpt>
      <trkpt lat="48.76038" lon="2.12158">
        <ele>161.16</ele>
        <time>2017-01-14T12:23:06Z</time>
      </trkpt>
      <trkpt lat="48.76038" lon="2.12158">
        <ele>161.16</ele>
        <time>2017-01-14T12:23:23Z</time>
      </trkpt>
      <trkpt lat="48.76038" lon="2.12158">
        <ele>161.16</ele>
        <time>2017-01-14T12:23:43Z</time>
      </trkpt>
      <trkpt lat="48.76038" lon="2.12157">
        <ele>161.16</ele>
        <time>2017-01-14T12:23:56Z</time>
      </trkpt>
      <trkpt lat="48.76038" lon="2.12157">
        <ele>160.68</ele>
        <time>2017-01-14T12:24:11Z</time>
      </trkpt>
      <trkpt lat="48.76038" lon="2.12157">
        <ele>160.68</ele>
        <time>2017-01-14T12:24:24Z</time>
      </trkpt>
      <trkpt lat="48.76038" lon="2.12157">
        <ele>160.68</ele>
        <time>2017-01-14T12:24:35Z</time>
      </trkpt>
      <trkpt lat="48.76038" lon="2.12157">
        <ele>160.2</ele>
        <time>2017-01-14T12:24:49Z</time>
      </trkpt>
      <trkpt lat="48.76038" lon="2.12157">
        <ele>160.2</ele>
        <time>2017-01-14T12:25:06Z</time>
      </trkpt>
      <trkpt lat="48.7604" lon="2.12154">
        <ele>160.2</ele>
        <time>2017-01-14T12:25:22Z</time>
      </trkpt>
      <trkpt lat="48.76036" lon="2.12152">
        <ele>160.2</ele>
        <time>2017-01-14T12:25:41Z</time>
      </trkpt>
      <trkpt lat="48.76034" lon="2.12152">
        <ele>159.72</ele>
        <time>2017-01-14T12:26:00Z</time>
      </trkpt>
      <trkpt lat="48.76033" lon="2.12153">
        <ele>160.2</ele>
        <time>2017-01-14T12:26:23Z</time>
      </trkpt>
      <trkpt lat="48.76033" lon="2.12153">
        <ele>160.2</ele>
        <time>2017-01-14T12:26:38Z</time>
      </trkpt>
      <trkpt lat="48.76034" lon="2.12153">
        <ele>159.72</ele>
        <time>2017-01-14T12:26:58Z</time>
      </trkpt>
      <trkpt lat="48.76034" lon="2.12153">
        <ele>159.72</ele>
        <time>2017-01-14T12:27:18Z</time>
      </trkpt>
      <trkpt lat="48.76034" lon="2.12153">
        <ele>160.2</ele>
        <time>2017-01-14T12:27:37Z</time>
      </trkpt>
      <trkpt lat="48.76035" lon="2.12153">
        <ele>160.2</ele>
        <time>2017-01-14T12:27:56Z</time>
      </trkpt>
      <trkpt lat="48.76035" lon="2.12153">
        <ele>160.2</ele>
        <time>2017-01-14T12:28:18Z</time>
      </trkpt>
      <trkpt lat="48.76034" lon="2.12153">
        <ele>160.2</ele>
        <time>2017-01-14T12:28:32Z</time>
      </trkpt>
      <trkpt lat="48.76035" lon="2.12153">
        <ele>159.72</ele>
        <time>2017-01-14T12:28:51Z</time>
      </trkpt>
      <trkpt lat="48.76036" lon="2.12154">
        <ele>159.72</ele>
        <time>2017-01-14T12:29:09Z</time>
      </trkpt>
      <trkpt lat="48.76035" lon="2.12154">
        <ele>160.2</ele>
        <time>2017-01-14T12:29:19Z</time>
      </trkpt>
      <trkpt lat="48.76035" lon="2.12155">
        <ele>159.72</ele>
        <time>2017-01-14T12:29:33Z</time>
      </trkpt>
      <trkpt lat="48.76035" lon="2.12155">
        <ele>159.72</ele>
        <time>2017-01-14T12:29:51Z</time>
      </trkpt>
      <trkpt lat="48.76035" lon="2.12155">
        <ele>159.72</ele>
        <time>2017-01-14T12:30:06Z</time>
      </trkpt>
      <trkpt lat="48.76035" lon="2.12155">
        <ele>159.72</ele>
        <time>2017-01-14T12:30:19Z</time>
      </trkpt>
      <trkpt lat="48.76035" lon="2.12155">
        <ele>159.72</ele>
        <time>2017-01-14T12:30:34Z</time>
      </trkpt>
      <trkpt lat="48.76035" lon="2.12154">
        <ele>159.72</ele>
        <time>2017-01-14T12:30:52Z</time>
      </trkpt>
      <trkpt lat="48.76035" lon="2.12154">
        <ele>160.2</ele>
        <time>2017-01-14T12:31:09Z</time>
      </trkpt>
      <trkpt lat="48.76035" lon="2.12154">
        <ele>160.2</ele>
        <time>2017-01-14T12:31:26Z</time>
      </trkpt>
      <trkpt lat="48.76035" lon="2.12154">
        <ele>160.2</ele>
        <time>2017-01-14T12:31:39Z</time>
      </trkpt>
      <trkpt lat="48.76035" lon="2.12153">
        <ele>160.2</ele>
        <time>2017-01-14T12:31:53Z</time>
      </trkpt>
      <trkpt lat="48.76035" lon="2.12154">
        <ele>159.72</ele>
        <time>2017-01-14T12:32:07Z</time>
      </trkpt>
      <trkpt lat="48.76031" lon="2.12151">
        <ele>160.2</ele>
        <time>2017-01-14T12:32:20Z</time>
      </trkpt>
      <trkpt lat="48.76032" lon="2.12151">
        <ele>160.2</ele>
        <time>2017-01-14T12:32:32Z</time>
      </trkpt>
      <trkpt lat="48.76033" lon="2.12152">
        <ele>160.2</ele>
        <time>2017-01-14T12:32:46Z</time>
      </trkpt>
      <trkpt lat="48.76034" lon="2.12154">
        <ele>160.2</ele>
        <time>2017-01-14T12:33:00Z</time>
      </trkpt>
      <trkpt lat="48.76035" lon="2.12154">
        <ele>160.2</ele>
        <time>2017-01-14T12:33:16Z</time>
      </trkpt>
      <trkpt lat="48.76036" lon="2.12154">
        <ele>159.72</ele>
        <time>2017-01-14T12:33:33Z</time>
      </trkpt>
      <trkpt lat="48.76037" lon="2.12153">
        <ele>160.2</ele>
        <time>2017-01-14T12:33:57Z</time>
      </trkpt>
      <trkpt lat="48.76037" lon="2.12153">
        <ele>160.2</ele>
        <time>2017-01-14T12:34:19Z</time>
      </trkpt>
      <trkpt lat="48.76037" lon="2.12154">
        <ele>160.2</ele>
        <time>2017-01-14T12:34:41Z</time>
      </trkpt>
      <trkpt lat="48.76038" lon="2.12155">
        <ele>160.2</ele>
        <time>2017-01-14T12:35:03Z</time>
      </trkpt>
      <trkpt lat="48.76039" lon="2.12155">
        <ele>160.2</ele>
        <time>2017-01-14T12:35:22Z</time>
      </trkpt>
      <trkpt lat="48.76039" lon="2.12155">
        <ele>160.2</ele>
        <time>2017-01-14T12:35:39Z</time>
      </trkpt>
      <trkpt lat="48.76039" lon="2.12155">
        <ele>160.2</ele>
        <time>2017-01-14T12:35:56Z</time>
      </trkpt>
      <trkpt lat="48.76038" lon="2.12155">
        <ele>160.2</ele>
        <time>2017-01-14T12:36:12Z</time>
      </trkpt>
      <trkpt lat="48.76038" lon="2.12155">
        <ele>160.2</ele>
        <time>2017-01-14T12:36:26Z</time>
      </trkpt>
      <trkpt lat="48.76038" lon="2.12155">
        <ele>160.2</ele>
        <time>2017-01-14T12:36:40Z</time>
      </trkpt>
      <trkpt lat="48.76038" lon="2.12155">
        <ele>160.2</ele>
        <time>2017-01-14T12:36:57Z</time>
      </trkpt>
      <trkpt lat="48.76038" lon="2.12155">
        <ele>159.72</ele>
        <time>2017-01-14T12:37:13Z</time>
      </trkpt>
      <trkpt lat="48.76038" lon="2.12155">
        <ele>159.72</ele>
        <time>2017-01-14T12:37:27Z</time>
      </trkpt>
      <trkpt lat="48.76038" lon="2.12155">
        <ele>159.72</ele>
        <time>2017-01-14T12:37:42Z</time>
      </trkpt>
      <trkpt lat="48.76038" lon="2.12155">
        <ele>159.72</ele>
        <time>2017-01-14T12:37:59Z</time>
      </trkpt>
      <trkpt lat="48.76038" lon="2.12154">
        <ele>159.72</ele>
        <time>2017-01-14T12:38:17Z</time>
      </trkpt>
      <trkpt lat="48.76038" lon="2.12153">
        <ele>159.72</ele>
        <time>2017-01-14T12:38:34Z</time>
      </trkpt>
      <trkpt lat="48.76038" lon="2.12153">
        <ele>159.72</ele>
        <time>2017-01-14T12:38:50Z</time>
      </trkpt>
      <trkpt lat="48.76038" lon="2.12153">
        <ele>159.72</ele>
        <time>2017-01-14T12:39:05Z</time>
      </trkpt>
      <trkpt lat="48.76038" lon="2.12154">
        <ele>159.72</ele>
        <time>2017-01-14T12:39:27Z</time>
      </trkpt>
      <trkpt lat="48.76037" lon="2.12154">
        <ele>159.72</ele>
        <time>2017-01-14T12:39:50Z</time>
      </trkpt>
      <trkpt lat="48.76037" lon="2.12154">
        <ele>159.72</ele>
        <time>2017-01-14T12:40:06Z</time>
      </trkpt>
      <trkpt lat="48.76037" lon="2.12153">
        <ele>159.72</ele>
        <time>2017-01-14T12:40:24Z</time>
      </trkpt>
      <trkpt lat="48.76037" lon="2.12152">
        <ele>159.72</ele>
        <time>2017-01-14T12:40:42Z</time>
      </trkpt>
      <trkpt lat="48.76038" lon="2.12152">
        <ele>159.72</ele>
        <time>2017-01-14T12:41:01Z</time>
      </trkpt>
      <trkpt lat="48.76038" lon="2.12152">
        <ele>159.72</ele>
        <time>2017-01-14T12:41:22Z</time>
      </trkpt>
      <trkpt lat="48.76038" lon="2.12154">
        <ele>159.72</ele>
        <time>2017-01-14T12:41:46Z</time>
      </trkpt>
      <trkpt lat="48.76038" lon="2.12155">
        <ele>159.72</ele>
        <time>2017-01-14T12:42:10Z</time>
      </trkpt>
      <trkpt lat="48.76038" lon="2.12155">
        <ele>159.72</ele>
        <time>2017-01-14T12:42:31Z</time>
      </trkpt>
      <trkpt lat="48.76038" lon="2.12155">
        <ele>159.24</ele>
        <time>2017-01-14T12:42:54Z</time>
      </trkpt>
      <trkpt lat="48.76038" lon="2.12156">
        <ele>159.72</ele>
        <time>2017-01-14T12:43:15Z</time>
      </trkpt>
      <trkpt lat="48.76038" lon="2.12155">
        <ele>161.16</ele>
        <time>2017-01-14T12:43:34Z</time>
      </trkpt>
      <trkpt lat="48.76038" lon="2.12155">
        <ele>158.75</ele>
        <time>2017-01-14T12:43:36Z</time>
      </trkpt>
      <trkpt lat="48.76041" lon="2.12156">
        <ele>158.75</ele>
        <time>2017-01-14T13:42:28Z</time>
      </trkpt>
      <trkpt lat="48.76044" lon="2.12154">
        <ele>158.75</ele>
        <time>2017-01-14T13:42:29Z</time>
      </trkpt>
      <trkpt lat="48.76054" lon="2.12151">
        <ele>157.79</ele>
        <time>2017-01-14T13:42:38Z</time>
      </trkpt>
      <trkpt lat="48.76054" lon="2.12151">
        <ele>156.35</ele>
        <time>2017-01-14T13:42:46Z</time>
      </trkpt>
      <trkpt lat="48.76053" lon="2.12152">
        <ele>152.51</ele>
        <time>2017-01-14T13:42:53Z</time>
      </trkpt>
      <trkpt lat="48.76052" lon="2.12152">
        <ele>154.91</ele>
        <time>2017-01-14T13:43:08Z</time>
      </trkpt>
      <trkpt lat="48.76055" lon="2.12151">
        <ele>155.39</ele>
        <time>2017-01-14T13:43:24Z</time>
      </trkpt>
      <trkpt lat="48.76048" lon="2.12153">
        <ele>155.39</ele>
        <time>2017-01-14T13:43:39Z</time>
      </trkpt>
      <trkpt lat="48.76048" lon="2.12154">
        <ele>155.39</ele>
        <time>2017-01-14T13:43:54Z</time>
      </trkpt>
      <trkpt lat="48.76047" lon="2.12153">
        <ele>158.27</ele>
        <time>2017-01-14T13:44:07Z</time>
      </trkpt>
      <trkpt lat="48.76048" lon="2.12152">
        <ele>156.35</ele>
        <time>2017-01-14T13:44:09Z</time>
      </trkpt>
      <trkpt lat="48.76048" lon="2.12154">
        <ele>156.83</ele>
        <time>2017-01-14T13:44:16Z</time>
      </trkpt>
      <trkpt lat="48.76048" lon="2.12155">
        <ele>156.83</ele>
        <time>2017-01-14T13:44:27Z</time>
      </trkpt>
      <trkpt lat="48.76049" lon="2.12154">
        <ele>156.83</ele>
        <time>2017-01-14T13:44:38Z</time>
      </trkpt>
      <trkpt lat="48.76049" lon="2.12154">
        <ele>156.35</ele>
        <time>2017-01-14T13:44:49Z</time>
      </trkpt>
      <trkpt lat="48.7605" lon="2.12154">
        <ele>156.83</ele>
        <time>2017-01-14T13:44:58Z</time>
      </trkpt>
      <trkpt lat="48.76051" lon="2.12154">
        <ele>156.35</ele>
        <time>2017-01-14T13:45:09Z</time>
      </trkpt>
      <trkpt lat="48.76052" lon="2.12154">
        <ele>156.83</ele>
        <time>2017-01-14T13:45:19Z</time>
      </trkpt>
      <trkpt lat="48.76052" lon="2.12153">
        <ele>156.83</ele>
        <time>2017-01-14T13:45:29Z</time>
      </trkpt>
      <trkpt lat="48.76052" lon="2.12153">
        <ele>156.83</ele>
        <time>2017-01-14T13:45:42Z</time>
      </trkpt>
      <trkpt lat="48.76052" lon="2.12153">
        <ele>156.83</ele>
        <time>2017-01-14T13:45:56Z</time>
      </trkpt>
      <trkpt lat="48.76051" lon="2.12154">
        <ele>156.83</ele>
        <time>2017-01-14T13:46:10Z</time>
      </trkpt>
      <trkpt lat="48.76052" lon="2.12154">
        <ele>156.83</ele>
        <time>2017-01-14T13:46:20Z</time>
      </trkpt>
      <trkpt lat="48.76052" lon="2.12154">
        <ele>156.83</ele>
        <time>2017-01-14T13:46:32Z</time>
      </trkpt>
      <trkpt lat="48.76052" lon="2.12155">
        <ele>156.83</ele>
        <time>2017-01-14T13:46:44Z</time>
      </trkpt>
      <trkpt lat="48.76051" lon="2.12154">
        <ele>156.83</ele>
        <time>2017-01-14T13:46:56Z</time>
      </trkpt>
      <trkpt lat="48.76052" lon="2.12154">
        <ele>156.83</ele>
        <time>2017-01-14T13:47:11Z</time>
      </trkpt>
      <trkpt lat="48.76052" lon="2.12154">
        <ele>156.83</ele>
        <time>2017-01-14T13:47:23Z</time>
      </trkpt>
      <trkpt lat="48.76052" lon="2.12155">
        <ele>156.83</ele>
        <time>2017-01-14T13:47:34Z</time>
      </trkpt>
      <trkpt lat="48.76052" lon="2.12155">
        <ele>156.83</ele>
        <time>2017-01-14T13:47:45Z</time>
      </trkpt>
      <trkpt lat="48.76052" lon="2.12155">
        <ele>156.83</ele>
        <time>2017-01-14T13:48:01Z</time>
      </trkpt>
      <trkpt lat="48.76052" lon="2.12156">
        <ele>156.83</ele>
        <time>2017-01-14T13:48:16Z</time>
      </trkpt>
      <trkpt lat="48.76052" lon="2.12156">
        <ele>156.35</ele>
        <time>2017-01-14T13:48:26Z</time>
      </trkpt>
      <trkpt lat="48.76052" lon="2.12155">
        <ele>156.83</ele>
        <time>2017-01-14T13:48:32Z</time>
      </trkpt>
      <trkpt lat="48.76051" lon="2.12154">
        <ele>156.83</ele>
        <time>2017-01-14T13:48:45Z</time>
      </trkpt>
      <trkpt lat="48.76051" lon="2.12154">
        <ele>156.83</ele>
        <time>2017-01-14T13:48:58Z</time>
      </trkpt>
      <trkpt lat="48.76052" lon="2.12153">
        <ele>156.83</ele>
        <time>2017-01-14T13:49:07Z</time>
      </trkpt>
      <trkpt lat="48.76052" lon="2.12149">
        <ele>156.83</ele>
        <time>2017-01-14T13:49:14Z</time>
      </trkpt>
      <trkpt lat="48.76052" lon="2.12145">
        <ele>156.83</ele>
        <time>2017-01-14T13:49:20Z</time>
      </trkpt>
      <trkpt lat="48.76054" lon="2.12139">
        <ele>157.31</ele>
        <time>2017-01-14T13:49:27Z</time>
      </trkpt>
      <trkpt lat="48.76057" lon="2.1213">
        <ele>157.31</ele>
        <time>2017-01-14T13:49:37Z</time>
      </trkpt>
      <trkpt lat="48.76059" lon="2.12128">
        <ele>157.31</ele>
        <time>2017-01-14T13:49:42Z</time>
      </trkpt>
      <trkpt lat="48.76066" lon="2.12127">
        <ele>157.31</ele>
        <time>2017-01-14T13:49:51Z</time>
      </trkpt>
      <trkpt lat="48.76071" lon="2.12128">
        <ele>157.79</ele>
        <time>2017-01-14T13:49:58Z</time>
      </trkpt>
      <trkpt lat="48.76075" lon="2.12131">
        <ele>157.79</ele>
        <time>2017-01-14T13:50:04Z</time>
      </trkpt>
      <trkpt lat="48.76081" lon="2.12136">
        <ele>157.79</ele>
        <time>2017-01-14T13:50:11Z</time>
      </trkpt>
      <trkpt lat="48.76082" lon="2.12137">
        <ele>157.79</ele>
        <time>2017-01-14T13:50:13Z</time>
      </trkpt>
      <trkpt lat="48.76088" lon="2.12139">
        <ele>158.27</ele>
        <time>2017-01-14T13:50:20Z</time>
      </trkpt>
      <trkpt lat="48.76095" lon="2.1214">
        <ele>158.27</ele>
        <time>2017-01-14T13:50:27Z</time>
      </trkpt>
      <trkpt lat="48.76104" lon="2.12139">
        <ele>158.75</ele>
        <time>2017-01-14T13:50:35Z</time>
      </trkpt>
      <trkpt lat="48.76107" lon="2.12137">
        <ele>158.75</ele>
        <time>2017-01-14T13:50:37Z</time>
      </trkpt>
      <trkpt lat="48.76112" lon="2.12132">
        <ele>158.75</ele>
        <time>2017-01-14T13:50:43Z</time>
      </trkpt>
      <trkpt lat="48.76117" lon="2.12122">
        <ele>158.75</ele>
        <time>2017-01-14T13:50:51Z</time>
      </trkpt>
      <trkpt lat="48.76119" lon="2.12117">
        <ele>159.24</ele>
        <time>2017-01-14T13:50:55Z</time>
      </trkpt>
      <trkpt lat="48.76121" lon="2.12115">
        <ele>159.24</ele>
        <time>2017-01-14T13:50:57Z</time>
      </trkpt>
      <trkpt lat="48.76124" lon="2.12108">
        <ele>159.24</ele>
        <time>2017-01-14T13:51:03Z</time>
      </trkpt>
      <trkpt lat="48.76126" lon="2.12098">
        <ele>159.24</ele>
        <time>2017-01-14T13:51:11Z</time>
      </trkpt>
      <trkpt lat="48.76126" lon="2.12095">
        <ele>159.24</ele>
        <time>2017-01-14T13:51:13Z</time>
      </trkpt>
      <trkpt lat="48.7613" lon="2.12086">
        <ele>159.24</ele>
        <time>2017-01-14T13:51:18Z</time>
      </trkpt>
      <trkpt lat="48.76132" lon="2.12074">
        <ele>159.24</ele>
        <time>2017-01-14T13:51:25Z</time>
      </trkpt>
      <trkpt lat="48.76135" lon="2.12062">
        <ele>159.72</ele>
        <time>2017-01-14T13:51:32Z</time>
      </trkpt>
      <trkpt lat="48.76136" lon="2.1206">
        <ele>159.72</ele>
        <time>2017-01-14T13:51:33Z</time>
      </trkpt>
      <trkpt lat="48.76141" lon="2.12045">
        <ele>159.72</ele>
        <time>2017-01-14T13:51:42Z</time>
      </trkpt>
      <trkpt lat="48.76142" lon="2.12043">
        <ele>160.2</ele>
        <time>2017-01-14T13:51:44Z</time>
      </trkpt>
      <trkpt lat="48.76145" lon="2.12035">
        <ele>160.2</ele>
        <time>2017-01-14T13:51:49Z</time>
      </trkpt>
      <trkpt lat="48.76149" lon="2.12023">
        <ele>160.2</ele>
        <time>2017-01-14T13:51:56Z</time>
      </trkpt>
      <trkpt lat="48.7615" lon="2.12017">
        <ele>160.2</ele>
        <time>2017-01-14T13:51:59Z</time>
      </trkpt>
      <trkpt lat="48.76151" lon="2.12003">
        <ele>160.68</ele>
        <time>2017-01-14T13:52:06Z</time>
      </trkpt>
      <trkpt lat="48.76153" lon="2.11997">
        <ele>160.68</ele>
        <time>2017-01-14T13:52:09Z</time>
      </trkpt>
      <trkpt lat="48.76154" lon="2.11987">
        <ele>160.68</ele>
        <time>2017-01-14T13:52:15Z</time>
      </trkpt>
      <trkpt lat="48.76155" lon="2.1198">
        <ele>160.68</ele>
        <time>2017-01-14T13:52:20Z</time>
      </trkpt>
      <trkpt lat="48.76162" lon="2.11965">
        <ele>161.16</ele>
        <time>2017-01-14T13:52:29Z</time>
      </trkpt>
      <trkpt lat="48.76163" lon="2.11963">
        <ele>161.16</ele>
        <time>2017-01-14T13:52:30Z</time>
      </trkpt>
      <trkpt lat="48.76167" lon="2.1196">
        <ele>161.16</ele>
        <time>2017-01-14T13:52:34Z</time>
      </trkpt>
      <trkpt lat="48.76171" lon="2.11959">
        <ele>161.16</ele>
        <time>2017-01-14T13:52:38Z</time>
      </trkpt>
      <trkpt lat="48.76178" lon="2.11962">
        <ele>160.68</ele>
        <time>2017-01-14T13:52:44Z</time>
      </trkpt>
      <trkpt lat="48.76182" lon="2.11961">
        <ele>161.16</ele>
        <time>2017-01-14T13:52:50Z</time>
      </trkpt>
      <trkpt lat="48.76184" lon="2.11961">
        <ele>161.16</ele>
        <time>2017-01-14T13:52:52Z</time>
      </trkpt>
      <trkpt lat="48.76193" lon="2.11964">
        <ele>161.16</ele>
        <time>2017-01-14T13:53:00Z</time>
      </trkpt>
      <trkpt lat="48.76197" lon="2.11965">
        <ele>161.16</ele>
        <time>2017-01-14T13:53:03Z</time>
      </trkpt>
      <trkpt lat="48.76203" lon="2.11967">
        <ele>161.64</ele>
        <time>2017-01-14T13:53:08Z</time>
      </trkpt>
      <trkpt lat="48.76213" lon="2.11975">
        <ele>161.64</ele>
        <time>2017-01-14T13:53:16Z</time>
      </trkpt>
      <trkpt lat="48.76218" lon="2.11985">
        <ele>161.64</ele>
        <time>2017-01-14T13:53:23Z</time>
      </trkpt>
      <trkpt lat="48.76219" lon="2.11987">
        <ele>161.64</ele>
        <time>2017-01-14T13:53:26Z</time>
      </trkpt>
      <trkpt lat="48.76221" lon="2.11989">
        <ele>161.64</ele>
        <time>2017-01-14T13:53:28Z</time>
      </trkpt>
      <trkpt lat="48.7623" lon="2.11994">
        <ele>161.64</ele>
        <time>2017-01-14T13:53:35Z</time>
      </trkpt>
      <trkpt lat="48.76236" lon="2.11996">
        <ele>162.12</ele>
        <time>2017-01-14T13:53:41Z</time>
      </trkpt>
      <trkpt lat="48.76242" lon="2.12">
        <ele>162.12</ele>
        <time>2017-01-14T13:53:49Z</time>
      </trkpt>
      <trkpt lat="48.76243" lon="2.11999">
        <ele>162.12</ele>
        <time>2017-01-14T13:53:52Z</time>
      </trkpt>
      <trkpt lat="48.76246" lon="2.11993">
        <ele>162.12</ele>
        <time>2017-01-14T13:53:57Z</time>
      </trkpt>
      <trkpt lat="48.76246" lon="2.11991">
        <ele>162.12</ele>
        <time>2017-01-14T13:53:59Z</time>
      </trkpt>
      <trkpt lat="48.76249" lon="2.11985">
        <ele>162.12</ele>
        <time>2017-01-14T13:54:03Z</time>
      </trkpt>
      <trkpt lat="48.76252" lon="2.1198">
        <ele>162.12</ele>
        <time>2017-01-14T13:54:07Z</time>
      </trkpt>
      <trkpt lat="48.76259" lon="2.11965">
        <ele>162.12</ele>
        <time>2017-01-14T13:54:17Z</time>
      </trkpt>
      <trkpt lat="48.7626" lon="2.11962">
        <ele>162.12</ele>
        <time>2017-01-14T13:54:19Z</time>
      </trkpt>
      <trkpt lat="48.76261" lon="2.11956">
        <ele>162.6</ele>
        <time>2017-01-14T13:54:23Z</time>
      </trkpt>
      <trkpt lat="48.76265" lon="2.11944">
        <ele>162.12</ele>
        <time>2017-01-14T13:54:31Z</time>
      </trkpt>
      <trkpt lat="48.76269" lon="2.11931">
        <ele>162.6</ele>
        <time>2017-01-14T13:54:39Z</time>
      </trkpt>
      <trkpt lat="48.76273" lon="2.11922">
        <ele>162.6</ele>
        <time>2017-01-14T13:54:45Z</time>
      </trkpt>
      <trkpt lat="48.76275" lon="2.11914">
        <ele>163.08</ele>
        <time>2017-01-14T13:54:50Z</time>
      </trkpt>
      <trkpt lat="48.76275" lon="2.11909">
        <ele>162.6</ele>
        <time>2017-01-14T13:54:53Z</time>
      </trkpt>
      <trkpt lat="48.76279" lon="2.11901">
        <ele>162.6</ele>
        <time>2017-01-14T13:54:57Z</time>
      </trkpt>
      <trkpt lat="48.76282" lon="2.11889">
        <ele>162.6</ele>
        <time>2017-01-14T13:55:03Z</time>
      </trkpt>
      <trkpt lat="48.76286" lon="2.1188">
        <ele>162.6</ele>
        <time>2017-01-14T13:55:08Z</time>
      </trkpt>
      <trkpt lat="48.76293" lon="2.11866">
        <ele>163.08</ele>
        <time>2017-01-14T13:55:18Z</time>
      </trkpt>
      <trkpt lat="48.76294" lon="2.11856">
        <ele>163.08</ele>
        <time>2017-01-14T13:55:23Z</time>
      </trkpt>
      <trkpt lat="48.76297" lon="2.11847">
        <ele>163.08</ele>
        <time>2017-01-14T13:55:30Z</time>
      </trkpt>
      <trkpt lat="48.76302" lon="2.11836">
        <ele>163.56</ele>
        <time>2017-01-14T13:55:38Z</time>
      </trkpt>
      <trkpt lat="48.76302" lon="2.11834">
        <ele>163.08</ele>
        <time>2017-01-14T13:55:39Z</time>
      </trkpt>
      <trkpt lat="48.76308" lon="2.11819">
        <ele>163.56</ele>
        <time>2017-01-14T13:55:49Z</time>
      </trkpt>
      <trkpt lat="48.7631" lon="2.11806">
        <ele>163.56</ele>
        <time>2017-01-14T13:55:57Z</time>
      </trkpt>
      <trkpt lat="48.76311" lon="2.11804">
        <ele>163.56</ele>
        <time>2017-01-14T13:55:59Z</time>
      </trkpt>
      <trkpt lat="48.76315" lon="2.11791">
        <ele>163.56</ele>
        <time>2017-01-14T13:56:06Z</time>
      </trkpt>
      <trkpt lat="48.76321" lon="2.11774">
        <ele>163.56</ele>
        <time>2017-01-14T13:56:15Z</time>
      </trkpt>
      <trkpt lat="48.76325" lon="2.11763">
        <ele>164.04</ele>
        <time>2017-01-14T13:56:21Z</time>
      </trkpt>
      <trkpt lat="48.76329" lon="2.1175">
        <ele>164.04</ele>
        <time>2017-01-14T13:56:29Z</time>
      </trkpt>
      <trkpt lat="48.7633" lon="2.11746">
        <ele>164.04</ele>
        <time>2017-01-14T13:56:32Z</time>
      </trkpt>
      <trkpt lat="48.76337" lon="2.11732">
        <ele>164.04</ele>
        <time>2017-01-14T13:56:41Z</time>
      </trkpt>
      <trkpt lat="48.76341" lon="2.11722">
        <ele>164.04</ele>
        <time>2017-01-14T13:56:47Z</time>
      </trkpt>
      <trkpt lat="48.76344" lon="2.11715">
        <ele>164.04</ele>
        <time>2017-01-14T13:56:52Z</time>
      </trkpt>
      <trkpt lat="48.76348" lon="2.11708">
        <ele>164.04</ele>
        <time>2017-01-14T13:56:57Z</time>
      </trkpt>
      <trkpt lat="48.76354" lon="2.11697">
        <ele>164.04</ele>
        <time>2017-01-14T13:57:04Z</time>
      </trkpt>
      <trkpt lat="48.76356" lon="2.11691">
        <ele>164.04</ele>
        <time>2017-01-14T13:57:08Z</time>
      </trkpt>
      <trkpt lat="48.76359" lon="2.11688">
        <ele>164.04</ele>
        <time>2017-01-14T13:57:11Z</time>
      </trkpt>
      <trkpt lat="48.76365" lon="2.11675">
        <ele>164.52</ele>
        <time>2017-01-14T13:57:19Z</time>
      </trkpt>
      <trkpt lat="48.76372" lon="2.11662">
        <ele>164.52</ele>
        <time>2017-01-14T13:57:28Z</time>
      </trkpt>
      <trkpt lat="48.76373" lon="2.11661">
        <ele>164.52</ele>
        <time>2017-01-14T13:57:29Z</time>
      </trkpt>
      <trkpt lat="48.76377" lon="2.1165">
        <ele>165</ele>
        <time>2017-01-14T13:57:35Z</time>
      </trkpt>
      <trkpt lat="48.76383" lon="2.11636">
        <ele>164.52</ele>
        <time>2017-01-14T13:57:44Z</time>
      </trkpt>
      <trkpt lat="48.76385" lon="2.11633">
        <ele>164.52</ele>
        <time>2017-01-14T13:57:46Z</time>
      </trkpt>
      <trkpt lat="48.76387" lon="2.1163">
        <ele>164.52</ele>
        <time>2017-01-14T13:57:48Z</time>
      </trkpt>
      <trkpt lat="48.76389" lon="2.11625">
        <ele>165</ele>
        <time>2017-01-14T13:57:51Z</time>
      </trkpt>
      <trkpt lat="48.76397" lon="2.11615">
        <ele>165</ele>
        <time>2017-01-14T13:58:00Z</time>
      </trkpt>
      <trkpt lat="48.76398" lon="2.1161">
        <ele>165</ele>
        <time>2017-01-14T13:58:03Z</time>
      </trkpt>
      <trkpt lat="48.76404" lon="2.11598">
        <ele>165</ele>
        <time>2017-01-14T13:58:11Z</time>
      </trkpt>
      <trkpt lat="48.76407" lon="2.11591">
        <ele>165</ele>
        <time>2017-01-14T13:58:17Z</time>
      </trkpt>
      <trkpt lat="48.76414" lon="2.11579">
        <ele>165.48</ele>
        <time>2017-01-14T13:58:25Z</time>
      </trkpt>
      <trkpt lat="48.76422" lon="2.11564">
        <ele>165.48</ele>
        <time>2017-01-14T13:58:34Z</time>
      </trkpt>
      <trkpt lat="48.76428" lon="2.11553">
        <ele>165.48</ele>
        <time>2017-01-14T13:58:41Z</time>
      </trkpt>
      <trkpt lat="48.76433" lon="2.11542">
        <ele>165.48</ele>
        <time>2017-01-14T13:58:48Z</time>
      </trkpt>
      <trkpt lat="48.7644" lon="2.1153">
        <ele>165.48</ele>
        <time>2017-01-14T13:58:57Z</time>
      </trkpt>
      <trkpt lat="48.76446" lon="2.1152">
        <ele>165.96</ele>
        <time>2017-01-14T13:59:05Z</time>
      </trkpt>
      <trkpt lat="48.76456" lon="2.11512">
        <ele>165.96</ele>
        <time>2017-01-14T13:59:14Z</time>
      </trkpt>
      <trkpt lat="48.76462" lon="2.11514">
        <ele>165.96</ele>
        <time>2017-01-14T13:59:20Z</time>
      </trkpt>
      <trkpt lat="48.76467" lon="2.1152">
        <ele>165.96</ele>
        <time>2017-01-14T13:59:25Z</time>
      </trkpt>
      <trkpt lat="48.76471" lon="2.11522">
        <ele>165.96</ele>
        <time>2017-01-14T13:59:30Z</time>
      </trkpt>
      <trkpt lat="48.76477" lon="2.11526">
        <ele>165.96</ele>
        <time>2017-01-14T13:59:35Z</time>
      </trkpt>
      <trkpt lat="48.76483" lon="2.11534">
        <ele>166.45</ele>
        <time>2017-01-14T13:59:42Z</time>
      </trkpt>
      <trkpt lat="48.76489" lon="2.1154">
        <ele>166.45</ele>
        <time>2017-01-14T13:59:48Z</time>
      </trkpt>
      <trkpt lat="48.76493" lon="2.11549">
        <ele>166.45</ele>
        <time>2017-01-14T13:59:54Z</time>
      </trkpt>
      <trkpt lat="48.765" lon="2.11556">
        <ele>166.45</ele>
        <time>2017-01-14T14:00:01Z</time>
      </trkpt>
      <trkpt lat="48.76509" lon="2.11566">
        <ele>166.45</ele>
        <time>2017-01-14T14:00:09Z</time>
      </trkpt>
      <trkpt lat="48.76517" lon="2.11575">
        <ele>166.93</ele>
        <time>2017-01-14T14:00:17Z</time>
      </trkpt>
      <trkpt lat="48.76524" lon="2.11584">
        <ele>166.93</ele>
        <time>2017-01-14T14:00:25Z</time>
      </trkpt>
      <trkpt lat="48.76531" lon="2.11592">
        <ele>166.45</ele>
        <time>2017-01-14T14:00:32Z</time>
      </trkpt>
      <trkpt lat="48.76539" lon="2.11604">
        <ele>166.45</ele>
        <time>2017-01-14T14:00:41Z</time>
      </trkpt>
      <trkpt lat="48.76547" lon="2.11613">
        <ele>166.45</ele>
        <time>2017-01-14T14:00:50Z</time>
      </trkpt>
      <trkpt lat="48.76557" lon="2.11624">
        <ele>166.45</ele>
        <time>2017-01-14T14:00:59Z</time>
      </trkpt>
      <trkpt lat="48.76561" lon="2.11629">
        <ele>166.45</ele>
        <time>2017-01-14T14:01:03Z</time>
      </trkpt>
      <trkpt lat="48.76569" lon="2.11636">
        <ele>166.45</ele>
        <time>2017-01-14T14:01:10Z</time>
      </trkpt>
      <trkpt lat="48.76575" lon="2.11643">
        <ele>166.45</ele>
        <time>2017-01-14T14:01:16Z</time>
      </trkpt>
      <trkpt lat="48.76576" lon="2.11648">
        <ele>166.45</ele>
        <time>2017-01-14T14:01:19Z</time>
      </trkpt>
      <trkpt lat="48.76581" lon="2.11658">
        <ele>166.45</ele>
        <time>2017-01-14T14:01:27Z</time>
      </trkpt>
      <trkpt lat="48.76588" lon="2.11667">
        <ele>166.45</ele>
        <time>2017-01-14T14:01:35Z</time>
      </trkpt>
      <trkpt lat="48.76594" lon="2.11674">
        <ele>166.45</ele>
        <time>2017-01-14T14:01:42Z</time>
      </trkpt>
      <trkpt lat="48.76595" lon="2.11677">
        <ele>166.45</ele>
        <time>2017-01-14T14:01:44Z</time>
      </trkpt>
      <trkpt lat="48.76603" lon="2.11686">
        <ele>165.96</ele>
        <time>2017-01-14T14:01:52Z</time>
      </trkpt>
      <trkpt lat="48.76609" lon="2.11693">
        <ele>165.96</ele>
        <time>2017-01-14T14:02:00Z</time>
      </trkpt>
      <trkpt lat="48.76615" lon="2.11701">
        <ele>165.96</ele>
        <time>2017-01-14T14:02:06Z</time>
      </trkpt>
      <trkpt lat="48.76625" lon="2.11706">
        <ele>165.96</ele>
        <time>2017-01-14T14:02:13Z</time>
      </trkpt>
      <trkpt lat="48.76632" lon="2.11715">
        <ele>165.96</ele>
        <time>2017-01-14T14:02:20Z</time>
      </trkpt>
      <trkpt lat="48.76634" lon="2.11717">
        <ele>165.96</ele>
        <time>2017-01-14T14:02:21Z</time>
      </trkpt>
      <trkpt lat="48.76636" lon="2.11718">
        <ele>165.96</ele>
        <time>2017-01-14T14:02:23Z</time>
      </trkpt>
      <trkpt lat="48.76644" lon="2.11726">
        <ele>165.96</ele>
        <time>2017-01-14T14:02:30Z</time>
      </trkpt>
      <trkpt lat="48.76651" lon="2.11734">
        <ele>165.96</ele>
        <time>2017-01-14T14:02:37Z</time>
      </trkpt>
      <trkpt lat="48.76655" lon="2.11738">
        <ele>165.96</ele>
        <time>2017-01-14T14:02:41Z</time>
      </trkpt>
      <trkpt lat="48.76665" lon="2.11749">
        <ele>165.96</ele>
        <time>2017-01-14T14:02:51Z</time>
      </trkpt>
      <trkpt lat="48.76673" lon="2.11759">
        <ele>165.48</ele>
        <time>2017-01-14T14:02:59Z</time>
      </trkpt>
      <trkpt lat="48.76678" lon="2.11765">
        <ele>165.48</ele>
        <time>2017-01-14T14:03:04Z</time>
      </trkpt>
      <trkpt lat="48.76686" lon="2.11772">
        <ele>165</ele>
        <time>2017-01-14T14:03:11Z</time>
      </trkpt>
      <trkpt lat="48.76692" lon="2.11782">
        <ele>164.52</ele>
        <time>2017-01-14T14:03:18Z</time>
      </trkpt>
      <trkpt lat="48.76699" lon="2.1179">
        <ele>164.52</ele>
        <time>2017-01-14T14:03:24Z</time>
      </trkpt>
      <trkpt lat="48.76703" lon="2.11794">
        <ele>164.52</ele>
        <time>2017-01-14T14:03:28Z</time>
      </trkpt>
      <trkpt lat="48.76713" lon="2.11805">
        <ele>164.04</ele>
        <time>2017-01-14T14:03:38Z</time>
      </trkpt>
      <trkpt lat="48.76719" lon="2.11812">
        <ele>163.56</ele>
        <time>2017-01-14T14:03:45Z</time>
      </trkpt>
      <trkpt lat="48.76725" lon="2.1182">
        <ele>163.56</ele>
        <time>2017-01-14T14:03:51Z</time>
      </trkpt>
      <trkpt lat="48.76733" lon="2.11831">
        <ele>163.08</ele>
        <time>2017-01-14T14:03:59Z</time>
      </trkpt>
      <trkpt lat="48.76739" lon="2.11837">
        <ele>162.6</ele>
        <time>2017-01-14T14:04:04Z</time>
      </trkpt>
      <trkpt lat="48.7674" lon="2.11838">
        <ele>162.6</ele>
        <time>2017-01-14T14:04:05Z</time>
      </trkpt>
      <trkpt lat="48.76746" lon="2.11844">
        <ele>162.6</ele>
        <time>2017-01-14T14:04:12Z</time>
      </trkpt>
      <trkpt lat="48.76754" lon="2.11854">
        <ele>162.12</ele>
        <time>2017-01-14T14:04:21Z</time>
      </trkpt>
      <trkpt lat="48.76763" lon="2.11863">
        <ele>162.12</ele>
        <time>2017-01-14T14:04:30Z</time>
      </trkpt>
      <trkpt lat="48.76769" lon="2.1187">
        <ele>162.12</ele>
        <time>2017-01-14T14:04:37Z</time>
      </trkpt>
      <trkpt lat="48.76776" lon="2.11878">
        <ele>162.12</ele>
        <time>2017-01-14T14:04:45Z</time>
      </trkpt>
      <trkpt lat="48.76778" lon="2.1188">
        <ele>162.12</ele>
        <time>2017-01-14T14:04:47Z</time>
      </trkpt>
      <trkpt lat="48.7678" lon="2.11891">
        <ele>162.12</ele>
        <time>2017-01-14T14:04:53Z</time>
      </trkpt>
      <trkpt lat="48.76781" lon="2.11894">
        <ele>162.12</ele>
        <time>2017-01-14T14:04:55Z</time>
      </trkpt>
      <trkpt lat="48.7679" lon="2.11906">
        <ele>162.12</ele>
        <time>2017-01-14T14:05:04Z</time>
      </trkpt>
      <trkpt lat="48.76791" lon="2.11907">
        <ele>162.12</ele>
        <time>2017-01-14T14:05:05Z</time>
      </trkpt>
      <trkpt lat="48.76797" lon="2.11908">
        <ele>161.64</ele>
        <time>2017-01-14T14:05:13Z</time>
      </trkpt>
      <trkpt lat="48.76802" lon="2.11909">
        <ele>161.64</ele>
        <time>2017-01-14T14:05:19Z</time>
      </trkpt>
      <trkpt lat="48.76805" lon="2.11911">
        <ele>161.64</ele>
        <time>2017-01-14T14:05:23Z</time>
      </trkpt>
      <trkpt lat="48.76815" lon="2.11918">
        <ele>161.64</ele>
        <time>2017-01-14T14:05:30Z</time>
      </trkpt>
      <trkpt lat="48.76824" lon="2.11924">
        <ele>161.16</ele>
        <time>2017-01-14T14:05:37Z</time>
      </trkpt>
      <trkpt lat="48.76832" lon="2.11931">
        <ele>161.16</ele>
        <time>2017-01-14T14:05:44Z</time>
      </trkpt>
      <trkpt lat="48.76835" lon="2.11933">
        <ele>160.68</ele>
        <time>2017-01-14T14:05:46Z</time>
      </trkpt>
      <trkpt lat="48.76844" lon="2.1194">
        <ele>160.68</ele>
        <time>2017-01-14T14:05:54Z</time>
      </trkpt>
      <trkpt lat="48.7685" lon="2.11946">
        <ele>160.2</ele>
        <time>2017-01-14T14:06:00Z</time>
      </trkpt>
      <trkpt lat="48.76854" lon="2.11947">
        <ele>160.2</ele>
        <time>2017-01-14T14:06:04Z</time>
      </trkpt>
      <trkpt lat="48.76856" lon="2.11949">
        <ele>160.2</ele>
        <time>2017-01-14T14:06:06Z</time>
      </trkpt>
      <trkpt lat="48.76864" lon="2.11956">
        <ele>160.2</ele>
        <time>2017-01-14T14:06:13Z</time>
      </trkpt>
      <trkpt lat="48.76866" lon="2.11956">
        <ele>159.72</ele>
        <time>2017-01-14T14:06:14Z</time>
      </trkpt>
      <trkpt lat="48.76873" lon="2.11961">
        <ele>159.72</ele>
        <time>2017-01-14T14:06:22Z</time>
      </trkpt>
      <trkpt lat="48.76875" lon="2.11963">
        <ele>159.72</ele>
        <time>2017-01-14T14:06:24Z</time>
      </trkpt>
      <trkpt lat="48.76878" lon="2.11965">
        <ele>159.72</ele>
        <time>2017-01-14T14:06:27Z</time>
      </trkpt>
      <trkpt lat="48.76888" lon="2.11974">
        <ele>159.72</ele>
        <time>2017-01-14T14:06:36Z</time>
      </trkpt>
      <trkpt lat="48.76893" lon="2.11987">
        <ele>160.2</ele>
        <time>2017-01-14T14:06:43Z</time>
      </trkpt>
      <trkpt lat="48.76895" lon="2.1199">
        <ele>160.2</ele>
        <time>2017-01-14T14:06:45Z</time>
      </trkpt>
      <trkpt lat="48.76899" lon="2.11999">
        <ele>159.72</ele>
        <time>2017-01-14T14:06:51Z</time>
      </trkpt>
      <trkpt lat="48.76901" lon="2.11999">
        <ele>159.72</ele>
        <time>2017-01-14T14:06:54Z</time>
      </trkpt>
      <trkpt lat="48.76908" lon="2.11995">
        <ele>159.24</ele>
        <time>2017-01-14T14:07:01Z</time>
      </trkpt>
      <trkpt lat="48.76912" lon="2.11992">
        <ele>159.24</ele>
        <time>2017-01-14T14:07:07Z</time>
      </trkpt>
      <trkpt lat="48.76916" lon="2.11991">
        <ele>158.75</ele>
        <time>2017-01-14T14:07:11Z</time>
      </trkpt>
      <trkpt lat="48.76922" lon="2.11994">
        <ele>158.75</ele>
        <time>2017-01-14T14:07:18Z</time>
      </trkpt>
      <trkpt lat="48.76933" lon="2.11999">
        <ele>158.27</ele>
        <time>2017-01-14T14:07:26Z</time>
      </trkpt>
      <trkpt lat="48.76935" lon="2.12001">
        <ele>158.27</ele>
        <time>2017-01-14T14:07:28Z</time>
      </trkpt>
      <trkpt lat="48.76945" lon="2.12005">
        <ele>157.79</ele>
        <time>2017-01-14T14:07:36Z</time>
      </trkpt>
      <trkpt lat="48.7695" lon="2.12009">
        <ele>158.27</ele>
        <time>2017-01-14T14:07:41Z</time>
      </trkpt>
      <trkpt lat="48.76957" lon="2.12015">
        <ele>157.79</ele>
        <time>2017-01-14T14:07:48Z</time>
      </trkpt>
      <trkpt lat="48.76962" lon="2.1202">
        <ele>157.79</ele>
        <time>2017-01-14T14:07:54Z</time>
      </trkpt>
      <trkpt lat="48.76966" lon="2.12022">
        <ele>157.79</ele>
        <time>2017-01-14T14:07:57Z</time>
      </trkpt>
      <trkpt lat="48.76969" lon="2.12025">
        <ele>157.79</ele>
        <time>2017-01-14T14:08:00Z</time>
      </trkpt>
      <trkpt lat="48.76976" lon="2.12031">
        <ele>157.79</ele>
        <time>2017-01-14T14:08:07Z</time>
      </trkpt>
      <trkpt lat="48.76983" lon="2.12037">
        <ele>157.31</ele>
        <time>2017-01-14T14:08:14Z</time>
      </trkpt>
      <trkpt lat="48.76991" lon="2.12041">
        <ele>157.31</ele>
        <time>2017-01-14T14:08:21Z</time>
      </trkpt>
      <trkpt lat="48.76993" lon="2.12043">
        <ele>157.31</ele>
        <time>2017-01-14T14:08:23Z</time>
      </trkpt>
      <trkpt lat="48.77001" lon="2.12051">
        <ele>157.31</ele>
        <time>2017-01-14T14:08:29Z</time>
      </trkpt>
      <trkpt lat="48.77004" lon="2.12053">
        <ele>157.31</ele>
        <time>2017-01-14T14:08:31Z</time>
      </trkpt>
      <trkpt lat="48.77006" lon="2.12053">
        <ele>157.31</ele>
        <time>2017-01-14T14:08:33Z</time>
      </trkpt>
      <trkpt lat="48.77013" lon="2.12062">
        <ele>157.31</ele>
        <time>2017-01-14T14:08:38Z</time>
      </trkpt>
      <trkpt lat="48.77022" lon="2.12074">
        <ele>157.31</ele>
        <time>2017-01-14T14:08:46Z</time>
      </trkpt>
      <trkpt lat="48.7703" lon="2.12083">
        <ele>157.31</ele>
        <time>2017-01-14T14:08:52Z</time>
      </trkpt>
      <trkpt lat="48.77036" lon="2.12086">
        <ele>156.83</ele>
        <time>2017-01-14T14:08:57Z</time>
      </trkpt>
      <trkpt lat="48.77044" lon="2.12092">
        <ele>156.83</ele>
        <time>2017-01-14T14:09:05Z</time>
      </trkpt>
      <trkpt lat="48.77049" lon="2.12095">
        <ele>157.31</ele>
        <time>2017-01-14T14:09:09Z</time>
      </trkpt>
      <trkpt lat="48.7706" lon="2.12102">
        <ele>156.83</ele>
        <time>2017-01-14T14:09:19Z</time>
      </trkpt>
      <trkpt lat="48.77067" lon="2.1211">
        <ele>156.83</ele>
        <time>2017-01-14T14:09:25Z</time>
      </trkpt>
      <trkpt lat="48.77076" lon="2.12116">
        <ele>156.83</ele>
        <time>2017-01-14T14:09:33Z</time>
      </trkpt>
      <trkpt lat="48.77084" lon="2.12123">
        <ele>156.83</ele>
        <time>2017-01-14T14:09:40Z</time>
      </trkpt>
      <trkpt lat="48.77089" lon="2.12126">
        <ele>156.35</ele>
        <time>2017-01-14T14:09:44Z</time>
      </trkpt>
      <trkpt lat="48.77098" lon="2.12134">
        <ele>156.35</ele>
        <time>2017-01-14T14:09:52Z</time>
      </trkpt>
      <trkpt lat="48.77099" lon="2.12135">
        <ele>156.35</ele>
        <time>2017-01-14T14:09:53Z</time>
      </trkpt>
      <trkpt lat="48.77108" lon="2.12142">
        <ele>156.35</ele>
        <time>2017-01-14T14:10:00Z</time>
      </trkpt>
      <trkpt lat="48.77114" lon="2.12146">
        <ele>156.35</ele>
        <time>2017-01-14T14:10:06Z</time>
      </trkpt>
      <trkpt lat="48.77122" lon="2.12143">
        <ele>155.87</ele>
        <time>2017-01-14T14:10:15Z</time>
      </trkpt>
      <trkpt lat="48.77125" lon="2.12144">
        <ele>155.87</ele>
        <time>2017-01-14T14:10:18Z</time>
      </trkpt>
      <trkpt lat="48.77132" lon="2.1215">
        <ele>156.83</ele>
        <time>2017-01-14T14:10:25Z</time>
      </trkpt>
      <trkpt lat="48.77141" lon="2.12156">
        <ele>155.39</ele>
        <time>2017-01-14T14:10:32Z</time>
      </trkpt>
      <trkpt lat="48.77147" lon="2.12162">
        <ele>155.39</ele>
        <time>2017-01-14T14:10:38Z</time>
      </trkpt>
      <trkpt lat="48.77156" lon="2.12165">
        <ele>155.39</ele>
        <time>2017-01-14T14:10:45Z</time>
      </trkpt>
      <trkpt lat="48.77164" lon="2.12172">
        <ele>155.39</ele>
        <time>2017-01-14T14:10:52Z</time>
      </trkpt>
      <trkpt lat="48.77172" lon="2.12178">
        <ele>155.39</ele>
        <time>2017-01-14T14:10:59Z</time>
      </trkpt>
      <trkpt lat="48.77181" lon="2.1218">
        <ele>155.39</ele>
        <time>2017-01-14T14:11:07Z</time>
      </trkpt>
      <trkpt lat="48.77186" lon="2.12176">
        <ele>155.39</ele>
        <time>2017-01-14T14:11:12Z</time>
      </trkpt>
      <trkpt lat="48.7719" lon="2.12174">
        <ele>155.39</ele>
        <time>2017-01-14T14:11:20Z</time>
      </trkpt>
      <trkpt lat="48.77191" lon="2.12167">
        <ele>155.87</ele>
        <time>2017-01-14T14:11:27Z</time>
      </trkpt>
      <trkpt lat="48.77192" lon="2.12165">
        <ele>155.87</ele>
        <time>2017-01-14T14:11:29Z</time>
      </trkpt>
      <trkpt lat="48.77193" lon="2.12159">
        <ele>155.87</ele>
        <time>2017-01-14T14:11:33Z</time>
      </trkpt>
      <trkpt lat="48.77195" lon="2.12145">
        <ele>155.87</ele>
        <time>2017-01-14T14:11:41Z</time>
      </trkpt>
      <trkpt lat="48.77198" lon="2.12137">
        <ele>156.35</ele>
        <time>2017-01-14T14:11:47Z</time>
      </trkpt>
      <trkpt lat="48.772" lon="2.12131">
        <ele>156.35</ele>
        <time>2017-01-14T14:11:51Z</time>
      </trkpt>
      <trkpt lat="48.77204" lon="2.12118">
        <ele>156.35</ele>
        <time>2017-01-14T14:11:58Z</time>
      </trkpt>
      <trkpt lat="48.77207" lon="2.12106">
        <ele>156.83</ele>
        <time>2017-01-14T14:12:05Z</time>
      </trkpt>
      <trkpt lat="48.77209" lon="2.12103">
        <ele>156.83</ele>
        <time>2017-01-14T14:12:07Z</time>
      </trkpt>
      <trkpt lat="48.77212" lon="2.12088">
        <ele>156.83</ele>
        <time>2017-01-14T14:12:16Z</time>
      </trkpt>
      <trkpt lat="48.77215" lon="2.12082">
        <ele>156.83</ele>
        <time>2017-01-14T14:12:20Z</time>
      </trkpt>
      <trkpt lat="48.77217" lon="2.12074">
        <ele>158.27</ele>
        <time>2017-01-14T14:12:25Z</time>
      </trkpt>
      <trkpt lat="48.77217" lon="2.12068">
        <ele>157.31</ele>
        <time>2017-01-14T14:12:28Z</time>
      </trkpt>
      <trkpt lat="48.77221" lon="2.12057">
        <ele>157.31</ele>
        <time>2017-01-14T14:12:35Z</time>
      </trkpt>
      <trkpt lat="48.77223" lon="2.1205">
        <ele>157.31</ele>
        <time>2017-01-14T14:12:39Z</time>
      </trkpt>
      <trkpt lat="48.77227" lon="2.12035">
        <ele>157.79</ele>
        <time>2017-01-14T14:12:48Z</time>
      </trkpt>
      <trkpt lat="48.77228" lon="2.12033">
        <ele>157.79</ele>
        <time>2017-01-14T14:12:49Z</time>
      </trkpt>
      <trkpt lat="48.77231" lon="2.12028">
        <ele>157.79</ele>
        <time>2017-01-14T14:12:52Z</time>
      </trkpt>
      <trkpt lat="48.77232" lon="2.12024">
        <ele>157.79</ele>
        <time>2017-01-14T14:12:54Z</time>
      </trkpt>
      <trkpt lat="48.77236" lon="2.12011">
        <ele>157.79</ele>
        <time>2017-01-14T14:13:02Z</time>
      </trkpt>
      <trkpt lat="48.77236" lon="2.1201">
        <ele>157.79</ele>
        <time>2017-01-14T14:13:03Z</time>
      </trkpt>
      <trkpt lat="48.7724" lon="2.11997">
        <ele>157.79</ele>
        <time>2017-01-14T14:13:10Z</time>
      </trkpt>
      <trkpt lat="48.77241" lon="2.11996">
        <ele>157.79</ele>
        <time>2017-01-14T14:13:11Z</time>
      </trkpt>
      <trkpt lat="48.77242" lon="2.11989">
        <ele>157.79</ele>
        <time>2017-01-14T14:13:14Z</time>
      </trkpt>
      <trkpt lat="48.77241" lon="2.11986">
        <ele>158.27</ele>
        <time>2017-01-14T14:13:16Z</time>
      </trkpt>
      <trkpt lat="48.77245" lon="2.11975">
        <ele>157.79</ele>
        <time>2017-01-14T14:13:23Z</time>
      </trkpt>
      <trkpt lat="48.7725" lon="2.11965">
        <ele>158.27</ele>
        <time>2017-01-14T14:13:30Z</time>
      </trkpt>
      <trkpt lat="48.77253" lon="2.11956">
        <ele>158.27</ele>
        <time>2017-01-14T14:13:35Z</time>
      </trkpt>
      <trkpt lat="48.77256" lon="2.11946">
        <ele>158.27</ele>
        <time>2017-01-14T14:13:41Z</time>
      </trkpt>
      <trkpt lat="48.77258" lon="2.11942">
        <ele>158.27</ele>
        <time>2017-01-14T14:13:43Z</time>
      </trkpt>
      <trkpt lat="48.77262" lon="2.1193">
        <ele>158.27</ele>
        <time>2017-01-14T14:13:50Z</time>
      </trkpt>
      <trkpt lat="48.77266" lon="2.11923">
        <ele>158.27</ele>
        <time>2017-01-14T14:13:55Z</time>
      </trkpt>
      <trkpt lat="48.77269" lon="2.11916">
        <ele>158.27</ele>
        <time>2017-01-14T14:13:59Z</time>
      </trkpt>
      <trkpt lat="48.77269" lon="2.11909">
        <ele>158.27</ele>
        <time>2017-01-14T14:14:03Z</time>
      </trkpt>
      <trkpt lat="48.77272" lon="2.11902">
        <ele>158.27</ele>
        <time>2017-01-14T14:14:07Z</time>
      </trkpt>
      <trkpt lat="48.77273" lon="2.11895">
        <ele>158.27</ele>
        <time>2017-01-14T14:14:11Z</time>
      </trkpt>
      <trkpt lat="48.77277" lon="2.11884">
        <ele>157.79</ele>
        <time>2017-01-14T14:14:18Z</time>
      </trkpt>
      <trkpt lat="48.77282" lon="2.11873">
        <ele>157.79</ele>
        <time>2017-01-14T14:14:24Z</time>
      </trkpt>
      <trkpt lat="48.77284" lon="2.11866">
        <ele>157.79</ele>
        <time>2017-01-14T14:14:28Z</time>
      </trkpt>
      <trkpt lat="48.77285" lon="2.11861">
        <ele>157.31</ele>
        <time>2017-01-14T14:14:30Z</time>
      </trkpt>
      <trkpt lat="48.77287" lon="2.11854">
        <ele>157.31</ele>
        <time>2017-01-14T14:14:33Z</time>
      </trkpt>
      <trkpt lat="48.77289" lon="2.11845">
        <ele>157.31</ele>
        <time>2017-01-14T14:14:40Z</time>
      </trkpt>
      <trkpt lat="48.7729" lon="2.11842">
        <ele>157.31</ele>
        <time>2017-01-14T14:14:47Z</time>
      </trkpt>
      <trkpt lat="48.77289" lon="2.11837">
        <ele>157.31</ele>
        <time>2017-01-14T14:14:54Z</time>
      </trkpt>
      <trkpt lat="48.77294" lon="2.11829">
        <ele>156.83</ele>
        <time>2017-01-14T14:15:00Z</time>
      </trkpt>
      <trkpt lat="48.77297" lon="2.11826">
        <ele>156.35</ele>
        <time>2017-01-14T14:15:07Z</time>
      </trkpt>
      <trkpt lat="48.77298" lon="2.11821">
        <ele>155.87</ele>
        <time>2017-01-14T14:15:12Z</time>
      </trkpt>
      <trkpt lat="48.77303" lon="2.11813">
        <ele>155.39</ele>
        <time>2017-01-14T14:15:19Z</time>
      </trkpt>
      <trkpt lat="48.77308" lon="2.11809">
        <ele>155.87</ele>
        <time>2017-01-14T14:15:25Z</time>
      </trkpt>
      <trkpt lat="48.77313" lon="2.11802">
        <ele>156.35</ele>
        <time>2017-01-14T14:15:32Z</time>
      </trkpt>
      <trkpt lat="48.77317" lon="2.11792">
        <ele>156.35</ele>
        <time>2017-01-14T14:15:40Z</time>
      </trkpt>
      <trkpt lat="48.7732" lon="2.11784">
        <ele>157.31</ele>
        <time>2017-01-14T14:15:47Z</time>
      </trkpt>
      <trkpt lat="48.77321" lon="2.11783">
        <ele>157.31</ele>
        <time>2017-01-14T14:15:48Z</time>
      </trkpt>
      <trkpt lat="48.77322" lon="2.11771">
        <ele>158.27</ele>
        <time>2017-01-14T14:15:55Z</time>
      </trkpt>
      <trkpt lat="48.77325" lon="2.1176">
        <ele>158.27</ele>
        <time>2017-01-14T14:16:01Z</time>
      </trkpt>
      <trkpt lat="48.77328" lon="2.11755">
        <ele>158.75</ele>
        <time>2017-01-14T14:16:07Z</time>
      </trkpt>
      <trkpt lat="48.77329" lon="2.1175">
        <ele>158.75</ele>
        <time>2017-01-14T14:16:13Z</time>
      </trkpt>
      <trkpt lat="48.7733" lon="2.11748">
        <ele>158.75</ele>
        <time>2017-01-14T14:16:15Z</time>
      </trkpt>
      <trkpt lat="48.77335" lon="2.11727">
        <ele>158.75</ele>
        <time>2017-01-14T14:16:21Z</time>
      </trkpt>
      <trkpt lat="48.77336" lon="2.11725">
        <ele>158.75</ele>
        <time>2017-01-14T14:16:24Z</time>
      </trkpt>
      <trkpt lat="48.77337" lon="2.11714">
        <ele>158.75</ele>
        <time>2017-01-14T14:16:32Z</time>
      </trkpt>
      <trkpt lat="48.77338" lon="2.11708">
        <ele>158.75</ele>
        <time>2017-01-14T14:16:38Z</time>
      </trkpt>
      <trkpt lat="48.77338" lon="2.11704">
        <ele>159.24</ele>
        <time>2017-01-14T14:16:41Z</time>
      </trkpt>
      <trkpt lat="48.7734" lon="2.117">
        <ele>159.24</ele>
        <time>2017-01-14T14:16:43Z</time>
      </trkpt>
      <trkpt lat="48.77344" lon="2.11687">
        <ele>159.72</ele>
        <time>2017-01-14T14:16:52Z</time>
      </trkpt>
      <trkpt lat="48.77344" lon="2.11681">
        <ele>159.72</ele>
        <time>2017-01-14T14:16:57Z</time>
      </trkpt>
      <trkpt lat="48.77349" lon="2.11672">
        <ele>160.2</ele>
        <time>2017-01-14T14:17:04Z</time>
      </trkpt>
      <trkpt lat="48.77351" lon="2.11665">
        <ele>160.68</ele>
        <time>2017-01-14T14:17:10Z</time>
      </trkpt>
      <trkpt lat="48.77354" lon="2.11655">
        <ele>161.64</ele>
        <time>2017-01-14T14:17:17Z</time>
      </trkpt>
      <trkpt lat="48.77357" lon="2.1165">
        <ele>161.64</ele>
        <time>2017-01-14T14:17:23Z</time>
      </trkpt>
      <trkpt lat="48.77358" lon="2.11646">
        <ele>162.12</ele>
        <time>2017-01-14T14:17:31Z</time>
      </trkpt>
      <trkpt lat="48.77359" lon="2.11643">
        <ele>162.12</ele>
        <time>2017-01-14T14:17:38Z</time>
      </trkpt>
      <trkpt lat="48.77362" lon="2.11634">
        <ele>162.6</ele>
        <time>2017-01-14T14:17:45Z</time>
      </trkpt>
      <trkpt lat="48.77363" lon="2.11629">
        <ele>162.6</ele>
        <time>2017-01-14T14:17:48Z</time>
      </trkpt>
      <trkpt lat="48.77364" lon="2.11612">
        <ele>163.08</ele>
        <time>2017-01-14T14:17:56Z</time>
      </trkpt>
      <trkpt lat="48.77364" lon="2.11602">
        <ele>163.56</ele>
        <time>2017-01-14T14:18:03Z</time>
      </trkpt>
      <trkpt lat="48.77366" lon="2.11593">
        <ele>163.56</ele>
        <time>2017-01-14T14:18:08Z</time>
      </trkpt>
      <trkpt lat="48.77365" lon="2.11585">
        <ele>163.56</ele>
        <time>2017-01-14T14:18:15Z</time>
      </trkpt>
      <trkpt lat="48.77369" lon="2.11577">
        <ele>163.56</ele>
        <time>2017-01-14T14:18:22Z</time>
      </trkpt>
      <trkpt lat="48.77372" lon="2.11572">
        <ele>164.52</ele>
        <time>2017-01-14T14:18:26Z</time>
      </trkpt>
      <trkpt lat="48.77375" lon="2.11559">
        <ele>164.04</ele>
        <time>2017-01-14T14:18:34Z</time>
      </trkpt>
      <trkpt lat="48.77379" lon="2.11551">
        <ele>164.04</ele>
        <time>2017-01-14T14:18:40Z</time>
      </trkpt>
      <trkpt lat="48.77379" lon="2.11545">
        <ele>164.52</ele>
        <time>2017-01-14T14:18:47Z</time>
      </trkpt>
      <trkpt lat="48.77379" lon="2.11544">
        <ele>164.52</ele>
        <time>2017-01-14T14:18:49Z</time>
      </trkpt>
      <trkpt lat="48.7738" lon="2.11535">
        <ele>164.52</ele>
        <time>2017-01-14T14:18:55Z</time>
      </trkpt>
      <trkpt lat="48.7738" lon="2.11529">
        <ele>164.52</ele>
        <time>2017-01-14T14:19:00Z</time>
      </trkpt>
      <trkpt lat="48.77381" lon="2.11528">
        <ele>164.04</ele>
        <time>2017-01-14T14:19:01Z</time>
      </trkpt>
      <trkpt lat="48.77381" lon="2.11521">
        <ele>164.04</ele>
        <time>2017-01-14T14:19:07Z</time>
      </trkpt>
      <trkpt lat="48.77384" lon="2.11514">
        <ele>164.52</ele>
        <time>2017-01-14T14:19:13Z</time>
      </trkpt>
      <trkpt lat="48.77385" lon="2.11502">
        <ele>164.52</ele>
        <time>2017-01-14T14:19:19Z</time>
      </trkpt>
      <trkpt lat="48.77385" lon="2.11498">
        <ele>164.04</ele>
        <time>2017-01-14T14:19:23Z</time>
      </trkpt>
      <trkpt lat="48.77391" lon="2.11486">
        <ele>164.52</ele>
        <time>2017-01-14T14:19:29Z</time>
      </trkpt>
      <trkpt lat="48.77391" lon="2.11479">
        <ele>164.04</ele>
        <time>2017-01-14T14:19:35Z</time>
      </trkpt>
      <trkpt lat="48.77391" lon="2.11473">
        <ele>164.04</ele>
        <time>2017-01-14T14:19:40Z</time>
      </trkpt>
      <trkpt lat="48.77393" lon="2.11461">
        <ele>163.08</ele>
        <time>2017-01-14T14:19:46Z</time>
      </trkpt>
      <trkpt lat="48.77393" lon="2.11455">
        <ele>163.08</ele>
        <time>2017-01-14T14:19:49Z</time>
      </trkpt>
      <trkpt lat="48.77391" lon="2.11441">
        <ele>162.6</ele>
        <time>2017-01-14T14:19:55Z</time>
      </trkpt>
      <trkpt lat="48.77389" lon="2.11423">
        <ele>161.64</ele>
        <time>2017-01-14T14:20:03Z</time>
      </trkpt>
      <trkpt lat="48.77391" lon="2.11417">
        <ele>161.64</ele>
        <time>2017-01-14T14:20:06Z</time>
      </trkpt>
      <trkpt lat="48.77393" lon="2.11414">
        <ele>161.16</ele>
        <time>2017-01-14T14:20:08Z</time>
      </trkpt>
      <trkpt lat="48.77399" lon="2.11408">
        <ele>161.16</ele>
        <time>2017-01-14T14:20:14Z</time>
      </trkpt>
      <trkpt lat="48.77401" lon="2.11397">
        <ele>160.68</ele>
        <time>2017-01-14T14:20:22Z</time>
      </trkpt>
      <trkpt lat="48.77403" lon="2.11387">
        <ele>160.2</ele>
        <time>2017-01-14T14:20:28Z</time>
      </trkpt>
      <trkpt lat="48.77405" lon="2.11375">
        <ele>159.72</ele>
        <time>2017-01-14T14:20:33Z</time>
      </trkpt>
      <trkpt lat="48.77407" lon="2.11368">
        <ele>159.24</ele>
        <time>2017-01-14T14:20:39Z</time>
      </trkpt>
      <trkpt lat="48.77407" lon="2.11358">
        <ele>159.24</ele>
        <time>2017-01-14T14:20:45Z</time>
      </trkpt>
      <trkpt lat="48.77409" lon="2.11345">
        <ele>158.27</ele>
        <time>2017-01-14T14:20:51Z</time>
      </trkpt>
      <trkpt lat="48.77414" lon="2.11336">
        <ele>157.79</ele>
        <time>2017-01-14T14:20:56Z</time>
      </trkpt>
      <trkpt lat="48.77419" lon="2.11321">
        <ele>157.31</ele>
        <time>2017-01-14T14:21:03Z</time>
      </trkpt>
      <trkpt lat="48.77419" lon="2.11311">
        <ele>156.35</ele>
        <time>2017-01-14T14:21:09Z</time>
      </trkpt>
      <trkpt lat="48.77422" lon="2.11301">
        <ele>155.39</ele>
        <time>2017-01-14T14:21:15Z</time>
      </trkpt>
      <trkpt lat="48.77423" lon="2.11297">
        <ele>154.91</ele>
        <time>2017-01-14T14:21:20Z</time>
      </trkpt>
      <trkpt lat="48.77425" lon="2.11289">
        <ele>154.91</ele>
        <time>2017-01-14T14:21:28Z</time>
      </trkpt>
      <trkpt lat="48.77426" lon="2.11281">
        <ele>153.95</ele>
        <time>2017-01-14T14:21:34Z</time>
      </trkpt>
      <trkpt lat="48.77431" lon="2.11272">
        <ele>153.47</ele>
        <time>2017-01-14T14:21:41Z</time>
      </trkpt>
      <trkpt lat="48.77433" lon="2.11263">
        <ele>152.99</ele>
        <time>2017-01-14T14:21:47Z</time>
      </trkpt>
      <trkpt lat="48.77439" lon="2.11253">
        <ele>152.51</ele>
        <time>2017-01-14T14:21:53Z</time>
      </trkpt>
      <trkpt lat="48.77439" lon="2.11241">
        <ele>151.06</ele>
        <time>2017-01-14T14:21:58Z</time>
      </trkpt>
      <trkpt lat="48.7744" lon="2.11231">
        <ele>150.1</ele>
        <time>2017-01-14T14:22:04Z</time>
      </trkpt>
      <trkpt lat="48.77439" lon="2.11223">
        <ele>150.1</ele>
        <time>2017-01-14T14:22:10Z</time>
      </trkpt>
      <trkpt lat="48.77439" lon="2.11222">
        <ele>150.1</ele>
        <time>2017-01-14T14:22:11Z</time>
      </trkpt>
      <trkpt lat="48.77437" lon="2.11218">
        <ele>150.58</ele>
        <time>2017-01-14T14:22:13Z</time>
      </trkpt>
      <trkpt lat="48.77436" lon="2.11214">
        <ele>150.58</ele>
        <time>2017-01-14T14:22:15Z</time>
      </trkpt>
      <trkpt lat="48.77429" lon="2.11203">
        <ele>150.1</ele>
        <time>2017-01-14T14:22:23Z</time>
      </trkpt>
      <trkpt lat="48.77424" lon="2.11193">
        <ele>150.58</ele>
        <time>2017-01-14T14:22:31Z</time>
      </trkpt>
      <trkpt lat="48.7742" lon="2.11186">
        <ele>150.58</ele>
        <time>2017-01-14T14:22:36Z</time>
      </trkpt>
      <trkpt lat="48.77416" lon="2.11179">
        <ele>150.58</ele>
        <time>2017-01-14T14:22:42Z</time>
      </trkpt>
      <trkpt lat="48.77415" lon="2.11167">
        <ele>150.58</ele>
        <time>2017-01-14T14:22:49Z</time>
      </trkpt>
      <trkpt lat="48.77414" lon="2.11156">
        <ele>150.58</ele>
        <time>2017-01-14T14:22:56Z</time>
      </trkpt>
      <trkpt lat="48.77415" lon="2.11148">
        <ele>150.58</ele>
        <time>2017-01-14T14:23:02Z</time>
      </trkpt>
      <trkpt lat="48.77413" lon="2.11136">
        <ele>151.06</ele>
        <time>2017-01-14T14:23:10Z</time>
      </trkpt>
      <trkpt lat="48.77413" lon="2.11135">
        <ele>151.06</ele>
        <time>2017-01-14T14:23:13Z</time>
      </trkpt>
      <trkpt lat="48.77411" lon="2.1112">
        <ele>151.06</ele>
        <time>2017-01-14T14:23:21Z</time>
      </trkpt>
      <trkpt lat="48.77408" lon="2.11096">
        <ele>150.58</ele>
        <time>2017-01-14T14:23:31Z</time>
      </trkpt>
      <trkpt lat="48.77408" lon="2.11095">
        <ele>150.58</ele>
        <time>2017-01-14T14:23:32Z</time>
      </trkpt>
      <trkpt lat="48.77401" lon="2.11081">
        <ele>150.58</ele>
        <time>2017-01-14T14:23:40Z</time>
      </trkpt>
      <trkpt lat="48.77394" lon="2.11075">
        <ele>150.1</ele>
        <time>2017-01-14T14:23:47Z</time>
      </trkpt>
      <trkpt lat="48.7739" lon="2.11065">
        <ele>150.1</ele>
        <time>2017-01-14T14:23:53Z</time>
      </trkpt>
      <trkpt lat="48.77383" lon="2.11054">
        <ele>149.14</ele>
        <time>2017-01-14T14:24:00Z</time>
      </trkpt>
      <trkpt lat="48.77378" lon="2.11043">
        <ele>149.14</ele>
        <time>2017-01-14T14:24:08Z</time>
      </trkpt>
      <trkpt lat="48.77376" lon="2.11039">
        <ele>149.14</ele>
        <time>2017-01-14T14:24:10Z</time>
      </trkpt>
      <trkpt lat="48.7737" lon="2.11027">
        <ele>149.14</ele>
        <time>2017-01-14T14:24:18Z</time>
      </trkpt>
      <trkpt lat="48.77368" lon="2.11018">
        <ele>148.66</ele>
        <time>2017-01-14T14:24:25Z</time>
      </trkpt>
      <trkpt lat="48.77367" lon="2.11017">
        <ele>148.66</ele>
        <time>2017-01-14T14:24:26Z</time>
      </trkpt>
      <trkpt lat="48.77366" lon="2.11004">
        <ele>148.66</ele>
        <time>2017-01-14T14:24:33Z</time>
      </trkpt>
      <trkpt lat="48.77363" lon="2.10996">
        <ele>148.66</ele>
        <time>2017-01-14T14:24:40Z</time>
      </trkpt>
      <trkpt lat="48.77362" lon="2.10986">
        <ele>148.66</ele>
        <time>2017-01-14T14:24:46Z</time>
      </trkpt>
      <trkpt lat="48.77359" lon="2.10975">
        <ele>148.18</ele>
        <time>2017-01-14T14:24:54Z</time>
      </trkpt>
      <trkpt lat="48.77357" lon="2.10962">
        <ele>148.18</ele>
        <time>2017-01-14T14:25:03Z</time>
      </trkpt>
      <trkpt lat="48.77354" lon="2.10956">
        <ele>147.7</ele>
        <time>2017-01-14T14:25:10Z</time>
      </trkpt>
      <trkpt lat="48.77351" lon="2.10949">
        <ele>147.7</ele>
        <time>2017-01-14T14:25:17Z</time>
      </trkpt>
      <trkpt lat="48.7735" lon="2.10936">
        <ele>147.7</ele>
        <time>2017-01-14T14:25:24Z</time>
      </trkpt>
      <trkpt lat="48.77352" lon="2.10925">
        <ele>147.22</ele>
        <time>2017-01-14T14:25:30Z</time>
      </trkpt>
      <trkpt lat="48.7735" lon="2.10913">
        <ele>147.22</ele>
        <time>2017-01-14T14:25:37Z</time>
      </trkpt>
      <trkpt lat="48.77349" lon="2.10909">
        <ele>147.22</ele>
        <time>2017-01-14T14:25:39Z</time>
      </trkpt>
      <trkpt lat="48.77348" lon="2.10891">
        <ele>147.22</ele>
        <time>2017-01-14T14:25:47Z</time>
      </trkpt>
      <trkpt lat="48.77346" lon="2.10883">
        <ele>147.22</ele>
        <time>2017-01-14T14:25:52Z</time>
      </trkpt>
      <trkpt lat="48.77341" lon="2.10879">
        <ele>147.22</ele>
        <time>2017-01-14T14:25:56Z</time>
      </trkpt>
      <trkpt lat="48.77339" lon="2.10875">
        <ele>146.74</ele>
        <time>2017-01-14T14:25:58Z</time>
      </trkpt>
      <trkpt lat="48.77339" lon="2.10864">
        <ele>146.74</ele>
        <time>2017-01-14T14:26:04Z</time>
      </trkpt>
      <trkpt lat="48.77338" lon="2.10857">
        <ele>146.74</ele>
        <time>2017-01-14T14:26:07Z</time>
      </trkpt>
      <trkpt lat="48.77332" lon="2.1085">
        <ele>146.74</ele>
        <time>2017-01-14T14:26:12Z</time>
      </trkpt>
      <trkpt lat="48.77329" lon="2.10844">
        <ele>147.22</ele>
        <time>2017-01-14T14:26:17Z</time>
      </trkpt>
      <trkpt lat="48.77327" lon="2.10839">
        <ele>146.74</ele>
        <time>2017-01-14T14:26:22Z</time>
      </trkpt>
      <trkpt lat="48.77322" lon="2.10833">
        <ele>146.74</ele>
        <time>2017-01-14T14:26:28Z</time>
      </trkpt>
      <trkpt lat="48.77319" lon="2.10819">
        <ele>146.26</ele>
        <time>2017-01-14T14:26:36Z</time>
      </trkpt>
      <trkpt lat="48.77316" lon="2.10817">
        <ele>146.26</ele>
        <time>2017-01-14T14:26:38Z</time>
      </trkpt>
      <trkpt lat="48.77309" lon="2.10802">
        <ele>146.26</ele>
        <time>2017-01-14T14:26:46Z</time>
      </trkpt>
      <trkpt lat="48.77307" lon="2.108">
        <ele>146.26</ele>
        <time>2017-01-14T14:26:50Z</time>
      </trkpt>
      <trkpt lat="48.773" lon="2.10796">
        <ele>146.26</ele>
        <time>2017-01-14T14:26:55Z</time>
      </trkpt>
      <trkpt lat="48.77295" lon="2.10786">
        <ele>145.78</ele>
        <time>2017-01-14T14:27:03Z</time>
      </trkpt>
      <trkpt lat="48.77292" lon="2.10777">
        <ele>145.78</ele>
        <time>2017-01-14T14:27:09Z</time>
      </trkpt>
      <trkpt lat="48.77291" lon="2.10776">
        <ele>145.78</ele>
        <time>2017-01-14T14:27:10Z</time>
      </trkpt>
      <trkpt lat="48.77285" lon="2.10769">
        <ele>145.78</ele>
        <time>2017-01-14T14:27:16Z</time>
      </trkpt>
      <trkpt lat="48.7728" lon="2.10764">
        <ele>146.26</ele>
        <time>2017-01-14T14:27:23Z</time>
      </trkpt>
      <trkpt lat="48.77279" lon="2.10757">
        <ele>146.26</ele>
        <time>2017-01-14T14:27:30Z</time>
      </trkpt>
      <trkpt lat="48.77277" lon="2.10748">
        <ele>146.74</ele>
        <time>2017-01-14T14:27:38Z</time>
      </trkpt>
      <trkpt lat="48.77275" lon="2.1074">
        <ele>147.22</ele>
        <time>2017-01-14T14:27:44Z</time>
      </trkpt>
      <trkpt lat="48.77273" lon="2.10731">
        <ele>147.7</ele>
        <time>2017-01-14T14:27:51Z</time>
      </trkpt>
      <trkpt lat="48.77273" lon="2.10725">
        <ele>147.7</ele>
        <time>2017-01-14T14:27:57Z</time>
      </trkpt>
      <trkpt lat="48.77274" lon="2.10715">
        <ele>147.7</ele>
        <time>2017-01-14T14:28:03Z</time>
      </trkpt>
      <trkpt lat="48.77272" lon="2.10706">
        <ele>148.18</ele>
        <time>2017-01-14T14:28:10Z</time>
      </trkpt>
      <trkpt lat="48.77272" lon="2.10704">
        <ele>148.18</ele>
        <time>2017-01-14T14:28:11Z</time>
      </trkpt>
      <trkpt lat="48.77272" lon="2.10696">
        <ele>148.18</ele>
        <time>2017-01-14T14:28:16Z</time>
      </trkpt>
      <trkpt lat="48.7727" lon="2.10686">
        <ele>148.18</ele>
        <time>2017-01-14T14:28:21Z</time>
      </trkpt>
      <trkpt lat="48.77266" lon="2.10673">
        <ele>148.66</ele>
        <time>2017-01-14T14:28:29Z</time>
      </trkpt>
      <trkpt lat="48.77265" lon="2.10666">
        <ele>149.14</ele>
        <time>2017-01-14T14:28:33Z</time>
      </trkpt>
      <trkpt lat="48.77262" lon="2.10655">
        <ele>149.14</ele>
        <time>2017-01-14T14:28:41Z</time>
      </trkpt>
      <trkpt lat="48.77262" lon="2.10645">
        <ele>149.62</ele>
        <time>2017-01-14T14:28:48Z</time>
      </trkpt>
      <trkpt lat="48.77259" lon="2.10636">
        <ele>150.1</ele>
        <time>2017-01-14T14:28:53Z</time>
      </trkpt>
      <trkpt lat="48.7726" lon="2.10622">
        <ele>150.58</ele>
        <time>2017-01-14T14:29:01Z</time>
      </trkpt>
      <trkpt lat="48.77259" lon="2.10612">
        <ele>150.58</ele>
        <time>2017-01-14T14:29:07Z</time>
      </trkpt>
      <trkpt lat="48.77259" lon="2.10603">
        <ele>151.06</ele>
        <time>2017-01-14T14:29:13Z</time>
      </trkpt>
      <trkpt lat="48.77256" lon="2.10593">
        <ele>151.06</ele>
        <time>2017-01-14T14:29:20Z</time>
      </trkpt>
      <trkpt lat="48.77251" lon="2.10583">
        <ele>151.54</ele>
        <time>2017-01-14T14:29:27Z</time>
      </trkpt>
      <trkpt lat="48.7725" lon="2.10575">
        <ele>151.54</ele>
        <time>2017-01-14T14:29:33Z</time>
      </trkpt>
      <trkpt lat="48.77246" lon="2.10563">
        <ele>152.51</ele>
        <time>2017-01-14T14:29:41Z</time>
      </trkpt>
      <trkpt lat="48.77242" lon="2.10553">
        <ele>152.03</ele>
        <time>2017-01-14T14:29:48Z</time>
      </trkpt>
      <trkpt lat="48.77239" lon="2.10543">
        <ele>152.51</ele>
        <time>2017-01-14T14:29:55Z</time>
      </trkpt>
      <trkpt lat="48.77238" lon="2.10533">
        <ele>152.51</ele>
        <time>2017-01-14T14:30:02Z</time>
      </trkpt>
      <trkpt lat="48.77233" lon="2.10525">
        <ele>152.99</ele>
        <time>2017-01-14T14:30:07Z</time>
      </trkpt>
      <trkpt lat="48.77229" lon="2.10511">
        <ele>152.99</ele>
        <time>2017-01-14T14:30:15Z</time>
      </trkpt>
      <trkpt lat="48.77228" lon="2.10504">
        <ele>153.47</ele>
        <time>2017-01-14T14:30:20Z</time>
      </trkpt>
      <trkpt lat="48.77226" lon="2.10497">
        <ele>152.99</ele>
        <time>2017-01-14T14:30:26Z</time>
      </trkpt>
      <trkpt lat="48.7722" lon="2.10485">
        <ele>153.95</ele>
        <time>2017-01-14T14:30:34Z</time>
      </trkpt>
      <trkpt lat="48.77218" lon="2.10479">
        <ele>153.47</ele>
        <time>2017-01-14T14:30:39Z</time>
      </trkpt>
      <trkpt lat="48.77218" lon="2.10468">
        <ele>152.51</ele>
        <time>2017-01-14T14:30:46Z</time>
      </trkpt>
      <trkpt lat="48.77217" lon="2.10458">
        <ele>151.06</ele>
        <time>2017-01-14T14:30:52Z</time>
      </trkpt>
      <trkpt lat="48.77219" lon="2.10448">
        <ele>149.62</ele>
        <time>2017-01-14T14:31:00Z</time>
      </trkpt>
      <trkpt lat="48.77223" lon="2.1044">
        <ele>149.14</ele>
        <time>2017-01-14T14:31:06Z</time>
      </trkpt>
      <trkpt lat="48.77226" lon="2.10432">
        <ele>147.22</ele>
        <time>2017-01-14T14:31:12Z</time>
      </trkpt>
      <trkpt lat="48.77228" lon="2.10429">
        <ele>146.74</ele>
        <time>2017-01-14T14:31:14Z</time>
      </trkpt>
      <trkpt lat="48.77239" lon="2.10426">
        <ele>145.3</ele>
        <time>2017-01-14T14:31:21Z</time>
      </trkpt>
      <trkpt lat="48.77248" lon="2.1043">
        <ele>144.34</ele>
        <time>2017-01-14T14:31:28Z</time>
      </trkpt>
      <trkpt lat="48.77255" lon="2.10434">
        <ele>143.37</ele>
        <time>2017-01-14T14:31:34Z</time>
      </trkpt>
      <trkpt lat="48.77257" lon="2.10437">
        <ele>142.89</ele>
        <time>2017-01-14T14:31:36Z</time>
      </trkpt>
      <trkpt lat="48.77262" lon="2.10444">
        <ele>141.93</ele>
        <time>2017-01-14T14:31:43Z</time>
      </trkpt>
      <trkpt lat="48.77268" lon="2.10451">
        <ele>141.45</ele>
        <time>2017-01-14T14:31:49Z</time>
      </trkpt>
      <trkpt lat="48.77275" lon="2.10461">
        <ele>140.49</ele>
        <time>2017-01-14T14:31:57Z</time>
      </trkpt>
      <trkpt lat="48.77283" lon="2.10468">
        <ele>139.53</ele>
        <time>2017-01-14T14:32:04Z</time>
      </trkpt>
      <trkpt lat="48.77286" lon="2.10471">
        <ele>139.05</ele>
        <time>2017-01-14T14:32:07Z</time>
      </trkpt>
      <trkpt lat="48.77293" lon="2.10479">
        <ele>138.09</ele>
        <time>2017-01-14T14:32:16Z</time>
      </trkpt>
      <trkpt lat="48.77301" lon="2.10488">
        <ele>137.13</ele>
        <time>2017-01-14T14:32:23Z</time>
      </trkpt>
      <trkpt lat="48.77304" lon="2.1049">
        <ele>136.64</ele>
        <time>2017-01-14T14:32:26Z</time>
      </trkpt>
      <trkpt lat="48.77312" lon="2.10496">
        <ele>136.16</ele>
        <time>2017-01-14T14:32:32Z</time>
      </trkpt>
      <trkpt lat="48.77318" lon="2.10502">
        <ele>135.2</ele>
        <time>2017-01-14T14:32:39Z</time>
      </trkpt>
      <trkpt lat="48.7732" lon="2.10506">
        <ele>135.2</ele>
        <time>2017-01-14T14:32:42Z</time>
      </trkpt>
      <trkpt lat="48.77327" lon="2.10517">
        <ele>134.24</ele>
        <time>2017-01-14T14:32:49Z</time>
      </trkpt>
      <trkpt lat="48.77335" lon="2.10524">
        <ele>133.28</ele>
        <time>2017-01-14T14:32:56Z</time>
      </trkpt>
      <trkpt lat="48.77342" lon="2.1053">
        <ele>132.8</ele>
        <time>2017-01-14T14:33:03Z</time>
      </trkpt>
      <trkpt lat="48.77345" lon="2.10534">
        <ele>132.32</ele>
        <time>2017-01-14T14:33:06Z</time>
      </trkpt>
      <trkpt lat="48.77352" lon="2.10544">
        <ele>131.36</ele>
        <time>2017-01-14T14:33:14Z</time>
      </trkpt>
      <trkpt lat="48.77358" lon="2.10549">
        <ele>130.88</ele>
        <time>2017-01-14T14:33:19Z</time>
      </trkpt>
      <trkpt lat="48.77364" lon="2.10559">
        <ele>130.4</ele>
        <time>2017-01-14T14:33:27Z</time>
      </trkpt>
      <trkpt lat="48.77367" lon="2.10564">
        <ele>129.92</ele>
        <time>2017-01-14T14:33:30Z</time>
      </trkpt>
      <trkpt lat="48.77368" lon="2.10567">
        <ele>129.92</ele>
        <time>2017-01-14T14:33:32Z</time>
      </trkpt>
      <trkpt lat="48.7737" lon="2.10568">
        <ele>129.43</ele>
        <time>2017-01-14T14:33:34Z</time>
      </trkpt>
      <trkpt lat="48.7738" lon="2.10575">
        <ele>128.47</ele>
        <time>2017-01-14T14:33:41Z</time>
      </trkpt>
      <trkpt lat="48.77386" lon="2.10581">
        <ele>127.99</ele>
        <time>2017-01-14T14:33:48Z</time>
      </trkpt>
      <trkpt lat="48.77388" lon="2.10587">
        <ele>127.03</ele>
        <time>2017-01-14T14:33:54Z</time>
      </trkpt>
      <trkpt lat="48.77396" lon="2.10593">
        <ele>126.55</ele>
        <time>2017-01-14T14:34:00Z</time>
      </trkpt>
      <trkpt lat="48.77402" lon="2.10602">
        <ele>126.07</ele>
        <time>2017-01-14T14:34:06Z</time>
      </trkpt>
      <trkpt lat="48.77405" lon="2.10602">
        <ele>126.07</ele>
        <time>2017-01-14T14:34:10Z</time>
      </trkpt>
      <trkpt lat="48.77408" lon="2.10595">
        <ele>126.07</ele>
        <time>2017-01-14T14:34:16Z</time>
      </trkpt>
      <trkpt lat="48.77411" lon="2.10591">
        <ele>125.59</ele>
        <time>2017-01-14T14:34:19Z</time>
      </trkpt>
      <trkpt lat="48.77413" lon="2.10583">
        <ele>126.07</ele>
        <time>2017-01-14T14:34:26Z</time>
      </trkpt>
      <trkpt lat="48.77415" lon="2.10572">
        <ele>126.07</ele>
        <time>2017-01-14T14:34:32Z</time>
      </trkpt>
      <trkpt lat="48.7742" lon="2.10559">
        <ele>126.07</ele>
        <time>2017-01-14T14:34:40Z</time>
      </trkpt>
      <trkpt lat="48.77423" lon="2.10547">
        <ele>126.07</ele>
        <time>2017-01-14T14:34:47Z</time>
      </trkpt>
      <trkpt lat="48.77427" lon="2.10535">
        <ele>126.55</ele>
        <time>2017-01-14T14:34:54Z</time>
      </trkpt>
      <trkpt lat="48.77435" lon="2.10521">
        <ele>126.55</ele>
        <time>2017-01-14T14:35:02Z</time>
      </trkpt>
      <trkpt lat="48.77438" lon="2.10512">
        <ele>127.03</ele>
        <time>2017-01-14T14:35:07Z</time>
      </trkpt>
      <trkpt lat="48.77442" lon="2.10504">
        <ele>127.03</ele>
        <time>2017-01-14T14:35:12Z</time>
      </trkpt>
      <trkpt lat="48.77442" lon="2.10496">
        <ele>127.03</ele>
        <time>2017-01-14T14:35:16Z</time>
      </trkpt>
      <trkpt lat="48.77445" lon="2.1049">
        <ele>127.03</ele>
        <time>2017-01-14T14:35:20Z</time>
      </trkpt>
      <trkpt lat="48.77446" lon="2.10485">
        <ele>127.03</ele>
        <time>2017-01-14T14:35:22Z</time>
      </trkpt>
      <trkpt lat="48.77447" lon="2.10472">
        <ele>127.51</ele>
        <time>2017-01-14T14:35:29Z</time>
      </trkpt>
      <trkpt lat="48.77448" lon="2.10467">
        <ele>127.51</ele>
        <time>2017-01-14T14:35:31Z</time>
      </trkpt>
      <trkpt lat="48.77454" lon="2.10456">
        <ele>127.51</ele>
        <time>2017-01-14T14:35:39Z</time>
      </trkpt>
      <trkpt lat="48.77458" lon="2.10447">
        <ele>127.99</ele>
        <time>2017-01-14T14:35:45Z</time>
      </trkpt>
      <trkpt lat="48.77459" lon="2.10444">
        <ele>127.99</ele>
        <time>2017-01-14T14:35:46Z</time>
      </trkpt>
      <trkpt lat="48.7746" lon="2.10442">
        <ele>127.99</ele>
        <time>2017-01-14T14:35:48Z</time>
      </trkpt>
      <trkpt lat="48.7746" lon="2.10437">
        <ele>127.99</ele>
        <time>2017-01-14T14:35:51Z</time>
      </trkpt>
      <trkpt lat="48.77462" lon="2.10428">
        <ele>127.99</ele>
        <time>2017-01-14T14:35:56Z</time>
      </trkpt>
      <trkpt lat="48.77465" lon="2.10419">
        <ele>128.47</ele>
        <time>2017-01-14T14:36:02Z</time>
      </trkpt>
      <trkpt lat="48.77465" lon="2.10418">
        <ele>128.47</ele>
        <time>2017-01-14T14:36:03Z</time>
      </trkpt>
      <trkpt lat="48.77466" lon="2.10411">
        <ele>128.47</ele>
        <time>2017-01-14T14:36:06Z</time>
      </trkpt>
      <trkpt lat="48.7747" lon="2.10402">
        <ele>128.95</ele>
        <time>2017-01-14T14:36:11Z</time>
      </trkpt>
      <trkpt lat="48.77473" lon="2.10394">
        <ele>129.43</ele>
        <time>2017-01-14T14:36:15Z</time>
      </trkpt>
      <trkpt lat="48.77477" lon="2.10381">
        <ele>129.92</ele>
        <time>2017-01-14T14:36:22Z</time>
      </trkpt>
      <trkpt lat="48.77479" lon="2.10376">
        <ele>129.92</ele>
        <time>2017-01-14T14:36:25Z</time>
      </trkpt>
      <trkpt lat="48.77483" lon="2.10369">
        <ele>129.92</ele>
        <time>2017-01-14T14:36:29Z</time>
      </trkpt>
      <trkpt lat="48.77485" lon="2.10363">
        <ele>129.92</ele>
        <time>2017-01-14T14:36:33Z</time>
      </trkpt>
      <trkpt lat="48.77487" lon="2.10349">
        <ele>130.4</ele>
        <time>2017-01-14T14:36:41Z</time>
      </trkpt>
      <trkpt lat="48.77488" lon="2.10348">
        <ele>130.4</ele>
        <time>2017-01-14T14:36:42Z</time>
      </trkpt>
      <trkpt lat="48.77491" lon="2.10335">
        <ele>130.88</ele>
        <time>2017-01-14T14:36:50Z</time>
      </trkpt>
      <trkpt lat="48.77491" lon="2.10334">
        <ele>130.88</ele>
        <time>2017-01-14T14:36:51Z</time>
      </trkpt>
      <trkpt lat="48.77495" lon="2.10322">
        <ele>130.88</ele>
        <time>2017-01-14T14:36:58Z</time>
      </trkpt>
      <trkpt lat="48.77497" lon="2.10315">
        <ele>131.36</ele>
        <time>2017-01-14T14:37:01Z</time>
      </trkpt>
      <trkpt lat="48.775" lon="2.10305">
        <ele>131.36</ele>
        <time>2017-01-14T14:37:08Z</time>
      </trkpt>
      <trkpt lat="48.775" lon="2.10304">
        <ele>131.84</ele>
        <time>2017-01-14T14:37:09Z</time>
      </trkpt>
      <trkpt lat="48.77502" lon="2.10294">
        <ele>131.84</ele>
        <time>2017-01-14T14:37:15Z</time>
      </trkpt>
      <trkpt lat="48.77506" lon="2.10283">
        <ele>131.84</ele>
        <time>2017-01-14T14:37:21Z</time>
      </trkpt>
      <trkpt lat="48.77509" lon="2.10278">
        <ele>131.84</ele>
        <time>2017-01-14T14:37:24Z</time>
      </trkpt>
      <trkpt lat="48.7751" lon="2.10277">
        <ele>131.84</ele>
        <time>2017-01-14T14:37:25Z</time>
      </trkpt>
      <trkpt lat="48.77511" lon="2.10273">
        <ele>131.84</ele>
        <time>2017-01-14T14:37:27Z</time>
      </trkpt>
      <trkpt lat="48.77513" lon="2.10264">
        <ele>131.36</ele>
        <time>2017-01-14T14:37:33Z</time>
      </trkpt>
      <trkpt lat="48.77513" lon="2.1026">
        <ele>131.36</ele>
        <time>2017-01-14T14:37:35Z</time>
      </trkpt>
      <trkpt lat="48.77514" lon="2.10247">
        <ele>131.36</ele>
        <time>2017-01-14T14:37:42Z</time>
      </trkpt>
      <trkpt lat="48.77515" lon="2.10238">
        <ele>131.36</ele>
        <time>2017-01-14T14:37:47Z</time>
      </trkpt>
      <trkpt lat="48.77514" lon="2.10231">
        <ele>131.36</ele>
        <time>2017-01-14T14:37:50Z</time>
      </trkpt>
      <trkpt lat="48.77515" lon="2.1022">
        <ele>131.36</ele>
        <time>2017-01-14T14:37:56Z</time>
      </trkpt>
      <trkpt lat="48.77514" lon="2.10215">
        <ele>131.84</ele>
        <time>2017-01-14T14:37:59Z</time>
      </trkpt>
      <trkpt lat="48.77515" lon="2.10211">
        <ele>131.84</ele>
        <time>2017-01-14T14:38:01Z</time>
      </trkpt>
      <trkpt lat="48.77515" lon="2.10206">
        <ele>131.84</ele>
        <time>2017-01-14T14:38:03Z</time>
      </trkpt>
      <trkpt lat="48.77513" lon="2.10195">
        <ele>132.32</ele>
        <time>2017-01-14T14:38:10Z</time>
      </trkpt>
      <trkpt lat="48.7751" lon="2.10187">
        <ele>132.32</ele>
        <time>2017-01-14T14:38:15Z</time>
      </trkpt>
      <trkpt lat="48.77508" lon="2.10184">
        <ele>132.8</ele>
        <time>2017-01-14T14:38:17Z</time>
      </trkpt>
      <trkpt lat="48.77507" lon="2.10179">
        <ele>132.8</ele>
        <time>2017-01-14T14:38:20Z</time>
      </trkpt>
      <trkpt lat="48.77508" lon="2.10169">
        <ele>132.8</ele>
        <time>2017-01-14T14:38:26Z</time>
      </trkpt>
      <trkpt lat="48.77507" lon="2.10161">
        <ele>133.28</ele>
        <time>2017-01-14T14:38:32Z</time>
      </trkpt>
      <trkpt lat="48.77506" lon="2.10155">
        <ele>133.28</ele>
        <time>2017-01-14T14:38:34Z</time>
      </trkpt>
      <trkpt lat="48.77507" lon="2.10143">
        <ele>133.76</ele>
        <time>2017-01-14T14:38:40Z</time>
      </trkpt>
      <trkpt lat="48.77507" lon="2.10133">
        <ele>133.76</ele>
        <time>2017-01-14T14:38:46Z</time>
      </trkpt>
      <trkpt lat="48.77507" lon="2.10126">
        <ele>133.76</ele>
        <time>2017-01-14T14:38:50Z</time>
      </trkpt>
      <trkpt lat="48.77508" lon="2.10113">
        <ele>133.76</ele>
        <time>2017-01-14T14:38:55Z</time>
      </trkpt>
      <trkpt lat="48.77515" lon="2.10099">
        <ele>133.76</ele>
        <time>2017-01-14T14:39:02Z</time>
      </trkpt>
      <trkpt lat="48.77519" lon="2.10089">
        <ele>133.76</ele>
        <time>2017-01-14T14:39:09Z</time>
      </trkpt>
      <trkpt lat="48.77524" lon="2.10077">
        <ele>133.76</ele>
        <time>2017-01-14T14:39:15Z</time>
      </trkpt>
      <trkpt lat="48.77526" lon="2.10067">
        <ele>133.76</ele>
        <time>2017-01-14T14:39:21Z</time>
      </trkpt>
      <trkpt lat="48.77528" lon="2.10057">
        <ele>133.76</ele>
        <time>2017-01-14T14:39:26Z</time>
      </trkpt>
      <trkpt lat="48.77531" lon="2.10043">
        <ele>133.76</ele>
        <time>2017-01-14T14:39:33Z</time>
      </trkpt>
      <trkpt lat="48.77532" lon="2.10037">
        <ele>133.76</ele>
        <time>2017-01-14T14:39:36Z</time>
      </trkpt>
      <trkpt lat="48.77535" lon="2.10027">
        <ele>133.76</ele>
        <time>2017-01-14T14:39:42Z</time>
      </trkpt>
      <trkpt lat="48.77539" lon="2.10015">
        <ele>134.24</ele>
        <time>2017-01-14T14:39:50Z</time>
      </trkpt>
      <trkpt lat="48.77542" lon="2.10007">
        <ele>133.76</ele>
        <time>2017-01-14T14:39:56Z</time>
      </trkpt>
      <trkpt lat="48.77546" lon="2.09999">
        <ele>134.24</ele>
        <time>2017-01-14T14:40:02Z</time>
      </trkpt>
      <trkpt lat="48.77548" lon="2.09996">
        <ele>134.72</ele>
        <time>2017-01-14T14:40:04Z</time>
      </trkpt>
      <trkpt lat="48.77558" lon="2.09992">
        <ele>134.24</ele>
        <time>2017-01-14T14:40:12Z</time>
      </trkpt>
      <trkpt lat="48.77558" lon="2.0999">
        <ele>134.24</ele>
        <time>2017-01-14T14:40:21Z</time>
      </trkpt>
      <trkpt lat="48.77559" lon="2.0999">
        <ele>134.72</ele>
        <time>2017-01-14T14:40:31Z</time>
      </trkpt>
      <trkpt lat="48.7756" lon="2.0999">
        <ele>134.72</ele>
        <time>2017-01-14T14:40:46Z</time>
      </trkpt>
      <trkpt lat="48.7756" lon="2.09989">
        <ele>134.72</ele>
        <time>2017-01-14T14:40:55Z</time>
      </trkpt>
      <trkpt lat="48.77559" lon="2.09988">
        <ele>134.72</ele>
        <time>2017-01-14T14:41:08Z</time>
      </trkpt>
      <trkpt lat="48.77559" lon="2.09987">
        <ele>134.72</ele>
        <time>2017-01-14T14:41:19Z</time>
      </trkpt>
      <trkpt lat="48.77559" lon="2.09988">
        <ele>134.72</ele>
        <time>2017-01-14T14:41:29Z</time>
      </trkpt>
      <trkpt lat="48.77559" lon="2.09988">
        <ele>135.2</ele>
        <time>2017-01-14T14:41:41Z</time>
      </trkpt>
      <trkpt lat="48.7756" lon="2.09988">
        <ele>135.2</ele>
        <time>2017-01-14T14:41:56Z</time>
      </trkpt>
      <trkpt lat="48.77561" lon="2.09988">
        <ele>135.2</ele>
        <time>2017-01-14T14:42:09Z</time>
      </trkpt>
      <trkpt lat="48.7756" lon="2.09987">
        <ele>135.2</ele>
        <time>2017-01-14T14:42:22Z</time>
      </trkpt>
      <trkpt lat="48.77561" lon="2.09986">
        <ele>135.2</ele>
        <time>2017-01-14T14:42:35Z</time>
      </trkpt>
      <trkpt lat="48.77561" lon="2.09985">
        <ele>135.2</ele>
        <time>2017-01-14T14:42:44Z</time>
      </trkpt>
      <trkpt lat="48.77563" lon="2.09984">
        <ele>135.68</ele>
        <time>2017-01-14T14:42:55Z</time>
      </trkpt>
      <trkpt lat="48.77561" lon="2.09983">
        <ele>135.68</ele>
        <time>2017-01-14T14:43:11Z</time>
      </trkpt>
      <trkpt lat="48.77561" lon="2.09982">
        <ele>135.68</ele>
        <time>2017-01-14T14:43:23Z</time>
      </trkpt>
      <trkpt lat="48.77561" lon="2.09981">
        <ele>135.68</ele>
        <time>2017-01-14T14:43:34Z</time>
      </trkpt>
      <trkpt lat="48.77562" lon="2.09981">
        <ele>135.68</ele>
        <time>2017-01-14T14:43:46Z</time>
      </trkpt>
      <trkpt lat="48.77562" lon="2.0998">
        <ele>135.68</ele>
        <time>2017-01-14T14:44:00Z</time>
      </trkpt>
      <trkpt lat="48.77564" lon="2.09981">
        <ele>135.2</ele>
        <time>2017-01-14T14:44:09Z</time>
      </trkpt>
      <trkpt lat="48.7757" lon="2.09987">
        <ele>134.72</ele>
        <time>2017-01-14T14:44:16Z</time>
      </trkpt>
      <trkpt lat="48.77576" lon="2.09995">
        <ele>134.24</ele>
        <time>2017-01-14T14:44:24Z</time>
      </trkpt>
      <trkpt lat="48.77578" lon="2.09996">
        <ele>134.24</ele>
        <time>2017-01-14T14:44:26Z</time>
      </trkpt>
      <trkpt lat="48.77585" lon="2.10002">
        <ele>134.24</ele>
        <time>2017-01-14T14:44:33Z</time>
      </trkpt>
      <trkpt lat="48.77589" lon="2.10009">
        <ele>133.76</ele>
        <time>2017-01-14T14:44:39Z</time>
      </trkpt>
      <trkpt lat="48.77592" lon="2.10013">
        <ele>133.76</ele>
        <time>2017-01-14T14:44:45Z</time>
      </trkpt>
      <trkpt lat="48.77599" lon="2.10024">
        <ele>133.76</ele>
        <time>2017-01-14T14:44:52Z</time>
      </trkpt>
      <trkpt lat="48.77605" lon="2.10036">
        <ele>133.28</ele>
        <time>2017-01-14T14:44:59Z</time>
      </trkpt>
      <trkpt lat="48.77613" lon="2.10044">
        <ele>133.28</ele>
        <time>2017-01-14T14:45:06Z</time>
      </trkpt>
      <trkpt lat="48.77621" lon="2.10053">
        <ele>133.28</ele>
        <time>2017-01-14T14:45:13Z</time>
      </trkpt>
      <trkpt lat="48.77624" lon="2.10054">
        <ele>133.28</ele>
        <time>2017-01-14T14:45:15Z</time>
      </trkpt>
      <trkpt lat="48.77628" lon="2.10053">
        <ele>133.28</ele>
        <time>2017-01-14T14:45:21Z</time>
      </trkpt>
      <trkpt lat="48.77636" lon="2.10047">
        <ele>133.28</ele>
        <time>2017-01-14T14:45:29Z</time>
      </trkpt>
      <trkpt lat="48.77641" lon="2.10039">
        <ele>132.8</ele>
        <time>2017-01-14T14:45:35Z</time>
      </trkpt>
      <trkpt lat="48.77647" lon="2.1003">
        <ele>132.32</ele>
        <time>2017-01-14T14:45:42Z</time>
      </trkpt>
      <trkpt lat="48.77652" lon="2.10027">
        <ele>132.32</ele>
        <time>2017-01-14T14:45:46Z</time>
      </trkpt>
      <trkpt lat="48.77662" lon="2.10019">
        <ele>132.32</ele>
        <time>2017-01-14T14:45:55Z</time>
      </trkpt>
      <trkpt lat="48.77669" lon="2.1002">
        <ele>132.8</ele>
        <time>2017-01-14T14:46:03Z</time>
      </trkpt>
      <trkpt lat="48.77671" lon="2.1002">
        <ele>132.8</ele>
        <time>2017-01-14T14:46:05Z</time>
      </trkpt>
      <trkpt lat="48.77676" lon="2.10018">
        <ele>132.8</ele>
        <time>2017-01-14T14:46:10Z</time>
      </trkpt>
      <trkpt lat="48.77682" lon="2.10015">
        <ele>132.8</ele>
        <time>2017-01-14T14:46:14Z</time>
      </trkpt>
      <trkpt lat="48.77685" lon="2.10012">
        <ele>132.8</ele>
        <time>2017-01-14T14:46:17Z</time>
      </trkpt>
      <trkpt lat="48.77689" lon="2.10011">
        <ele>132.8</ele>
        <time>2017-01-14T14:46:20Z</time>
      </trkpt>
      <trkpt lat="48.777" lon="2.10013">
        <ele>132.8</ele>
        <time>2017-01-14T14:46:28Z</time>
      </trkpt>
      <trkpt lat="48.77706" lon="2.10011">
        <ele>133.28</ele>
        <time>2017-01-14T14:46:33Z</time>
      </trkpt>
      <trkpt lat="48.77709" lon="2.10009">
        <ele>133.28</ele>
        <time>2017-01-14T14:46:35Z</time>
      </trkpt>
      <trkpt lat="48.77717" lon="2.10014">
        <ele>133.76</ele>
        <time>2017-01-14T14:46:42Z</time>
      </trkpt>
      <trkpt lat="48.77724" lon="2.10014">
        <ele>133.76</ele>
        <time>2017-01-14T14:46:48Z</time>
      </trkpt>
      <trkpt lat="48.77731" lon="2.10013">
        <ele>133.76</ele>
        <time>2017-01-14T14:46:55Z</time>
      </trkpt>
      <trkpt lat="48.77736" lon="2.10014">
        <ele>133.76</ele>
        <time>2017-01-14T14:47:00Z</time>
      </trkpt>
      <trkpt lat="48.77747" lon="2.10017">
        <ele>134.72</ele>
        <time>2017-01-14T14:47:08Z</time>
      </trkpt>
      <trkpt lat="48.77749" lon="2.10016">
        <ele>134.72</ele>
        <time>2017-01-14T14:47:09Z</time>
      </trkpt>
      <trkpt lat="48.77753" lon="2.10017">
        <ele>134.24</ele>
        <time>2017-01-14T14:47:13Z</time>
      </trkpt>
      <trkpt lat="48.7776" lon="2.10021">
        <ele>134.72</ele>
        <time>2017-01-14T14:47:19Z</time>
      </trkpt>
      <trkpt lat="48.77768" lon="2.10023">
        <ele>134.24</ele>
        <time>2017-01-14T14:47:27Z</time>
      </trkpt>
      <trkpt lat="48.77775" lon="2.10026">
        <ele>134.72</ele>
        <time>2017-01-14T14:47:33Z</time>
      </trkpt>
      <trkpt lat="48.77783" lon="2.10026">
        <ele>134.72</ele>
        <time>2017-01-14T14:47:41Z</time>
      </trkpt>
      <trkpt lat="48.77788" lon="2.10026">
        <ele>135.2</ele>
        <time>2017-01-14T14:47:46Z</time>
      </trkpt>
      <trkpt lat="48.7779" lon="2.10024">
        <ele>135.2</ele>
        <time>2017-01-14T14:47:52Z</time>
      </trkpt>
      <trkpt lat="48.77795" lon="2.10015">
        <ele>135.68</ele>
        <time>2017-01-14T14:47:59Z</time>
      </trkpt>
      <trkpt lat="48.778" lon="2.10006">
        <ele>136.16</ele>
        <time>2017-01-14T14:48:06Z</time>
      </trkpt>
      <trkpt lat="48.77799" lon="2.1">
        <ele>136.64</ele>
        <time>2017-01-14T14:48:12Z</time>
      </trkpt>
      <trkpt lat="48.778" lon="2.0999">
        <ele>136.64</ele>
        <time>2017-01-14T14:48:19Z</time>
      </trkpt>
      <trkpt lat="48.77801" lon="2.09979">
        <ele>136.64</ele>
        <time>2017-01-14T14:48:25Z</time>
      </trkpt>
      <trkpt lat="48.77804" lon="2.0997">
        <ele>136.64</ele>
        <time>2017-01-14T14:48:31Z</time>
      </trkpt>
      <trkpt lat="48.77806" lon="2.09961">
        <ele>137.13</ele>
        <time>2017-01-14T14:48:36Z</time>
      </trkpt>
      <trkpt lat="48.77806" lon="2.09953">
        <ele>137.61</ele>
        <time>2017-01-14T14:48:41Z</time>
      </trkpt>
      <trkpt lat="48.77808" lon="2.09942">
        <ele>137.13</ele>
        <time>2017-01-14T14:48:46Z</time>
      </trkpt>
      <trkpt lat="48.77815" lon="2.09929">
        <ele>136.64</ele>
        <time>2017-01-14T14:48:52Z</time>
      </trkpt>
      <trkpt lat="48.7782" lon="2.09918">
        <ele>136.16</ele>
        <time>2017-01-14T14:48:58Z</time>
      </trkpt>
      <trkpt lat="48.77821" lon="2.09916">
        <ele>136.16</ele>
        <time>2017-01-14T14:48:59Z</time>
      </trkpt>
      <trkpt lat="48.77825" lon="2.0991">
        <ele>136.16</ele>
        <time>2017-01-14T14:49:04Z</time>
      </trkpt>
      <trkpt lat="48.77828" lon="2.09906">
        <ele>136.16</ele>
        <time>2017-01-14T14:49:06Z</time>
      </trkpt>
      <trkpt lat="48.77836" lon="2.09894">
        <ele>136.16</ele>
        <time>2017-01-14T14:49:15Z</time>
      </trkpt>
      <trkpt lat="48.77844" lon="2.09886">
        <ele>136.64</ele>
        <time>2017-01-14T14:49:21Z</time>
      </trkpt>
      <trkpt lat="48.77852" lon="2.09874">
        <ele>137.13</ele>
        <time>2017-01-14T14:49:28Z</time>
      </trkpt>
      <trkpt lat="48.77854" lon="2.09872">
        <ele>137.13</ele>
        <time>2017-01-14T14:49:30Z</time>
      </trkpt>
      <trkpt lat="48.77865" lon="2.0987">
        <ele>137.13</ele>
        <time>2017-01-14T14:49:37Z</time>
      </trkpt>
      <trkpt lat="48.77873" lon="2.0987">
        <ele>137.61</ele>
        <time>2017-01-14T14:49:43Z</time>
      </trkpt>
      <trkpt lat="48.77878" lon="2.09871">
        <ele>137.61</ele>
        <time>2017-01-14T14:49:49Z</time>
      </trkpt>
      <trkpt lat="48.77888" lon="2.09873">
        <ele>138.09</ele>
        <time>2017-01-14T14:49:56Z</time>
      </trkpt>
      <trkpt lat="48.77891" lon="2.09875">
        <ele>138.09</ele>
        <time>2017-01-14T14:49:58Z</time>
      </trkpt>
      <trkpt lat="48.77899" lon="2.09878">
        <ele>138.57</ele>
        <time>2017-01-14T14:50:05Z</time>
      </trkpt>
      <trkpt lat="48.779" lon="2.09878">
        <ele>138.57</ele>
        <time>2017-01-14T14:50:06Z</time>
      </trkpt>
      <trkpt lat="48.77903" lon="2.09879">
        <ele>138.57</ele>
        <time>2017-01-14T14:50:08Z</time>
      </trkpt>
      <trkpt lat="48.77907" lon="2.09882">
        <ele>138.57</ele>
        <time>2017-01-14T14:50:11Z</time>
      </trkpt>
      <trkpt lat="48.77915" lon="2.09886">
        <ele>139.05</ele>
        <time>2017-01-14T14:50:19Z</time>
      </trkpt>
      <trkpt lat="48.77923" lon="2.0989">
        <ele>139.05</ele>
        <time>2017-01-14T14:50:26Z</time>
      </trkpt>
      <trkpt lat="48.7793" lon="2.09894">
        <ele>139.05</ele>
        <time>2017-01-14T14:50:33Z</time>
      </trkpt>
      <trkpt lat="48.77936" lon="2.099">
        <ele>139.53</ele>
        <time>2017-01-14T14:50:39Z</time>
      </trkpt>
      <trkpt lat="48.77941" lon="2.09903">
        <ele>139.53</ele>
        <time>2017-01-14T14:50:43Z</time>
      </trkpt>
      <trkpt lat="48.77951" lon="2.09906">
        <ele>139.53</ele>
        <time>2017-01-14T14:50:51Z</time>
      </trkpt>
      <trkpt lat="48.77957" lon="2.09909">
        <ele>140.01</ele>
        <time>2017-01-14T14:50:58Z</time>
      </trkpt>
      <trkpt lat="48.77958" lon="2.09908">
        <ele>140.01</ele>
        <time>2017-01-14T14:51:00Z</time>
      </trkpt>
      <trkpt lat="48.77966" lon="2.09909">
        <ele>140.01</ele>
        <time>2017-01-14T14:51:07Z</time>
      </trkpt>
      <trkpt lat="48.77971" lon="2.09908">
        <ele>140.49</ele>
        <time>2017-01-14T14:51:13Z</time>
      </trkpt>
      <trkpt lat="48.77975" lon="2.09909">
        <ele>140.97</ele>
        <time>2017-01-14T14:51:17Z</time>
      </trkpt>
      <trkpt lat="48.77977" lon="2.09909">
        <ele>140.49</ele>
        <time>2017-01-14T14:51:18Z</time>
      </trkpt>
      <trkpt lat="48.77982" lon="2.09911">
        <ele>140.97</ele>
        <time>2017-01-14T14:51:21Z</time>
      </trkpt>
      <trkpt lat="48.77984" lon="2.09909">
        <ele>140.97</ele>
        <time>2017-01-14T14:51:23Z</time>
      </trkpt>
      <trkpt lat="48.77994" lon="2.09908">
        <ele>140.97</ele>
        <time>2017-01-14T14:51:31Z</time>
      </trkpt>
      <trkpt lat="48.78001" lon="2.09904">
        <ele>141.93</ele>
        <time>2017-01-14T14:51:39Z</time>
      </trkpt>
      <trkpt lat="48.7801" lon="2.09903">
        <ele>142.89</ele>
        <time>2017-01-14T14:51:47Z</time>
      </trkpt>
      <trkpt lat="48.78016" lon="2.099">
        <ele>143.37</ele>
        <time>2017-01-14T14:51:54Z</time>
      </trkpt>
      <trkpt lat="48.78021" lon="2.09898">
        <ele>143.37</ele>
        <time>2017-01-14T14:51:58Z</time>
      </trkpt>
      <trkpt lat="48.78028" lon="2.09892">
        <ele>144.34</ele>
        <time>2017-01-14T14:52:06Z</time>
      </trkpt>
      <trkpt lat="48.78029" lon="2.09891">
        <ele>144.34</ele>
        <time>2017-01-14T14:52:07Z</time>
      </trkpt>
      <trkpt lat="48.78035" lon="2.09885">
        <ele>145.78</ele>
        <time>2017-01-14T14:52:14Z</time>
      </trkpt>
      <trkpt lat="48.78042" lon="2.09875">
        <ele>146.26</ele>
        <time>2017-01-14T14:52:21Z</time>
      </trkpt>
      <trkpt lat="48.78045" lon="2.09869">
        <ele>146.74</ele>
        <time>2017-01-14T14:52:28Z</time>
      </trkpt>
      <trkpt lat="48.78047" lon="2.09861">
        <ele>146.74</ele>
        <time>2017-01-14T14:52:35Z</time>
      </trkpt>
      <trkpt lat="48.78051" lon="2.09853">
        <ele>146.74</ele>
        <time>2017-01-14T14:52:40Z</time>
      </trkpt>
      <trkpt lat="48.78059" lon="2.09837">
        <ele>146.74</ele>
        <time>2017-01-14T14:52:45Z</time>
      </trkpt>
      <trkpt lat="48.78066" lon="2.09823">
        <ele>147.22</ele>
        <time>2017-01-14T14:52:51Z</time>
      </trkpt>
      <trkpt lat="48.78066" lon="2.09808">
        <ele>147.22</ele>
        <time>2017-01-14T14:52:59Z</time>
      </trkpt>
      <trkpt lat="48.78066" lon="2.09806">
        <ele>146.74</ele>
        <time>2017-01-14T14:53:00Z</time>
      </trkpt>
      <trkpt lat="48.78067" lon="2.09798">
        <ele>146.74</ele>
        <time>2017-01-14T14:53:04Z</time>
      </trkpt>
      <trkpt lat="48.78067" lon="2.09795">
        <ele>146.74</ele>
        <time>2017-01-14T14:53:06Z</time>
      </trkpt>
      <trkpt lat="48.78068" lon="2.09788">
        <ele>146.74</ele>
        <time>2017-01-14T14:53:12Z</time>
      </trkpt>
      <trkpt lat="48.78069" lon="2.09775">
        <ele>146.74</ele>
        <time>2017-01-14T14:53:19Z</time>
      </trkpt>
      <trkpt lat="48.78071" lon="2.09765">
        <ele>147.22</ele>
        <time>2017-01-14T14:53:23Z</time>
      </trkpt>
      <trkpt lat="48.78067" lon="2.09752">
        <ele>146.74</ele>
        <time>2017-01-14T14:53:30Z</time>
      </trkpt>
      <trkpt lat="48.78065" lon="2.09742">
        <ele>147.22</ele>
        <time>2017-01-14T14:53:37Z</time>
      </trkpt>
      <trkpt lat="48.78063" lon="2.09735">
        <ele>147.7</ele>
        <time>2017-01-14T14:53:42Z</time>
      </trkpt>
      <trkpt lat="48.78062" lon="2.0973">
        <ele>147.22</ele>
        <time>2017-01-14T14:53:46Z</time>
      </trkpt>
      <trkpt lat="48.78062" lon="2.09725">
        <ele>147.22</ele>
        <time>2017-01-14T14:53:50Z</time>
      </trkpt>
      <trkpt lat="48.78059" lon="2.09716">
        <ele>147.22</ele>
        <time>2017-01-14T14:53:58Z</time>
      </trkpt>
      <trkpt lat="48.78059" lon="2.09707">
        <ele>146.74</ele>
        <time>2017-01-14T14:54:03Z</time>
      </trkpt>
      <trkpt lat="48.78055" lon="2.09697">
        <ele>146.26</ele>
        <time>2017-01-14T14:54:10Z</time>
      </trkpt>
      <trkpt lat="48.78048" lon="2.0968">
        <ele>145.78</ele>
        <time>2017-01-14T14:54:18Z</time>
      </trkpt>
      <trkpt lat="48.78045" lon="2.09669">
        <ele>145.78</ele>
        <time>2017-01-14T14:54:24Z</time>
      </trkpt>
      <trkpt lat="48.78043" lon="2.09661">
        <ele>146.26</ele>
        <time>2017-01-14T14:54:29Z</time>
      </trkpt>
      <trkpt lat="48.78037" lon="2.09645">
        <ele>146.74</ele>
        <time>2017-01-14T14:54:37Z</time>
      </trkpt>
      <trkpt lat="48.78035" lon="2.09651">
        <ele>147.22</ele>
        <time>2017-01-14T14:54:45Z</time>
      </trkpt>
      <trkpt lat="48.78035" lon="2.09648">
        <ele>147.7</ele>
        <time>2017-01-14T14:54:55Z</time>
      </trkpt>
      <trkpt lat="48.78034" lon="2.096">
        <ele>148.66</ele>
        <time>2017-01-14T14:55:02Z</time>
      </trkpt>
      <trkpt lat="48.78032" lon="2.09586">
        <ele>150.1</ele>
        <time>2017-01-14T14:55:09Z</time>
      </trkpt>
      <trkpt lat="48.78031" lon="2.09578">
        <ele>151.06</ele>
        <time>2017-01-14T14:55:15Z</time>
      </trkpt>
      <trkpt lat="48.78031" lon="2.09572">
        <ele>151.06</ele>
        <time>2017-01-14T14:55:22Z</time>
      </trkpt>
      <trkpt lat="48.78031" lon="2.09569">
        <ele>151.06</ele>
        <time>2017-01-14T14:55:24Z</time>
      </trkpt>
      <trkpt lat="48.78036" lon="2.09557">
        <ele>151.06</ele>
        <time>2017-01-14T14:55:32Z</time>
      </trkpt>
      <trkpt lat="48.78043" lon="2.09547">
        <ele>151.06</ele>
        <time>2017-01-14T14:55:40Z</time>
      </trkpt>
      <trkpt lat="48.78045" lon="2.09543">
        <ele>151.06</ele>
        <time>2017-01-14T14:55:43Z</time>
      </trkpt>
      <trkpt lat="48.78044" lon="2.09533">
        <ele>151.06</ele>
        <time>2017-01-14T14:55:50Z</time>
      </trkpt>
      <trkpt lat="48.78045" lon="2.09531">
        <ele>151.06</ele>
        <time>2017-01-14T14:55:51Z</time>
      </trkpt>
      <trkpt lat="48.78044" lon="2.09513">
        <ele>151.06</ele>
        <time>2017-01-14T14:55:59Z</time>
      </trkpt>
      <trkpt lat="48.78044" lon="2.09503">
        <ele>151.06</ele>
        <time>2017-01-14T14:56:04Z</time>
      </trkpt>
      <trkpt lat="48.78042" lon="2.09488">
        <ele>151.54</ele>
        <time>2017-01-14T14:56:12Z</time>
      </trkpt>
      <trkpt lat="48.78042" lon="2.09471">
        <ele>151.06</ele>
        <time>2017-01-14T14:56:20Z</time>
      </trkpt>
      <trkpt lat="48.78042" lon="2.09466">
        <ele>151.06</ele>
        <time>2017-01-14T14:56:22Z</time>
      </trkpt>
      <trkpt lat="48.78042" lon="2.09454">
        <ele>151.06</ele>
        <time>2017-01-14T14:56:28Z</time>
      </trkpt>
      <trkpt lat="48.78043" lon="2.0944">
        <ele>150.58</ele>
        <time>2017-01-14T14:56:35Z</time>
      </trkpt>
      <trkpt lat="48.78044" lon="2.09432">
        <ele>150.58</ele>
        <time>2017-01-14T14:56:39Z</time>
      </trkpt>
      <trkpt lat="48.78043" lon="2.09428">
        <ele>150.58</ele>
        <time>2017-01-14T14:56:41Z</time>
      </trkpt>
      <trkpt lat="48.78041" lon="2.09421">
        <ele>150.58</ele>
        <time>2017-01-14T14:56:45Z</time>
      </trkpt>
      <trkpt lat="48.78041" lon="2.09413">
        <ele>150.58</ele>
        <time>2017-01-14T14:56:50Z</time>
      </trkpt>
      <trkpt lat="48.78039" lon="2.09399">
        <ele>150.58</ele>
        <time>2017-01-14T14:56:58Z</time>
      </trkpt>
      <trkpt lat="48.78038" lon="2.09383">
        <ele>151.06</ele>
        <time>2017-01-14T14:57:06Z</time>
      </trkpt>
      <trkpt lat="48.78038" lon="2.09376">
        <ele>151.06</ele>
        <time>2017-01-14T14:57:10Z</time>
      </trkpt>
      <trkpt lat="48.78039" lon="2.09362">
        <ele>151.54</ele>
        <time>2017-01-14T14:57:18Z</time>
      </trkpt>
      <trkpt lat="48.7804" lon="2.0935">
        <ele>151.54</ele>
        <time>2017-01-14T14:57:25Z</time>
      </trkpt>
      <trkpt lat="48.7804" lon="2.09349">
        <ele>151.54</ele>
        <time>2017-01-14T14:57:26Z</time>
      </trkpt>
      <trkpt lat="48.78041" lon="2.09332">
        <ele>152.03</ele>
        <time>2017-01-14T14:57:35Z</time>
      </trkpt>
      <trkpt lat="48.7804" lon="2.09323">
        <ele>152.03</ele>
        <time>2017-01-14T14:57:39Z</time>
      </trkpt>
      <trkpt lat="48.78039" lon="2.09307">
        <ele>152.03</ele>
        <time>2017-01-14T14:57:48Z</time>
      </trkpt>
      <trkpt lat="48.7804" lon="2.09298">
        <ele>152.03</ele>
        <time>2017-01-14T14:57:53Z</time>
      </trkpt>
      <trkpt lat="48.78041" lon="2.0929">
        <ele>152.03</ele>
        <time>2017-01-14T14:57:57Z</time>
      </trkpt>
      <trkpt lat="48.78043" lon="2.0927">
        <ele>152.03</ele>
        <time>2017-01-14T14:58:07Z</time>
      </trkpt>
      <trkpt lat="48.78046" lon="2.09257">
        <ele>152.51</ele>
        <time>2017-01-14T14:58:14Z</time>
      </trkpt>
      <trkpt lat="48.78049" lon="2.09248">
        <ele>152.51</ele>
        <time>2017-01-14T14:58:18Z</time>
      </trkpt>
      <trkpt lat="48.78049" lon="2.09242">
        <ele>152.51</ele>
        <time>2017-01-14T14:58:22Z</time>
      </trkpt>
      <trkpt lat="48.78051" lon="2.09238">
        <ele>152.51</ele>
        <time>2017-01-14T14:58:24Z</time>
      </trkpt>
      <trkpt lat="48.78054" lon="2.09222">
        <ele>152.51</ele>
        <time>2017-01-14T14:58:33Z</time>
      </trkpt>
      <trkpt lat="48.78054" lon="2.0922">
        <ele>152.51</ele>
        <time>2017-01-14T14:58:34Z</time>
      </trkpt>
      <trkpt lat="48.78057" lon="2.09215">
        <ele>152.51</ele>
        <time>2017-01-14T14:58:37Z</time>
      </trkpt>
      <trkpt lat="48.7806" lon="2.092">
        <ele>152.99</ele>
        <time>2017-01-14T14:58:46Z</time>
      </trkpt>
      <trkpt lat="48.78061" lon="2.09194">
        <ele>152.99</ele>
        <time>2017-01-14T14:58:49Z</time>
      </trkpt>
      <trkpt lat="48.78069" lon="2.09178">
        <ele>152.99</ele>
        <time>2017-01-14T14:58:57Z</time>
      </trkpt>
      <trkpt lat="48.78073" lon="2.09168">
        <ele>152.99</ele>
        <time>2017-01-14T14:59:03Z</time>
      </trkpt>
      <trkpt lat="48.78076" lon="2.09165">
        <ele>152.99</ele>
        <time>2017-01-14T14:59:05Z</time>
      </trkpt>
      <trkpt lat="48.78081" lon="2.09154">
        <ele>153.47</ele>
        <time>2017-01-14T14:59:13Z</time>
      </trkpt>
      <trkpt lat="48.78087" lon="2.09147">
        <ele>153.47</ele>
        <time>2017-01-14T14:59:20Z</time>
      </trkpt>
      <trkpt lat="48.78089" lon="2.09144">
        <ele>153.95</ele>
        <time>2017-01-14T14:59:23Z</time>
      </trkpt>
      <trkpt lat="48.78098" lon="2.09139">
        <ele>153.95</ele>
        <time>2017-01-14T14:59:30Z</time>
      </trkpt>
      <trkpt lat="48.78099" lon="2.09138">
        <ele>153.95</ele>
        <time>2017-01-14T14:59:31Z</time>
      </trkpt>
      <trkpt lat="48.78103" lon="2.09127">
        <ele>153.95</ele>
        <time>2017-01-14T14:59:39Z</time>
      </trkpt>
      <trkpt lat="48.78109" lon="2.09117">
        <ele>154.43</ele>
        <time>2017-01-14T14:59:46Z</time>
      </trkpt>
      <trkpt lat="48.78117" lon="2.09111">
        <ele>154.91</ele>
        <time>2017-01-14T14:59:53Z</time>
      </trkpt>
      <trkpt lat="48.78125" lon="2.09104">
        <ele>155.39</ele>
        <time>2017-01-14T15:00:01Z</time>
      </trkpt>
      <trkpt lat="48.78126" lon="2.09104">
        <ele>155.39</ele>
        <time>2017-01-14T15:00:02Z</time>
      </trkpt>
      <trkpt lat="48.78133" lon="2.09096">
        <ele>155.87</ele>
        <time>2017-01-14T15:00:08Z</time>
      </trkpt>
      <trkpt lat="48.78142" lon="2.09091">
        <ele>156.35</ele>
        <time>2017-01-14T15:00:15Z</time>
      </trkpt>
      <trkpt lat="48.78145" lon="2.0909">
        <ele>156.35</ele>
        <time>2017-01-14T15:00:17Z</time>
      </trkpt>
      <trkpt lat="48.78155" lon="2.09083">
        <ele>156.83</ele>
        <time>2017-01-14T15:00:25Z</time>
      </trkpt>
      <trkpt lat="48.78163" lon="2.09074">
        <ele>156.83</ele>
        <time>2017-01-14T15:00:32Z</time>
      </trkpt>
      <trkpt lat="48.78171" lon="2.09063">
        <ele>157.31</ele>
        <time>2017-01-14T15:00:40Z</time>
      </trkpt>
      <trkpt lat="48.78179" lon="2.09056">
        <ele>157.31</ele>
        <time>2017-01-14T15:00:47Z</time>
      </trkpt>
      <trkpt lat="48.7818" lon="2.09055">
        <ele>157.31</ele>
        <time>2017-01-14T15:00:48Z</time>
      </trkpt>
      <trkpt lat="48.78191" lon="2.09046">
        <ele>157.79</ele>
        <time>2017-01-14T15:00:58Z</time>
      </trkpt>
      <trkpt lat="48.78198" lon="2.09032">
        <ele>158.27</ele>
        <time>2017-01-14T15:01:07Z</time>
      </trkpt>
      <trkpt lat="48.78203" lon="2.09025">
        <ele>158.27</ele>
        <time>2017-01-14T15:01:14Z</time>
      </trkpt>
      <trkpt lat="48.78206" lon="2.09018">
        <ele>158.27</ele>
        <time>2017-01-14T15:01:21Z</time>
      </trkpt>
      <trkpt lat="48.78212" lon="2.09007">
        <ele>158.75</ele>
        <time>2017-01-14T15:01:27Z</time>
      </trkpt>
      <trkpt lat="48.78218" lon="2.08989">
        <ele>158.75</ele>
        <time>2017-01-14T15:01:36Z</time>
      </trkpt>
      <trkpt lat="48.78223" lon="2.08976">
        <ele>158.27</ele>
        <time>2017-01-14T15:01:44Z</time>
      </trkpt>
      <trkpt lat="48.78224" lon="2.0897">
        <ele>158.27</ele>
        <time>2017-01-14T15:01:49Z</time>
      </trkpt>
      <trkpt lat="48.78224" lon="2.08953">
        <ele>158.27</ele>
        <time>2017-01-14T15:01:57Z</time>
      </trkpt>
      <trkpt lat="48.78225" lon="2.08951">
        <ele>158.27</ele>
        <time>2017-01-14T15:01:58Z</time>
      </trkpt>
      <trkpt lat="48.78225" lon="2.08946">
        <ele>158.27</ele>
        <time>2017-01-14T15:02:00Z</time>
      </trkpt>
      <trkpt lat="48.78226" lon="2.08942">
        <ele>158.27</ele>
        <time>2017-01-14T15:02:02Z</time>
      </trkpt>
      <trkpt lat="48.78226" lon="2.08938">
        <ele>158.27</ele>
        <time>2017-01-14T15:02:04Z</time>
      </trkpt>
      <trkpt lat="48.78229" lon="2.08923">
        <ele>158.27</ele>
        <time>2017-01-14T15:02:11Z</time>
      </trkpt>
      <trkpt lat="48.78228" lon="2.08906">
        <ele>158.27</ele>
        <time>2017-01-14T15:02:20Z</time>
      </trkpt>
      <trkpt lat="48.78228" lon="2.08902">
        <ele>158.27</ele>
        <time>2017-01-14T15:02:22Z</time>
      </trkpt>
      <trkpt lat="48.78231" lon="2.08889">
        <ele>158.27</ele>
        <time>2017-01-14T15:02:29Z</time>
      </trkpt>
      <trkpt lat="48.78232" lon="2.08885">
        <ele>158.27</ele>
        <time>2017-01-14T15:02:31Z</time>
      </trkpt>
      <trkpt lat="48.78234" lon="2.08872">
        <ele>158.27</ele>
        <time>2017-01-14T15:02:38Z</time>
      </trkpt>
      <trkpt lat="48.78234" lon="2.08865">
        <ele>158.27</ele>
        <time>2017-01-14T15:02:42Z</time>
      </trkpt>
      <trkpt lat="48.78233" lon="2.08858">
        <ele>158.27</ele>
        <time>2017-01-14T15:02:46Z</time>
      </trkpt>
      <trkpt lat="48.78235" lon="2.08852">
        <ele>158.27</ele>
        <time>2017-01-14T15:02:50Z</time>
      </trkpt>
      <trkpt lat="48.78234" lon="2.08848">
        <ele>158.27</ele>
        <time>2017-01-14T15:02:52Z</time>
      </trkpt>
      <trkpt lat="48.78234" lon="2.08833">
        <ele>157.79</ele>
        <time>2017-01-14T15:03:00Z</time>
      </trkpt>
      <trkpt lat="48.78234" lon="2.08818">
        <ele>157.79</ele>
        <time>2017-01-14T15:03:08Z</time>
      </trkpt>
      <trkpt lat="48.78236" lon="2.08803">
        <ele>157.79</ele>
        <time>2017-01-14T15:03:15Z</time>
      </trkpt>
      <trkpt lat="48.78235" lon="2.08791">
        <ele>157.31</ele>
        <time>2017-01-14T15:03:22Z</time>
      </trkpt>
      <trkpt lat="48.78237" lon="2.08783">
        <ele>157.79</ele>
        <time>2017-01-14T15:03:25Z</time>
      </trkpt>
      <trkpt lat="48.78239" lon="2.08772">
        <ele>157.79</ele>
        <time>2017-01-14T15:03:30Z</time>
      </trkpt>
      <trkpt lat="48.78241" lon="2.08763">
        <ele>158.27</ele>
        <time>2017-01-14T15:03:35Z</time>
      </trkpt>
      <trkpt lat="48.78244" lon="2.08749">
        <ele>158.75</ele>
        <time>2017-01-14T15:03:43Z</time>
      </trkpt>
      <trkpt lat="48.78247" lon="2.08733">
        <ele>159.24</ele>
        <time>2017-01-14T15:03:51Z</time>
      </trkpt>
      <trkpt lat="48.78247" lon="2.08725">
        <ele>159.72</ele>
        <time>2017-01-14T15:03:55Z</time>
      </trkpt>
      <trkpt lat="48.78249" lon="2.08712">
        <ele>159.72</ele>
        <time>2017-01-14T15:04:03Z</time>
      </trkpt>
      <trkpt lat="48.78251" lon="2.08706">
        <ele>159.72</ele>
        <time>2017-01-14T15:04:06Z</time>
      </trkpt>
      <trkpt lat="48.78252" lon="2.08691">
        <ele>160.2</ele>
        <time>2017-01-14T15:04:13Z</time>
      </trkpt>
      <trkpt lat="48.78253" lon="2.08672">
        <ele>160.2</ele>
        <time>2017-01-14T15:04:23Z</time>
      </trkpt>
      <trkpt lat="48.78253" lon="2.08667">
        <ele>160.2</ele>
        <time>2017-01-14T15:04:26Z</time>
      </trkpt>
      <trkpt lat="48.78253" lon="2.08663">
        <ele>160.2</ele>
        <time>2017-01-14T15:04:28Z</time>
      </trkpt>
      <trkpt lat="48.78256" lon="2.08648">
        <ele>159.72</ele>
        <time>2017-01-14T15:04:35Z</time>
      </trkpt>
      <trkpt lat="48.78259" lon="2.08637">
        <ele>159.72</ele>
        <time>2017-01-14T15:04:40Z</time>
      </trkpt>
      <trkpt lat="48.78261" lon="2.08625">
        <ele>159.72</ele>
        <time>2017-01-14T15:04:47Z</time>
      </trkpt>
      <trkpt lat="48.78265" lon="2.08614">
        <ele>160.2</ele>
        <time>2017-01-14T15:04:55Z</time>
      </trkpt>
      <trkpt lat="48.7827" lon="2.08613">
        <ele>160.2</ele>
        <time>2017-01-14T15:04:58Z</time>
      </trkpt>
      <trkpt lat="48.78275" lon="2.08606">
        <ele>160.2</ele>
        <time>2017-01-14T15:05:05Z</time>
      </trkpt>
      <trkpt lat="48.7828" lon="2.08603">
        <ele>160.68</ele>
        <time>2017-01-14T15:05:09Z</time>
      </trkpt>
      <trkpt lat="48.78284" lon="2.08601">
        <ele>160.68</ele>
        <time>2017-01-14T15:05:11Z</time>
      </trkpt>
      <trkpt lat="48.78295" lon="2.0859">
        <ele>160.68</ele>
        <time>2017-01-14T15:05:20Z</time>
      </trkpt>
      <trkpt lat="48.78301" lon="2.08582">
        <ele>161.16</ele>
        <time>2017-01-14T15:05:26Z</time>
      </trkpt>
      <trkpt lat="48.78307" lon="2.08572">
        <ele>161.16</ele>
        <time>2017-01-14T15:05:33Z</time>
      </trkpt>
      <trkpt lat="48.78312" lon="2.08563">
        <ele>161.64</ele>
        <time>2017-01-14T15:05:40Z</time>
      </trkpt>
      <trkpt lat="48.7832" lon="2.08554">
        <ele>161.64</ele>
        <time>2017-01-14T15:05:47Z</time>
      </trkpt>
      <trkpt lat="48.78321" lon="2.08551">
        <ele>162.12</ele>
        <time>2017-01-14T15:05:51Z</time>
      </trkpt>
      <trkpt lat="48.78329" lon="2.08541">
        <ele>162.12</ele>
        <time>2017-01-14T15:05:58Z</time>
      </trkpt>
      <trkpt lat="48.78336" lon="2.08532">
        <ele>162.12</ele>
        <time>2017-01-14T15:06:06Z</time>
      </trkpt>
      <trkpt lat="48.7834" lon="2.08525">
        <ele>162.6</ele>
        <time>2017-01-14T15:06:12Z</time>
      </trkpt>
      <trkpt lat="48.78345" lon="2.08517">
        <ele>163.08</ele>
        <time>2017-01-14T15:06:20Z</time>
      </trkpt>
      <trkpt lat="48.78345" lon="2.08514">
        <ele>163.08</ele>
        <time>2017-01-14T15:06:23Z</time>
      </trkpt>
      <trkpt lat="48.78355" lon="2.08506">
        <ele>163.56</ele>
        <time>2017-01-14T15:06:32Z</time>
      </trkpt>
      <trkpt lat="48.78362" lon="2.08499">
        <ele>163.56</ele>
        <time>2017-01-14T15:06:38Z</time>
      </trkpt>
      <trkpt lat="48.78364" lon="2.08488">
        <ele>164.52</ele>
        <time>2017-01-14T15:06:46Z</time>
      </trkpt>
      <trkpt lat="48.7837" lon="2.08477">
        <ele>164.52</ele>
        <time>2017-01-14T15:06:53Z</time>
      </trkpt>
      <trkpt lat="48.78374" lon="2.08469">
        <ele>165</ele>
        <time>2017-01-14T15:06:58Z</time>
      </trkpt>
      <trkpt lat="48.78378" lon="2.08463">
        <ele>165</ele>
        <time>2017-01-14T15:07:04Z</time>
      </trkpt>
      <trkpt lat="48.7838" lon="2.08458">
        <ele>165.48</ele>
        <time>2017-01-14T15:07:11Z</time>
      </trkpt>
      <trkpt lat="48.78383" lon="2.08449">
        <ele>165.96</ele>
        <time>2017-01-14T15:07:16Z</time>
      </trkpt>
      <trkpt lat="48.78386" lon="2.08441">
        <ele>165.96</ele>
        <time>2017-01-14T15:07:22Z</time>
      </trkpt>
      <trkpt lat="48.7839" lon="2.08434">
        <ele>166.45</ele>
        <time>2017-01-14T15:07:27Z</time>
      </trkpt>
      <trkpt lat="48.78393" lon="2.08432">
        <ele>166.45</ele>
        <time>2017-01-14T15:07:32Z</time>
      </trkpt>
      <trkpt lat="48.78395" lon="2.08427">
        <ele>166.93</ele>
        <time>2017-01-14T15:07:39Z</time>
      </trkpt>
      <trkpt lat="48.78399" lon="2.08422">
        <ele>166.93</ele>
        <time>2017-01-14T15:07:42Z</time>
      </trkpt>
      <trkpt lat="48.78403" lon="2.08413">
        <ele>167.89</ele>
        <time>2017-01-14T15:07:49Z</time>
      </trkpt>
      <trkpt lat="48.78409" lon="2.08404">
        <ele>168.37</ele>
        <time>2017-01-14T15:07:56Z</time>
      </trkpt>
      <trkpt lat="48.78414" lon="2.08396">
        <ele>168.85</ele>
        <time>2017-01-14T15:08:02Z</time>
      </trkpt>
      <trkpt lat="48.78418" lon="2.08392">
        <ele>169.33</ele>
        <time>2017-01-14T15:08:09Z</time>
      </trkpt>
      <trkpt lat="48.78422" lon="2.08387">
        <ele>170.29</ele>
        <time>2017-01-14T15:08:16Z</time>
      </trkpt>
      <trkpt lat="48.78427" lon="2.08384">
        <ele>171.25</ele>
        <time>2017-01-14T15:08:22Z</time>
      </trkpt>
      <trkpt lat="48.78434" lon="2.08377">
        <ele>172.21</ele>
        <time>2017-01-14T15:08:29Z</time>
      </trkpt>
      <trkpt lat="48.78436" lon="2.08373">
        <ele>172.69</ele>
        <time>2017-01-14T15:08:32Z</time>
      </trkpt>
      <trkpt lat="48.78443" lon="2.0837">
        <ele>173.17</ele>
        <time>2017-01-14T15:08:37Z</time>
      </trkpt>
      <trkpt lat="48.78447" lon="2.08366">
        <ele>174.14</ele>
        <time>2017-01-14T15:08:41Z</time>
      </trkpt>
      <trkpt lat="48.78454" lon="2.08364">
        <ele>175.1</ele>
        <time>2017-01-14T15:08:47Z</time>
      </trkpt>
      <trkpt lat="48.78463" lon="2.08361">
        <ele>176.06</ele>
        <time>2017-01-14T15:08:55Z</time>
      </trkpt>
      <trkpt lat="48.78469" lon="2.0836">
        <ele>177.02</ele>
        <time>2017-01-14T15:09:01Z</time>
      </trkpt>
      <trkpt lat="48.78474" lon="2.08359">
        <ele>177.5</ele>
        <time>2017-01-14T15:09:05Z</time>
      </trkpt>
      <trkpt lat="48.78486" lon="2.0836">
        <ele>178.94</ele>
        <time>2017-01-14T15:09:13Z</time>
      </trkpt>
      <trkpt lat="48.78491" lon="2.08359">
        <ele>179.42</ele>
        <time>2017-01-14T15:09:16Z</time>
      </trkpt>
      <trkpt lat="48.785" lon="2.08361">
        <ele>180.38</ele>
        <time>2017-01-14T15:09:24Z</time>
      </trkpt>
      <trkpt lat="48.78505" lon="2.0836">
        <ele>181.35</ele>
        <time>2017-01-14T15:09:29Z</time>
      </trkpt>
      <trkpt lat="48.78512" lon="2.08361">
        <ele>182.31</ele>
        <time>2017-01-14T15:09:35Z</time>
      </trkpt>
      <trkpt lat="48.78516" lon="2.08361">
        <ele>182.79</ele>
        <time>2017-01-14T15:09:39Z</time>
      </trkpt>
      <trkpt lat="48.78521" lon="2.08359">
        <ele>183.27</ele>
        <time>2017-01-14T15:09:44Z</time>
      </trkpt>
      <trkpt lat="48.7853" lon="2.08357">
        <ele>184.23</ele>
        <time>2017-01-14T15:09:51Z</time>
      </trkpt>
      <trkpt lat="48.78538" lon="2.08361">
        <ele>184.71</ele>
        <time>2017-01-14T15:09:58Z</time>
      </trkpt>
      <trkpt lat="48.7854" lon="2.08362">
        <ele>185.19</ele>
        <time>2017-01-14T15:10:00Z</time>
      </trkpt>
      <trkpt lat="48.78549" lon="2.08367">
        <ele>186.15</ele>
        <time>2017-01-14T15:10:07Z</time>
      </trkpt>
      <trkpt lat="48.78557" lon="2.08372">
        <ele>187.11</ele>
        <time>2017-01-14T15:10:14Z</time>
      </trkpt>
      <trkpt lat="48.78561" lon="2.08376">
        <ele>187.59</ele>
        <time>2017-01-14T15:10:18Z</time>
      </trkpt>
      <trkpt lat="48.7857" lon="2.08385">
        <ele>188.08</ele>
        <time>2017-01-14T15:10:27Z</time>
      </trkpt>
      <trkpt lat="48.78573" lon="2.08389">
        <ele>188.08</ele>
        <time>2017-01-14T15:10:34Z</time>
      </trkpt>
      <trkpt lat="48.78574" lon="2.08391">
        <ele>188.08</ele>
        <time>2017-01-14T15:10:43Z</time>
      </trkpt>
      <trkpt lat="48.78575" lon="2.08392">
        <ele>188.08</ele>
        <time>2017-01-14T15:10:57Z</time>
      </trkpt>
      <trkpt lat="48.78575" lon="2.08393">
        <ele>188.08</ele>
        <time>2017-01-14T15:11:13Z</time>
      </trkpt>
      <trkpt lat="48.78576" lon="2.08396">
        <ele>187.59</ele>
        <time>2017-01-14T15:11:25Z</time>
      </trkpt>
      <trkpt lat="48.78576" lon="2.08397">
        <ele>187.59</ele>
        <time>2017-01-14T15:11:34Z</time>
      </trkpt>
      <trkpt lat="48.78579" lon="2.08398">
        <ele>187.59</ele>
        <time>2017-01-14T15:11:48Z</time>
      </trkpt>
      <trkpt lat="48.78579" lon="2.08398">
        <ele>187.11</ele>
        <time>2017-01-14T15:12:00Z</time>
      </trkpt>
      <trkpt lat="48.78579" lon="2.08397">
        <ele>187.11</ele>
        <time>2017-01-14T15:12:17Z</time>
      </trkpt>
      <trkpt lat="48.78579" lon="2.08397">
        <ele>187.11</ele>
        <time>2017-01-14T15:12:25Z</time>
      </trkpt>
      <trkpt lat="48.78579" lon="2.08394">
        <ele>186.63</ele>
        <time>2017-01-14T15:12:41Z</time>
      </trkpt>
      <trkpt lat="48.78579" lon="2.08393">
        <ele>186.63</ele>
        <time>2017-01-14T15:12:55Z</time>
      </trkpt>
      <trkpt lat="48.78579" lon="2.08392">
        <ele>186.63</ele>
        <time>2017-01-14T15:13:05Z</time>
      </trkpt>
      <trkpt lat="48.78579" lon="2.08393">
        <ele>186.63</ele>
        <time>2017-01-14T15:13:19Z</time>
      </trkpt>
      <trkpt lat="48.7858" lon="2.08392">
        <ele>186.63</ele>
        <time>2017-01-14T15:13:31Z</time>
      </trkpt>
      <trkpt lat="48.78581" lon="2.08393">
        <ele>186.15</ele>
        <time>2017-01-14T15:13:47Z</time>
      </trkpt>
      <trkpt lat="48.78581" lon="2.08393">
        <ele>186.15</ele>
        <time>2017-01-14T15:14:05Z</time>
      </trkpt>
      <trkpt lat="48.78581" lon="2.08393">
        <ele>185.67</ele>
        <time>2017-01-14T15:14:19Z</time>
      </trkpt>
      <trkpt lat="48.7858" lon="2.08392">
        <ele>185.67</ele>
        <time>2017-01-14T15:14:34Z</time>
      </trkpt>
      <trkpt lat="48.7858" lon="2.08392">
        <ele>185.19</ele>
        <time>2017-01-14T15:14:48Z</time>
      </trkpt>
      <trkpt lat="48.7858" lon="2.08392">
        <ele>185.19</ele>
        <time>2017-01-14T15:14:59Z</time>
      </trkpt>
      <trkpt lat="48.78581" lon="2.08392">
        <ele>185.19</ele>
        <time>2017-01-14T15:15:06Z</time>
      </trkpt>
      <trkpt lat="48.78581" lon="2.08393">
        <ele>184.71</ele>
        <time>2017-01-14T15:15:17Z</time>
      </trkpt>
      <trkpt lat="48.78581" lon="2.08394">
        <ele>184.71</ele>
        <time>2017-01-14T15:15:26Z</time>
      </trkpt>
      <trkpt lat="48.78582" lon="2.08395">
        <ele>184.23</ele>
        <time>2017-01-14T15:15:43Z</time>
      </trkpt>
      <trkpt lat="48.78582" lon="2.08396">
        <ele>184.23</ele>
        <time>2017-01-14T15:16:02Z</time>
      </trkpt>
      <trkpt lat="48.78583" lon="2.08396">
        <ele>183.75</ele>
        <time>2017-01-14T15:16:15Z</time>
      </trkpt>
      <trkpt lat="48.78583" lon="2.08396">
        <ele>183.75</ele>
        <time>2017-01-14T15:16:30Z</time>
      </trkpt>
      <trkpt lat="48.78583" lon="2.08396">
        <ele>183.75</ele>
        <time>2017-01-14T15:16:41Z</time>
      </trkpt>
      <trkpt lat="48.78582" lon="2.08395">
        <ele>183.27</ele>
        <time>2017-01-14T15:16:57Z</time>
      </trkpt>
      <trkpt lat="48.78581" lon="2.08395">
        <ele>183.27</ele>
        <time>2017-01-14T15:17:03Z</time>
      </trkpt>
      <trkpt lat="48.78585" lon="2.084">
        <ele>183.27</ele>
        <time>2017-01-14T15:17:10Z</time>
      </trkpt>
      <trkpt lat="48.78589" lon="2.08403">
        <ele>183.27</ele>
        <time>2017-01-14T15:17:16Z</time>
      </trkpt>
      <trkpt lat="48.78592" lon="2.08406">
        <ele>183.27</ele>
        <time>2017-01-14T15:17:20Z</time>
      </trkpt>
      <trkpt lat="48.78601" lon="2.08413">
        <ele>183.75</ele>
        <time>2017-01-14T15:17:30Z</time>
      </trkpt>
      <trkpt lat="48.78606" lon="2.08416">
        <ele>183.75</ele>
        <time>2017-01-14T15:17:36Z</time>
      </trkpt>
      <trkpt lat="48.78611" lon="2.08421">
        <ele>183.75</ele>
        <time>2017-01-14T15:17:41Z</time>
      </trkpt>
      <trkpt lat="48.78616" lon="2.08428">
        <ele>184.23</ele>
        <time>2017-01-14T15:17:48Z</time>
      </trkpt>
      <trkpt lat="48.78617" lon="2.08428">
        <ele>184.23</ele>
        <time>2017-01-14T15:17:49Z</time>
      </trkpt>
      <trkpt lat="48.78619" lon="2.08429">
        <ele>184.23</ele>
        <time>2017-01-14T15:17:51Z</time>
      </trkpt>
      <trkpt lat="48.78624" lon="2.08434">
        <ele>184.23</ele>
        <time>2017-01-14T15:17:55Z</time>
      </trkpt>
      <trkpt lat="48.78629" lon="2.08438">
        <ele>185.19</ele>
        <time>2017-01-14T15:17:59Z</time>
      </trkpt>
      <trkpt lat="48.78637" lon="2.08446">
        <ele>183.75</ele>
        <time>2017-01-14T15:18:06Z</time>
      </trkpt>
      <trkpt lat="48.7864" lon="2.08449">
        <ele>183.75</ele>
        <time>2017-01-14T15:18:12Z</time>
      </trkpt>
      <trkpt lat="48.78647" lon="2.08456">
        <ele>184.23</ele>
        <time>2017-01-14T15:18:19Z</time>
      </trkpt>
      <trkpt lat="48.78652" lon="2.08462">
        <ele>184.23</ele>
        <time>2017-01-14T15:18:27Z</time>
      </trkpt>
      <trkpt lat="48.78652" lon="2.08462">
        <ele>184.23</ele>
        <time>2017-01-14T15:18:28Z</time>
      </trkpt>
      <trkpt lat="48.78659" lon="2.08467">
        <ele>184.23</ele>
        <time>2017-01-14T15:18:35Z</time>
      </trkpt>
      <trkpt lat="48.78661" lon="2.08469">
        <ele>184.23</ele>
        <time>2017-01-14T15:18:37Z</time>
      </trkpt>
      <trkpt lat="48.78669" lon="2.08475">
        <ele>184.23</ele>
        <time>2017-01-14T15:18:45Z</time>
      </trkpt>
      <trkpt lat="48.78677" lon="2.08482">
        <ele>184.71</ele>
        <time>2017-01-14T15:18:51Z</time>
      </trkpt>
      <trkpt lat="48.78685" lon="2.08487">
        <ele>184.71</ele>
        <time>2017-01-14T15:18:59Z</time>
      </trkpt>
      <trkpt lat="48.78699" lon="2.0849">
        <ele>185.19</ele>
        <time>2017-01-14T15:19:07Z</time>
      </trkpt>
      <trkpt lat="48.78706" lon="2.08492">
        <ele>185.19</ele>
        <time>2017-01-14T15:19:14Z</time>
      </trkpt>
      <trkpt lat="48.78715" lon="2.08494">
        <ele>185.67</ele>
        <time>2017-01-14T15:19:22Z</time>
      </trkpt>
      <trkpt lat="48.78717" lon="2.08494">
        <ele>185.67</ele>
        <time>2017-01-14T15:19:24Z</time>
      </trkpt>
      <trkpt lat="48.78723" lon="2.08493">
        <ele>185.67</ele>
        <time>2017-01-14T15:19:30Z</time>
      </trkpt>
      <trkpt lat="48.78732" lon="2.0849">
        <ele>185.67</ele>
        <time>2017-01-14T15:19:39Z</time>
      </trkpt>
      <trkpt lat="48.78732" lon="2.0849">
        <ele>185.67</ele>
        <time>2017-01-14T15:19:40Z</time>
      </trkpt>
      <trkpt lat="48.78742" lon="2.08484">
        <ele>185.67</ele>
        <time>2017-01-14T15:19:48Z</time>
      </trkpt>
      <trkpt lat="48.78746" lon="2.08481">
        <ele>186.15</ele>
        <time>2017-01-14T15:19:53Z</time>
      </trkpt>
      <trkpt lat="48.78752" lon="2.08475">
        <ele>186.15</ele>
        <time>2017-01-14T15:19:58Z</time>
      </trkpt>
      <trkpt lat="48.7876" lon="2.08473">
        <ele>186.15</ele>
        <time>2017-01-14T15:20:03Z</time>
      </trkpt>
      <trkpt lat="48.78767" lon="2.08469">
        <ele>186.15</ele>
        <time>2017-01-14T15:20:07Z</time>
      </trkpt>
      <trkpt lat="48.78777" lon="2.08465">
        <ele>186.15</ele>
        <time>2017-01-14T15:20:15Z</time>
      </trkpt>
      <trkpt lat="48.78785" lon="2.08462">
        <ele>186.15</ele>
        <time>2017-01-14T15:20:23Z</time>
      </trkpt>
      <trkpt lat="48.78789" lon="2.08459">
        <ele>186.63</ele>
        <time>2017-01-14T15:20:28Z</time>
      </trkpt>
      <trkpt lat="48.78799" lon="2.0845">
        <ele>186.63</ele>
        <time>2017-01-14T15:20:36Z</time>
      </trkpt>
      <trkpt lat="48.788" lon="2.08449">
        <ele>186.63</ele>
        <time>2017-01-14T15:20:38Z</time>
      </trkpt>
      <trkpt lat="48.78803" lon="2.08446">
        <ele>186.63</ele>
        <time>2017-01-14T15:20:41Z</time>
      </trkpt>
      <trkpt lat="48.78811" lon="2.0844">
        <ele>186.63</ele>
        <time>2017-01-14T15:20:48Z</time>
      </trkpt>
      <trkpt lat="48.7882" lon="2.08434">
        <ele>186.63</ele>
        <time>2017-01-14T15:20:54Z</time>
      </trkpt>
      <trkpt lat="48.78822" lon="2.08433">
        <ele>186.63</ele>
        <time>2017-01-14T15:20:56Z</time>
      </trkpt>
      <trkpt lat="48.78828" lon="2.0843">
        <ele>186.63</ele>
        <time>2017-01-14T15:21:01Z</time>
      </trkpt>
      <trkpt lat="48.78838" lon="2.08421">
        <ele>186.63</ele>
        <time>2017-01-14T15:21:10Z</time>
      </trkpt>
      <trkpt lat="48.78843" lon="2.08418">
        <ele>186.63</ele>
        <time>2017-01-14T15:21:15Z</time>
      </trkpt>
      <trkpt lat="48.78852" lon="2.0841">
        <ele>186.63</ele>
        <time>2017-01-14T15:21:24Z</time>
      </trkpt>
      <trkpt lat="48.78862" lon="2.08399">
        <ele>186.63</ele>
        <time>2017-01-14T15:21:31Z</time>
      </trkpt>
      <trkpt lat="48.78867" lon="2.08395">
        <ele>187.11</ele>
        <time>2017-01-14T15:21:35Z</time>
      </trkpt>
      <trkpt lat="48.78877" lon="2.08387">
        <ele>187.11</ele>
        <time>2017-01-14T15:21:43Z</time>
      </trkpt>
      <trkpt lat="48.78887" lon="2.08372">
        <ele>187.11</ele>
        <time>2017-01-14T15:21:53Z</time>
      </trkpt>
      <trkpt lat="48.78892" lon="2.08364">
        <ele>187.11</ele>
        <time>2017-01-14T15:21:58Z</time>
      </trkpt>
      <trkpt lat="48.78895" lon="2.08355">
        <ele>187.11</ele>
        <time>2017-01-14T15:22:03Z</time>
      </trkpt>
      <trkpt lat="48.78896" lon="2.08335">
        <ele>187.11</ele>
        <time>2017-01-14T15:22:13Z</time>
      </trkpt>
      <trkpt lat="48.78896" lon="2.08333">
        <ele>187.11</ele>
        <time>2017-01-14T15:22:14Z</time>
      </trkpt>
      <trkpt lat="48.78896" lon="2.08328">
        <ele>187.11</ele>
        <time>2017-01-14T15:22:17Z</time>
      </trkpt>
      <trkpt lat="48.78896" lon="2.08322">
        <ele>187.11</ele>
        <time>2017-01-14T15:22:20Z</time>
      </trkpt>
      <trkpt lat="48.78899" lon="2.08305">
        <ele>187.11</ele>
        <time>2017-01-14T15:22:28Z</time>
      </trkpt>
      <trkpt lat="48.78899" lon="2.083">
        <ele>187.11</ele>
        <time>2017-01-14T15:22:30Z</time>
      </trkpt>
      <trkpt lat="48.78902" lon="2.08282">
        <ele>186.63</ele>
        <time>2017-01-14T15:22:39Z</time>
      </trkpt>
      <trkpt lat="48.78903" lon="2.0828">
        <ele>186.63</ele>
        <time>2017-01-14T15:22:40Z</time>
      </trkpt>
      <trkpt lat="48.78903" lon="2.08276">
        <ele>187.11</ele>
        <time>2017-01-14T15:22:42Z</time>
      </trkpt>
      <trkpt lat="48.78906" lon="2.08269">
        <ele>186.63</ele>
        <time>2017-01-14T15:22:46Z</time>
      </trkpt>
      <trkpt lat="48.78909" lon="2.08251">
        <ele>186.63</ele>
        <time>2017-01-14T15:22:54Z</time>
      </trkpt>
      <trkpt lat="48.78909" lon="2.08239">
        <ele>186.63</ele>
        <time>2017-01-14T15:23:00Z</time>
      </trkpt>
      <trkpt lat="48.7891" lon="2.08237">
        <ele>186.63</ele>
        <time>2017-01-14T15:23:01Z</time>
      </trkpt>
      <trkpt lat="48.78911" lon="2.08228">
        <ele>186.63</ele>
        <time>2017-01-14T15:23:05Z</time>
      </trkpt>
      <trkpt lat="48.78913" lon="2.08215">
        <ele>186.63</ele>
        <time>2017-01-14T15:23:12Z</time>
      </trkpt>
      <trkpt lat="48.78919" lon="2.08201">
        <ele>186.63</ele>
        <time>2017-01-14T15:23:20Z</time>
      </trkpt>
      <trkpt lat="48.78919" lon="2.08199">
        <ele>186.63</ele>
        <time>2017-01-14T15:23:21Z</time>
      </trkpt>
      <trkpt lat="48.78913" lon="2.08187">
        <ele>186.63</ele>
        <time>2017-01-14T15:23:26Z</time>
      </trkpt>
      <trkpt lat="48.78912" lon="2.08184">
        <ele>186.63</ele>
        <time>2017-01-14T15:23:28Z</time>
      </trkpt>
      <trkpt lat="48.7891" lon="2.08178">
        <ele>186.63</ele>
        <time>2017-01-14T15:23:31Z</time>
      </trkpt>
      <trkpt lat="48.78909" lon="2.08158">
        <ele>186.63</ele>
        <time>2017-01-14T15:23:40Z</time>
      </trkpt>
      <trkpt lat="48.78909" lon="2.08157">
        <ele>186.63</ele>
        <time>2017-01-14T15:23:41Z</time>
      </trkpt>
      <trkpt lat="48.78911" lon="2.08148">
        <ele>186.63</ele>
        <time>2017-01-14T15:23:45Z</time>
      </trkpt>
      <trkpt lat="48.7891" lon="2.08133">
        <ele>186.63</ele>
        <time>2017-01-14T15:23:52Z</time>
      </trkpt>
      <trkpt lat="48.7891" lon="2.08119">
        <ele>186.63</ele>
        <time>2017-01-14T15:23:59Z</time>
      </trkpt>
      <trkpt lat="48.78911" lon="2.08114">
        <ele>186.63</ele>
        <time>2017-01-14T15:24:02Z</time>
      </trkpt>
      <trkpt lat="48.78912" lon="2.08098">
        <ele>186.63</ele>
        <time>2017-01-14T15:24:09Z</time>
      </trkpt>
      <trkpt lat="48.78913" lon="2.08091">
        <ele>186.63</ele>
        <time>2017-01-14T15:24:13Z</time>
      </trkpt>
      <trkpt lat="48.78915" lon="2.08076">
        <ele>186.63</ele>
        <time>2017-01-14T15:24:21Z</time>
      </trkpt>
      <trkpt lat="48.78915" lon="2.08072">
        <ele>186.63</ele>
        <time>2017-01-14T15:24:23Z</time>
      </trkpt>
      <trkpt lat="48.78918" lon="2.0806">
        <ele>187.11</ele>
        <time>2017-01-14T15:24:28Z</time>
      </trkpt>
      <trkpt lat="48.78918" lon="2.08054">
        <ele>186.63</ele>
        <time>2017-01-14T15:24:31Z</time>
      </trkpt>
      <trkpt lat="48.78921" lon="2.08045">
        <ele>187.11</ele>
        <time>2017-01-14T15:24:36Z</time>
      </trkpt>
      <trkpt lat="48.78924" lon="2.08035">
        <ele>187.11</ele>
        <time>2017-01-14T15:24:42Z</time>
      </trkpt>
      <trkpt lat="48.78926" lon="2.08026">
        <ele>187.11</ele>
        <time>2017-01-14T15:24:46Z</time>
      </trkpt>
      <trkpt lat="48.78927" lon="2.08016">
        <ele>187.11</ele>
        <time>2017-01-14T15:24:53Z</time>
      </trkpt>
      <trkpt lat="48.78927" lon="2.08012">
        <ele>187.11</ele>
        <time>2017-01-14T15:24:55Z</time>
      </trkpt>
      <trkpt lat="48.78929" lon="2.07999">
        <ele>187.11</ele>
        <time>2017-01-14T15:25:02Z</time>
      </trkpt>
      <trkpt lat="48.78931" lon="2.07982">
        <ele>187.11</ele>
        <time>2017-01-14T15:25:09Z</time>
      </trkpt>
      <trkpt lat="48.78935" lon="2.0797">
        <ele>187.11</ele>
        <time>2017-01-14T15:25:16Z</time>
      </trkpt>
      <trkpt lat="48.78937" lon="2.07961">
        <ele>187.11</ele>
        <time>2017-01-14T15:25:22Z</time>
      </trkpt>
      <trkpt lat="48.7894" lon="2.07949">
        <ele>187.11</ele>
        <time>2017-01-14T15:25:29Z</time>
      </trkpt>
      <trkpt lat="48.78942" lon="2.0794">
        <ele>186.63</ele>
        <time>2017-01-14T15:25:36Z</time>
      </trkpt>
      <trkpt lat="48.78944" lon="2.07932">
        <ele>186.63</ele>
        <time>2017-01-14T15:25:42Z</time>
      </trkpt>
      <trkpt lat="48.78942" lon="2.07921">
        <ele>186.63</ele>
        <time>2017-01-14T15:25:48Z</time>
      </trkpt>
      <trkpt lat="48.78944" lon="2.07907">
        <ele>187.11</ele>
        <time>2017-01-14T15:25:55Z</time>
      </trkpt>
      <trkpt lat="48.78945" lon="2.07892">
        <ele>187.11</ele>
        <time>2017-01-14T15:26:04Z</time>
      </trkpt>
      <trkpt lat="48.78946" lon="2.07887">
        <ele>187.11</ele>
        <time>2017-01-14T15:26:07Z</time>
      </trkpt>
      <trkpt lat="48.78945" lon="2.07882">
        <ele>187.11</ele>
        <time>2017-01-14T15:26:11Z</time>
      </trkpt>
      <trkpt lat="48.78946" lon="2.07873">
        <ele>187.11</ele>
        <time>2017-01-14T15:26:18Z</time>
      </trkpt>
      <trkpt lat="48.78946" lon="2.07871">
        <ele>187.11</ele>
        <time>2017-01-14T15:26:20Z</time>
      </trkpt>
      <trkpt lat="48.78947" lon="2.07862">
        <ele>187.59</ele>
        <time>2017-01-14T15:26:27Z</time>
      </trkpt>
      <trkpt lat="48.78948" lon="2.0786">
        <ele>187.59</ele>
        <time>2017-01-14T15:26:28Z</time>
      </trkpt>
      <trkpt lat="48.78947" lon="2.07855">
        <ele>187.59</ele>
        <time>2017-01-14T15:26:31Z</time>
      </trkpt>
      <trkpt lat="48.78946" lon="2.07848">
        <ele>187.59</ele>
        <time>2017-01-14T15:26:36Z</time>
      </trkpt>
      <trkpt lat="48.78946" lon="2.07837">
        <ele>188.08</ele>
        <time>2017-01-14T15:26:43Z</time>
      </trkpt>
      <trkpt lat="48.78949" lon="2.07827">
        <ele>188.08</ele>
        <time>2017-01-14T15:26:48Z</time>
      </trkpt>
      <trkpt lat="48.7895" lon="2.07817">
        <ele>188.08</ele>
        <time>2017-01-14T15:26:54Z</time>
      </trkpt>
      <trkpt lat="48.7895" lon="2.07813">
        <ele>188.08</ele>
        <time>2017-01-14T15:26:56Z</time>
      </trkpt>
      <trkpt lat="48.78949" lon="2.07808">
        <ele>188.08</ele>
        <time>2017-01-14T15:26:58Z</time>
      </trkpt>
      <trkpt lat="48.78948" lon="2.07795">
        <ele>188.08</ele>
        <time>2017-01-14T15:27:05Z</time>
      </trkpt>
      <trkpt lat="48.78946" lon="2.07791">
        <ele>188.56</ele>
        <time>2017-01-14T15:27:07Z</time>
      </trkpt>
      <trkpt lat="48.78943" lon="2.0778">
        <ele>188.08</ele>
        <time>2017-01-14T15:27:14Z</time>
      </trkpt>
      <trkpt lat="48.78939" lon="2.07773">
        <ele>188.56</ele>
        <time>2017-01-14T15:27:19Z</time>
      </trkpt>
      <trkpt lat="48.78935" lon="2.07763">
        <ele>188.56</ele>
        <time>2017-01-14T15:27:25Z</time>
      </trkpt>
      <trkpt lat="48.78933" lon="2.07752">
        <ele>188.56</ele>
        <time>2017-01-14T15:27:31Z</time>
      </trkpt>
      <trkpt lat="48.78933" lon="2.07748">
        <ele>188.56</ele>
        <time>2017-01-14T15:27:34Z</time>
      </trkpt>
      <trkpt lat="48.78931" lon="2.07742">
        <ele>188.56</ele>
        <time>2017-01-14T15:27:39Z</time>
      </trkpt>
      <trkpt lat="48.78932" lon="2.07738">
        <ele>188.56</ele>
        <time>2017-01-14T15:27:42Z</time>
      </trkpt>
      <trkpt lat="48.78931" lon="2.07727">
        <ele>188.56</ele>
        <time>2017-01-14T15:27:47Z</time>
      </trkpt>
      <trkpt lat="48.78931" lon="2.07723">
        <ele>188.56</ele>
        <time>2017-01-14T15:27:49Z</time>
      </trkpt>
      <trkpt lat="48.78927" lon="2.0771">
        <ele>189.04</ele>
        <time>2017-01-14T15:27:56Z</time>
      </trkpt>
      <trkpt lat="48.78924" lon="2.07697">
        <ele>189.04</ele>
        <time>2017-01-14T15:28:02Z</time>
      </trkpt>
      <trkpt lat="48.78924" lon="2.07682">
        <ele>189.04</ele>
        <time>2017-01-14T15:28:10Z</time>
      </trkpt>
      <trkpt lat="48.78923" lon="2.0768">
        <ele>189.04</ele>
        <time>2017-01-14T15:28:11Z</time>
      </trkpt>
      <trkpt lat="48.78922" lon="2.07664">
        <ele>189.52</ele>
        <time>2017-01-14T15:28:17Z</time>
      </trkpt>
      <trkpt lat="48.78919" lon="2.07653">
        <ele>189.04</ele>
        <time>2017-01-14T15:28:23Z</time>
      </trkpt>
      <trkpt lat="48.78916" lon="2.07641">
        <ele>189.52</ele>
        <time>2017-01-14T15:28:30Z</time>
      </trkpt>
      <trkpt lat="48.78915" lon="2.07638">
        <ele>189.52</ele>
        <time>2017-01-14T15:28:32Z</time>
      </trkpt>
      <trkpt lat="48.78916" lon="2.0763">
        <ele>189.52</ele>
        <time>2017-01-14T15:28:37Z</time>
      </trkpt>
      <trkpt lat="48.78915" lon="2.07627">
        <ele>189.52</ele>
        <time>2017-01-14T15:28:39Z</time>
      </trkpt>
      <trkpt lat="48.78915" lon="2.07616">
        <ele>189.52</ele>
        <time>2017-01-14T15:28:44Z</time>
      </trkpt>
      <trkpt lat="48.78912" lon="2.07608">
        <ele>189.52</ele>
        <time>2017-01-14T15:28:47Z</time>
      </trkpt>
      <trkpt lat="48.78909" lon="2.07593">
        <ele>190</ele>
        <time>2017-01-14T15:28:54Z</time>
      </trkpt>
      <trkpt lat="48.78908" lon="2.07591">
        <ele>190</ele>
        <time>2017-01-14T15:28:55Z</time>
      </trkpt>
      <trkpt lat="48.78907" lon="2.07575">
        <ele>190</ele>
        <time>2017-01-14T15:29:03Z</time>
      </trkpt>
      <trkpt lat="48.78906" lon="2.07572">
        <ele>190</ele>
        <time>2017-01-14T15:29:05Z</time>
      </trkpt>
      <trkpt lat="48.78907" lon="2.07557">
        <ele>190.48</ele>
        <time>2017-01-14T15:29:12Z</time>
      </trkpt>
      <trkpt lat="48.78905" lon="2.07552">
        <ele>190.48</ele>
        <time>2017-01-14T15:29:14Z</time>
      </trkpt>
      <trkpt lat="48.78899" lon="2.07536">
        <ele>190.48</ele>
        <time>2017-01-14T15:29:20Z</time>
      </trkpt>
      <trkpt lat="48.78903" lon="2.07528">
        <ele>190.48</ele>
        <time>2017-01-14T15:29:26Z</time>
      </trkpt>
      <trkpt lat="48.789" lon="2.07521">
        <ele>190.48</ele>
        <time>2017-01-14T15:29:29Z</time>
      </trkpt>
      <trkpt lat="48.78893" lon="2.07513">
        <ele>190.48</ele>
        <time>2017-01-14T15:29:33Z</time>
      </trkpt>
      <trkpt lat="48.78889" lon="2.07506">
        <ele>190.48</ele>
        <time>2017-01-14T15:29:35Z</time>
      </trkpt>
      <trkpt lat="48.78883" lon="2.07494">
        <ele>190.48</ele>
        <time>2017-01-14T15:29:40Z</time>
      </trkpt>
      <trkpt lat="48.78876" lon="2.07477">
        <ele>190.48</ele>
        <time>2017-01-14T15:29:48Z</time>
      </trkpt>
      <trkpt lat="48.78868" lon="2.07463">
        <ele>190.48</ele>
        <time>2017-01-14T15:29:56Z</time>
      </trkpt>
      <trkpt lat="48.78865" lon="2.07443">
        <ele>190.48</ele>
        <time>2017-01-14T15:30:05Z</time>
      </trkpt>
      <trkpt lat="48.78866" lon="2.07424">
        <ele>190.48</ele>
        <time>2017-01-14T15:30:14Z</time>
      </trkpt>
      <trkpt lat="48.78866" lon="2.07417">
        <ele>190.96</ele>
        <time>2017-01-14T15:30:17Z</time>
      </trkpt>
      <trkpt lat="48.78869" lon="2.07403">
        <ele>190.48</ele>
        <time>2017-01-14T15:30:24Z</time>
      </trkpt>
      <trkpt lat="48.78874" lon="2.07393">
        <ele>190.48</ele>
        <time>2017-01-14T15:30:30Z</time>
      </trkpt>
      <trkpt lat="48.78874" lon="2.07388">
        <ele>191.44</ele>
        <time>2017-01-14T15:30:33Z</time>
      </trkpt>
      <trkpt lat="48.78872" lon="2.07385">
        <ele>190.48</ele>
        <time>2017-01-14T15:30:35Z</time>
      </trkpt>
      <trkpt lat="48.78869" lon="2.07366">
        <ele>190.96</ele>
        <time>2017-01-14T15:30:44Z</time>
      </trkpt>
      <trkpt lat="48.7887" lon="2.07363">
        <ele>190.96</ele>
        <time>2017-01-14T15:30:46Z</time>
      </trkpt>
      <trkpt lat="48.7887" lon="2.07355">
        <ele>190.96</ele>
        <time>2017-01-14T15:30:49Z</time>
      </trkpt>
      <trkpt lat="48.78869" lon="2.07347">
        <ele>190.96</ele>
        <time>2017-01-14T15:30:54Z</time>
      </trkpt>
      <trkpt lat="48.78871" lon="2.07338">
        <ele>190.96</ele>
        <time>2017-01-14T15:30:59Z</time>
      </trkpt>
      <trkpt lat="48.78873" lon="2.07324">
        <ele>191.44</ele>
        <time>2017-01-14T15:31:05Z</time>
      </trkpt>
      <trkpt lat="48.78874" lon="2.07311">
        <ele>191.44</ele>
        <time>2017-01-14T15:31:13Z</time>
      </trkpt>
      <trkpt lat="48.78876" lon="2.07302">
        <ele>191.92</ele>
        <time>2017-01-14T15:31:19Z</time>
      </trkpt>
      <trkpt lat="48.78877" lon="2.07298">
        <ele>191.92</ele>
        <time>2017-01-14T15:31:21Z</time>
      </trkpt>
      <trkpt lat="48.78879" lon="2.0729">
        <ele>191.92</ele>
        <time>2017-01-14T15:31:24Z</time>
      </trkpt>
      <trkpt lat="48.7888" lon="2.07282">
        <ele>192.4</ele>
        <time>2017-01-14T15:31:30Z</time>
      </trkpt>
      <trkpt lat="48.78882" lon="2.07267">
        <ele>192.4</ele>
        <time>2017-01-14T15:31:38Z</time>
      </trkpt>
      <trkpt lat="48.78884" lon="2.07255">
        <ele>192.4</ele>
        <time>2017-01-14T15:31:45Z</time>
      </trkpt>
      <trkpt lat="48.78884" lon="2.07243">
        <ele>192.4</ele>
        <time>2017-01-14T15:31:51Z</time>
      </trkpt>
      <trkpt lat="48.78886" lon="2.0722">
        <ele>192.4</ele>
        <time>2017-01-14T15:32:00Z</time>
      </trkpt>
      <trkpt lat="48.78888" lon="2.07209">
        <ele>192.4</ele>
        <time>2017-01-14T15:32:06Z</time>
      </trkpt>
      <trkpt lat="48.7889" lon="2.07197">
        <ele>192.4</ele>
        <time>2017-01-14T15:32:12Z</time>
      </trkpt>
      <trkpt lat="48.78891" lon="2.07195">
        <ele>192.4</ele>
        <time>2017-01-14T15:32:13Z</time>
      </trkpt>
      <trkpt lat="48.78895" lon="2.07176">
        <ele>192.4</ele>
        <time>2017-01-14T15:32:21Z</time>
      </trkpt>
      <trkpt lat="48.78891" lon="2.07162">
        <ele>192.4</ele>
        <time>2017-01-14T15:32:28Z</time>
      </trkpt>
      <trkpt lat="48.78893" lon="2.07147">
        <ele>191.92</ele>
        <time>2017-01-14T15:32:35Z</time>
      </trkpt>
      <trkpt lat="48.78891" lon="2.0714">
        <ele>191.92</ele>
        <time>2017-01-14T15:32:38Z</time>
      </trkpt>
      <trkpt lat="48.78894" lon="2.07126">
        <ele>191.92</ele>
        <time>2017-01-14T15:32:45Z</time>
      </trkpt>
      <trkpt lat="48.78895" lon="2.07109">
        <ele>191.92</ele>
        <time>2017-01-14T15:32:53Z</time>
      </trkpt>
      <trkpt lat="48.78898" lon="2.07103">
        <ele>191.92</ele>
        <time>2017-01-14T15:32:56Z</time>
      </trkpt>
      <trkpt lat="48.78898" lon="2.07091">
        <ele>191.44</ele>
        <time>2017-01-14T15:33:03Z</time>
      </trkpt>
      <trkpt lat="48.78898" lon="2.07087">
        <ele>191.44</ele>
        <time>2017-01-14T15:33:06Z</time>
      </trkpt>
      <trkpt lat="48.78899" lon="2.07082">
        <ele>191.44</ele>
        <time>2017-01-14T15:33:09Z</time>
      </trkpt>
      <trkpt lat="48.78901" lon="2.07064">
        <ele>191.44</ele>
        <time>2017-01-14T15:33:18Z</time>
      </trkpt>
      <trkpt lat="48.78903" lon="2.07052">
        <ele>191.44</ele>
        <time>2017-01-14T15:33:24Z</time>
      </trkpt>
      <trkpt lat="48.78905" lon="2.07039">
        <ele>191.44</ele>
        <time>2017-01-14T15:33:30Z</time>
      </trkpt>
      <trkpt lat="48.78907" lon="2.07035">
        <ele>191.44</ele>
        <time>2017-01-14T15:33:33Z</time>
      </trkpt>
      <trkpt lat="48.78899" lon="2.07025">
        <ele>191.44</ele>
        <time>2017-01-14T15:33:39Z</time>
      </trkpt>
      <trkpt lat="48.78902" lon="2.07011">
        <ele>191.44</ele>
        <time>2017-01-14T15:33:45Z</time>
      </trkpt>
      <trkpt lat="48.78903" lon="2.07009">
        <ele>191.44</ele>
        <time>2017-01-14T15:33:50Z</time>
      </trkpt>
      <trkpt lat="48.78908" lon="2.07005">
        <ele>191.44</ele>
        <time>2017-01-14T15:33:57Z</time>
      </trkpt>
      <trkpt lat="48.78912" lon="2.07005">
        <ele>191.44</ele>
        <time>2017-01-14T15:34:03Z</time>
      </trkpt>
      <trkpt lat="48.78914" lon="2.07004">
        <ele>191.44</ele>
        <time>2017-01-14T15:34:04Z</time>
      </trkpt>
      <trkpt lat="48.78923" lon="2.07006">
        <ele>191.44</ele>
        <time>2017-01-14T15:34:12Z</time>
      </trkpt>
      <trkpt lat="48.78928" lon="2.07007">
        <ele>191.92</ele>
        <time>2017-01-14T15:34:16Z</time>
      </trkpt>
      <trkpt lat="48.78931" lon="2.07011">
        <ele>191.92</ele>
        <time>2017-01-14T15:34:19Z</time>
      </trkpt>
      <trkpt lat="48.78936" lon="2.07015">
        <ele>191.92</ele>
        <time>2017-01-14T15:34:24Z</time>
      </trkpt>
      <trkpt lat="48.78943" lon="2.07024">
        <ele>192.4</ele>
        <time>2017-01-14T15:34:32Z</time>
      </trkpt>
      <trkpt lat="48.78945" lon="2.07027">
        <ele>192.4</ele>
        <time>2017-01-14T15:34:35Z</time>
      </trkpt>
      <trkpt lat="48.78952" lon="2.07034">
        <ele>192.4</ele>
        <time>2017-01-14T15:34:41Z</time>
      </trkpt>
      <trkpt lat="48.78956" lon="2.07038">
        <ele>192.88</ele>
        <time>2017-01-14T15:34:44Z</time>
      </trkpt>
      <trkpt lat="48.78958" lon="2.07041">
        <ele>192.88</ele>
        <time>2017-01-14T15:34:46Z</time>
      </trkpt>
      <trkpt lat="48.78967" lon="2.0705">
        <ele>192.88</ele>
        <time>2017-01-14T15:34:53Z</time>
      </trkpt>
      <trkpt lat="48.78973" lon="2.07056">
        <ele>192.88</ele>
        <time>2017-01-14T15:34:59Z</time>
      </trkpt>
      <trkpt lat="48.78978" lon="2.07064">
        <ele>193.36</ele>
        <time>2017-01-14T15:35:07Z</time>
      </trkpt>
      <trkpt lat="48.78982" lon="2.07069">
        <ele>193.36</ele>
        <time>2017-01-14T15:35:12Z</time>
      </trkpt>
      <trkpt lat="48.78984" lon="2.07072">
        <ele>193.36</ele>
        <time>2017-01-14T15:35:14Z</time>
      </trkpt>
      <trkpt lat="48.78989" lon="2.07077">
        <ele>193.36</ele>
        <time>2017-01-14T15:35:18Z</time>
      </trkpt>
      <trkpt lat="48.78997" lon="2.07087">
        <ele>193.84</ele>
        <time>2017-01-14T15:35:25Z</time>
      </trkpt>
      <trkpt lat="48.79005" lon="2.07097">
        <ele>194.32</ele>
        <time>2017-01-14T15:35:34Z</time>
      </trkpt>
      <trkpt lat="48.79013" lon="2.07108">
        <ele>194.32</ele>
        <time>2017-01-14T15:35:42Z</time>
      </trkpt>
      <trkpt lat="48.7902" lon="2.07117">
        <ele>194.32</ele>
        <time>2017-01-14T15:35:50Z</time>
      </trkpt>
      <trkpt lat="48.79026" lon="2.07128">
        <ele>194.8</ele>
        <time>2017-01-14T15:35:58Z</time>
      </trkpt>
      <trkpt lat="48.79034" lon="2.07139">
        <ele>194.8</ele>
        <time>2017-01-14T15:36:06Z</time>
      </trkpt>
      <trkpt lat="48.79042" lon="2.07148">
        <ele>194.8</ele>
        <time>2017-01-14T15:36:13Z</time>
      </trkpt>
      <trkpt lat="48.79048" lon="2.07155">
        <ele>194.8</ele>
        <time>2017-01-14T15:36:19Z</time>
      </trkpt>
      <trkpt lat="48.79057" lon="2.07162">
        <ele>195.28</ele>
        <time>2017-01-14T15:36:28Z</time>
      </trkpt>
      <trkpt lat="48.79065" lon="2.07162">
        <ele>195.77</ele>
        <time>2017-01-14T15:36:34Z</time>
      </trkpt>
      <trkpt lat="48.7907" lon="2.07159">
        <ele>195.28</ele>
        <time>2017-01-14T15:36:40Z</time>
      </trkpt>
      <trkpt lat="48.79074" lon="2.07157">
        <ele>195.28</ele>
        <time>2017-01-14T15:36:43Z</time>
      </trkpt>
      <trkpt lat="48.7908" lon="2.0715">
        <ele>195.28</ele>
        <time>2017-01-14T15:36:48Z</time>
      </trkpt>
      <trkpt lat="48.79083" lon="2.07142">
        <ele>195.28</ele>
        <time>2017-01-14T15:36:54Z</time>
      </trkpt>
      <trkpt lat="48.79084" lon="2.07139">
        <ele>195.28</ele>
        <time>2017-01-14T15:36:56Z</time>
      </trkpt>
      <trkpt lat="48.79088" lon="2.07125">
        <ele>195.28</ele>
        <time>2017-01-14T15:37:04Z</time>
      </trkpt>
      <trkpt lat="48.7909" lon="2.07114">
        <ele>195.28</ele>
        <time>2017-01-14T15:37:11Z</time>
      </trkpt>
      <trkpt lat="48.79092" lon="2.07108">
        <ele>195.28</ele>
        <time>2017-01-14T15:37:16Z</time>
      </trkpt>
      <trkpt lat="48.79095" lon="2.07096">
        <ele>195.28</ele>
        <time>2017-01-14T15:37:22Z</time>
      </trkpt>
      <trkpt lat="48.79096" lon="2.07092">
        <ele>195.28</ele>
        <time>2017-01-14T15:37:24Z</time>
      </trkpt>
      <trkpt lat="48.79097" lon="2.07087">
        <ele>195.28</ele>
        <time>2017-01-14T15:37:27Z</time>
      </trkpt>
      <trkpt lat="48.791" lon="2.07073">
        <ele>196.25</ele>
        <time>2017-01-14T15:37:34Z</time>
      </trkpt>
      <trkpt lat="48.79099" lon="2.07071">
        <ele>195.77</ele>
        <time>2017-01-14T15:37:39Z</time>
      </trkpt>
      <trkpt lat="48.79098" lon="2.07073">
        <ele>195.77</ele>
        <time>2017-01-14T15:37:53Z</time>
      </trkpt>
      <trkpt lat="48.79099" lon="2.07075">
        <ele>195.77</ele>
        <time>2017-01-14T15:38:05Z</time>
      </trkpt>
      <trkpt lat="48.791" lon="2.07074">
        <ele>195.28</ele>
        <time>2017-01-14T15:38:08Z</time>
      </trkpt>
      <trkpt lat="48.79101" lon="2.07075">
        <ele>194.8</ele>
        <time>2017-01-14T15:38:10Z</time>
      </trkpt>
      <trkpt lat="48.79103" lon="2.07075">
        <ele>194.8</ele>
        <time>2017-01-14T15:38:12Z</time>
      </trkpt>
      <trkpt lat="48.79111" lon="2.07072">
        <ele>194.8</ele>
        <time>2017-01-14T15:38:17Z</time>
      </trkpt>
      <trkpt lat="48.79122" lon="2.07075">
        <ele>194.8</ele>
        <time>2017-01-14T15:38:25Z</time>
      </trkpt>
      <trkpt lat="48.79124" lon="2.07077">
        <ele>194.8</ele>
        <time>2017-01-14T15:38:27Z</time>
      </trkpt>
      <trkpt lat="48.79135" lon="2.07077">
        <ele>195.77</ele>
        <time>2017-01-14T15:38:34Z</time>
      </trkpt>
      <trkpt lat="48.79145" lon="2.07079">
        <ele>194.8</ele>
        <time>2017-01-14T15:38:39Z</time>
      </trkpt>
      <trkpt lat="48.7916" lon="2.07082">
        <ele>194.8</ele>
        <time>2017-01-14T15:38:47Z</time>
      </trkpt>
      <trkpt lat="48.7917" lon="2.07084">
        <ele>194.32</ele>
        <time>2017-01-14T15:38:54Z</time>
      </trkpt>
      <trkpt lat="48.79179" lon="2.0709">
        <ele>194.32</ele>
        <time>2017-01-14T15:39:01Z</time>
      </trkpt>
      <trkpt lat="48.79189" lon="2.07096">
        <ele>194.32</ele>
        <time>2017-01-14T15:39:09Z</time>
      </trkpt>
      <trkpt lat="48.79191" lon="2.07098">
        <ele>194.32</ele>
        <time>2017-01-14T15:39:11Z</time>
      </trkpt>
      <trkpt lat="48.79198" lon="2.07097">
        <ele>193.84</ele>
        <time>2017-01-14T15:39:17Z</time>
      </trkpt>
      <trkpt lat="48.79202" lon="2.07081">
        <ele>193.84</ele>
        <time>2017-01-14T15:39:24Z</time>
      </trkpt>
      <trkpt lat="48.79206" lon="2.0706">
        <ele>193.84</ele>
        <time>2017-01-14T15:39:33Z</time>
      </trkpt>
      <trkpt lat="48.79211" lon="2.07043">
        <ele>193.84</ele>
        <time>2017-01-14T15:39:41Z</time>
      </trkpt>
      <trkpt lat="48.79214" lon="2.07025">
        <ele>193.36</ele>
        <time>2017-01-14T15:39:49Z</time>
      </trkpt>
      <trkpt lat="48.79214" lon="2.07023">
        <ele>193.36</ele>
        <time>2017-01-14T15:39:50Z</time>
      </trkpt>
      <trkpt lat="48.79217" lon="2.07007">
        <ele>193.36</ele>
        <time>2017-01-14T15:39:57Z</time>
      </trkpt>
      <trkpt lat="48.79219" lon="2.07">
        <ele>192.88</ele>
        <time>2017-01-14T15:40:00Z</time>
      </trkpt>
      <trkpt lat="48.79222" lon="2.06986">
        <ele>192.88</ele>
        <time>2017-01-14T15:40:06Z</time>
      </trkpt>
      <trkpt lat="48.79226" lon="2.06975">
        <ele>192.88</ele>
        <time>2017-01-14T15:40:11Z</time>
      </trkpt>
      <trkpt lat="48.79227" lon="2.06967">
        <ele>192.4</ele>
        <time>2017-01-14T15:40:15Z</time>
      </trkpt>
      <trkpt lat="48.79228" lon="2.06964">
        <ele>192.4</ele>
        <time>2017-01-14T15:40:17Z</time>
      </trkpt>
      <trkpt lat="48.79231" lon="2.0694">
        <ele>192.4</ele>
        <time>2017-01-14T15:40:28Z</time>
      </trkpt>
      <trkpt lat="48.79236" lon="2.06918">
        <ele>191.92</ele>
        <time>2017-01-14T15:40:38Z</time>
      </trkpt>
      <trkpt lat="48.79239" lon="2.06898">
        <ele>191.92</ele>
        <time>2017-01-14T15:40:47Z</time>
      </trkpt>
      <trkpt lat="48.79243" lon="2.06879">
        <ele>191.92</ele>
        <time>2017-01-14T15:40:56Z</time>
      </trkpt>
      <trkpt lat="48.79247" lon="2.0686">
        <ele>191.44</ele>
        <time>2017-01-14T15:41:05Z</time>
      </trkpt>
      <trkpt lat="48.79249" lon="2.06844">
        <ele>190.96</ele>
        <time>2017-01-14T15:41:14Z</time>
      </trkpt>
      <trkpt lat="48.79251" lon="2.06827">
        <ele>190.96</ele>
        <time>2017-01-14T15:41:23Z</time>
      </trkpt>
      <trkpt lat="48.79254" lon="2.0681">
        <ele>190.48</ele>
        <time>2017-01-14T15:41:32Z</time>
      </trkpt>
      <trkpt lat="48.79257" lon="2.06789">
        <ele>190.48</ele>
        <time>2017-01-14T15:41:43Z</time>
      </trkpt>
      <trkpt lat="48.79259" lon="2.06773">
        <ele>190</ele>
        <time>2017-01-14T15:41:51Z</time>
      </trkpt>
      <trkpt lat="48.79262" lon="2.06757">
        <ele>190</ele>
        <time>2017-01-14T15:41:59Z</time>
      </trkpt>
      <trkpt lat="48.79266" lon="2.06736">
        <ele>190</ele>
        <time>2017-01-14T15:42:09Z</time>
      </trkpt>
      <trkpt lat="48.79268" lon="2.0672">
        <ele>189.52</ele>
        <time>2017-01-14T15:42:18Z</time>
      </trkpt>
      <trkpt lat="48.7927" lon="2.06705">
        <ele>190</ele>
        <time>2017-01-14T15:42:25Z</time>
      </trkpt>
      <trkpt lat="48.79273" lon="2.06693">
        <ele>190</ele>
        <time>2017-01-14T15:42:32Z</time>
      </trkpt>
      <trkpt lat="48.79273" lon="2.06688">
        <ele>190.96</ele>
        <time>2017-01-14T15:42:35Z</time>
      </trkpt>
      <trkpt lat="48.79276" lon="2.0668">
        <ele>189.52</ele>
        <time>2017-01-14T15:42:43Z</time>
      </trkpt>
      <trkpt lat="48.79277" lon="2.06679">
        <ele>190</ele>
        <time>2017-01-14T15:42:47Z</time>
      </trkpt>
      <trkpt lat="48.7928" lon="2.06677">
        <ele>189.52</ele>
        <time>2017-01-14T15:42:50Z</time>
      </trkpt>
      <trkpt lat="48.79283" lon="2.06676">
        <ele>189.52</ele>
        <time>2017-01-14T15:42:53Z</time>
      </trkpt>
      <trkpt lat="48.79292" lon="2.06678">
        <ele>189.52</ele>
        <time>2017-01-14T15:43:01Z</time>
      </trkpt>
      <trkpt lat="48.79295" lon="2.0668">
        <ele>189.52</ele>
        <time>2017-01-14T15:43:04Z</time>
      </trkpt>
      <trkpt lat="48.79298" lon="2.06682">
        <ele>189.52</ele>
        <time>2017-01-14T15:43:07Z</time>
      </trkpt>
      <trkpt lat="48.79307" lon="2.06684">
        <ele>189.52</ele>
        <time>2017-01-14T15:43:15Z</time>
      </trkpt>
      <trkpt lat="48.79318" lon="2.06687">
        <ele>189.52</ele>
        <time>2017-01-14T15:43:23Z</time>
      </trkpt>
      <trkpt lat="48.79328" lon="2.06689">
        <ele>189.04</ele>
        <time>2017-01-14T15:43:32Z</time>
      </trkpt>
      <trkpt lat="48.79338" lon="2.06694">
        <ele>189.04</ele>
        <time>2017-01-14T15:43:41Z</time>
      </trkpt>
      <trkpt lat="48.79343" lon="2.06696">
        <ele>189.04</ele>
        <time>2017-01-14T15:43:46Z</time>
      </trkpt>
      <trkpt lat="48.79351" lon="2.06699">
        <ele>189.04</ele>
        <time>2017-01-14T15:43:53Z</time>
      </trkpt>
      <trkpt lat="48.79355" lon="2.067">
        <ele>188.56</ele>
        <time>2017-01-14T15:43:57Z</time>
      </trkpt>
      <trkpt lat="48.79363" lon="2.06703">
        <ele>189.04</ele>
        <time>2017-01-14T15:44:04Z</time>
      </trkpt>
      <trkpt lat="48.79373" lon="2.06704">
        <ele>188.56</ele>
        <time>2017-01-14T15:44:11Z</time>
      </trkpt>
      <trkpt lat="48.79381" lon="2.06709">
        <ele>188.56</ele>
        <time>2017-01-14T15:44:18Z</time>
      </trkpt>
      <trkpt lat="48.79389" lon="2.0671">
        <ele>188.56</ele>
        <time>2017-01-14T15:44:25Z</time>
      </trkpt>
      <trkpt lat="48.79391" lon="2.06711">
        <ele>188.56</ele>
        <time>2017-01-14T15:44:27Z</time>
      </trkpt>
      <trkpt lat="48.79402" lon="2.06715">
        <ele>189.04</ele>
        <time>2017-01-14T15:44:35Z</time>
      </trkpt>
      <trkpt lat="48.79403" lon="2.06716">
        <ele>188.08</ele>
        <time>2017-01-14T15:44:36Z</time>
      </trkpt>
      <trkpt lat="48.79409" lon="2.06719">
        <ele>188.08</ele>
        <time>2017-01-14T15:44:42Z</time>
      </trkpt>
      <trkpt lat="48.79409" lon="2.06719">
        <ele>188.56</ele>
        <time>2017-01-14T15:44:43Z</time>
      </trkpt>
      <trkpt lat="48.79411" lon="2.06719">
        <ele>188.08</ele>
        <time>2017-01-14T15:44:45Z</time>
      </trkpt>
      <trkpt lat="48.79416" lon="2.0672">
        <ele>188.56</ele>
        <time>2017-01-14T15:44:49Z</time>
      </trkpt>
      <trkpt lat="48.7942" lon="2.06722">
        <ele>188.08</ele>
        <time>2017-01-14T15:44:53Z</time>
      </trkpt>
      <trkpt lat="48.79431" lon="2.06724">
        <ele>188.08</ele>
        <time>2017-01-14T15:45:02Z</time>
      </trkpt>
      <trkpt lat="48.79436" lon="2.06725">
        <ele>188.08</ele>
        <time>2017-01-14T15:45:06Z</time>
      </trkpt>
      <trkpt lat="48.79442" lon="2.06728">
        <ele>188.08</ele>
        <time>2017-01-14T15:45:11Z</time>
      </trkpt>
      <trkpt lat="48.79452" lon="2.06731">
        <ele>188.08</ele>
        <time>2017-01-14T15:45:19Z</time>
      </trkpt>
      <trkpt lat="48.79459" lon="2.06735">
        <ele>188.08</ele>
        <time>2017-01-14T15:45:24Z</time>
      </trkpt>
      <trkpt lat="48.79463" lon="2.06737">
        <ele>187.59</ele>
        <time>2017-01-14T15:45:29Z</time>
      </trkpt>
      <trkpt lat="48.79467" lon="2.06737">
        <ele>188.08</ele>
        <time>2017-01-14T15:45:32Z</time>
      </trkpt>
      <trkpt lat="48.79474" lon="2.06725">
        <ele>188.08</ele>
        <time>2017-01-14T15:45:40Z</time>
      </trkpt>
      <trkpt lat="48.79474" lon="2.06714">
        <ele>188.08</ele>
        <time>2017-01-14T15:45:46Z</time>
      </trkpt>
      <trkpt lat="48.79475" lon="2.06703">
        <ele>187.59</ele>
        <time>2017-01-14T15:45:52Z</time>
      </trkpt>
      <trkpt lat="48.79478" lon="2.06687">
        <ele>187.59</ele>
        <time>2017-01-14T15:46:00Z</time>
      </trkpt>
      <trkpt lat="48.79479" lon="2.06685">
        <ele>187.59</ele>
        <time>2017-01-14T15:46:01Z</time>
      </trkpt>
      <trkpt lat="48.79484" lon="2.0667">
        <ele>187.59</ele>
        <time>2017-01-14T15:46:09Z</time>
      </trkpt>
      <trkpt lat="48.79484" lon="2.06667">
        <ele>187.59</ele>
        <time>2017-01-14T15:46:11Z</time>
      </trkpt>
      <trkpt lat="48.79487" lon="2.06657">
        <ele>187.59</ele>
        <time>2017-01-14T15:46:16Z</time>
      </trkpt>
      <trkpt lat="48.79488" lon="2.06653">
        <ele>187.11</ele>
        <time>2017-01-14T15:46:18Z</time>
      </trkpt>
      <trkpt lat="48.7949" lon="2.06643">
        <ele>187.11</ele>
        <time>2017-01-14T15:46:24Z</time>
      </trkpt>
      <trkpt lat="48.79491" lon="2.0664">
        <ele>187.11</ele>
        <time>2017-01-14T15:46:26Z</time>
      </trkpt>
      <trkpt lat="48.79489" lon="2.06632">
        <ele>187.11</ele>
        <time>2017-01-14T15:46:33Z</time>
      </trkpt>
      <trkpt lat="48.79489" lon="2.06616">
        <ele>187.11</ele>
        <time>2017-01-14T15:46:42Z</time>
      </trkpt>
      <trkpt lat="48.79494" lon="2.066">
        <ele>186.63</ele>
        <time>2017-01-14T15:46:50Z</time>
      </trkpt>
      <trkpt lat="48.79497" lon="2.06586">
        <ele>187.11</ele>
        <time>2017-01-14T15:46:57Z</time>
      </trkpt>
      <trkpt lat="48.79497" lon="2.06584">
        <ele>186.63</ele>
        <time>2017-01-14T15:46:58Z</time>
      </trkpt>
      <trkpt lat="48.79497" lon="2.06573">
        <ele>186.63</ele>
        <time>2017-01-14T15:47:05Z</time>
      </trkpt>
      <trkpt lat="48.79498" lon="2.06566">
        <ele>186.63</ele>
        <time>2017-01-14T15:47:09Z</time>
      </trkpt>
      <trkpt lat="48.79499" lon="2.06551">
        <ele>186.15</ele>
        <time>2017-01-14T15:47:17Z</time>
      </trkpt>
      <trkpt lat="48.79501" lon="2.06546">
        <ele>186.15</ele>
        <time>2017-01-14T15:47:20Z</time>
      </trkpt>
      <trkpt lat="48.79502" lon="2.0654">
        <ele>186.15</ele>
        <time>2017-01-14T15:47:23Z</time>
      </trkpt>
      <trkpt lat="48.79504" lon="2.06525">
        <ele>186.15</ele>
        <time>2017-01-14T15:47:31Z</time>
      </trkpt>
      <trkpt lat="48.79505" lon="2.06515">
        <ele>186.15</ele>
        <time>2017-01-14T15:47:36Z</time>
      </trkpt>
      <trkpt lat="48.79505" lon="2.06509">
        <ele>186.15</ele>
        <time>2017-01-14T15:47:40Z</time>
      </trkpt>
      <trkpt lat="48.79505" lon="2.06503">
        <ele>186.15</ele>
        <time>2017-01-14T15:47:43Z</time>
      </trkpt>
      <trkpt lat="48.79507" lon="2.06486">
        <ele>186.15</ele>
        <time>2017-01-14T15:47:51Z</time>
      </trkpt>
      <trkpt lat="48.79508" lon="2.06468">
        <ele>186.63</ele>
        <time>2017-01-14T15:48:00Z</time>
      </trkpt>
      <trkpt lat="48.79508" lon="2.06464">
        <ele>186.63</ele>
        <time>2017-01-14T15:48:02Z</time>
      </trkpt>
      <trkpt lat="48.79509" lon="2.06453">
        <ele>186.63</ele>
        <time>2017-01-14T15:48:08Z</time>
      </trkpt>
      <trkpt lat="48.79508" lon="2.06446">
        <ele>187.11</ele>
        <time>2017-01-14T15:48:14Z</time>
      </trkpt>
      <trkpt lat="48.79506" lon="2.06443">
        <ele>186.63</ele>
        <time>2017-01-14T15:48:16Z</time>
      </trkpt>
      <trkpt lat="48.79503" lon="2.06439">
        <ele>186.63</ele>
        <time>2017-01-14T15:48:19Z</time>
      </trkpt>
      <trkpt lat="48.795" lon="2.0643">
        <ele>186.63</ele>
        <time>2017-01-14T15:48:24Z</time>
      </trkpt>
      <trkpt lat="48.79497" lon="2.06415">
        <ele>186.63</ele>
        <time>2017-01-14T15:48:31Z</time>
      </trkpt>
      <trkpt lat="48.79492" lon="2.06405">
        <ele>187.11</ele>
        <time>2017-01-14T15:48:39Z</time>
      </trkpt>
      <trkpt lat="48.7949" lon="2.06401">
        <ele>187.11</ele>
        <time>2017-01-14T15:48:44Z</time>
      </trkpt>
      <trkpt lat="48.79481" lon="2.06397">
        <ele>187.11</ele>
        <time>2017-01-14T15:48:51Z</time>
      </trkpt>
      <trkpt lat="48.79473" lon="2.06392">
        <ele>186.63</ele>
        <time>2017-01-14T15:48:58Z</time>
      </trkpt>
      <trkpt lat="48.79466" lon="2.06389">
        <ele>186.63</ele>
        <time>2017-01-14T15:49:05Z</time>
      </trkpt>
      <trkpt lat="48.79458" lon="2.06386">
        <ele>186.63</ele>
        <time>2017-01-14T15:49:13Z</time>
      </trkpt>
      <trkpt lat="48.79448" lon="2.06381">
        <ele>186.63</ele>
        <time>2017-01-14T15:49:21Z</time>
      </trkpt>
      <trkpt lat="48.79447" lon="2.06374">
        <ele>186.15</ele>
        <time>2017-01-14T15:49:27Z</time>
      </trkpt>
      <trkpt lat="48.79437" lon="2.06368">
        <ele>185.67</ele>
        <time>2017-01-14T15:49:34Z</time>
      </trkpt>
      <trkpt lat="48.79435" lon="2.06367">
        <ele>186.15</ele>
        <time>2017-01-14T15:49:36Z</time>
      </trkpt>
      <trkpt lat="48.79431" lon="2.06366">
        <ele>185.67</ele>
        <time>2017-01-14T15:49:38Z</time>
      </trkpt>
      <trkpt lat="48.79423" lon="2.06362">
        <ele>186.15</ele>
        <time>2017-01-14T15:49:45Z</time>
      </trkpt>
      <trkpt lat="48.79417" lon="2.0636">
        <ele>186.15</ele>
        <time>2017-01-14T15:49:54Z</time>
      </trkpt>
    </trkseg>
  </trk>
</gpx>